<?xml version="1.0" encoding="UTF-8" standalone="no" ?>
<gpx xmlns="http://www.topografix.com/GPX/1/1" creator="MapSource 6.16.3" version="1.1" xmlns:xsi="http://www.w3.org/2001/XMLSchema-instance" xsi:schemaLocation="http://www.topografix.com/GPX/1/1 http://www.topografix.com/GPX/1/1/gpx.xsd">

  <metadata>
    <link href="http://www.garmin.com">
      <text>Garmin International</text>
    </link>
    <time>2012-09-19T07:05:31Z</time>
    <bounds maxlat="45.63818528316915" maxlon="7.468815520405769" minlat="45.595963373780251" minlon="7.336321268230677"/>
  </metadata>

  <trk>
    <name>Untitled</name>
    <extensions>
      <gpxx:TrackExtension xmlns:gpxx="http://www.garmin.com/xmlschemas/GpxExtensions/v3">
        <gpxx:DisplayColor>Blue</gpxx:DisplayColor>
      </gpxx:TrackExtension>
    </extensions>
    <trkseg>
      <trkpt lat="45.607412802055478" lon="7.3609883710742">
        <ele>1556.800048828125</ele>
        <time>2012-08-28T07:59:07Z</time>
      </trkpt>
      <trkpt lat="45.607396205887198" lon="7.36112566664815">
        <ele>1558.5999755859375</ele>
        <time>2012-08-28T07:59:12Z</time>
      </trkpt>
      <trkpt lat="45.607376927509904" lon="7.361312666907907">
        <ele>1561</ele>
        <time>2012-08-28T07:59:17Z</time>
      </trkpt>
      <trkpt lat="45.607364438474178" lon="7.361648194491863">
        <ele>1564.199951171875</ele>
        <time>2012-08-28T07:59:24Z</time>
      </trkpt>
      <trkpt lat="45.607353458181024" lon="7.361899986863136">
        <ele>1565.4000244140625</ele>
        <time>2012-08-28T07:59:30Z</time>
      </trkpt>
      <trkpt lat="45.607307106256485" lon="7.361983470618725">
        <ele>1568.4000244140625</ele>
        <time>2012-08-28T07:59:32Z</time>
      </trkpt>
      <trkpt lat="45.607254467904568" lon="7.362103583291173">
        <ele>1572</ele>
        <time>2012-08-28T07:59:35Z</time>
      </trkpt>
      <trkpt lat="45.60719839297235" lon="7.362234676256776">
        <ele>1575.5999755859375</ele>
        <time>2012-08-28T07:59:38Z</time>
      </trkpt>
      <trkpt lat="45.607179198414087" lon="7.362332828342915">
        <ele>1577</ele>
        <time>2012-08-28T07:59:40Z</time>
      </trkpt>
      <trkpt lat="45.607081213966012" lon="7.362680928781629">
        <ele>1582.199951171875</ele>
        <time>2012-08-28T07:59:46Z</time>
      </trkpt>
      <trkpt lat="45.607051374390721" lon="7.362749492749572">
        <ele>1583.5999755859375</ele>
        <time>2012-08-28T07:59:47Z</time>
      </trkpt>
      <trkpt lat="45.607001166790724" lon="7.362957531586289">
        <ele>1585.199951171875</ele>
        <time>2012-08-28T07:59:51Z</time>
      </trkpt>
      <trkpt lat="45.606946852058172" lon="7.36325416713953">
        <ele>1586.4000244140625</ele>
        <time>2012-08-28T07:59:57Z</time>
      </trkpt>
      <trkpt lat="45.606933776289225" lon="7.363548371940851">
        <ele>1586.199951171875</ele>
        <time>2012-08-28T08:00:03Z</time>
      </trkpt>
      <trkpt lat="45.60688029974699" lon="7.363789519295096">
        <ele>1588.5999755859375</ele>
        <time>2012-08-28T08:00:09Z</time>
      </trkpt>
      <trkpt lat="45.606794385239482" lon="7.364062517881393">
        <ele>1592.5999755859375</ele>
        <time>2012-08-28T08:00:15Z</time>
      </trkpt>
      <trkpt lat="45.606719953939319" lon="7.364315986633301">
        <ele>1596</ele>
        <time>2012-08-28T08:00:21Z</time>
      </trkpt>
      <trkpt lat="45.60666186735034" lon="7.364571802318096">
        <ele>1598.199951171875</ele>
        <time>2012-08-28T08:00:27Z</time>
      </trkpt>
      <trkpt lat="45.606617946177721" lon="7.364792246371508">
        <ele>1599.199951171875</ele>
        <time>2012-08-28T08:00:33Z</time>
      </trkpt>
      <trkpt lat="45.606579724699259" lon="7.364932140335441">
        <ele>1600.4000244140625</ele>
        <time>2012-08-28T08:00:37Z</time>
      </trkpt>
      <trkpt lat="45.606549046933651" lon="7.365155685693026">
        <ele>1602.199951171875</ele>
        <time>2012-08-28T08:00:43Z</time>
      </trkpt>
      <trkpt lat="45.606574108824134" lon="7.36530446447432">
        <ele>1602.199951171875</ele>
        <time>2012-08-28T08:00:48Z</time>
      </trkpt>
      <trkpt lat="45.606577545404434" lon="7.365492805838585">
        <ele>1603</ele>
        <time>2012-08-28T08:00:53Z</time>
      </trkpt>
      <trkpt lat="45.606600428000093" lon="7.365635214373469">
        <ele>1602.800048828125</ele>
        <time>2012-08-28T08:00:58Z</time>
      </trkpt>
      <trkpt lat="45.606624484062195" lon="7.365823555737734">
        <ele>1602.800048828125</ele>
        <time>2012-08-28T08:01:04Z</time>
      </trkpt>
      <trkpt lat="45.606652311980724" lon="7.365873930975795">
        <ele>1602</ele>
        <time>2012-08-28T08:01:06Z</time>
      </trkpt>
      <trkpt lat="45.606706459075212" lon="7.365969736129046">
        <ele>1600</ele>
        <time>2012-08-28T08:01:09Z</time>
      </trkpt>
      <trkpt lat="45.606789859011769" lon="7.366162771359086">
        <ele>1597.199951171875</ele>
        <time>2012-08-28T08:01:14Z</time>
      </trkpt>
      <trkpt lat="45.606849119067192" lon="7.366343904286623">
        <ele>1595.4000244140625</ele>
        <time>2012-08-28T08:01:19Z</time>
      </trkpt>
      <trkpt lat="45.606907205656171" lon="7.366564348340035">
        <ele>1594</ele>
        <time>2012-08-28T08:01:24Z</time>
      </trkpt>
      <trkpt lat="45.606878707185388" lon="7.366727879270911">
        <ele>1596.4000244140625</ele>
        <time>2012-08-28T08:01:28Z</time>
      </trkpt>
      <trkpt lat="45.606877282261848" lon="7.3669702000916">
        <ele>1596.800048828125</ele>
        <time>2012-08-28T08:01:33Z</time>
      </trkpt>
      <trkpt lat="45.606877198442817" lon="7.367228697985411">
        <ele>1597.199951171875</ele>
        <time>2012-08-28T08:01:38Z</time>
      </trkpt>
      <trkpt lat="45.606838222593069" lon="7.367380913347006">
        <ele>1599.4000244140625</ele>
        <time>2012-08-28T08:01:42Z</time>
      </trkpt>
      <trkpt lat="45.606836713850498" lon="7.367434138432145">
        <ele>1599.5999755859375</ele>
        <time>2012-08-28T08:01:43Z</time>
      </trkpt>
      <trkpt lat="45.606844760477543" lon="7.367577385157347">
        <ele>1598.800048828125</ele>
        <time>2012-08-28T08:01:46Z</time>
      </trkpt>
      <trkpt lat="45.6068832334131" lon="7.367630107328296">
        <ele>1596.5999755859375</ele>
        <time>2012-08-28T08:01:48Z</time>
      </trkpt>
      <trkpt lat="45.606885077431798" lon="7.367858178913593">
        <ele>1595.199951171875</ele>
        <time>2012-08-28T08:01:54Z</time>
      </trkpt>
      <trkpt lat="45.606860937550664" lon="7.368133021518588">
        <ele>1594.5999755859375</ele>
        <time>2012-08-28T08:02:00Z</time>
      </trkpt>
      <trkpt lat="45.606817435473204" lon="7.368302755057812">
        <ele>1595.199951171875</ele>
        <time>2012-08-28T08:02:04Z</time>
      </trkpt>
      <trkpt lat="45.606756247580051" lon="7.368485229089856">
        <ele>1594.199951171875</ele>
        <time>2012-08-28T08:02:08Z</time>
      </trkpt>
      <trkpt lat="45.606683073565364" lon="7.368755377829075">
        <ele>1590.199951171875</ele>
        <time>2012-08-28T08:02:14Z</time>
      </trkpt>
      <trkpt lat="45.606639571487904" lon="7.368918573483825">
        <ele>1587.800048828125</ele>
        <time>2012-08-28T08:02:19Z</time>
      </trkpt>
      <trkpt lat="45.606559105217457" lon="7.369118984788656">
        <ele>1586.4000244140625</ele>
        <time>2012-08-28T08:02:25Z</time>
      </trkpt>
      <trkpt lat="45.606459779664874" lon="7.369270781055093">
        <ele>1588</ele>
        <time>2012-08-28T08:02:30Z</time>
      </trkpt>
      <trkpt lat="45.60633153654635" lon="7.369464235380292">
        <ele>1589</ele>
        <time>2012-08-28T08:02:35Z</time>
      </trkpt>
      <trkpt lat="45.606206143274903" lon="7.369623072445393">
        <ele>1589.199951171875</ele>
        <time>2012-08-28T08:02:40Z</time>
      </trkpt>
      <trkpt lat="45.606087204068899" lon="7.369762547314167">
        <ele>1588.4000244140625</ele>
        <time>2012-08-28T08:02:44Z</time>
      </trkpt>
      <trkpt lat="45.6059196498245" lon="7.369972933083773">
        <ele>1584.800048828125</ele>
        <time>2012-08-28T08:02:50Z</time>
      </trkpt>
      <trkpt lat="45.605789143592119" lon="7.370047364383936">
        <ele>1585.800048828125</ele>
        <time>2012-08-28T08:02:56Z</time>
      </trkpt>
      <trkpt lat="45.605615470558405" lon="7.370163453742862">
        <ele>1589.199951171875</ele>
        <time>2012-08-28T08:03:02Z</time>
      </trkpt>
      <trkpt lat="45.605402570217848" lon="7.370203016325831">
        <ele>1594.800048828125</ele>
        <time>2012-08-28T08:03:07Z</time>
      </trkpt>
      <trkpt lat="45.605256725102663" lon="7.370261522009969">
        <ele>1597.5999755859375</ele>
        <time>2012-08-28T08:03:11Z</time>
      </trkpt>
      <trkpt lat="45.605080872774124" lon="7.370403595268726">
        <ele>1598.4000244140625</ele>
        <time>2012-08-28T08:03:16Z</time>
      </trkpt>
      <trkpt lat="45.604994958266616" lon="7.370607275515795">
        <ele>1594.199951171875</ele>
        <time>2012-08-28T08:03:21Z</time>
      </trkpt>
      <trkpt lat="45.604942487552762" lon="7.370717246085405">
        <ele>1592.5999755859375</ele>
        <time>2012-08-28T08:03:24Z</time>
      </trkpt>
      <trkpt lat="45.604923125356436" lon="7.370760245248675">
        <ele>1592</ele>
        <time>2012-08-28T08:03:25Z</time>
      </trkpt>
      <trkpt lat="45.604792032390833" lon="7.370928302407265">
        <ele>1592.800048828125</ele>
        <time>2012-08-28T08:03:29Z</time>
      </trkpt>
      <trkpt lat="45.604691952466965" lon="7.371111530810595">
        <ele>1592.800048828125</ele>
        <time>2012-08-28T08:03:33Z</time>
      </trkpt>
      <trkpt lat="45.604583490639925" lon="7.371247233822942">
        <ele>1594</ele>
        <time>2012-08-28T08:03:36Z</time>
      </trkpt>
      <trkpt lat="45.604539988562465" lon="7.371352007612586">
        <ele>1593.5999755859375</ele>
        <time>2012-08-28T08:03:38Z</time>
      </trkpt>
      <trkpt lat="45.604461366310716" lon="7.371428702026606">
        <ele>1594.800048828125</ele>
        <time>2012-08-28T08:03:40Z</time>
      </trkpt>
      <trkpt lat="45.604377798736095" lon="7.371588544920087">
        <ele>1594.800048828125</ele>
        <time>2012-08-28T08:03:43Z</time>
      </trkpt>
      <trkpt lat="45.604190966114402" lon="7.371830949559808">
        <ele>1595.800048828125</ele>
        <time>2012-08-28T08:03:48Z</time>
      </trkpt>
      <trkpt lat="45.604085940867662" lon="7.371998000890017">
        <ele>1596.199951171875</ele>
        <time>2012-08-28T08:03:52Z</time>
      </trkpt>
      <trkpt lat="45.604061046615243" lon="7.372052567079663">
        <ele>1596.199951171875</ele>
        <time>2012-08-28T08:03:53Z</time>
      </trkpt>
      <trkpt lat="45.604004552587867" lon="7.372131105512381">
        <ele>1597.4000244140625</ele>
        <time>2012-08-28T08:03:55Z</time>
      </trkpt>
      <trkpt lat="45.604005474597216" lon="7.372224982827902">
        <ele>1595.199951171875</ele>
        <time>2012-08-28T08:03:57Z</time>
      </trkpt>
      <trkpt lat="45.603933893144131" lon="7.372502004727721">
        <ele>1593</ele>
        <time>2012-08-28T08:04:02Z</time>
      </trkpt>
      <trkpt lat="45.603859797120094" lon="7.372769806534052">
        <ele>1594.800048828125</ele>
        <time>2012-08-28T08:04:08Z</time>
      </trkpt>
      <trkpt lat="45.603746473789215" lon="7.373033920302987">
        <ele>1597.800048828125</ele>
        <time>2012-08-28T08:04:13Z</time>
      </trkpt>
      <trkpt lat="45.603579757735133" lon="7.373445136472583">
        <ele>1599.5999755859375</ele>
        <time>2012-08-28T08:04:20Z</time>
      </trkpt>
      <trkpt lat="45.603445814922452" lon="7.373703802004457">
        <ele>1599</ele>
        <time>2012-08-28T08:04:25Z</time>
      </trkpt>
      <trkpt lat="45.603405414149165" lon="7.373806480318308">
        <ele>1597.4000244140625</ele>
        <time>2012-08-28T08:04:27Z</time>
      </trkpt>
      <trkpt lat="45.603358140215278" lon="7.373898513615131">
        <ele>1595.5999755859375</ele>
        <time>2012-08-28T08:04:29Z</time>
      </trkpt>
      <trkpt lat="45.603263257071376" lon="7.374066151678562">
        <ele>1595</ele>
        <time>2012-08-28T08:04:33Z</time>
      </trkpt>
      <trkpt lat="45.603090757504106" lon="7.374329511076212">
        <ele>1600</ele>
        <time>2012-08-28T08:04:40Z</time>
      </trkpt>
      <trkpt lat="45.603034347295761" lon="7.374458676204085">
        <ele>1601.199951171875</ele>
        <time>2012-08-28T08:04:44Z</time>
      </trkpt>
      <trkpt lat="45.602880958467722" lon="7.374725639820099">
        <ele>1604.4000244140625</ele>
        <time>2012-08-28T08:04:51Z</time>
      </trkpt>
      <trkpt lat="45.602789679542184" lon="7.374983718618751">
        <ele>1603.800048828125</ele>
        <time>2012-08-28T08:04:57Z</time>
      </trkpt>
      <trkpt lat="45.602635033428669" lon="7.375245485454798">
        <ele>1604.800048828125</ele>
        <time>2012-08-28T08:05:03Z</time>
      </trkpt>
      <trkpt lat="45.602447111159563" lon="7.375554861500859">
        <ele>1602.5999755859375</ele>
        <time>2012-08-28T08:05:10Z</time>
      </trkpt>
      <trkpt lat="45.602329093962908" lon="7.375709088519216">
        <ele>1601.4000244140625</ele>
        <time>2012-08-28T08:05:15Z</time>
      </trkpt>
      <trkpt lat="45.602305624634027" lon="7.375781089067459">
        <ele>1600</ele>
        <time>2012-08-28T08:05:18Z</time>
      </trkpt>
      <trkpt lat="45.60229355469346" lon="7.37581486813724">
        <ele>1599.4000244140625</ele>
        <time>2012-08-28T08:05:19Z</time>
      </trkpt>
      <trkpt lat="45.602203365415335" lon="7.37608359195292">
        <ele>1597</ele>
        <time>2012-08-28T08:05:24Z</time>
      </trkpt>
      <trkpt lat="45.602125581353903" lon="7.376366062089801">
        <ele>1594</ele>
        <time>2012-08-28T08:05:30Z</time>
      </trkpt>
      <trkpt lat="45.602049641311169" lon="7.376626739278436">
        <ele>1590.800048828125</ele>
        <time>2012-08-28T08:05:36Z</time>
      </trkpt>
      <trkpt lat="45.601948890835047" lon="7.376880878582597">
        <ele>1590.199951171875</ele>
        <time>2012-08-28T08:05:42Z</time>
      </trkpt>
      <trkpt lat="45.601869095116854" lon="7.377100568264723">
        <ele>1589.800048828125</ele>
        <time>2012-08-28T08:05:48Z</time>
      </trkpt>
      <trkpt lat="45.601818803697824" lon="7.377273151651025">
        <ele>1589.4000244140625</ele>
        <time>2012-08-28T08:05:52Z</time>
      </trkpt>
      <trkpt lat="45.601712688803673" lon="7.377444980666041">
        <ele>1589.800048828125</ele>
        <time>2012-08-28T08:05:57Z</time>
      </trkpt>
      <trkpt lat="45.601585870608687" lon="7.377594010904431">
        <ele>1590.5999755859375</ele>
        <time>2012-08-28T08:06:02Z</time>
      </trkpt>
      <trkpt lat="45.601425105705857" lon="7.377765001729131">
        <ele>1591.199951171875</ele>
        <time>2012-08-28T08:06:08Z</time>
      </trkpt>
      <trkpt lat="45.601257383823395" lon="7.377782436087728">
        <ele>1592.5999755859375</ele>
        <time>2012-08-28T08:06:13Z</time>
      </trkpt>
      <trkpt lat="45.601142970845103" lon="7.377728456631303">
        <ele>1594</ele>
        <time>2012-08-28T08:06:17Z</time>
      </trkpt>
      <trkpt lat="45.60091020539403" lon="7.37765109166503">
        <ele>1597.199951171875</ele>
        <time>2012-08-28T08:06:24Z</time>
      </trkpt>
      <trkpt lat="45.600656485185027" lon="7.377567691728473">
        <ele>1602.4000244140625</ele>
        <time>2012-08-28T08:06:31Z</time>
      </trkpt>
      <trkpt lat="45.60047292150557" lon="7.377564506605268">
        <ele>1606</ele>
        <time>2012-08-28T08:06:37Z</time>
      </trkpt>
      <trkpt lat="45.600281395018101" lon="7.37756852991879">
        <ele>1609.5999755859375</ele>
        <time>2012-08-28T08:06:43Z</time>
      </trkpt>
      <trkpt lat="45.600094478577375" lon="7.377626951783896">
        <ele>1611.5999755859375</ele>
        <time>2012-08-28T08:06:49Z</time>
      </trkpt>
      <trkpt lat="45.599845116958022" lon="7.377705993130803">
        <ele>1614.5999755859375</ele>
        <time>2012-08-28T08:06:55Z</time>
      </trkpt>
      <trkpt lat="45.599692985415459" lon="7.377814622595906">
        <ele>1614.800048828125</ele>
        <time>2012-08-28T08:06:59Z</time>
      </trkpt>
      <trkpt lat="45.599594078958035" lon="7.377893580123782">
        <ele>1614.5999755859375</ele>
        <time>2012-08-28T08:07:02Z</time>
      </trkpt>
      <trkpt lat="45.599529622122645" lon="7.377938255667687">
        <ele>1614.4000244140625</ele>
        <time>2012-08-28T08:07:04Z</time>
      </trkpt>
      <trkpt lat="45.599472038447857" lon="7.378047304227948">
        <ele>1612</ele>
        <time>2012-08-28T08:07:08Z</time>
      </trkpt>
      <trkpt lat="45.599432392045856" lon="7.378146462142468">
        <ele>1609.5999755859375</ele>
        <time>2012-08-28T08:07:10Z</time>
      </trkpt>
      <trkpt lat="45.599330887198448" lon="7.378287613391876">
        <ele>1606.5999755859375</ele>
        <time>2012-08-28T08:07:13Z</time>
      </trkpt>
      <trkpt lat="45.59919023886323" lon="7.378504034131765">
        <ele>1605</ele>
        <time>2012-08-28T08:07:17Z</time>
      </trkpt>
      <trkpt lat="45.599141791462898" lon="7.378565892577171">
        <ele>1605</ele>
        <time>2012-08-28T08:07:18Z</time>
      </trkpt>
      <trkpt lat="45.59893811121583" lon="7.378817182034254">
        <ele>1605.4000244140625</ele>
        <time>2012-08-28T08:07:23Z</time>
      </trkpt>
      <trkpt lat="45.598805006593466" lon="7.378967637196183">
        <ele>1605.5999755859375</ele>
        <time>2012-08-28T08:07:27Z</time>
      </trkpt>
      <trkpt lat="45.598753960803151" lon="7.379046594724059">
        <ele>1605.4000244140625</ele>
        <time>2012-08-28T08:07:29Z</time>
      </trkpt>
      <trkpt lat="45.598673326894641" lon="7.379175340756774">
        <ele>1605</ele>
        <time>2012-08-28T08:07:32Z</time>
      </trkpt>
      <trkpt lat="45.598654802888632" lon="7.379305176436901">
        <ele>1604.5999755859375</ele>
        <time>2012-08-28T08:07:35Z</time>
      </trkpt>
      <trkpt lat="45.598720852285624" lon="7.379479352384806">
        <ele>1602.5999755859375</ele>
        <time>2012-08-28T08:07:39Z</time>
      </trkpt>
      <trkpt lat="45.598739963024855" lon="7.379505839198828">
        <ele>1602.199951171875</ele>
        <time>2012-08-28T08:07:40Z</time>
      </trkpt>
      <trkpt lat="45.59886091388762" lon="7.379582952708006">
        <ele>1600.5999755859375</ele>
        <time>2012-08-28T08:07:44Z</time>
      </trkpt>
      <trkpt lat="45.59899628162384" lon="7.379681440070272">
        <ele>1599.4000244140625</ele>
        <time>2012-08-28T08:07:49Z</time>
      </trkpt>
      <trkpt lat="45.599021427333355" lon="7.379747238010168">
        <ele>1599.4000244140625</ele>
        <time>2012-08-28T08:07:51Z</time>
      </trkpt>
      <trkpt lat="45.598976165056229" lon="7.37983382306993">
        <ele>1599.800048828125</ele>
        <time>2012-08-28T08:07:53Z</time>
      </trkpt>
      <trkpt lat="45.598880778998137" lon="7.380066588521004">
        <ele>1599.800048828125</ele>
        <time>2012-08-28T08:07:58Z</time>
      </trkpt>
      <trkpt lat="45.598680283874273" lon="7.380528263747692">
        <ele>1597.5999755859375</ele>
        <time>2012-08-28T08:08:08Z</time>
      </trkpt>
      <trkpt lat="45.598529493436217" lon="7.380970744416118">
        <ele>1595.199951171875</ele>
        <time>2012-08-28T08:08:17Z</time>
      </trkpt>
      <trkpt lat="45.598428407683969" lon="7.381533673033118">
        <ele>1595</ele>
        <time>2012-08-28T08:08:28Z</time>
      </trkpt>
      <trkpt lat="45.598394125699997" lon="7.382001131772995">
        <ele>1596.199951171875</ele>
        <time>2012-08-28T08:08:37Z</time>
      </trkpt>
      <trkpt lat="45.598319107666612" lon="7.382543524727225">
        <ele>1597</ele>
        <time>2012-08-28T08:08:48Z</time>
      </trkpt>
      <trkpt lat="45.598242748528719" lon="7.383052557706833">
        <ele>1598.199951171875</ele>
        <time>2012-08-28T08:08:59Z</time>
      </trkpt>
      <trkpt lat="45.598191367462277" lon="7.383532840758562">
        <ele>1598.800048828125</ele>
        <time>2012-08-28T08:09:09Z</time>
      </trkpt>
      <trkpt lat="45.598107883706689" lon="7.38409317098558">
        <ele>1599.199951171875</ele>
        <time>2012-08-28T08:09:20Z</time>
      </trkpt>
      <trkpt lat="45.597951477393508" lon="7.384535567834973">
        <ele>1600.800048828125</ele>
        <time>2012-08-28T08:09:30Z</time>
      </trkpt>
      <trkpt lat="45.597796244546771" lon="7.384798340499401">
        <ele>1600.199951171875</ele>
        <time>2012-08-28T08:09:37Z</time>
      </trkpt>
      <trkpt lat="45.597451999783516" lon="7.385286334902048">
        <ele>1597.5999755859375</ele>
        <time>2012-08-28T08:09:50Z</time>
      </trkpt>
      <trkpt lat="45.597232477739453" lon="7.385680703446269">
        <ele>1599.4000244140625</ele>
        <time>2012-08-28T08:09:59Z</time>
      </trkpt>
      <trkpt lat="45.59703097678721" lon="7.386185545474291">
        <ele>1602</ele>
        <time>2012-08-28T08:10:09Z</time>
      </trkpt>
      <trkpt lat="45.59683601371944" lon="7.386702625080943">
        <ele>1603.5999755859375</ele>
        <time>2012-08-28T08:10:19Z</time>
      </trkpt>
      <trkpt lat="45.596631495282054" lon="7.387251723557711">
        <ele>1603.800048828125</ele>
        <time>2012-08-28T08:10:30Z</time>
      </trkpt>
      <trkpt lat="45.596407866105437" lon="7.387858740985394">
        <ele>1606</ele>
        <time>2012-08-28T08:10:42Z</time>
      </trkpt>
      <trkpt lat="45.596327651292086" lon="7.38813366740942">
        <ele>1606.199951171875</ele>
        <time>2012-08-28T08:10:49Z</time>
      </trkpt>
      <trkpt lat="45.596350030973554" lon="7.388329384848476">
        <ele>1606.800048828125</ele>
        <time>2012-08-28T08:10:56Z</time>
      </trkpt>
      <trkpt lat="45.596401914954185" lon="7.388474140316248">
        <ele>1609</ele>
        <time>2012-08-28T08:11:02Z</time>
      </trkpt>
      <trkpt lat="45.596426809206605" lon="7.388597605749965">
        <ele>1611.199951171875</ele>
        <time>2012-08-28T08:11:08Z</time>
      </trkpt>
      <trkpt lat="45.59646712616086" lon="7.388762980699539">
        <ele>1614</ele>
        <time>2012-08-28T08:11:15Z</time>
      </trkpt>
      <trkpt lat="45.59646762907505" lon="7.388941012322903">
        <ele>1616.800048828125</ele>
        <time>2012-08-28T08:11:22Z</time>
      </trkpt>
      <trkpt lat="45.596460169181228" lon="7.389118457213044">
        <ele>1619.4000244140625</ele>
        <time>2012-08-28T08:11:30Z</time>
      </trkpt>
      <trkpt lat="45.596471400931478" lon="7.389275953173637">
        <ele>1621.5999755859375</ele>
        <time>2012-08-28T08:11:38Z</time>
      </trkpt>
      <trkpt lat="45.596476681530476" lon="7.389415092766285">
        <ele>1623.4000244140625</ele>
        <time>2012-08-28T08:11:45Z</time>
      </trkpt>
      <trkpt lat="45.596448685973883" lon="7.389545096084476">
        <ele>1624.4000244140625</ele>
        <time>2012-08-28T08:11:51Z</time>
      </trkpt>
      <trkpt lat="45.596417170017958" lon="7.389706782996655">
        <ele>1625.5999755859375</ele>
        <time>2012-08-28T08:11:59Z</time>
      </trkpt>
      <trkpt lat="45.596385905519128" lon="7.389867883175612">
        <ele>1626.4000244140625</ele>
        <time>2012-08-28T08:12:07Z</time>
      </trkpt>
      <trkpt lat="45.596363861113787" lon="7.390017583966255">
        <ele>1627.4000244140625</ele>
        <time>2012-08-28T08:12:15Z</time>
      </trkpt>
      <trkpt lat="45.596338883042336" lon="7.390167368575931">
        <ele>1628.800048828125</ele>
        <time>2012-08-28T08:12:23Z</time>
      </trkpt>
      <trkpt lat="45.596317844465375" lon="7.390297958627343">
        <ele>1630</ele>
        <time>2012-08-28T08:12:30Z</time>
      </trkpt>
      <trkpt lat="45.596289848908782" lon="7.390404576435685">
        <ele>1630.4000244140625</ele>
        <time>2012-08-28T08:12:36Z</time>
      </trkpt>
      <trkpt lat="45.596240311861038" lon="7.390562491491437">
        <ele>1630.5999755859375</ele>
        <time>2012-08-28T08:12:45Z</time>
      </trkpt>
      <trkpt lat="45.596207119524479" lon="7.390694925561547">
        <ele>1630.800048828125</ele>
        <time>2012-08-28T08:12:53Z</time>
      </trkpt>
      <trkpt lat="45.596159929409623" lon="7.39085384644568">
        <ele>1630.800048828125</ele>
        <time>2012-08-28T08:13:02Z</time>
      </trkpt>
      <trkpt lat="45.596136208623648" lon="7.390958620235324">
        <ele>1631.5999755859375</ele>
        <time>2012-08-28T08:13:08Z</time>
      </trkpt>
      <trkpt lat="45.596103016287088" lon="7.391096586361527">
        <ele>1632.4000244140625</ele>
        <time>2012-08-28T08:13:16Z</time>
      </trkpt>
      <trkpt lat="45.596088180318475" lon="7.39122474566102">
        <ele>1633.800048828125</ele>
        <time>2012-08-28T08:13:23Z</time>
      </trkpt>
      <trkpt lat="45.596064878627658" lon="7.39138450473547">
        <ele>1635.4000244140625</ele>
        <time>2012-08-28T08:13:32Z</time>
      </trkpt>
      <trkpt lat="45.596037888899446" lon="7.391489949077368">
        <ele>1635.5999755859375</ele>
        <time>2012-08-28T08:13:38Z</time>
      </trkpt>
      <trkpt lat="45.596007294952869" lon="7.391607882454991">
        <ele>1636</ele>
        <time>2012-08-28T08:13:45Z</time>
      </trkpt>
      <trkpt lat="45.595963373780251" lon="7.391727827489376">
        <ele>1636.4000244140625</ele>
        <time>2012-08-28T08:13:53Z</time>
      </trkpt>
      <trkpt lat="45.596007462590933" lon="7.391840144991875">
        <ele>1641.800048828125</ele>
        <time>2012-08-28T08:14:01Z</time>
      </trkpt>
      <trkpt lat="45.596030596643686" lon="7.391835786402226">
        <ele>1642.800048828125</ele>
        <time>2012-08-28T08:14:03Z</time>
      </trkpt>
      <trkpt lat="45.596080301329494" lon="7.391783064231277">
        <ele>1643.800048828125</ele>
        <time>2012-08-28T08:14:07Z</time>
      </trkpt>
      <trkpt lat="45.596124390140176" lon="7.391656581312418">
        <ele>1642.800048828125</ele>
        <time>2012-08-28T08:14:13Z</time>
      </trkpt>
      <trkpt lat="45.596188846975565" lon="7.391494307667017">
        <ele>1643.4000244140625</ele>
        <time>2012-08-28T08:14:22Z</time>
      </trkpt>
      <trkpt lat="45.596262272447348" lon="7.39135910756886">
        <ele>1644.5999755859375</ele>
        <time>2012-08-28T08:14:30Z</time>
      </trkpt>
      <trkpt lat="45.596320359036326" lon="7.391213262453675">
        <ele>1644.5999755859375</ele>
        <time>2012-08-28T08:14:39Z</time>
      </trkpt>
      <trkpt lat="45.596369728446007" lon="7.391097508370876">
        <ele>1644.800048828125</ele>
        <time>2012-08-28T08:14:46Z</time>
      </trkpt>
      <trkpt lat="45.596416750922799" lon="7.390981670469046">
        <ele>1644.800048828125</ele>
        <time>2012-08-28T08:14:53Z</time>
      </trkpt>
      <trkpt lat="45.596476094797254" lon="7.390835238620639">
        <ele>1644.5999755859375</ele>
        <time>2012-08-28T08:15:02Z</time>
      </trkpt>
      <trkpt lat="45.596536444500089" lon="7.390706324949861">
        <ele>1645</ele>
        <time>2012-08-28T08:15:11Z</time>
      </trkpt>
      <trkpt lat="45.596584640443325" lon="7.390591241419315">
        <ele>1645</ele>
        <time>2012-08-28T08:15:18Z</time>
      </trkpt>
      <trkpt lat="45.59660442173481" lon="7.390530137345195">
        <ele>1644.5999755859375</ele>
        <time>2012-08-28T08:15:22Z</time>
      </trkpt>
      <trkpt lat="45.596622191369534" lon="7.390498872846365">
        <ele>1644.800048828125</ele>
        <time>2012-08-28T08:15:24Z</time>
      </trkpt>
      <trkpt lat="45.596661083400249" lon="7.390386387705803">
        <ele>1644.199951171875</ele>
        <time>2012-08-28T08:15:32Z</time>
      </trkpt>
      <trkpt lat="45.59666208922863" lon="7.390376161783934">
        <ele>1644</ele>
        <time>2012-08-28T08:15:33Z</time>
      </trkpt>
      <trkpt lat="45.596719421446323" lon="7.390318913385272">
        <ele>1647.4000244140625</ele>
        <time>2012-08-28T08:15:38Z</time>
      </trkpt>
      <trkpt lat="45.59676225297153" lon="7.390391333028674">
        <ele>1652.4000244140625</ele>
        <time>2012-08-28T08:15:43Z</time>
      </trkpt>
      <trkpt lat="45.596738113090396" lon="7.390455370768905">
        <ele>1651.800048828125</ele>
        <time>2012-08-28T08:15:47Z</time>
      </trkpt>
      <trkpt lat="45.596724702045321" lon="7.390490658581257">
        <ele>1651.4000244140625</ele>
        <time>2012-08-28T08:15:49Z</time>
      </trkpt>
      <trkpt lat="45.596648678183556" lon="7.390668354928494">
        <ele>1649</ele>
        <time>2012-08-28T08:16:00Z</time>
      </trkpt>
      <trkpt lat="45.596614982932806" lon="7.390808835625649">
        <ele>1650.199951171875</ele>
        <time>2012-08-28T08:16:09Z</time>
      </trkpt>
      <trkpt lat="45.596599308773875" lon="7.390962140634656">
        <ele>1652.800048828125</ele>
        <time>2012-08-28T08:16:18Z</time>
      </trkpt>
      <trkpt lat="45.59660098515451" lon="7.391102286055684">
        <ele>1655.800048828125</ele>
        <time>2012-08-28T08:16:26Z</time>
      </trkpt>
      <trkpt lat="45.596600733697414" lon="7.391265900805593">
        <ele>1659.199951171875</ele>
        <time>2012-08-28T08:16:34Z</time>
      </trkpt>
      <trkpt lat="45.596603667363524" lon="7.391295824199915">
        <ele>1660</ele>
        <time>2012-08-28T08:16:36Z</time>
      </trkpt>
      <trkpt lat="45.596595369279385" lon="7.391366735100746">
        <ele>1661</ele>
        <time>2012-08-28T08:16:40Z</time>
      </trkpt>
      <trkpt lat="45.596590843051672" lon="7.391470922157168">
        <ele>1663</ele>
        <time>2012-08-28T08:16:47Z</time>
      </trkpt>
      <trkpt lat="45.596582042053342" lon="7.391582652926445">
        <ele>1664.800048828125</ele>
        <time>2012-08-28T08:16:54Z</time>
      </trkpt>
      <trkpt lat="45.596576509997249" lon="7.391605535522103">
        <ele>1665</ele>
        <time>2012-08-28T08:16:55Z</time>
      </trkpt>
      <trkpt lat="45.596573241055012" lon="7.39163126796484">
        <ele>1665.4000244140625</ele>
        <time>2012-08-28T08:16:57Z</time>
      </trkpt>
      <trkpt lat="45.596576845273376" lon="7.391666639596224">
        <ele>1666.4000244140625</ele>
        <time>2012-08-28T08:16:59Z</time>
      </trkpt>
      <trkpt lat="45.596572486683726" lon="7.39168943837285">
        <ele>1666.5999755859375</ele>
        <time>2012-08-28T08:17:01Z</time>
      </trkpt>
      <trkpt lat="45.596573576331139" lon="7.391705615445972">
        <ele>1667</ele>
        <time>2012-08-28T08:17:02Z</time>
      </trkpt>
      <trkpt lat="45.596573995426297" lon="7.391719864681363">
        <ele>1667.4000244140625</ele>
        <time>2012-08-28T08:17:03Z</time>
      </trkpt>
      <trkpt lat="45.596572486683726" lon="7.391778118908405">
        <ele>1668.5999755859375</ele>
        <time>2012-08-28T08:17:07Z</time>
      </trkpt>
      <trkpt lat="45.596570391207933" lon="7.39180033095181">
        <ele>1669</ele>
        <time>2012-08-28T08:17:09Z</time>
      </trkpt>
      <trkpt lat="45.596566116437316" lon="7.391810724511743">
        <ele>1669</ele>
        <time>2012-08-28T08:17:10Z</time>
      </trkpt>
      <trkpt lat="45.596550526097417" lon="7.391940057277679">
        <ele>1671.199951171875</ele>
        <time>2012-08-28T08:17:19Z</time>
      </trkpt>
      <trkpt lat="45.596534684300423" lon="7.392043406143785">
        <ele>1672.800048828125</ele>
        <time>2012-08-28T08:17:27Z</time>
      </trkpt>
      <trkpt lat="45.596500402316451" lon="7.392191262915731">
        <ele>1674.5999755859375</ele>
        <time>2012-08-28T08:17:36Z</time>
      </trkpt>
      <trkpt lat="45.596474837511778" lon="7.39231682382524">
        <ele>1676.199951171875</ele>
        <time>2012-08-28T08:17:45Z</time>
      </trkpt>
      <trkpt lat="45.596441896632314" lon="7.39241112023592">
        <ele>1677</ele>
        <time>2012-08-28T08:17:51Z</time>
      </trkpt>
      <trkpt lat="45.59644122608006" lon="7.392426375299692">
        <ele>1677.199951171875</ele>
        <time>2012-08-28T08:17:52Z</time>
      </trkpt>
      <trkpt lat="45.596430916339159" lon="7.392487563192844">
        <ele>1678.199951171875</ele>
        <time>2012-08-28T08:17:56Z</time>
      </trkpt>
      <trkpt lat="45.596425300464034" lon="7.392520671710372">
        <ele>1678.5999755859375</ele>
        <time>2012-08-28T08:17:58Z</time>
      </trkpt>
      <trkpt lat="45.596413062885404" lon="7.392632151022553">
        <ele>1680</ele>
        <time>2012-08-28T08:18:06Z</time>
      </trkpt>
      <trkpt lat="45.596393281593919" lon="7.392781767994165">
        <ele>1681.5999755859375</ele>
        <time>2012-08-28T08:18:16Z</time>
      </trkpt>
      <trkpt lat="45.596373584121466" lon="7.392949154600501">
        <ele>1683.800048828125</ele>
        <time>2012-08-28T08:18:25Z</time>
      </trkpt>
      <trkpt lat="45.596358831971884" lon="7.393042529001832">
        <ele>1684.800048828125</ele>
        <time>2012-08-28T08:18:32Z</time>
      </trkpt>
      <trkpt lat="45.596328992396593" lon="7.393182506784797">
        <ele>1686.199951171875</ele>
        <time>2012-08-28T08:18:40Z</time>
      </trkpt>
      <trkpt lat="45.596326226368546" lon="7.393265655264258">
        <ele>1687.5999755859375</ele>
        <time>2012-08-28T08:18:45Z</time>
      </trkpt>
      <trkpt lat="45.596321616321802" lon="7.393300356343389">
        <ele>1688</ele>
        <time>2012-08-28T08:18:47Z</time>
      </trkpt>
      <trkpt lat="45.596312647685409" lon="7.393332459032536">
        <ele>1688.199951171875</ele>
        <time>2012-08-28T08:18:49Z</time>
      </trkpt>
      <trkpt lat="45.596310300752521" lon="7.393453828990459">
        <ele>1689.5999755859375</ele>
        <time>2012-08-28T08:18:56Z</time>
      </trkpt>
      <trkpt lat="45.596272582188249" lon="7.393580311909318">
        <ele>1690</ele>
        <time>2012-08-28T08:19:04Z</time>
      </trkpt>
      <trkpt lat="45.596213573589921" lon="7.393691623583436">
        <ele>1689.199951171875</ele>
        <time>2012-08-28T08:19:13Z</time>
      </trkpt>
      <trkpt lat="45.596197228878736" lon="7.393796229735017">
        <ele>1690</ele>
        <time>2012-08-28T08:19:19Z</time>
      </trkpt>
      <trkpt lat="45.596201419830322" lon="7.393956826999784">
        <ele>1692.199951171875</ele>
        <time>2012-08-28T08:19:28Z</time>
      </trkpt>
      <trkpt lat="45.596227403730154" lon="7.394099403172731">
        <ele>1694.800048828125</ele>
        <time>2012-08-28T08:19:36Z</time>
      </trkpt>
      <trkpt lat="45.596229918301105" lon="7.39422102458775">
        <ele>1696</ele>
        <time>2012-08-28T08:19:43Z</time>
      </trkpt>
      <trkpt lat="45.596231678500772" lon="7.394357733428478">
        <ele>1696.5999755859375</ele>
        <time>2012-08-28T08:19:51Z</time>
      </trkpt>
      <trkpt lat="45.596241569146514" lon="7.394501818343997">
        <ele>1697.5999755859375</ele>
        <time>2012-08-28T08:20:00Z</time>
      </trkpt>
      <trkpt lat="45.596250370144844" lon="7.394626457244158">
        <ele>1698.4000244140625</ele>
        <time>2012-08-28T08:20:09Z</time>
      </trkpt>
      <trkpt lat="45.596325639635324" lon="7.394671216607094">
        <ele>1701</ele>
        <time>2012-08-28T08:20:16Z</time>
      </trkpt>
      <trkpt lat="45.596347348764539" lon="7.394632492214441">
        <ele>1701.5999755859375</ele>
        <time>2012-08-28T08:20:20Z</time>
      </trkpt>
      <trkpt lat="45.596360843628645" lon="7.394587146118283">
        <ele>1702</ele>
        <time>2012-08-28T08:20:23Z</time>
      </trkpt>
      <trkpt lat="45.59636645950377" lon="7.394574824720621">
        <ele>1702</ele>
        <time>2012-08-28T08:20:24Z</time>
      </trkpt>
      <trkpt lat="45.59640359133482" lon="7.39446627907455">
        <ele>1703</ele>
        <time>2012-08-28T08:20:31Z</time>
      </trkpt>
      <trkpt lat="45.596414487808943" lon="7.394385980442166">
        <ele>1703</ele>
        <time>2012-08-28T08:20:36Z</time>
      </trkpt>
      <trkpt lat="45.596418594941497" lon="7.394250947982073">
        <ele>1702.5999755859375</ele>
        <time>2012-08-28T08:20:43Z</time>
      </trkpt>
      <trkpt lat="45.596445417031646" lon="7.394230579957366">
        <ele>1703.5999755859375</ele>
        <time>2012-08-28T08:20:45Z</time>
      </trkpt>
      <trkpt lat="45.596450446173549" lon="7.394193112850189">
        <ele>1703.5999755859375</ele>
        <time>2012-08-28T08:20:47Z</time>
      </trkpt>
      <trkpt lat="45.596509119495749" lon="7.394089763984084">
        <ele>1704.5999755859375</ele>
        <time>2012-08-28T08:20:54Z</time>
      </trkpt>
      <trkpt lat="45.596534851938486" lon="7.394093619659543">
        <ele>1705.5999755859375</ele>
        <time>2012-08-28T08:20:57Z</time>
      </trkpt>
      <trkpt lat="45.596538204699755" lon="7.394126644358039">
        <ele>1706</ele>
        <time>2012-08-28T08:20:59Z</time>
      </trkpt>
      <trkpt lat="45.596547173336148" lon="7.394218007102609">
        <ele>1707</ele>
        <time>2012-08-28T08:21:05Z</time>
      </trkpt>
      <trkpt lat="45.596545664593577" lon="7.3942512832582">
        <ele>1707</ele>
        <time>2012-08-28T08:21:07Z</time>
      </trkpt>
      <trkpt lat="45.596543652936816" lon="7.394401906058192">
        <ele>1707.4000244140625</ele>
        <time>2012-08-28T08:21:16Z</time>
      </trkpt>
      <trkpt lat="45.596587238833308" lon="7.394555462524295">
        <ele>1709.4000244140625</ele>
        <time>2012-08-28T08:21:25Z</time>
      </trkpt>
      <trkpt lat="45.596603835001588" lon="7.394696865230799">
        <ele>1710.199951171875</ele>
        <time>2012-08-28T08:21:33Z</time>
      </trkpt>
      <trkpt lat="45.596599392592907" lon="7.394862743094564">
        <ele>1710.5999755859375</ele>
        <time>2012-08-28T08:21:42Z</time>
      </trkpt>
      <trkpt lat="45.596541976556182" lon="7.395004732534289">
        <ele>1709.199951171875</ele>
        <time>2012-08-28T08:21:50Z</time>
      </trkpt>
      <trkpt lat="45.596520602703094" lon="7.395094335079193">
        <ele>1709.5999755859375</ele>
        <time>2012-08-28T08:21:56Z</time>
      </trkpt>
      <trkpt lat="45.596503587439656" lon="7.395120318979025">
        <ele>1709.4000244140625</ele>
        <time>2012-08-28T08:21:58Z</time>
      </trkpt>
      <trkpt lat="45.596443153917789" lon="7.395240431651473">
        <ele>1709</ele>
        <time>2012-08-28T08:22:07Z</time>
      </trkpt>
      <trkpt lat="45.596421780064702" lon="7.395332381129265">
        <ele>1709.4000244140625</ele>
        <time>2012-08-28T08:22:13Z</time>
      </trkpt>
      <trkpt lat="45.596420355141163" lon="7.395351324230433">
        <ele>1709.5999755859375</ele>
        <time>2012-08-28T08:22:14Z</time>
      </trkpt>
      <trkpt lat="45.596431586891413" lon="7.395397340878844">
        <ele>1710.5999755859375</ele>
        <time>2012-08-28T08:22:17Z</time>
      </trkpt>
      <trkpt lat="45.596465533599257" lon="7.395437574014068">
        <ele>1712.199951171875</ele>
        <time>2012-08-28T08:22:20Z</time>
      </trkpt>
      <trkpt lat="45.596491266041994" lon="7.395438244566321">
        <ele>1712.800048828125</ele>
        <time>2012-08-28T08:22:22Z</time>
      </trkpt>
      <trkpt lat="45.596540551632643" lon="7.395406728610396">
        <ele>1714</ele>
        <time>2012-08-28T08:22:26Z</time>
      </trkpt>
      <trkpt lat="45.596601907163858" lon="7.395277228206396">
        <ele>1714.4000244140625</ele>
        <time>2012-08-28T08:22:34Z</time>
      </trkpt>
      <trkpt lat="45.596597716212273" lon="7.395262559875846">
        <ele>1714</ele>
        <time>2012-08-28T08:22:35Z</time>
      </trkpt>
      <trkpt lat="45.596628477796912" lon="7.395221488550305">
        <ele>1714.4000244140625</ele>
        <time>2012-08-28T08:22:38Z</time>
      </trkpt>
      <trkpt lat="45.596628226339817" lon="7.395214112475514">
        <ele>1714.4000244140625</ele>
        <time>2012-08-28T08:22:39Z</time>
      </trkpt>
      <trkpt lat="45.596660831943154" lon="7.395148817449808">
        <ele>1714.5999755859375</ele>
        <time>2012-08-28T08:22:43Z</time>
      </trkpt>
      <trkpt lat="45.59669142588973" lon="7.395112439990044">
        <ele>1715.199951171875</ele>
        <time>2012-08-28T08:22:46Z</time>
      </trkpt>
      <trkpt lat="45.596695365384221" lon="7.395100202411413">
        <ele>1715</ele>
        <time>2012-08-28T08:22:47Z</time>
      </trkpt>
      <trkpt lat="45.596703831106424" lon="7.395085031166673">
        <ele>1715.199951171875</ele>
        <time>2012-08-28T08:22:48Z</time>
      </trkpt>
      <trkpt lat="45.596746075898409" lon="7.395006828010082">
        <ele>1715.5999755859375</ele>
        <time>2012-08-28T08:22:54Z</time>
      </trkpt>
      <trkpt lat="45.596799552440643" lon="7.394887385889888">
        <ele>1717</ele>
        <time>2012-08-28T08:23:02Z</time>
      </trkpt>
      <trkpt lat="45.596840288490057" lon="7.394869029521942">
        <ele>1718.4000244140625</ele>
        <time>2012-08-28T08:23:05Z</time>
      </trkpt>
      <trkpt lat="45.596847329288721" lon="7.394849332049489">
        <ele>1718.5999755859375</ele>
        <time>2012-08-28T08:23:07Z</time>
      </trkpt>
      <trkpt lat="45.596880605444312" lon="7.394863246008754">
        <ele>1719.5999755859375</ele>
        <time>2012-08-28T08:23:10Z</time>
      </trkpt>
      <trkpt lat="45.596883036196232" lon="7.394883697852492">
        <ele>1719.800048828125</ele>
        <time>2012-08-28T08:23:11Z</time>
      </trkpt>
      <trkpt lat="45.596828470006585" lon="7.394985537976027">
        <ele>1718</ele>
        <time>2012-08-28T08:23:18Z</time>
      </trkpt>
      <trkpt lat="45.596812795847654" lon="7.395043121650815">
        <ele>1718</ele>
        <time>2012-08-28T08:23:22Z</time>
      </trkpt>
      <trkpt lat="45.596810281276703" lon="7.395100789144635">
        <ele>1718.5999755859375</ele>
        <time>2012-08-28T08:23:25Z</time>
      </trkpt>
      <trkpt lat="45.596796115860343" lon="7.39517823792994">
        <ele>1719.199951171875</ele>
        <time>2012-08-28T08:23:30Z</time>
      </trkpt>
      <trkpt lat="45.596788823604584" lon="7.395208580419421">
        <ele>1719.199951171875</ele>
        <time>2012-08-28T08:23:32Z</time>
      </trkpt>
      <trkpt lat="45.596785806119442" lon="7.395254094153643">
        <ele>1719.800048828125</ele>
        <time>2012-08-28T08:23:35Z</time>
      </trkpt>
      <trkpt lat="45.596788404509425" lon="7.395287789404392">
        <ele>1720.199951171875</ele>
        <time>2012-08-28T08:23:37Z</time>
      </trkpt>
      <trkpt lat="45.596774658188224" lon="7.395403878763318">
        <ele>1721.199951171875</ele>
        <time>2012-08-28T08:23:43Z</time>
      </trkpt>
      <trkpt lat="45.596771724522114" lon="7.395466575399041">
        <ele>1721.800048828125</ele>
        <time>2012-08-28T08:23:46Z</time>
      </trkpt>
      <trkpt lat="45.596773400902748" lon="7.395575288683176">
        <ele>1723.199951171875</ele>
        <time>2012-08-28T08:23:51Z</time>
      </trkpt>
      <trkpt lat="45.596788991242647" lon="7.395719373598695">
        <ele>1725.4000244140625</ele>
        <time>2012-08-28T08:24:00Z</time>
      </trkpt>
      <trkpt lat="45.596835091710091" lon="7.395888771861792">
        <ele>1728.5999755859375</ele>
        <time>2012-08-28T08:24:10Z</time>
      </trkpt>
      <trkpt lat="45.596878929063678" lon="7.396021792665124">
        <ele>1731.5999755859375</ele>
        <time>2012-08-28T08:24:18Z</time>
      </trkpt>
      <trkpt lat="45.596908936277032" lon="7.39600938744843">
        <ele>1732.4000244140625</ele>
        <time>2012-08-28T08:24:23Z</time>
      </trkpt>
      <trkpt lat="45.596910947933793" lon="7.396004777401686">
        <ele>1732.4000244140625</ele>
        <time>2012-08-28T08:24:24Z</time>
      </trkpt>
      <trkpt lat="45.596910612657666" lon="7.395931016653776">
        <ele>1731.5999755859375</ele>
        <time>2012-08-28T08:24:28Z</time>
      </trkpt>
      <trkpt lat="45.596902230754495" lon="7.395912073552609">
        <ele>1731</ele>
        <time>2012-08-28T08:24:29Z</time>
      </trkpt>
      <trkpt lat="45.596857890486717" lon="7.395796906203032">
        <ele>1728.4000244140625</ele>
        <time>2012-08-28T08:24:34Z</time>
      </trkpt>
      <trkpt lat="45.596849592402577" lon="7.395598758012056">
        <ele>1725.800048828125</ele>
        <time>2012-08-28T08:24:43Z</time>
      </trkpt>
      <trkpt lat="45.596889154985547" lon="7.395441262051463">
        <ele>1725</ele>
        <time>2012-08-28T08:24:52Z</time>
      </trkpt>
      <trkpt lat="45.596917485818267" lon="7.395290052518249">
        <ele>1724.199951171875</ele>
        <time>2012-08-28T08:25:01Z</time>
      </trkpt>
      <trkpt lat="45.596935926005244" lon="7.395220482721925">
        <ele>1724</ele>
        <time>2012-08-28T08:25:05Z</time>
      </trkpt>
      <trkpt lat="45.596952689811587" lon="7.395196426659823">
        <ele>1724.199951171875</ele>
        <time>2012-08-28T08:25:07Z</time>
      </trkpt>
      <trkpt lat="45.596977416425943" lon="7.395132053643465">
        <ele>1724.199951171875</ele>
        <time>2012-08-28T08:25:11Z</time>
      </trkpt>
      <trkpt lat="45.596989402547479" lon="7.395061813294888">
        <ele>1723.800048828125</ele>
        <time>2012-08-28T08:25:15Z</time>
      </trkpt>
      <trkpt lat="45.597038520500064" lon="7.395012527704239">
        <ele>1724.800048828125</ele>
        <time>2012-08-28T08:25:20Z</time>
      </trkpt>
      <trkpt lat="45.597050255164504" lon="7.395024849101901">
        <ele>1725.199951171875</ele>
        <time>2012-08-28T08:25:21Z</time>
      </trkpt>
      <trkpt lat="45.597078250721097" lon="7.395118474960327">
        <ele>1727.199951171875</ele>
        <time>2012-08-28T08:25:26Z</time>
      </trkpt>
      <trkpt lat="45.597077496349812" lon="7.395138340070844">
        <ele>1727.4000244140625</ele>
        <time>2012-08-28T08:25:27Z</time>
      </trkpt>
      <trkpt lat="45.597045226022601" lon="7.395250489935279">
        <ele>1727.5999755859375</ele>
        <time>2012-08-28T08:25:33Z</time>
      </trkpt>
      <trkpt lat="45.597018403932452" lon="7.395360376685858">
        <ele>1728.199951171875</ele>
        <time>2012-08-28T08:25:39Z</time>
      </trkpt>
      <trkpt lat="45.59703441336751" lon="7.395495157688856">
        <ele>1730.199951171875</ele>
        <time>2012-08-28T08:25:47Z</time>
      </trkpt>
      <trkpt lat="45.597045561298728" lon="7.395524326711893">
        <ele>1730.800048828125</ele>
        <time>2012-08-28T08:25:49Z</time>
      </trkpt>
      <trkpt lat="45.597002981230617" lon="7.395604122430086">
        <ele>1730.4000244140625</ele>
        <time>2012-08-28T08:25:53Z</time>
      </trkpt>
      <trkpt lat="45.597012620419264" lon="7.395757930353284">
        <ele>1732.5999755859375</ele>
        <time>2012-08-28T08:26:02Z</time>
      </trkpt>
      <trkpt lat="45.597039610147476" lon="7.395892627537251">
        <ele>1735</ele>
        <time>2012-08-28T08:26:10Z</time>
      </trkpt>
      <trkpt lat="45.597069952636957" lon="7.395992204546928">
        <ele>1737.5999755859375</ele>
        <time>2012-08-28T08:26:16Z</time>
      </trkpt>
      <trkpt lat="45.597089733928442" lon="7.396019864827395">
        <ele>1738.800048828125</ele>
        <time>2012-08-28T08:26:18Z</time>
      </trkpt>
      <trkpt lat="45.597160141915083" lon="7.396036377176642">
        <ele>1741.4000244140625</ele>
        <time>2012-08-28T08:26:21Z</time>
      </trkpt>
      <trkpt lat="45.597235411405563" lon="7.396001508459449">
        <ele>1743.4000244140625</ele>
        <time>2012-08-28T08:26:26Z</time>
      </trkpt>
      <trkpt lat="45.597240440547466" lon="7.395880306139588">
        <ele>1741.199951171875</ele>
        <time>2012-08-28T08:26:33Z</time>
      </trkpt>
      <trkpt lat="45.597230633720756" lon="7.395720044150949">
        <ele>1738.5999755859375</ele>
        <time>2012-08-28T08:26:42Z</time>
      </trkpt>
      <trkpt lat="45.59723474085331" lon="7.395563637837768">
        <ele>1737</ele>
        <time>2012-08-28T08:26:51Z</time>
      </trkpt>
      <trkpt lat="45.597245721146464" lon="7.395451571792364">
        <ele>1736.199951171875</ele>
        <time>2012-08-28T08:26:58Z</time>
      </trkpt>
      <trkpt lat="45.597263239324093" lon="7.395317628979683">
        <ele>1735.199951171875</ele>
        <time>2012-08-28T08:27:06Z</time>
      </trkpt>
      <trkpt lat="45.597280589863658" lon="7.395184440538287">
        <ele>1734.199951171875</ele>
        <time>2012-08-28T08:27:14Z</time>
      </trkpt>
      <trkpt lat="45.597287295386195" lon="7.395071620121598">
        <ele>1733.199951171875</ele>
        <time>2012-08-28T08:27:21Z</time>
      </trkpt>
      <trkpt lat="45.597330965101719" lon="7.394922841340303">
        <ele>1734.199951171875</ele>
        <time>2012-08-28T08:27:31Z</time>
      </trkpt>
      <trkpt lat="45.597351752221584" lon="7.394918482750654">
        <ele>1734.800048828125</ele>
        <time>2012-08-28T08:27:32Z</time>
      </trkpt>
      <trkpt lat="45.597377987578511" lon="7.394932648167014">
        <ele>1735.5999755859375</ele>
        <time>2012-08-28T08:27:35Z</time>
      </trkpt>
      <trkpt lat="45.597402965649962" lon="7.394961062818766">
        <ele>1736.199951171875</ele>
        <time>2012-08-28T08:27:38Z</time>
      </trkpt>
      <trkpt lat="45.597417717799544" lon="7.394982604309917">
        <ele>1736.5999755859375</ele>
        <time>2012-08-28T08:27:40Z</time>
      </trkpt>
      <trkpt lat="45.597464321181178" lon="7.395029878243804">
        <ele>1738.199951171875</ele>
        <time>2012-08-28T08:27:45Z</time>
      </trkpt>
      <trkpt lat="45.597494998946786" lon="7.395052844658494">
        <ele>1739.4000244140625</ele>
        <time>2012-08-28T08:27:48Z</time>
      </trkpt>
      <trkpt lat="45.597511092200875" lon="7.395059801638126">
        <ele>1739.800048828125</ele>
        <time>2012-08-28T08:27:49Z</time>
      </trkpt>
      <trkpt lat="45.597734469920397" lon="7.395108500495553">
        <ele>1742.4000244140625</ele>
        <time>2012-08-28T08:27:56Z</time>
      </trkpt>
      <trkpt lat="45.597825916483998" lon="7.395171113312244">
        <ele>1743.5999755859375</ele>
        <time>2012-08-28T08:28:04Z</time>
      </trkpt>
      <trkpt lat="45.59791836887598" lon="7.395236911252141">
        <ele>1795.4000244140625</ele>
        <time>2012-08-28T08:28:11Z</time>
      </trkpt>
      <trkpt lat="45.597979389131069" lon="7.395365573465824">
        <ele>1804.199951171875</ele>
        <time>2012-08-28T08:28:20Z</time>
      </trkpt>
      <trkpt lat="45.597968492656946" lon="7.395509574562311">
        <ele>1803.800048828125</ele>
        <time>2012-08-28T08:28:28Z</time>
      </trkpt>
      <trkpt lat="45.597913423553109" lon="7.395642763003707">
        <ele>1797.800048828125</ele>
        <time>2012-08-28T08:28:36Z</time>
      </trkpt>
      <trkpt lat="45.597869586199522" lon="7.395757846534252">
        <ele>1793.199951171875</ele>
        <time>2012-08-28T08:28:43Z</time>
      </trkpt>
      <trkpt lat="45.597824407741427" lon="7.395886592566967">
        <ele>1788.4000244140625</ele>
        <time>2012-08-28T08:28:51Z</time>
      </trkpt>
      <trkpt lat="45.597771098837256" lon="7.395989773795009">
        <ele>1782.5999755859375</ele>
        <time>2012-08-28T08:28:59Z</time>
      </trkpt>
      <trkpt lat="45.59776833280921" lon="7.39601525478065">
        <ele>1782.5999755859375</ele>
        <time>2012-08-28T08:29:01Z</time>
      </trkpt>
      <trkpt lat="45.597743103280663" lon="7.396042915061116">
        <ele>1780</ele>
        <time>2012-08-28T08:29:03Z</time>
      </trkpt>
      <trkpt lat="45.597662050276995" lon="7.396108042448759">
        <ele>1772</ele>
        <time>2012-08-28T08:29:08Z</time>
      </trkpt>
      <trkpt lat="45.597635814920068" lon="7.396148107945919">
        <ele>1769.800048828125</ele>
        <time>2012-08-28T08:29:11Z</time>
      </trkpt>
      <trkpt lat="45.597546296194196" lon="7.396298730745912">
        <ele>1764</ele>
        <time>2012-08-28T08:29:23Z</time>
      </trkpt>
      <trkpt lat="45.597482090815902" lon="7.396400151774287">
        <ele>1761.5999755859375</ele>
        <time>2012-08-28T08:29:30Z</time>
      </trkpt>
      <trkpt lat="45.597423920407891" lon="7.396495286375284">
        <ele>1761.4000244140625</ele>
        <time>2012-08-28T08:29:38Z</time>
      </trkpt>
      <trkpt lat="45.597414448857307" lon="7.396535351872444">
        <ele>1761.800048828125</ele>
        <time>2012-08-28T08:29:41Z</time>
      </trkpt>
      <trkpt lat="45.597396846860647" lon="7.396580530330539">
        <ele>1762</ele>
        <time>2012-08-28T08:29:44Z</time>
      </trkpt>
      <trkpt lat="45.597355775535107" lon="7.39669687114656">
        <ele>1762.4000244140625</ele>
        <time>2012-08-28T08:29:51Z</time>
      </trkpt>
      <trkpt lat="45.597327193245292" lon="7.396808685734868">
        <ele>1762</ele>
        <time>2012-08-28T08:29:58Z</time>
      </trkpt>
      <trkpt lat="45.597326438874006" lon="7.396931061521173">
        <ele>1763.199951171875</ele>
        <time>2012-08-28T08:30:06Z</time>
      </trkpt>
      <trkpt lat="45.597321074455976" lon="7.397051341831684">
        <ele>1764.199951171875</ele>
        <time>2012-08-28T08:30:14Z</time>
      </trkpt>
      <trkpt lat="45.597309842705727" lon="7.397081600502133">
        <ele>1763.800048828125</ele>
        <time>2012-08-28T08:30:16Z</time>
      </trkpt>
      <trkpt lat="45.597298108041286" lon="7.397141112014651">
        <ele>1763.800048828125</ele>
        <time>2012-08-28T08:30:20Z</time>
      </trkpt>
      <trkpt lat="45.59729827567935" lon="7.397154858335853">
        <ele>1764</ele>
        <time>2012-08-28T08:30:21Z</time>
      </trkpt>
      <trkpt lat="45.597302466630936" lon="7.397257201373577">
        <ele>1765</ele>
        <time>2012-08-28T08:30:28Z</time>
      </trkpt>
      <trkpt lat="45.597299197688699" lon="7.397383349016309">
        <ele>1766.199951171875</ele>
        <time>2012-08-28T08:30:36Z</time>
      </trkpt>
      <trkpt lat="45.597300119698048" lon="7.397435568273068">
        <ele>1766.5999755859375</ele>
        <time>2012-08-28T08:30:40Z</time>
      </trkpt>
      <trkpt lat="45.597330965101719" lon="7.397498516365886">
        <ele>1769</ele>
        <time>2012-08-28T08:30:44Z</time>
      </trkpt>
      <trkpt lat="45.59737547300756" lon="7.397532127797604">
        <ele>1772.5999755859375</ele>
        <time>2012-08-28T08:30:48Z</time>
      </trkpt>
      <trkpt lat="45.59741017408669" lon="7.397532463073731">
        <ele>1774.800048828125</ele>
        <time>2012-08-28T08:30:50Z</time>
      </trkpt>
      <trkpt lat="45.597430290654302" lon="7.397508909925818">
        <ele>1775.199951171875</ele>
        <time>2012-08-28T08:30:52Z</time>
      </trkpt>
      <trkpt lat="45.597466081380844" lon="7.397450990974903">
        <ele>1776.4000244140625</ele>
        <time>2012-08-28T08:30:56Z</time>
      </trkpt>
      <trkpt lat="45.597480162978172" lon="7.397389635443687">
        <ele>1776.5999755859375</ele>
        <time>2012-08-28T08:31:00Z</time>
      </trkpt>
      <trkpt lat="45.597464572638273" lon="7.397345127537847">
        <ele>1775.199951171875</ele>
        <time>2012-08-28T08:31:04Z</time>
      </trkpt>
      <trkpt lat="45.597482845187187" lon="7.39732182584703">
        <ele>1775.800048828125</ele>
        <time>2012-08-28T08:31:08Z</time>
      </trkpt>
      <trkpt lat="45.597469350323081" lon="7.397289639338851">
        <ele>1774.800048828125</ele>
        <time>2012-08-28T08:32:00Z</time>
      </trkpt>
      <trkpt lat="45.597482929006219" lon="7.397280000150204">
        <ele>1775.4000244140625</ele>
        <time>2012-08-28T08:32:27Z</time>
      </trkpt>
      <trkpt lat="45.597481168806553" lon="7.397295255213976">
        <ele>1775.4000244140625</ele>
        <time>2012-08-28T08:32:53Z</time>
      </trkpt>
      <trkpt lat="45.597478821873665" lon="7.397283520549536">
        <ele>1775.199951171875</ele>
        <time>2012-08-28T08:32:56Z</time>
      </trkpt>
      <trkpt lat="45.597478654235601" lon="7.397261895239353">
        <ele>1775</ele>
        <time>2012-08-28T08:32:58Z</time>
      </trkpt>
      <trkpt lat="45.597476307302713" lon="7.397205401211977">
        <ele>1774.199951171875</ele>
        <time>2012-08-28T08:33:03Z</time>
      </trkpt>
      <trkpt lat="45.597457196563482" lon="7.397190313786268">
        <ele>1773</ele>
        <time>2012-08-28T08:33:11Z</time>
      </trkpt>
      <trkpt lat="45.597447725012898" lon="7.397097609937191">
        <ele>1771.4000244140625</ele>
        <time>2012-08-28T08:33:16Z</time>
      </trkpt>
      <trkpt lat="45.59744386933744" lon="7.396970288828015">
        <ele>1769.800048828125</ele>
        <time>2012-08-28T08:33:23Z</time>
      </trkpt>
      <trkpt lat="45.59745023958385" lon="7.396954111754894">
        <ele>1769.800048828125</ele>
        <time>2012-08-28T08:33:24Z</time>
      </trkpt>
      <trkpt lat="45.597503883764148" lon="7.39692066796124">
        <ele>1772.4000244140625</ele>
        <time>2012-08-28T08:33:28Z</time>
      </trkpt>
      <trkpt lat="45.597517965361476" lon="7.396974815055728">
        <ele>1774</ele>
        <time>2012-08-28T08:33:32Z</time>
      </trkpt>
      <trkpt lat="45.597519893199205" lon="7.396993255242705">
        <ele>1774.4000244140625</ele>
        <time>2012-08-28T08:33:33Z</time>
      </trkpt>
      <trkpt lat="45.597507823258638" lon="7.397132143378258">
        <ele>1775.199951171875</ele>
        <time>2012-08-28T08:33:41Z</time>
      </trkpt>
      <trkpt lat="45.59748150408268" lon="7.397270696237683">
        <ele>1775.199951171875</ele>
        <time>2012-08-28T08:33:50Z</time>
      </trkpt>
      <trkpt lat="45.597469015046954" lon="7.397370357066393">
        <ele>1775.5999755859375</ele>
        <time>2012-08-28T08:33:56Z</time>
      </trkpt>
      <trkpt lat="45.597458789125085" lon="7.397402292117477">
        <ele>1775.4000244140625</ele>
        <time>2012-08-28T08:33:58Z</time>
      </trkpt>
      <trkpt lat="45.59744143858552" lon="7.397461300715804">
        <ele>1775.199951171875</ele>
        <time>2012-08-28T08:34:02Z</time>
      </trkpt>
      <trkpt lat="45.597443366423249" lon="7.397520393133164">
        <ele>1776.4000244140625</ele>
        <time>2012-08-28T08:34:06Z</time>
      </trkpt>
      <trkpt lat="45.597458956763148" lon="7.397545706480742">
        <ele>1778</ele>
        <time>2012-08-28T08:34:08Z</time>
      </trkpt>
      <trkpt lat="45.597484018653631" lon="7.397553585469723">
        <ele>1779.800048828125</ele>
        <time>2012-08-28T08:34:10Z</time>
      </trkpt>
      <trkpt lat="45.597505727782845" lon="7.397542437538505">
        <ele>1780.800048828125</ele>
        <time>2012-08-28T08:34:12Z</time>
      </trkpt>
      <trkpt lat="45.597523665055633" lon="7.397521231323481">
        <ele>1781.4000244140625</ele>
        <time>2012-08-28T08:34:14Z</time>
      </trkpt>
      <trkpt lat="45.597547134384513" lon="7.397479908540845">
        <ele>1782.4000244140625</ele>
        <time>2012-08-28T08:34:17Z</time>
      </trkpt>
      <trkpt lat="45.59759926982224" lon="7.397404471412301">
        <ele>1785.4000244140625</ele>
        <time>2012-08-28T08:34:22Z</time>
      </trkpt>
      <trkpt lat="45.597647968679667" lon="7.397331716492772">
        <ele>1788</ele>
        <time>2012-08-28T08:34:27Z</time>
      </trkpt>
      <trkpt lat="45.597659619525075" lon="7.397286035120487">
        <ele>1788.4000244140625</ele>
        <time>2012-08-28T08:34:31Z</time>
      </trkpt>
      <trkpt lat="45.597663559019566" lon="7.397269606590271">
        <ele>1788.4000244140625</ele>
        <time>2012-08-28T08:34:32Z</time>
      </trkpt>
      <trkpt lat="45.597667079418898" lon="7.397220907732844">
        <ele>1788</ele>
        <time>2012-08-28T08:34:35Z</time>
      </trkpt>
      <trkpt lat="45.597681328654289" lon="7.397175310179591">
        <ele>1788.4000244140625</ele>
        <time>2012-08-28T08:34:38Z</time>
      </trkpt>
      <trkpt lat="45.597708821296692" lon="7.397038349881768">
        <ele>1788.5999755859375</ele>
        <time>2012-08-28T08:34:47Z</time>
      </trkpt>
      <trkpt lat="45.597735643386841" lon="7.396914130076766">
        <ele>1788.5999755859375</ele>
        <time>2012-08-28T08:34:55Z</time>
      </trkpt>
      <trkpt lat="45.597763722762465" lon="7.396935587748885">
        <ele>1791</ele>
        <time>2012-08-28T08:34:59Z</time>
      </trkpt>
      <trkpt lat="45.597770428285003" lon="7.39696710370481">
        <ele>1792</ele>
        <time>2012-08-28T08:35:01Z</time>
      </trkpt>
      <trkpt lat="45.597767410799861" lon="7.396985795348883">
        <ele>1792</ele>
        <time>2012-08-28T08:35:02Z</time>
      </trkpt>
      <trkpt lat="45.597740840166807" lon="7.39703357219696">
        <ele>1790.800048828125</ele>
        <time>2012-08-28T08:35:05Z</time>
      </trkpt>
      <trkpt lat="45.597728518769145" lon="7.397050000727177">
        <ele>1790.199951171875</ele>
        <time>2012-08-28T08:35:06Z</time>
      </trkpt>
      <trkpt lat="45.597684597596526" lon="7.397147817537189">
        <ele>1788.4000244140625</ele>
        <time>2012-08-28T08:35:13Z</time>
      </trkpt>
      <trkpt lat="45.597639586776495" lon="7.397242449223995">
        <ele>1786.199951171875</ele>
        <time>2012-08-28T08:35:19Z</time>
      </trkpt>
      <trkpt lat="45.597613854333758" lon="7.397361807525158">
        <ele>1786</ele>
        <time>2012-08-28T08:35:27Z</time>
      </trkpt>
      <trkpt lat="45.597641179338098" lon="7.397448224946857">
        <ele>1789.199951171875</ele>
        <time>2012-08-28T08:35:33Z</time>
      </trkpt>
      <trkpt lat="45.597634892910719" lon="7.397602200508118">
        <ele>1792.5999755859375</ele>
        <time>2012-08-28T08:35:43Z</time>
      </trkpt>
      <trkpt lat="45.59763346798718" lon="7.39771225489676">
        <ele>1796</ele>
        <time>2012-08-28T08:35:50Z</time>
      </trkpt>
      <trkpt lat="45.597566831856966" lon="7.397850388661027">
        <ele>1795.199951171875</ele>
        <time>2012-08-28T08:35:59Z</time>
      </trkpt>
      <trkpt lat="45.597539087757468" lon="7.397992881014943">
        <ele>1797.4000244140625</ele>
        <time>2012-08-28T08:36:09Z</time>
      </trkpt>
      <trkpt lat="45.597525257617235" lon="7.398037640377879">
        <ele>1797.800048828125</ele>
        <time>2012-08-28T08:36:12Z</time>
      </trkpt>
      <trkpt lat="45.597512098029256" lon="7.39808457903564">
        <ele>1798.199951171875</ele>
        <time>2012-08-28T08:36:15Z</time>
      </trkpt>
      <trkpt lat="45.597501117736101" lon="7.398096481338143">
        <ele>1797.800048828125</ele>
        <time>2012-08-28T08:36:17Z</time>
      </trkpt>
      <trkpt lat="45.597531711682677" lon="7.398080974817276">
        <ele>1799.5999755859375</ele>
        <time>2012-08-28T08:36:20Z</time>
      </trkpt>
      <trkpt lat="45.597546044737101" lon="7.398071587085724">
        <ele>1800.4000244140625</ele>
        <time>2012-08-28T08:36:21Z</time>
      </trkpt>
      <trkpt lat="45.597577979788184" lon="7.397975530475378">
        <ele>1799.800048828125</ele>
        <time>2012-08-28T08:36:27Z</time>
      </trkpt>
      <trkpt lat="45.597586948424578" lon="7.397935884073377">
        <ele>1799.4000244140625</ele>
        <time>2012-08-28T08:36:29Z</time>
      </trkpt>
      <trkpt lat="45.597646124660969" lon="7.397818202152848">
        <ele>1800.199951171875</ele>
        <time>2012-08-28T08:36:36Z</time>
      </trkpt>
      <trkpt lat="45.597729440778494" lon="7.397702280431986">
        <ele>1803</ele>
        <time>2012-08-28T08:36:45Z</time>
      </trkpt>
      <trkpt lat="45.597798591479659" lon="7.397582251578569">
        <ele>1804.5999755859375</ele>
        <time>2012-08-28T08:36:54Z</time>
      </trkpt>
      <trkpt lat="45.597833124920726" lon="7.397516118362546">
        <ele>1805</ele>
        <time>2012-08-28T08:36:59Z</time>
      </trkpt>
      <trkpt lat="45.59782650321722" lon="7.397502539679408">
        <ele>1804.199951171875</ele>
        <time>2012-08-28T08:37:00Z</time>
      </trkpt>
      <trkpt lat="45.597813678905368" lon="7.397434143349528">
        <ele>1802</ele>
        <time>2012-08-28T08:37:05Z</time>
      </trkpt>
      <trkpt lat="45.597818624228239" lon="7.397418050095439">
        <ele>1802.199951171875</ele>
        <time>2012-08-28T08:37:06Z</time>
      </trkpt>
      <trkpt lat="45.597831113263965" lon="7.397348564118147">
        <ele>1802.199951171875</ele>
        <time>2012-08-28T08:37:11Z</time>
      </trkpt>
      <trkpt lat="45.597841003909707" lon="7.397320568561554">
        <ele>1802.4000244140625</ele>
        <time>2012-08-28T08:37:13Z</time>
      </trkpt>
      <trkpt lat="45.597871597856283" lon="7.397267762571573">
        <ele>1803.800048828125</ele>
        <time>2012-08-28T08:37:17Z</time>
      </trkpt>
      <trkpt lat="45.597876375541091" lon="7.397253094241023">
        <ele>1804</ele>
        <time>2012-08-28T08:37:18Z</time>
      </trkpt>
      <trkpt lat="45.597880063578486" lon="7.397220237180591">
        <ele>1803.800048828125</ele>
        <time>2012-08-28T08:37:20Z</time>
      </trkpt>
      <trkpt lat="45.597941922023892" lon="7.397192995995283">
        <ele>1807.800048828125</ele>
        <time>2012-08-28T08:37:24Z</time>
      </trkpt>
      <trkpt lat="45.597951142117381" lon="7.397200204432011">
        <ele>1808.5999755859375</ele>
        <time>2012-08-28T08:37:25Z</time>
      </trkpt>
      <trkpt lat="45.597955416887999" lon="7.397221243008971">
        <ele>1809.4000244140625</ele>
        <time>2012-08-28T08:37:27Z</time>
      </trkpt>
      <trkpt lat="45.597953069955111" lon="7.397273043170571">
        <ele>1810</ele>
        <time>2012-08-28T08:37:30Z</time>
      </trkpt>
      <trkpt lat="45.597914764657617" lon="7.397397011518478">
        <ele>1809.199951171875</ele>
        <time>2012-08-28T08:37:38Z</time>
      </trkpt>
      <trkpt lat="45.597929181531072" lon="7.397504886612296">
        <ele>1812.199951171875</ele>
        <time>2012-08-28T08:37:45Z</time>
      </trkpt>
      <trkpt lat="45.597873944789171" lon="7.397638158872724">
        <ele>1812.199951171875</ele>
        <time>2012-08-28T08:37:54Z</time>
      </trkpt>
      <trkpt lat="45.597830694168806" lon="7.397779729217291">
        <ele>1813.199951171875</ele>
        <time>2012-08-28T08:38:03Z</time>
      </trkpt>
      <trkpt lat="45.597790209576488" lon="7.397904451936483">
        <ele>1814</ele>
        <time>2012-08-28T08:38:10Z</time>
      </trkpt>
      <trkpt lat="45.597676718607545" lon="7.398082315921783">
        <ele>1810.800048828125</ele>
        <time>2012-08-28T08:38:21Z</time>
      </trkpt>
      <trkpt lat="45.597631875425577" lon="7.39818180911243">
        <ele>1810.5999755859375</ele>
        <time>2012-08-28T08:38:29Z</time>
      </trkpt>
      <trkpt lat="45.59758854098618" lon="7.398272668942809">
        <ele>1810</ele>
        <time>2012-08-28T08:38:37Z</time>
      </trkpt>
      <trkpt lat="45.597590887919068" lon="7.398295467719436">
        <ele>1811</ele>
        <time>2012-08-28T08:38:39Z</time>
      </trkpt>
      <trkpt lat="45.597593234851956" lon="7.398347267881036">
        <ele>1813</ele>
        <time>2012-08-28T08:38:44Z</time>
      </trkpt>
      <trkpt lat="45.597575381398201" lon="7.398410802707076">
        <ele>1815.4000244140625</ele>
        <time>2012-08-28T08:38:52Z</time>
      </trkpt>
      <trkpt lat="45.597598180174828" lon="7.398461932316423">
        <ele>1820.199951171875</ele>
        <time>2012-08-28T08:38:57Z</time>
      </trkpt>
      <trkpt lat="45.597634306177497" lon="7.398569975048304">
        <ele>1829</ele>
        <time>2012-08-28T08:39:05Z</time>
      </trkpt>
      <trkpt lat="45.597627349197865" lon="7.398628564551473">
        <ele>1832</ele>
        <time>2012-08-28T08:39:12Z</time>
      </trkpt>
      <trkpt lat="45.597609914839268" lon="7.398646585643292">
        <ele>1831.800048828125</ele>
        <time>2012-08-28T08:39:18Z</time>
      </trkpt>
      <trkpt lat="45.597553923726082" lon="7.39870660007">
        <ele>1831.199951171875</ele>
        <time>2012-08-28T08:39:26Z</time>
      </trkpt>
      <trkpt lat="45.597485695034266" lon="7.398749515414238">
        <ele>1829</ele>
        <time>2012-08-28T08:39:33Z</time>
      </trkpt>
      <trkpt lat="45.597418136894703" lon="7.398801231756806">
        <ele>1827.4000244140625</ele>
        <time>2012-08-28T08:39:39Z</time>
      </trkpt>
      <trkpt lat="45.597354602068663" lon="7.398870633915067">
        <ele>1827.199951171875</ele>
        <time>2012-08-28T08:39:46Z</time>
      </trkpt>
      <trkpt lat="45.597314452752471" lon="7.398949172347784">
        <ele>1829</ele>
        <time>2012-08-28T08:39:53Z</time>
      </trkpt>
      <trkpt lat="45.597278997302055" lon="7.399076409637928">
        <ele>1833.800048828125</ele>
        <time>2012-08-28T08:40:02Z</time>
      </trkpt>
      <trkpt lat="45.597228454425931" lon="7.399170454591513">
        <ele>1835.5999755859375</ele>
        <time>2012-08-28T08:40:10Z</time>
      </trkpt>
      <trkpt lat="45.597170870751143" lon="7.399266762658954">
        <ele>1834.199951171875</ele>
        <time>2012-08-28T08:40:18Z</time>
      </trkpt>
      <trkpt lat="45.597107084468007" lon="7.399383690208197">
        <ele>1833</ele>
        <time>2012-08-28T08:40:27Z</time>
      </trkpt>
      <trkpt lat="45.597051177173853" lon="7.39947522059083">
        <ele>1831.5999755859375</ele>
        <time>2012-08-28T08:40:35Z</time>
      </trkpt>
      <trkpt lat="45.59698554687202" lon="7.399578234180808">
        <ele>1829.5999755859375</ele>
        <time>2012-08-28T08:40:43Z</time>
      </trkpt>
      <trkpt lat="45.596951264888048" lon="7.399694826453924">
        <ele>1830.4000244140625</ele>
        <time>2012-08-28T08:40:51Z</time>
      </trkpt>
      <trkpt lat="45.596955707296729" lon="7.399738496169448">
        <ele>1831.800048828125</ele>
        <time>2012-08-28T08:40:54Z</time>
      </trkpt>
      <trkpt lat="45.596980517730117" lon="7.399781327694655">
        <ele>1835</ele>
        <time>2012-08-28T08:40:57Z</time>
      </trkpt>
      <trkpt lat="45.596991078928113" lon="7.399788284674287">
        <ele>1836</ele>
        <time>2012-08-28T08:40:58Z</time>
      </trkpt>
      <trkpt lat="45.597055284306407" lon="7.399796331301332">
        <ele>1841</ele>
        <time>2012-08-28T08:41:03Z</time>
      </trkpt>
      <trkpt lat="45.597125943750143" lon="7.399709830060601">
        <ele>1843.800048828125</ele>
        <time>2012-08-28T08:41:11Z</time>
      </trkpt>
      <trkpt lat="45.597153687849641" lon="7.399642271921039">
        <ele>1844</ele>
        <time>2012-08-28T08:41:16Z</time>
      </trkpt>
      <trkpt lat="45.597168188542128" lon="7.399592064321041">
        <ele>1843.5999755859375</ele>
        <time>2012-08-28T08:41:19Z</time>
      </trkpt>
      <trkpt lat="45.597249660640955" lon="7.399535737931728">
        <ele>1848</ele>
        <time>2012-08-28T08:41:28Z</time>
      </trkpt>
      <trkpt lat="45.59727237559855" lon="7.399547472596169">
        <ele>1850</ele>
        <time>2012-08-28T08:41:30Z</time>
      </trkpt>
      <trkpt lat="45.597308669239283" lon="7.399611677974463">
        <ele>1854.5999755859375</ele>
        <time>2012-08-28T08:41:34Z</time>
      </trkpt>
      <trkpt lat="45.597308417782187" lon="7.399631543084979">
        <ele>1855.199951171875</ele>
        <time>2012-08-28T08:41:35Z</time>
      </trkpt>
      <trkpt lat="45.597265837714076" lon="7.399681499227881">
        <ele>1853.5999755859375</ele>
        <time>2012-08-28T08:41:39Z</time>
      </trkpt>
      <trkpt lat="45.597228035330772" lon="7.399765234440565">
        <ele>1853.199951171875</ele>
        <time>2012-08-28T08:41:45Z</time>
      </trkpt>
      <trkpt lat="45.597220323979855" lon="7.39978845231235">
        <ele>1853.199951171875</ele>
        <time>2012-08-28T08:41:47Z</time>
      </trkpt>
      <trkpt lat="45.597196854650974" lon="7.399936392903328">
        <ele>1855.800048828125</ele>
        <time>2012-08-28T08:41:56Z</time>
      </trkpt>
      <trkpt lat="45.597151340916753" lon="7.400082908570766">
        <ele>1855.5999755859375</ele>
        <time>2012-08-28T08:42:06Z</time>
      </trkpt>
      <trkpt lat="45.597110856324434" lon="7.40023554302752">
        <ele>1855</ele>
        <time>2012-08-28T08:42:15Z</time>
      </trkpt>
      <trkpt lat="45.59708135202527" lon="7.400376107543707">
        <ele>1855.199951171875</ele>
        <time>2012-08-28T08:42:23Z</time>
      </trkpt>
      <trkpt lat="45.597001640126109" lon="7.400483898818493">
        <ele>1851</ele>
        <time>2012-08-28T08:42:31Z</time>
      </trkpt>
      <trkpt lat="45.596979847177863" lon="7.400617506355047">
        <ele>1851.5999755859375</ele>
        <time>2012-08-28T08:42:38Z</time>
      </trkpt>
      <trkpt lat="45.596946990117431" lon="7.400835435837507">
        <ele>1852.800048828125</ele>
        <time>2012-08-28T08:42:48Z</time>
      </trkpt>
      <trkpt lat="45.596949756145477" lon="7.401035008952022">
        <ele>1852.199951171875</ele>
        <time>2012-08-28T08:42:57Z</time>
      </trkpt>
      <trkpt lat="45.596968112513423" lon="7.401200132444501">
        <ele>1853</ele>
        <time>2012-08-28T08:43:03Z</time>
      </trkpt>
      <trkpt lat="45.596995772793889" lon="7.401452846825123">
        <ele>1854.199951171875</ele>
        <time>2012-08-28T08:43:10Z</time>
      </trkpt>
      <trkpt lat="45.596968112513423" lon="7.401685863733292">
        <ele>1851</ele>
        <time>2012-08-28T08:43:15Z</time>
      </trkpt>
      <trkpt lat="45.596966268494725" lon="7.4020532425493">
        <ele>1847.4000244140625</ele>
        <time>2012-08-28T08:43:22Z</time>
      </trkpt>
      <trkpt lat="45.596976578235626" lon="7.402498489245772">
        <ele>1843.800048828125</ele>
        <time>2012-08-28T08:43:30Z</time>
      </trkpt>
      <trkpt lat="45.597035251557827" lon="7.402955302968621">
        <ele>1845.199951171875</ele>
        <time>2012-08-28T08:43:37Z</time>
      </trkpt>
      <trkpt lat="45.597044136375189" lon="7.403296446427703">
        <ele>1843.199951171875</ele>
        <time>2012-08-28T08:43:42Z</time>
      </trkpt>
      <trkpt lat="45.597087889909744" lon="7.403497947379947">
        <ele>1843.800048828125</ele>
        <time>2012-08-28T08:43:45Z</time>
      </trkpt>
      <trkpt lat="45.597224934026599" lon="7.403894495218992">
        <ele>1845.4000244140625</ele>
        <time>2012-08-28T08:43:51Z</time>
      </trkpt>
      <trkpt lat="45.597281763330102" lon="7.404050314798951">
        <ele>1845.5999755859375</ele>
        <time>2012-08-28T08:43:53Z</time>
      </trkpt>
      <trkpt lat="45.597324343398213" lon="7.404254833236337">
        <ele>1844.199951171875</ele>
        <time>2012-08-28T08:43:56Z</time>
      </trkpt>
      <trkpt lat="45.597379663959146" lon="7.404488017782569">
        <ele>1843.4000244140625</ele>
        <time>2012-08-28T08:43:59Z</time>
      </trkpt>
      <trkpt lat="45.597390392795205" lon="7.404632354155183">
        <ele>1841.800048828125</ele>
        <time>2012-08-28T08:44:01Z</time>
      </trkpt>
      <trkpt lat="45.597470859065652" lon="7.405186062678695">
        <ele>1838.5999755859375</ele>
        <time>2012-08-28T08:44:08Z</time>
      </trkpt>
      <trkpt lat="45.597490975633264" lon="7.405273569747806">
        <ele>1838.800048828125</ele>
        <time>2012-08-28T08:44:09Z</time>
      </trkpt>
      <trkpt lat="45.597531460225582" lon="7.405654191970825">
        <ele>1839.199951171875</ele>
        <time>2012-08-28T08:44:14Z</time>
      </trkpt>
      <trkpt lat="45.597549313679338" lon="7.405936578288674">
        <ele>1839</ele>
        <time>2012-08-28T08:44:18Z</time>
      </trkpt>
      <trkpt lat="45.59755283407867" lon="7.406001035124064">
        <ele>1839</ele>
        <time>2012-08-28T08:44:19Z</time>
      </trkpt>
      <trkpt lat="45.597535399720073" lon="7.406185772269964">
        <ele>1837.5999755859375</ele>
        <time>2012-08-28T08:44:23Z</time>
      </trkpt>
      <trkpt lat="45.597549732774496" lon="7.406437983736396">
        <ele>1837.5999755859375</ele>
        <time>2012-08-28T08:44:31Z</time>
      </trkpt>
      <trkpt lat="45.597635982558131" lon="7.406663708388805">
        <ele>1840.199951171875</ele>
        <time>2012-08-28T08:44:40Z</time>
      </trkpt>
      <trkpt lat="45.597669929265976" lon="7.406827826052904">
        <ele>1841.5999755859375</ele>
        <time>2012-08-28T08:44:47Z</time>
      </trkpt>
      <trkpt lat="45.597712006419897" lon="7.407001834362745">
        <ele>1843.4000244140625</ele>
        <time>2012-08-28T08:44:54Z</time>
      </trkpt>
      <trkpt lat="45.597722567617893" lon="7.407185900956392">
        <ele>1843.800048828125</ele>
        <time>2012-08-28T08:45:02Z</time>
      </trkpt>
      <trkpt lat="45.597733044996858" lon="7.407360160723329">
        <ele>1844.199951171875</ele>
        <time>2012-08-28T08:45:10Z</time>
      </trkpt>
      <trkpt lat="45.597758106887341" lon="7.407527295872569">
        <ele>1845</ele>
        <time>2012-08-28T08:45:18Z</time>
      </trkpt>
      <trkpt lat="45.597737319767475" lon="7.407649671658874">
        <ele>1843.800048828125</ele>
        <time>2012-08-28T08:45:25Z</time>
      </trkpt>
      <trkpt lat="45.5977429356426" lon="7.407766012474895">
        <ele>1843.5999755859375</ele>
        <time>2012-08-28T08:45:33Z</time>
      </trkpt>
      <trkpt lat="45.597728015854955" lon="7.407908840104938">
        <ele>1842.5999755859375</ele>
        <time>2012-08-28T08:45:42Z</time>
      </trkpt>
      <trkpt lat="45.597742851823568" lon="7.407998107373714">
        <ele>1842.800048828125</ele>
        <time>2012-08-28T08:45:48Z</time>
      </trkpt>
      <trkpt lat="45.597772020846605" lon="7.408029371872544">
        <ele>1843.800048828125</ele>
        <time>2012-08-28T08:45:51Z</time>
      </trkpt>
      <trkpt lat="45.597802950069308" lon="7.408007327467203">
        <ele>1845</ele>
        <time>2012-08-28T08:45:55Z</time>
      </trkpt>
      <trkpt lat="45.597813511267304" lon="7.407979751005769">
        <ele>1845.4000244140625</ele>
        <time>2012-08-28T08:45:57Z</time>
      </trkpt>
      <trkpt lat="45.597871011123061" lon="7.407860225066543">
        <ele>1847.5999755859375</ele>
        <time>2012-08-28T08:46:04Z</time>
      </trkpt>
      <trkpt lat="45.597906382754445" lon="7.407711362466216">
        <ele>1849.199951171875</ele>
        <time>2012-08-28T08:46:13Z</time>
      </trkpt>
      <trkpt lat="45.59795156121254" lon="7.407571384683251">
        <ele>1851</ele>
        <time>2012-08-28T08:46:22Z</time>
      </trkpt>
      <trkpt lat="45.598004199564457" lon="7.407499300315976">
        <ele>1852.800048828125</ele>
        <time>2012-08-28T08:46:28Z</time>
      </trkpt>
      <trkpt lat="45.59805809520185" lon="7.407488487660885">
        <ele>1854.4000244140625</ele>
        <time>2012-08-28T08:46:32Z</time>
      </trkpt>
      <trkpt lat="45.598072931170464" lon="7.407507514581084">
        <ele>1854.800048828125</ele>
        <time>2012-08-28T08:46:34Z</time>
      </trkpt>
      <trkpt lat="45.598075445741415" lon="7.407576497644186">
        <ele>1854.800048828125</ele>
        <time>2012-08-28T08:46:38Z</time>
      </trkpt>
      <trkpt lat="45.598071841523051" lon="7.407610863447189">
        <ele>1854.5999755859375</ele>
        <time>2012-08-28T08:46:40Z</time>
      </trkpt>
      <trkpt lat="45.598057508468628" lon="7.40775796584785">
        <ele>1854</ele>
        <time>2012-08-28T08:46:49Z</time>
      </trkpt>
      <trkpt lat="45.598073014989495" lon="7.407887047156692">
        <ele>1854.199951171875</ele>
        <time>2012-08-28T08:46:57Z</time>
      </trkpt>
      <trkpt lat="45.598097154870629" lon="7.408020403236151">
        <ele>1855</ele>
        <time>2012-08-28T08:47:07Z</time>
      </trkpt>
      <trkpt lat="45.598115343600512" lon="7.408122159540653">
        <ele>1855.4000244140625</ele>
        <time>2012-08-28T08:47:15Z</time>
      </trkpt>
      <trkpt lat="45.598120875656605" lon="7.408132301643491">
        <ele>1855.5999755859375</ele>
        <time>2012-08-28T08:47:16Z</time>
      </trkpt>
      <trkpt lat="45.598168484866619" lon="7.408247385174036">
        <ele>1857.199951171875</ele>
        <time>2012-08-28T08:47:26Z</time>
      </trkpt>
      <trkpt lat="45.598215172067285" lon="7.408351991325617">
        <ele>1858.5999755859375</ele>
        <time>2012-08-28T08:47:35Z</time>
      </trkpt>
      <trkpt lat="45.598261943086982" lon="7.408458273857832">
        <ele>1860</ele>
        <time>2012-08-28T08:47:44Z</time>
      </trkpt>
      <trkpt lat="45.598310893401504" lon="7.408573692664504">
        <ele>1861.4000244140625</ele>
        <time>2012-08-28T08:47:53Z</time>
      </trkpt>
      <trkpt lat="45.598347019404173" lon="7.408682070672512">
        <ele>1862.5999755859375</ele>
        <time>2012-08-28T08:48:01Z</time>
      </trkpt>
      <trkpt lat="45.598405441269279" lon="7.408725488930941">
        <ele>1865.800048828125</ele>
        <time>2012-08-28T08:48:08Z</time>
      </trkpt>
      <trkpt lat="45.598413655534387" lon="7.408722722902894">
        <ele>1866.199951171875</ele>
        <time>2012-08-28T08:48:09Z</time>
      </trkpt>
      <trkpt lat="45.598428072407842" lon="7.408681819215417">
        <ele>1867.199951171875</ele>
        <time>2012-08-28T08:48:13Z</time>
      </trkpt>
      <trkpt lat="45.598432011902332" lon="7.408651644363999">
        <ele>1867.4000244140625</ele>
        <time>2012-08-28T08:48:15Z</time>
      </trkpt>
      <trkpt lat="45.598412482067943" lon="7.408573357388377">
        <ele>1866.5999755859375</ele>
        <time>2012-08-28T08:48:20Z</time>
      </trkpt>
      <trkpt lat="45.598393622785807" lon="7.408458860591054">
        <ele>1865.800048828125</ele>
        <time>2012-08-28T08:48:28Z</time>
      </trkpt>
      <trkpt lat="45.598379541188478" lon="7.408357439562678">
        <ele>1865.4000244140625</ele>
        <time>2012-08-28T08:48:35Z</time>
      </trkpt>
      <trkpt lat="45.598406614735723" lon="7.408309746533632">
        <ele>1867</ele>
        <time>2012-08-28T08:48:38Z</time>
      </trkpt>
      <trkpt lat="45.59845631942153" lon="7.408260963857174">
        <ele>1869.800048828125</ele>
        <time>2012-08-28T08:48:41Z</time>
      </trkpt>
      <trkpt lat="45.59848758392036" lon="7.408164320513606">
        <ele>1871.5999755859375</ele>
        <time>2012-08-28T08:48:48Z</time>
      </trkpt>
      <trkpt lat="45.598515160381794" lon="7.408052505925298">
        <ele>1873.199951171875</ele>
        <time>2012-08-28T08:48:56Z</time>
      </trkpt>
      <trkpt lat="45.598526140674949" lon="7.407944882288575">
        <ele>1874</ele>
        <time>2012-08-28T08:49:03Z</time>
      </trkpt>
      <trkpt lat="45.598522955551744" lon="7.407813705503941">
        <ele>1874</ele>
        <time>2012-08-28T08:49:12Z</time>
      </trkpt>
      <trkpt lat="45.598537120968103" lon="7.407709434628487">
        <ele>1875.199951171875</ele>
        <time>2012-08-28T08:49:19Z</time>
      </trkpt>
      <trkpt lat="45.598555477336049" lon="7.407673727720976">
        <ele>1876.199951171875</ele>
        <time>2012-08-28T08:49:22Z</time>
      </trkpt>
      <trkpt lat="45.598562434315681" lon="7.407663837075234">
        <ele>1876.800048828125</ele>
        <time>2012-08-28T08:49:23Z</time>
      </trkpt>
      <trkpt lat="45.59859068132937" lon="7.40765486843884">
        <ele>1878.4000244140625</ele>
        <time>2012-08-28T08:49:25Z</time>
      </trkpt>
      <trkpt lat="45.598636781796813" lon="7.40767146460712">
        <ele>1881.199951171875</ele>
        <time>2012-08-28T08:49:28Z</time>
      </trkpt>
      <trkpt lat="45.598686905577779" lon="7.407766934484243">
        <ele>1883.800048828125</ele>
        <time>2012-08-28T08:49:34Z</time>
      </trkpt>
      <trkpt lat="45.598692437633872" lon="7.407783111557365">
        <ele>1884.199951171875</ele>
        <time>2012-08-28T08:49:35Z</time>
      </trkpt>
      <trkpt lat="45.598717080429196" lon="7.407910181209445">
        <ele>1885.199951171875</ele>
        <time>2012-08-28T08:49:43Z</time>
      </trkpt>
      <trkpt lat="45.59873971156776" lon="7.408084440976381">
        <ele>1885.800048828125</ele>
        <time>2012-08-28T08:49:52Z</time>
      </trkpt>
      <trkpt lat="45.598750188946724" lon="7.408257694914937">
        <ele>1885.800048828125</ele>
        <time>2012-08-28T08:50:02Z</time>
      </trkpt>
      <trkpt lat="45.598732586950064" lon="7.408372862264514">
        <ele>1884.5999755859375</ele>
        <time>2012-08-28T08:50:09Z</time>
      </trkpt>
      <trkpt lat="45.598757229745388" lon="7.408502195030451">
        <ele>1886</ele>
        <time>2012-08-28T08:50:16Z</time>
      </trkpt>
      <trkpt lat="45.598718337714672" lon="7.408628845587373">
        <ele>1883.800048828125</ele>
        <time>2012-08-28T08:50:23Z</time>
      </trkpt>
      <trkpt lat="45.598670225590467" lon="7.408755831420422">
        <ele>1881</ele>
        <time>2012-08-28T08:50:29Z</time>
      </trkpt>
      <trkpt lat="45.598587999120355" lon="7.408866472542286">
        <ele>1876</ele>
        <time>2012-08-28T08:50:35Z</time>
      </trkpt>
      <trkpt lat="45.598547263070941" lon="7.408908549696207">
        <ele>1873.5999755859375</ele>
        <time>2012-08-28T08:50:38Z</time>
      </trkpt>
      <trkpt lat="45.598568888381124" lon="7.408984657377005">
        <ele>1874.800048828125</ele>
        <time>2012-08-28T08:50:41Z</time>
      </trkpt>
      <trkpt lat="45.598645331338048" lon="7.40915640257299">
        <ele>1879.199951171875</ele>
        <time>2012-08-28T08:50:48Z</time>
      </trkpt>
      <trkpt lat="45.598744489252567" lon="7.409375421702862">
        <ele>1886.4000244140625</ele>
        <time>2012-08-28T08:50:56Z</time>
      </trkpt>
      <trkpt lat="45.598822860047221" lon="7.409595446661115">
        <ele>1892.4000244140625</ele>
        <time>2012-08-28T08:51:04Z</time>
      </trkpt>
      <trkpt lat="45.598817747086287" lon="7.409715810790658">
        <ele>1892.800048828125</ele>
        <time>2012-08-28T08:51:09Z</time>
      </trkpt>
      <trkpt lat="45.598820513114333" lon="7.40987615659833">
        <ele>1893.800048828125</ele>
        <time>2012-08-28T08:51:15Z</time>
      </trkpt>
      <trkpt lat="45.598826799541712" lon="7.410029377788305">
        <ele>1895</ele>
        <time>2012-08-28T08:51:21Z</time>
      </trkpt>
      <trkpt lat="45.598827470093966" lon="7.410232303664088">
        <ele>1896.4000244140625</ele>
        <time>2012-08-28T08:51:29Z</time>
      </trkpt>
      <trkpt lat="45.598813975229859" lon="7.410428524017334">
        <ele>1896.800048828125</ele>
        <time>2012-08-28T08:51:35Z</time>
      </trkpt>
      <trkpt lat="45.598790422081947" lon="7.410645363852382">
        <ele>1897</ele>
        <time>2012-08-28T08:51:41Z</time>
      </trkpt>
      <trkpt lat="45.598770221695304" lon="7.410916853696108">
        <ele>1898</ele>
        <time>2012-08-28T08:51:48Z</time>
      </trkpt>
      <trkpt lat="45.598764438182116" lon="7.411187924444675">
        <ele>1900.5999755859375</ele>
        <time>2012-08-28T08:51:55Z</time>
      </trkpt>
      <trkpt lat="45.598761504516006" lon="7.411476764827967">
        <ele>1903.5999755859375</ele>
        <time>2012-08-28T08:52:02Z</time>
      </trkpt>
      <trkpt lat="45.598690174520016" lon="7.41176619194448">
        <ele>1903.4000244140625</ele>
        <time>2012-08-28T08:52:10Z</time>
      </trkpt>
      <trkpt lat="45.598658490926027" lon="7.412091661244631">
        <ele>1906.800048828125</ele>
        <time>2012-08-28T08:52:18Z</time>
      </trkpt>
      <trkpt lat="45.5985545553267" lon="7.41239357739687">
        <ele>1905.800048828125</ele>
        <time>2012-08-28T08:52:26Z</time>
      </trkpt>
      <trkpt lat="45.598455229774117" lon="7.412593401968479">
        <ele>1902.800048828125</ele>
        <time>2012-08-28T08:52:32Z</time>
      </trkpt>
      <trkpt lat="45.598388509824872" lon="7.412794567644596">
        <ele>1900.199951171875</ele>
        <time>2012-08-28T08:52:38Z</time>
      </trkpt>
      <trkpt lat="45.598387755453587" lon="7.413021717220545">
        <ele>1901.4000244140625</ele>
        <time>2012-08-28T08:52:44Z</time>
      </trkpt>
      <trkpt lat="45.598414912819862" lon="7.413265462964773">
        <ele>1904</ele>
        <time>2012-08-28T08:52:51Z</time>
      </trkpt>
      <trkpt lat="45.598447769880295" lon="7.413494288921356">
        <ele>1904.5999755859375</ele>
        <time>2012-08-28T08:52:58Z</time>
      </trkpt>
      <trkpt lat="45.598526392132044" lon="7.4137441534549">
        <ele>1906.199951171875</ele>
        <time>2012-08-28T08:53:06Z</time>
      </trkpt>
      <trkpt lat="45.598580958321691" lon="7.413955293595791">
        <ele>1907.199951171875</ele>
        <time>2012-08-28T08:53:12Z</time>
      </trkpt>
      <trkpt lat="45.598668213933706" lon="7.414286881685257">
        <ele>1907.5999755859375</ele>
        <time>2012-08-28T08:53:22Z</time>
      </trkpt>
      <trkpt lat="45.598750272765756" lon="7.414570860564709">
        <ele>1906.800048828125</ele>
        <time>2012-08-28T08:53:31Z</time>
      </trkpt>
      <trkpt lat="45.598808275535703" lon="7.414774456992745">
        <ele>1905.5999755859375</ele>
        <time>2012-08-28T08:53:38Z</time>
      </trkpt>
      <trkpt lat="45.598888741806149" lon="7.414979143068194">
        <ele>1905</ele>
        <time>2012-08-28T08:53:45Z</time>
      </trkpt>
      <trkpt lat="45.598989995196462" lon="7.415135130286217">
        <ele>1907.199951171875</ele>
        <time>2012-08-28T08:53:51Z</time>
      </trkpt>
      <trkpt lat="45.599178001284599" lon="7.415299583226442">
        <ele>1913.4000244140625</ele>
        <time>2012-08-28T08:54:00Z</time>
      </trkpt>
      <trkpt lat="45.599312027916312" lon="7.415455905720592">
        <ele>1921.199951171875</ele>
        <time>2012-08-28T08:54:07Z</time>
      </trkpt>
      <trkpt lat="45.599324433133006" lon="7.415641732513905">
        <ele>1921.800048828125</ele>
        <time>2012-08-28T08:54:12Z</time>
      </trkpt>
      <trkpt lat="45.599334994331002" lon="7.415935685858131">
        <ele>1922.800048828125</ele>
        <time>2012-08-28T08:54:20Z</time>
      </trkpt>
      <trkpt lat="45.599340358749032" lon="7.416173815727234">
        <ele>1924</ele>
        <time>2012-08-28T08:54:27Z</time>
      </trkpt>
      <trkpt lat="45.59926014393568" lon="7.416407503187656">
        <ele>1918</ele>
        <time>2012-08-28T08:54:34Z</time>
      </trkpt>
      <trkpt lat="45.599195687100291" lon="7.416557623073459">
        <ele>1913.5999755859375</ele>
        <time>2012-08-28T08:54:39Z</time>
      </trkpt>
      <trkpt lat="45.599159644916654" lon="7.4167609680444">
        <ele>1913</ele>
        <time>2012-08-28T08:54:45Z</time>
      </trkpt>
      <trkpt lat="45.599182359874249" lon="7.416959200054407">
        <ele>1917.4000244140625</ele>
        <time>2012-08-28T08:54:50Z</time>
      </trkpt>
      <trkpt lat="45.599118070676923" lon="7.417230270802975">
        <ele>1916.800048828125</ele>
        <time>2012-08-28T08:54:58Z</time>
      </trkpt>
      <trkpt lat="45.599077083170414" lon="7.417483571916819">
        <ele>1917.4000244140625</ele>
        <time>2012-08-28T08:55:05Z</time>
      </trkpt>
      <trkpt lat="45.599059984087944" lon="7.417668057605624">
        <ele>1914.5999755859375</ele>
        <time>2012-08-28T08:55:10Z</time>
      </trkpt>
      <trkpt lat="45.59907297603786" lon="7.417984139174223">
        <ele>1911.800048828125</ele>
        <time>2012-08-28T08:55:18Z</time>
      </trkpt>
      <trkpt lat="45.599053865298629" lon="7.418201817199588">
        <ele>1908.199951171875</ele>
        <time>2012-08-28T08:55:24Z</time>
      </trkpt>
      <trkpt lat="45.599098457023501" lon="7.418445060029626">
        <ele>1909</ele>
        <time>2012-08-28T08:55:30Z</time>
      </trkpt>
      <trkpt lat="45.599069120362401" lon="7.41867539472878">
        <ele>1906.800048828125</ele>
        <time>2012-08-28T08:55:37Z</time>
      </trkpt>
      <trkpt lat="45.599091332405806" lon="7.418904639780521">
        <ele>1907.5999755859375</ele>
        <time>2012-08-28T08:55:44Z</time>
      </trkpt>
      <trkpt lat="45.599131062626839" lon="7.419105805456638">
        <ele>1909.199951171875</ele>
        <time>2012-08-28T08:55:50Z</time>
      </trkpt>
      <trkpt lat="45.599132403731346" lon="7.419276544824243">
        <ele>1909.5999755859375</ele>
        <time>2012-08-28T08:55:55Z</time>
      </trkpt>
      <trkpt lat="45.599139779806137" lon="7.419496485963464">
        <ele>1911.199951171875</ele>
        <time>2012-08-28T08:56:01Z</time>
      </trkpt>
      <trkpt lat="45.599215049296618" lon="7.419694298878312">
        <ele>1917.199951171875</ele>
        <time>2012-08-28T08:56:07Z</time>
      </trkpt>
      <trkpt lat="45.599217815324664" lon="7.41988473571837">
        <ele>1918.4000244140625</ele>
        <time>2012-08-28T08:56:13Z</time>
      </trkpt>
      <trkpt lat="45.599160986021161" lon="7.420114316046238">
        <ele>1915.4000244140625</ele>
        <time>2012-08-28T08:56:20Z</time>
      </trkpt>
      <trkpt lat="45.599187975749373" lon="7.420292096212506">
        <ele>1918.199951171875</ele>
        <time>2012-08-28T08:56:25Z</time>
      </trkpt>
      <trkpt lat="45.599149586632848" lon="7.420467110350728">
        <ele>1916.800048828125</ele>
        <time>2012-08-28T08:56:32Z</time>
      </trkpt>
      <trkpt lat="45.599142629653215" lon="7.420643465593457">
        <ele>1917.4000244140625</ele>
        <time>2012-08-28T08:56:38Z</time>
      </trkpt>
      <trkpt lat="45.59921127744019" lon="7.420887546613812">
        <ele>1922.4000244140625</ele>
        <time>2012-08-28T08:56:45Z</time>
      </trkpt>
      <trkpt lat="45.599302053451538" lon="7.421123664826155">
        <ele>1927.5999755859375</ele>
        <time>2012-08-28T08:56:51Z</time>
      </trkpt>
      <trkpt lat="45.599250504747033" lon="7.421167166903615">
        <ele>1925.199951171875</ele>
        <time>2012-08-28T08:56:54Z</time>
      </trkpt>
      <trkpt lat="45.599239189177752" lon="7.421214776113629">
        <ele>1924.800048828125</ele>
        <time>2012-08-28T08:56:56Z</time>
      </trkpt>
      <trkpt lat="45.599230974912643" lon="7.421348551288247">
        <ele>1925</ele>
        <time>2012-08-28T08:57:01Z</time>
      </trkpt>
      <trkpt lat="45.5992332380265" lon="7.421434381976724">
        <ele>1925.4000244140625</ele>
        <time>2012-08-28T08:57:04Z</time>
      </trkpt>
      <trkpt lat="45.599260730668902" lon="7.421634793281555">
        <ele>1927.5999755859375</ele>
        <time>2012-08-28T08:57:11Z</time>
      </trkpt>
      <trkpt lat="45.599255366250873" lon="7.42182900197804">
        <ele>1928.800048828125</ele>
        <time>2012-08-28T08:57:19Z</time>
      </trkpt>
      <trkpt lat="45.599280595779419" lon="7.421931345015764">
        <ele>1931.199951171875</ele>
        <time>2012-08-28T08:57:24Z</time>
      </trkpt>
      <trkpt lat="45.599339604377747" lon="7.422144999727607">
        <ele>1937</ele>
        <time>2012-08-28T08:57:32Z</time>
      </trkpt>
      <trkpt lat="45.599346645176411" lon="7.422368293628097">
        <ele>1940</ele>
        <time>2012-08-28T08:57:40Z</time>
      </trkpt>
      <trkpt lat="45.599361648783088" lon="7.422578008845449">
        <ele>1943.800048828125</ele>
        <time>2012-08-28T08:57:47Z</time>
      </trkpt>
      <trkpt lat="45.599349159747362" lon="7.422823430970311">
        <ele>1946.5999755859375</ele>
        <time>2012-08-28T08:57:55Z</time>
      </trkpt>
      <trkpt lat="45.59929626993835" lon="7.422987716272473">
        <ele>1945.199951171875</ele>
        <time>2012-08-28T08:58:01Z</time>
      </trkpt>
      <trkpt lat="45.599270202219486" lon="7.422997020184994">
        <ele>1943.4000244140625</ele>
        <time>2012-08-28T08:58:02Z</time>
      </trkpt>
      <trkpt lat="45.599199458956718" lon="7.423003809526563">
        <ele>1938.199951171875</ele>
        <time>2012-08-28T08:58:05Z</time>
      </trkpt>
      <trkpt lat="45.599100217223167" lon="7.423022920265794">
        <ele>1933.800048828125</ele>
        <time>2012-08-28T08:58:12Z</time>
      </trkpt>
      <trkpt lat="45.599058978259563" lon="7.423004982993007">
        <ele>1932.199951171875</ele>
        <time>2012-08-28T09:00:27Z</time>
      </trkpt>
      <trkpt lat="45.599014805629849" lon="7.423038007691503">
        <ele>1931.199951171875</ele>
        <time>2012-08-28T09:00:30Z</time>
      </trkpt>
      <trkpt lat="45.598969962447882" lon="7.423164658248425">
        <ele>1931.800048828125</ele>
        <time>2012-08-28T09:00:37Z</time>
      </trkpt>
      <trkpt lat="45.599002232775092" lon="7.423332966864109">
        <ele>1935.4000244140625</ele>
        <time>2012-08-28T09:00:43Z</time>
      </trkpt>
      <trkpt lat="45.59904363937676" lon="7.423504125326872">
        <ele>1940.5999755859375</ele>
        <time>2012-08-28T09:00:50Z</time>
      </trkpt>
      <trkpt lat="45.599029138684273" lon="7.423592135310173">
        <ele>1941.800048828125</ele>
        <time>2012-08-28T09:00:55Z</time>
      </trkpt>
      <trkpt lat="45.599024947732687" lon="7.423628009855747">
        <ele>1942.4000244140625</ele>
        <time>2012-08-28T09:00:57Z</time>
      </trkpt>
      <trkpt lat="45.599003825336695" lon="7.423743847757578">
        <ele>1944</ele>
        <time>2012-08-28T09:01:04Z</time>
      </trkpt>
      <trkpt lat="45.598978260532022" lon="7.423781314864755">
        <ele>1943.5999755859375</ele>
        <time>2012-08-28T09:01:07Z</time>
      </trkpt>
      <trkpt lat="45.598981864750385" lon="7.423848705366254">
        <ele>1945.199951171875</ele>
        <time>2012-08-28T09:01:10Z</time>
      </trkpt>
      <trkpt lat="45.598966693505645" lon="7.423969907686114">
        <ele>1946.800048828125</ele>
        <time>2012-08-28T09:01:16Z</time>
      </trkpt>
      <trkpt lat="45.598967280238867" lon="7.423992874100804">
        <ele>1947.199951171875</ele>
        <time>2012-08-28T09:01:17Z</time>
      </trkpt>
      <trkpt lat="45.59894934296608" lon="7.424131594598293">
        <ele>1949.199951171875</ele>
        <time>2012-08-28T09:01:24Z</time>
      </trkpt>
      <trkpt lat="45.598908523097634" lon="7.424299065023661">
        <ele>1950.4000244140625</ele>
        <time>2012-08-28T09:01:33Z</time>
      </trkpt>
      <trkpt lat="45.598874492570758" lon="7.424498302862048">
        <ele>1952.5999755859375</ele>
        <time>2012-08-28T09:01:43Z</time>
      </trkpt>
      <trkpt lat="45.598852196708322" lon="7.424638448283076">
        <ele>1954</ele>
        <time>2012-08-28T09:01:51Z</time>
      </trkpt>
      <trkpt lat="45.598823530599475" lon="7.424770211800933">
        <ele>1954.800048828125</ele>
        <time>2012-08-28T09:01:59Z</time>
      </trkpt>
      <trkpt lat="45.598819088190794" lon="7.424912620335817">
        <ele>1957.199951171875</ele>
        <time>2012-08-28T09:02:07Z</time>
      </trkpt>
      <trkpt lat="45.598799139261246" lon="7.425025273114443">
        <ele>1958</ele>
        <time>2012-08-28T09:02:14Z</time>
      </trkpt>
      <trkpt lat="45.598743986338377" lon="7.42508570663631">
        <ele>1955.199951171875</ele>
        <time>2012-08-28T09:02:20Z</time>
      </trkpt>
      <trkpt lat="45.598740298300982" lon="7.425101045519114">
        <ele>1955.4000244140625</ele>
        <time>2012-08-28T09:02:21Z</time>
      </trkpt>
      <trkpt lat="45.598751278594136" lon="7.425199281424284">
        <ele>1958</ele>
        <time>2012-08-28T09:02:27Z</time>
      </trkpt>
      <trkpt lat="45.598751530051231" lon="7.425214368849993">
        <ele>1958.4000244140625</ele>
        <time>2012-08-28T09:02:28Z</time>
      </trkpt>
      <trkpt lat="45.598716577515006" lon="7.425341438502073">
        <ele>1958.5999755859375</ele>
        <time>2012-08-28T09:02:37Z</time>
      </trkpt>
      <trkpt lat="45.598688162863255" lon="7.42545367218554">
        <ele>1959</ele>
        <time>2012-08-28T09:02:45Z</time>
      </trkpt>
      <trkpt lat="45.598707525059581" lon="7.425556853413582">
        <ele>1962.4000244140625</ele>
        <time>2012-08-28T09:02:53Z</time>
      </trkpt>
      <trkpt lat="45.598746417090297" lon="7.425547884777188">
        <ele>1964.5999755859375</ele>
        <time>2012-08-28T09:02:58Z</time>
      </trkpt>
      <trkpt lat="45.598775250837207" lon="7.425398267805576">
        <ele>1963.5999755859375</ele>
        <time>2012-08-28T09:03:06Z</time>
      </trkpt>
      <trkpt lat="45.598814561963081" lon="7.425228618085384">
        <ele>1962.800048828125</ele>
        <time>2012-08-28T09:03:15Z</time>
      </trkpt>
      <trkpt lat="45.598869128152728" lon="7.42507254704833">
        <ele>1963.5999755859375</ele>
        <time>2012-08-28T09:03:24Z</time>
      </trkpt>
      <trkpt lat="45.598931154236197" lon="7.424913374707103">
        <ele>1964.800048828125</ele>
        <time>2012-08-28T09:03:34Z</time>
      </trkpt>
      <trkpt lat="45.59901530854404" lon="7.424805164337158">
        <ele>1968</ele>
        <time>2012-08-28T09:03:43Z</time>
      </trkpt>
      <trkpt lat="45.59902997687459" lon="7.424882780760527">
        <ele>1970.800048828125</ele>
        <time>2012-08-28T09:03:47Z</time>
      </trkpt>
      <trkpt lat="45.599006591364741" lon="7.424934916198254">
        <ele>1970.4000244140625</ele>
        <time>2012-08-28T09:03:50Z</time>
      </trkpt>
      <trkpt lat="45.598992174491286" lon="7.425011610612273">
        <ele>1971</ele>
        <time>2012-08-28T09:03:54Z</time>
      </trkpt>
      <trkpt lat="45.598971303552389" lon="7.425120323896408">
        <ele>1971.5999755859375</ele>
        <time>2012-08-28T09:04:00Z</time>
      </trkpt>
      <trkpt lat="45.598941715434194" lon="7.425181344151497">
        <ele>1970.5999755859375</ele>
        <time>2012-08-28T09:04:04Z</time>
      </trkpt>
      <trkpt lat="45.598908942192793" lon="7.425223253667355">
        <ele>1969.199951171875</ele>
        <time>2012-08-28T09:04:07Z</time>
      </trkpt>
      <trkpt lat="45.598884718492627" lon="7.425267258659005">
        <ele>1968.4000244140625</ele>
        <time>2012-08-28T09:04:10Z</time>
      </trkpt>
      <trkpt lat="45.598895028233528" lon="7.425338672474027">
        <ele>1970.4000244140625</ele>
        <time>2012-08-28T09:04:13Z</time>
      </trkpt>
      <trkpt lat="45.598905421793461" lon="7.425481667742133">
        <ele>1973.5999755859375</ele>
        <time>2012-08-28T09:04:19Z</time>
      </trkpt>
      <trkpt lat="45.598900895565748" lon="7.425649724900723">
        <ele>1976.4000244140625</ele>
        <time>2012-08-28T09:04:27Z</time>
      </trkpt>
      <trkpt lat="45.598856471478939" lon="7.425779476761818">
        <ele>1976</ele>
        <time>2012-08-28T09:04:35Z</time>
      </trkpt>
      <trkpt lat="45.598781453445554" lon="7.425902187824249">
        <ele>1973.199951171875</ele>
        <time>2012-08-28T09:04:43Z</time>
      </trkpt>
      <trkpt lat="45.598753709346056" lon="7.42605222389102">
        <ele>1973.4000244140625</ele>
        <time>2012-08-28T09:04:51Z</time>
      </trkpt>
      <trkpt lat="45.598694868385792" lon="7.426178622990847">
        <ele>1971.800048828125</ele>
        <time>2012-08-28T09:04:58Z</time>
      </trkpt>
      <trkpt lat="45.598651617765427" lon="7.426368473097682">
        <ele>1972</ele>
        <time>2012-08-28T09:05:08Z</time>
      </trkpt>
      <trkpt lat="45.598654802888632" lon="7.426567208021879">
        <ele>1974.800048828125</ele>
        <time>2012-08-28T09:05:18Z</time>
      </trkpt>
      <trkpt lat="45.59868355281651" lon="7.426695702597499">
        <ele>1978.4000244140625</ele>
        <time>2012-08-28T09:05:25Z</time>
      </trkpt>
      <trkpt lat="45.5986806191504" lon="7.426810702309012">
        <ele>1981</ele>
        <time>2012-08-28T09:05:32Z</time>
      </trkpt>
      <trkpt lat="45.598616413772106" lon="7.4269547034055">
        <ele>1981.5999755859375</ele>
        <time>2012-08-28T09:05:41Z</time>
      </trkpt>
      <trkpt lat="45.598519602790475" lon="7.427016729488969">
        <ele>1978.800048828125</ele>
        <time>2012-08-28T09:05:49Z</time>
      </trkpt>
      <trkpt lat="45.598434023559093" lon="7.427076073363423">
        <ele>1976.800048828125</ele>
        <time>2012-08-28T09:05:56Z</time>
      </trkpt>
      <trkpt lat="45.598366130143404" lon="7.427179170772433">
        <ele>1976.800048828125</ele>
        <time>2012-08-28T09:06:05Z</time>
      </trkpt>
      <trkpt lat="45.59827116318047" lon="7.427236838266254">
        <ele>1975.800048828125</ele>
        <time>2012-08-28T09:06:13Z</time>
      </trkpt>
      <trkpt lat="45.598193965852261" lon="7.427242202684283">
        <ele>1974.199951171875</ele>
        <time>2012-08-28T09:06:19Z</time>
      </trkpt>
      <trkpt lat="45.598130263388157" lon="7.427251590415835">
        <ele>1973.199951171875</ele>
        <time>2012-08-28T09:06:26Z</time>
      </trkpt>
      <trkpt lat="45.59809279628098" lon="7.427254524081945">
        <ele>1972.4000244140625</ele>
        <time>2012-08-28T09:06:31Z</time>
      </trkpt>
      <trkpt lat="45.598033620044589" lon="7.427276568487287">
        <ele>1971.800048828125</ele>
        <time>2012-08-28T09:06:37Z</time>
      </trkpt>
      <trkpt lat="45.597975449636579" lon="7.427368517965078">
        <ele>1973.4000244140625</ele>
        <time>2012-08-28T09:06:45Z</time>
      </trkpt>
      <trkpt lat="45.597936222329736" lon="7.427458204329014">
        <ele>1975.199951171875</ele>
        <time>2012-08-28T09:06:52Z</time>
      </trkpt>
      <trkpt lat="45.597932953387499" lon="7.427519895136356">
        <ele>1977</ele>
        <time>2012-08-28T09:06:56Z</time>
      </trkpt>
      <trkpt lat="45.597928259521723" lon="7.427566414698958">
        <ele>1978.199951171875</ele>
        <time>2012-08-28T09:06:59Z</time>
      </trkpt>
      <trkpt lat="45.59789733029902" lon="7.427570773288608">
        <ele>1977.800048828125</ele>
        <time>2012-08-28T09:07:01Z</time>
      </trkpt>
      <trkpt lat="45.597887272015214" lon="7.427631206810474">
        <ele>1979.199951171875</ele>
        <time>2012-08-28T09:07:05Z</time>
      </trkpt>
      <trkpt lat="45.597836896777153" lon="7.427730616182089">
        <ele>1981.199951171875</ele>
        <time>2012-08-28T09:07:13Z</time>
      </trkpt>
      <trkpt lat="45.597776127979159" lon="7.427806220948696">
        <ele>1982</ele>
        <time>2012-08-28T09:07:21Z</time>
      </trkpt>
      <trkpt lat="45.597736481577158" lon="7.427833545953035">
        <ele>1982</ele>
        <time>2012-08-28T09:07:25Z</time>
      </trkpt>
      <trkpt lat="45.597707480192184" lon="7.427859781309962">
        <ele>1982</ele>
        <time>2012-08-28T09:07:28Z</time>
      </trkpt>
      <trkpt lat="45.597705133259296" lon="7.427880149334669">
        <ele>1982.5999755859375</ele>
        <time>2012-08-28T09:07:29Z</time>
      </trkpt>
      <trkpt lat="45.597706725820899" lon="7.427976708859205">
        <ele>1985.4000244140625</ele>
        <time>2012-08-28T09:07:35Z</time>
      </trkpt>
      <trkpt lat="45.597712676972151" lon="7.427998501807451">
        <ele>1986.199951171875</ele>
        <time>2012-08-28T09:07:41Z</time>
      </trkpt>
      <trkpt lat="45.59777126647532" lon="7.427980648353696">
        <ele>1987</ele>
        <time>2012-08-28T09:07:46Z</time>
      </trkpt>
      <trkpt lat="45.597862880676985" lon="7.427959693595767">
        <ele>1988.5999755859375</ele>
        <time>2012-08-28T09:07:54Z</time>
      </trkpt>
      <trkpt lat="45.59794276021421" lon="7.427973942831159">
        <ele>1990.800048828125</ele>
        <time>2012-08-28T09:08:02Z</time>
      </trkpt>
      <trkpt lat="45.597993806004524" lon="7.428012415766716">
        <ele>1993.199951171875</ele>
        <time>2012-08-28T09:08:07Z</time>
      </trkpt>
      <trkpt lat="45.598041582852602" lon="7.428066646680236">
        <ele>1996</ele>
        <time>2012-08-28T09:08:12Z</time>
      </trkpt>
      <trkpt lat="45.598147697746754" lon="7.428181730210781">
        <ele>2001.800048828125</ele>
        <time>2012-08-28T09:08:21Z</time>
      </trkpt>
      <trkpt lat="45.598164964467287" lon="7.428221795707941">
        <ele>2003.5999755859375</ele>
        <time>2012-08-28T09:08:27Z</time>
      </trkpt>
      <trkpt lat="45.598226906731725" lon="7.428257502615452">
        <ele>2006.199951171875</ele>
        <time>2012-08-28T09:08:31Z</time>
      </trkpt>
      <trkpt lat="45.598242245614529" lon="7.428252724930644">
        <ele>2006.4000244140625</ele>
        <time>2012-08-28T09:08:33Z</time>
      </trkpt>
      <trkpt lat="45.598308965563774" lon="7.428193548694253">
        <ele>2006</ele>
        <time>2012-08-28T09:08:41Z</time>
      </trkpt>
      <trkpt lat="45.598392114043236" lon="7.428119704127312">
        <ele>2006.800048828125</ele>
        <time>2012-08-28T09:08:50Z</time>
      </trkpt>
      <trkpt lat="45.598435867577791" lon="7.428151052445173">
        <ele>2009.5999755859375</ele>
        <time>2012-08-28T09:08:54Z</time>
      </trkpt>
      <trkpt lat="45.598440058529377" lon="7.428175611421466">
        <ele>2010.4000244140625</ele>
        <time>2012-08-28T09:08:55Z</time>
      </trkpt>
      <trkpt lat="45.598393706604838" lon="7.42826278321445">
        <ele>2011.4000244140625</ele>
        <time>2012-08-28T09:09:01Z</time>
      </trkpt>
      <trkpt lat="45.598386330530047" lon="7.428274601697922">
        <ele>2011.4000244140625</ele>
        <time>2012-08-28T09:09:02Z</time>
      </trkpt>
      <trkpt lat="45.598313575610518" lon="7.428355822339654">
        <ele>2011.199951171875</ele>
        <time>2012-08-28T09:09:09Z</time>
      </trkpt>
      <trkpt lat="45.598231181502342" lon="7.428461601957679">
        <ele>2011.800048828125</ele>
        <time>2012-08-28T09:09:18Z</time>
      </trkpt>
      <trkpt lat="45.598158007487655" lon="7.428545672446489">
        <ele>2012</ele>
        <time>2012-08-28T09:09:26Z</time>
      </trkpt>
      <trkpt lat="45.598160773515701" lon="7.428582720458508">
        <ele>2013</ele>
        <time>2012-08-28T09:09:28Z</time>
      </trkpt>
      <trkpt lat="45.59815633110702" lon="7.428647764027119">
        <ele>2014.4000244140625</ele>
        <time>2012-08-28T09:09:32Z</time>
      </trkpt>
      <trkpt lat="45.598151972517371" lon="7.428698306903243">
        <ele>2015.5999755859375</ele>
        <time>2012-08-28T09:09:35Z</time>
      </trkpt>
      <trkpt lat="45.59813923202455" lon="7.428738372400403">
        <ele>2016.199951171875</ele>
        <time>2012-08-28T09:09:38Z</time>
      </trkpt>
      <trkpt lat="45.598134119063616" lon="7.428748598322272">
        <ele>2016.4000244140625</ele>
        <time>2012-08-28T09:09:39Z</time>
      </trkpt>
      <trkpt lat="45.59808692894876" lon="7.428821101784706">
        <ele>2016.800048828125</ele>
        <time>2012-08-28T09:09:46Z</time>
      </trkpt>
      <trkpt lat="45.597996320575476" lon="7.428852785378695">
        <ele>2014.800048828125</ele>
        <time>2012-08-28T09:09:56Z</time>
      </trkpt>
      <trkpt lat="45.597921721637249" lon="7.4288594070822">
        <ele>2012.800048828125</ele>
        <time>2012-08-28T09:10:04Z</time>
      </trkpt>
      <trkpt lat="45.597911830991507" lon="7.428868375718594">
        <ele>2012.800048828125</ele>
        <time>2012-08-28T09:10:05Z</time>
      </trkpt>
      <trkpt lat="45.597858857363462" lon="7.428881535306573">
        <ele>2011.4000244140625</ele>
        <time>2012-08-28T09:10:10Z</time>
      </trkpt>
      <trkpt lat="45.597784509882331" lon="7.428909614682198">
        <ele>2009.800048828125</ele>
        <time>2012-08-28T09:10:18Z</time>
      </trkpt>
      <trkpt lat="45.597744947299361" lon="7.428929395973682">
        <ele>2009</ele>
        <time>2012-08-28T09:10:22Z</time>
      </trkpt>
      <trkpt lat="45.597711419686675" lon="7.428941382095218">
        <ele>2008.4000244140625</ele>
        <time>2012-08-28T09:10:25Z</time>
      </trkpt>
      <trkpt lat="45.597610417753458" lon="7.428957726806402">
        <ele>2005.5999755859375</ele>
        <time>2012-08-28T09:10:34Z</time>
      </trkpt>
      <trkpt lat="45.597490472719073" lon="7.428970886394382">
        <ele>2002.4000244140625</ele>
        <time>2012-08-28T09:10:45Z</time>
      </trkpt>
      <trkpt lat="45.597409419715405" lon="7.428974406793714">
        <ele>2001.4000244140625</ele>
        <time>2012-08-28T09:10:53Z</time>
      </trkpt>
      <trkpt lat="45.597331803292036" lon="7.428993601351976">
        <ele>2000.5999755859375</ele>
        <time>2012-08-28T09:11:01Z</time>
      </trkpt>
      <trkpt lat="45.597323924303055" lon="7.429083874449134">
        <ele>2002.199951171875</ele>
        <time>2012-08-28T09:11:07Z</time>
      </trkpt>
      <trkpt lat="45.597390560433269" lon="7.429109690710902">
        <ele>2003.5999755859375</ele>
        <time>2012-08-28T09:11:11Z</time>
      </trkpt>
      <trkpt lat="45.597422663122416" lon="7.429121509194374">
        <ele>2004.199951171875</ele>
        <time>2012-08-28T09:11:13Z</time>
      </trkpt>
      <trkpt lat="45.597569933161139" lon="7.429161407053471">
        <ele>2008.199951171875</ele>
        <time>2012-08-28T09:11:21Z</time>
      </trkpt>
      <trkpt lat="45.597698511555791" lon="7.429195437580347">
        <ele>2012.199951171875</ele>
        <time>2012-08-28T09:11:29Z</time>
      </trkpt>
      <trkpt lat="45.597785180434585" lon="7.429238520562649">
        <ele>2014.5999755859375</ele>
        <time>2012-08-28T09:11:35Z</time>
      </trkpt>
      <trkpt lat="45.597925996407866" lon="7.429338349029422">
        <ele>2018.4000244140625</ele>
        <time>2012-08-28T09:11:45Z</time>
      </trkpt>
      <trkpt lat="45.59804049320519" lon="7.429370116442442">
        <ele>2022.199951171875</ele>
        <time>2012-08-28T09:11:53Z</time>
      </trkpt>
      <trkpt lat="45.598160773515701" lon="7.429475309327245">
        <ele>2025.5999755859375</ele>
        <time>2012-08-28T09:12:01Z</time>
      </trkpt>
      <trkpt lat="45.598206706345081" lon="7.429652670398355">
        <ele>2026.199951171875</ele>
        <time>2012-08-28T09:12:08Z</time>
      </trkpt>
      <trkpt lat="45.598217686638236" lon="7.429886776953936">
        <ele>2025.199951171875</ele>
        <time>2012-08-28T09:12:17Z</time>
      </trkpt>
      <trkpt lat="45.598244927823544" lon="7.43016941472888">
        <ele>2025.5999755859375</ele>
        <time>2012-08-28T09:12:28Z</time>
      </trkpt>
      <trkpt lat="45.598271666094661" lon="7.430419782176614">
        <ele>2026.800048828125</ele>
        <time>2012-08-28T09:12:38Z</time>
      </trkpt>
      <trkpt lat="45.59832195751369" lon="7.430669143795967">
        <ele>2029.199951171875</ele>
        <time>2012-08-28T09:12:48Z</time>
      </trkpt>
      <trkpt lat="45.598390270024538" lon="7.430908195674419">
        <ele>2034</ele>
        <time>2012-08-28T09:12:57Z</time>
      </trkpt>
      <trkpt lat="45.598440896719694" lon="7.431154623627663">
        <ele>2037.800048828125</ele>
        <time>2012-08-28T09:13:07Z</time>
      </trkpt>
      <trkpt lat="45.598465539515018" lon="7.43141446262598">
        <ele>2040</ele>
        <time>2012-08-28T09:13:16Z</time>
      </trkpt>
      <trkpt lat="45.598447099328041" lon="7.431611940264702">
        <ele>2038.5999755859375</ele>
        <time>2012-08-28T09:13:23Z</time>
      </trkpt>
      <trkpt lat="45.598409213125706" lon="7.431817464530468">
        <ele>2037.4000244140625</ele>
        <time>2012-08-28T09:13:31Z</time>
      </trkpt>
      <trkpt lat="45.59833662584424" lon="7.432020641863346">
        <ele>2033.5999755859375</ele>
        <time>2012-08-28T09:13:39Z</time>
      </trkpt>
      <trkpt lat="45.598271833732724" lon="7.432204792276025">
        <ele>2033.800048828125</ele>
        <time>2012-08-28T09:13:46Z</time>
      </trkpt>
      <trkpt lat="45.598207460716367" lon="7.432424398139119">
        <ele>2034.800048828125</ele>
        <time>2012-08-28T09:13:55Z</time>
      </trkpt>
      <trkpt lat="45.598192876204848" lon="7.432576445862651">
        <ele>2036</ele>
        <time>2012-08-28T09:14:01Z</time>
      </trkpt>
      <trkpt lat="45.598191786557436" lon="7.432758584618568">
        <ele>2037.800048828125</ele>
        <time>2012-08-28T09:14:08Z</time>
      </trkpt>
      <trkpt lat="45.598165970295668" lon="7.432946674525738">
        <ele>2039.4000244140625</ele>
        <time>2012-08-28T09:14:16Z</time>
      </trkpt>
      <trkpt lat="45.598122216761112" lon="7.433124789968133">
        <ele>2041</ele>
        <time>2012-08-28T09:14:24Z</time>
      </trkpt>
      <trkpt lat="45.598112996667624" lon="7.433284465223551">
        <ele>2042.5999755859375</ele>
        <time>2012-08-28T09:14:32Z</time>
      </trkpt>
      <trkpt lat="45.598112242296338" lon="7.433493006974459">
        <ele>2044.800048828125</ele>
        <time>2012-08-28T09:14:42Z</time>
      </trkpt>
      <trkpt lat="45.598121462389827" lon="7.433605575934053">
        <ele>2045.800048828125</ele>
        <time>2012-08-28T09:14:48Z</time>
      </trkpt>
      <trkpt lat="45.598150296136737" lon="7.433725018054247">
        <ele>2047</ele>
        <time>2012-08-28T09:14:55Z</time>
      </trkpt>
      <trkpt lat="45.598196899518371" lon="7.433888548985124">
        <ele>2048.199951171875</ele>
        <time>2012-08-28T09:15:04Z</time>
      </trkpt>
      <trkpt lat="45.59821936301887" lon="7.434045961126685">
        <ele>2049.199951171875</ele>
        <time>2012-08-28T09:15:13Z</time>
      </trkpt>
      <trkpt lat="45.59824819676578" lon="7.434171605855227">
        <ele>2050</ele>
        <time>2012-08-28T09:15:19Z</time>
      </trkpt>
      <trkpt lat="45.598254483193159" lon="7.434183256700635">
        <ele>2050</ele>
        <time>2012-08-28T09:15:21Z</time>
      </trkpt>
      <trkpt lat="45.59824962168932" lon="7.434203960001469">
        <ele>2050</ele>
        <time>2012-08-28T09:15:24Z</time>
      </trkpt>
      <trkpt lat="45.598263284191489" lon="7.434331867843866">
        <ele>2050.39990234375</ele>
        <time>2012-08-28T09:15:35Z</time>
      </trkpt>
      <trkpt lat="45.598266972228885" lon="7.434439826756716">
        <ele>2050.60009765625</ele>
        <time>2012-08-28T09:15:45Z</time>
      </trkpt>
      <trkpt lat="45.598265882581472" lon="7.434543678537011">
        <ele>2051</ele>
        <time>2012-08-28T09:15:55Z</time>
      </trkpt>
      <trkpt lat="45.598283233121037" lon="7.434664545580745">
        <ele>2051.199951171875</ele>
        <time>2012-08-28T09:16:05Z</time>
      </trkpt>
      <trkpt lat="45.59830728918314" lon="7.434797314926982">
        <ele>2051</ele>
        <time>2012-08-28T09:16:16Z</time>
      </trkpt>
      <trkpt lat="45.598343331366777" lon="7.434927066788077">
        <ele>2051.39990234375</ele>
        <time>2012-08-28T09:16:26Z</time>
      </trkpt>
      <trkpt lat="45.59836495667696" lon="7.435051873326302">
        <ele>2053.199951171875</ele>
        <time>2012-08-28T09:16:37Z</time>
      </trkpt>
      <trkpt lat="45.598396472632885" lon="7.435141559690237">
        <ele>2055.60009765625</ele>
        <time>2012-08-28T09:16:44Z</time>
      </trkpt>
      <trkpt lat="45.598424635827541" lon="7.435250105336309">
        <ele>2057.800048828125</ele>
        <time>2012-08-28T09:16:53Z</time>
      </trkpt>
      <trkpt lat="45.598456906154752" lon="7.435342725366354">
        <ele>2060.199951171875</ele>
        <time>2012-08-28T09:17:01Z</time>
      </trkpt>
      <trkpt lat="45.598484063521028" lon="7.435475829988718">
        <ele>2062.39990234375</ele>
        <time>2012-08-28T09:17:12Z</time>
      </trkpt>
      <trkpt lat="45.598482135683298" lon="7.435601809993386">
        <ele>2062.800048828125</ele>
        <time>2012-08-28T09:17:22Z</time>
      </trkpt>
      <trkpt lat="45.598497558385134" lon="7.435715720057488">
        <ele>2064</ele>
        <time>2012-08-28T09:17:32Z</time>
      </trkpt>
      <trkpt lat="45.598511639982462" lon="7.435852512717247">
        <ele>2065.60009765625</ele>
        <time>2012-08-28T09:17:44Z</time>
      </trkpt>
      <trkpt lat="45.59853645041585" lon="7.435990814119577">
        <ele>2068.39990234375</ele>
        <time>2012-08-28T09:17:55Z</time>
      </trkpt>
      <trkpt lat="45.598533684387803" lon="7.436105562373996">
        <ele>2069.199951171875</ele>
        <time>2012-08-28T09:18:05Z</time>
      </trkpt>
      <trkpt lat="45.59853158891201" lon="7.436228943988681">
        <ele>2070.199951171875</ele>
        <time>2012-08-28T09:18:14Z</time>
      </trkpt>
      <trkpt lat="45.598517926409841" lon="7.436357941478491">
        <ele>2070.60009765625</ele>
        <time>2012-08-28T09:18:24Z</time>
      </trkpt>
      <trkpt lat="45.598480626940727" lon="7.436478221789002">
        <ele>2069.199951171875</ele>
        <time>2012-08-28T09:18:34Z</time>
      </trkpt>
      <trkpt lat="45.598444417119026" lon="7.436632616445422">
        <ele>2068.39990234375</ele>
        <time>2012-08-28T09:18:46Z</time>
      </trkpt>
      <trkpt lat="45.598400076851249" lon="7.436760272830725">
        <ele>2066.60009765625</ele>
        <time>2012-08-28T09:18:57Z</time>
      </trkpt>
      <trkpt lat="45.598374595865607" lon="7.436871584504843">
        <ele>2066</ele>
        <time>2012-08-28T09:19:06Z</time>
      </trkpt>
      <trkpt lat="45.598362358286977" lon="7.436999911442399">
        <ele>2066</ele>
        <time>2012-08-28T09:19:16Z</time>
      </trkpt>
      <trkpt lat="45.598389850929379" lon="7.43710745126009">
        <ele>2068.39990234375</ele>
        <time>2012-08-28T09:19:25Z</time>
      </trkpt>
      <trkpt lat="45.598453721031547" lon="7.437094375491142">
        <ele>2072</ele>
        <time>2012-08-28T09:19:32Z</time>
      </trkpt>
      <trkpt lat="45.598459588363767" lon="7.43707962334156">
        <ele>2072.199951171875</ele>
        <time>2012-08-28T09:19:33Z</time>
      </trkpt>
      <trkpt lat="45.598484566435218" lon="7.436957247555256">
        <ele>2073</ele>
        <time>2012-08-28T09:19:42Z</time>
      </trkpt>
      <trkpt lat="45.598526895046234" lon="7.436859514564276">
        <ele>2074.800048828125</ele>
        <time>2012-08-28T09:19:50Z</time>
      </trkpt>
      <trkpt lat="45.598594956099987" lon="7.436808971688151">
        <ele>2078.60009765625</ele>
        <time>2012-08-28T09:19:58Z</time>
      </trkpt>
      <trkpt lat="45.598663352429867" lon="7.436718279495835">
        <ele>2082.39990234375</ele>
        <time>2012-08-28T09:20:07Z</time>
      </trkpt>
      <trkpt lat="45.598726216703653" lon="7.436599927023053">
        <ele>2085.39990234375</ele>
        <time>2012-08-28T09:20:18Z</time>
      </trkpt>
      <trkpt lat="45.598773909732699" lon="7.436475455760956">
        <ele>2087.39990234375</ele>
        <time>2012-08-28T09:20:28Z</time>
      </trkpt>
      <trkpt lat="45.598799725994468" lon="7.436361964792013">
        <ele>2088</ele>
        <time>2012-08-28T09:20:37Z</time>
      </trkpt>
      <trkpt lat="45.598827134817839" lon="7.436243109405041">
        <ele>2088.800048828125</ele>
        <time>2012-08-28T09:20:46Z</time>
      </trkpt>
      <trkpt lat="45.598859656602144" lon="7.436133222654462">
        <ele>2090</ele>
        <time>2012-08-28T09:20:55Z</time>
      </trkpt>
      <trkpt lat="45.598885389044881" lon="7.43598410859704">
        <ele>2090.39990234375</ele>
        <time>2012-08-28T09:21:06Z</time>
      </trkpt>
      <trkpt lat="45.598908355459571" lon="7.435862571001053">
        <ele>2090.800048828125</ele>
        <time>2012-08-28T09:21:15Z</time>
      </trkpt>
      <trkpt lat="45.598922185599804" lon="7.435709265992045">
        <ele>2091.199951171875</ele>
        <time>2012-08-28T09:21:26Z</time>
      </trkpt>
      <trkpt lat="45.598921095952392" lon="7.435564007610083">
        <ele>2090.800048828125</ele>
        <time>2012-08-28T09:21:37Z</time>
      </trkpt>
      <trkpt lat="45.598935093730688" lon="7.435433249920607">
        <ele>2091.60009765625</ele>
        <time>2012-08-28T09:21:48Z</time>
      </trkpt>
      <trkpt lat="45.598919587209821" lon="7.435331493616104">
        <ele>2090.39990234375</ele>
        <time>2012-08-28T09:21:56Z</time>
      </trkpt>
      <trkpt lat="45.598900392651558" lon="7.435208028182387">
        <ele>2088.800048828125</ele>
        <time>2012-08-28T09:22:05Z</time>
      </trkpt>
      <trkpt lat="45.598888071253896" lon="7.435089508071542">
        <ele>2087.800048828125</ele>
        <time>2012-08-28T09:22:14Z</time>
      </trkpt>
      <trkpt lat="45.598871223628521" lon="7.43495162576437">
        <ele>2086</ele>
        <time>2012-08-28T09:22:25Z</time>
      </trkpt>
      <trkpt lat="45.598868457600474" lon="7.43481039069593">
        <ele>2084.39990234375</ele>
        <time>2012-08-28T09:22:36Z</time>
      </trkpt>
      <trkpt lat="45.598865691572428" lon="7.434677537530661">
        <ele>2082.800048828125</ele>
        <time>2012-08-28T09:22:47Z</time>
      </trkpt>
      <trkpt lat="45.598861584439874" lon="7.434564046561718">
        <ele>2081.60009765625</ele>
        <time>2012-08-28T09:22:56Z</time>
      </trkpt>
      <trkpt lat="45.598854376003146" lon="7.434402275830507">
        <ele>2079.39990234375</ele>
        <time>2012-08-28T09:23:08Z</time>
      </trkpt>
      <trkpt lat="45.598853621631861" lon="7.434321055188775">
        <ele>2078.60009765625</ele>
        <time>2012-08-28T09:23:15Z</time>
      </trkpt>
      <trkpt lat="45.598862171173096" lon="7.434196164831519">
        <ele>2077.800048828125</ele>
        <time>2012-08-28T09:23:25Z</time>
      </trkpt>
      <trkpt lat="45.598886730149388" lon="7.434179401025176">
        <ele>2079</ele>
        <time>2012-08-28T09:23:28Z</time>
      </trkpt>
      <trkpt lat="45.598911037668586" lon="7.434197338297963">
        <ele>2080.60009765625</ele>
        <time>2012-08-28T09:23:31Z</time>
      </trkpt>
      <trkpt lat="45.598928807303309" lon="7.434228351339698">
        <ele>2081.800048828125</ele>
        <time>2012-08-28T09:23:34Z</time>
      </trkpt>
      <trkpt lat="45.598948420956731" lon="7.434282330796123">
        <ele>2083.60009765625</ele>
        <time>2012-08-28T09:23:39Z</time>
      </trkpt>
      <trkpt lat="45.598955377936363" lon="7.434310913085938">
        <ele>2084.199951171875</ele>
        <time>2012-08-28T09:23:46Z</time>
      </trkpt>
      <trkpt lat="45.598956551402807" lon="7.434435468167067">
        <ele>2085.800048828125</ele>
        <time>2012-08-28T09:23:53Z</time>
      </trkpt>
      <trkpt lat="45.598977757617831" lon="7.434545857831836">
        <ele>2088.199951171875</ele>
        <time>2012-08-28T09:24:00Z</time>
      </trkpt>
      <trkpt lat="45.599007597193122" lon="7.434683740139008">
        <ele>2091.60009765625</ele>
        <time>2012-08-28T09:24:09Z</time>
      </trkpt>
      <trkpt lat="45.599030982702971" lon="7.434821035712957">
        <ele>2094.800048828125</ele>
        <time>2012-08-28T09:24:18Z</time>
      </trkpt>
      <trkpt lat="45.59904707595706" lon="7.434985572472215">
        <ele>2098</ele>
        <time>2012-08-28T09:24:29Z</time>
      </trkpt>
      <trkpt lat="45.599078508093953" lon="7.435101661831141">
        <ele>2100.39990234375</ele>
        <time>2012-08-28T09:24:37Z</time>
      </trkpt>
      <trkpt lat="45.599111616611481" lon="7.43522185832262">
        <ele>2102.60009765625</ele>
        <time>2012-08-28T09:24:45Z</time>
      </trkpt>
      <trkpt lat="45.599151933565736" lon="7.435357309877873">
        <ele>2105.39990234375</ele>
        <time>2012-08-28T09:24:54Z</time>
      </trkpt>
      <trkpt lat="45.599178839474916" lon="7.435471555218101">
        <ele>2107.39990234375</ele>
        <time>2012-08-28T09:25:01Z</time>
      </trkpt>
      <trkpt lat="45.599196944385767" lon="7.435616394504905">
        <ele>2109</ele>
        <time>2012-08-28T09:25:09Z</time>
      </trkpt>
      <trkpt lat="45.599211109802127" lon="7.4357686098665">
        <ele>2110.199951171875</ele>
        <time>2012-08-28T09:25:18Z</time>
      </trkpt>
      <trkpt lat="45.599224688485265" lon="7.435915460810065">
        <ele>2111.800048828125</ele>
        <time>2012-08-28T09:25:27Z</time>
      </trkpt>
      <trkpt lat="45.599231058731675" lon="7.436013193801045">
        <ele>2113</ele>
        <time>2012-08-28T09:25:34Z</time>
      </trkpt>
      <trkpt lat="45.59924304485321" lon="7.436123164370656">
        <ele>2114.60009765625</ele>
        <time>2012-08-28T09:25:41Z</time>
      </trkpt>
      <trkpt lat="45.599256539717317" lon="7.436260795220733">
        <ele>2116.39990234375</ele>
        <time>2012-08-28T09:25:50Z</time>
      </trkpt>
      <trkpt lat="45.599232232198119" lon="7.436430947855115">
        <ele>2116</ele>
        <time>2012-08-28T09:26:01Z</time>
      </trkpt>
      <trkpt lat="45.599200464785099" lon="7.436567153781653">
        <ele>2114.60009765625</ele>
        <time>2012-08-28T09:26:10Z</time>
      </trkpt>
      <trkpt lat="45.599171128123999" lon="7.436700677499175">
        <ele>2113.199951171875</ele>
        <time>2012-08-28T09:26:19Z</time>
      </trkpt>
      <trkpt lat="45.599143300205469" lon="7.436840739101172">
        <ele>2111.39990234375</ele>
        <time>2012-08-28T09:26:27Z</time>
      </trkpt>
      <trkpt lat="45.59912527911365" lon="7.436984237283468">
        <ele>2110.199951171875</ele>
        <time>2012-08-28T09:26:36Z</time>
      </trkpt>
      <trkpt lat="45.599094601348042" lon="7.4371103849262">
        <ele>2108.39990234375</ele>
        <time>2012-08-28T09:26:44Z</time>
      </trkpt>
      <trkpt lat="45.599076664075255" lon="7.437253799289465">
        <ele>2107.39990234375</ele>
        <time>2012-08-28T09:26:53Z</time>
      </trkpt>
      <trkpt lat="45.599067527800798" lon="7.437381707131863">
        <ele>2106.800048828125</ele>
        <time>2012-08-28T09:27:01Z</time>
      </trkpt>
      <trkpt lat="45.599062750115991" lon="7.437485978007317">
        <ele>2106.60009765625</ele>
        <time>2012-08-28T09:27:08Z</time>
      </trkpt>
      <trkpt lat="45.599058391526341" lon="7.43755160830915">
        <ele>2108</ele>
        <time>2012-08-28T09:27:13Z</time>
      </trkpt>
      <trkpt lat="45.599045567214489" lon="7.437650514766574">
        <ele>2110.800048828125</ele>
        <time>2012-08-28T09:27:20Z</time>
      </trkpt>
      <trkpt lat="45.599027965217829" lon="7.437781356275082">
        <ele>2114.199951171875</ele>
        <time>2012-08-28T09:27:29Z</time>
      </trkpt>
      <trkpt lat="45.599035760387778" lon="7.437895853072405">
        <ele>2118.60009765625</ele>
        <time>2012-08-28T09:27:36Z</time>
      </trkpt>
      <trkpt lat="45.599048417061567" lon="7.43801387026906">
        <ele>2123.39990234375</ele>
        <time>2012-08-28T09:27:43Z</time>
      </trkpt>
      <trkpt lat="45.599070126190782" lon="7.438145047053695">
        <ele>2129.60009765625</ele>
        <time>2012-08-28T09:27:52Z</time>
      </trkpt>
      <trkpt lat="45.5990847107023" lon="7.438314612954855">
        <ele>2136.60009765625</ele>
        <time>2012-08-28T09:28:02Z</time>
      </trkpt>
      <trkpt lat="45.599067443981767" lon="7.438463307917118">
        <ele>2136.60009765625</ele>
        <time>2012-08-28T09:28:11Z</time>
      </trkpt>
      <trkpt lat="45.599055206403136" lon="7.438574284315109">
        <ele>2136.39990234375</ele>
        <time>2012-08-28T09:28:18Z</time>
      </trkpt>
      <trkpt lat="45.59904514811933" lon="7.438705544918776">
        <ele>2136.39990234375</ele>
        <time>2012-08-28T09:28:26Z</time>
      </trkpt>
      <trkpt lat="45.599046237766743" lon="7.438836805522442">
        <ele>2137.39990234375</ele>
        <time>2012-08-28T09:28:34Z</time>
      </trkpt>
      <trkpt lat="45.599064845591784" lon="7.439018106088042">
        <ele>2139.800048828125</ele>
        <time>2012-08-28T09:28:44Z</time>
      </trkpt>
      <trkpt lat="45.599053781479597" lon="7.439147522673011">
        <ele>2139.800048828125</ele>
        <time>2012-08-28T09:28:51Z</time>
      </trkpt>
      <trkpt lat="45.599054368212819" lon="7.439149869605899">
        <ele>2140</ele>
        <time>2012-08-28T09:28:56Z</time>
      </trkpt>
      <trkpt lat="45.599100384861231" lon="7.439217092469335">
        <ele>2144.60009765625</ele>
        <time>2012-08-28T09:29:43Z</time>
      </trkpt>
      <trkpt lat="45.599091751500964" lon="7.439254056662321">
        <ele>2144.800048828125</ele>
        <time>2012-08-28T09:29:45Z</time>
      </trkpt>
      <trkpt lat="45.599037101492286" lon="7.439405936747789">
        <ele>2144.39990234375</ele>
        <time>2012-08-28T09:29:53Z</time>
      </trkpt>
      <trkpt lat="45.598951522260904" lon="7.439519427716732">
        <ele>2141</ele>
        <time>2012-08-28T09:30:01Z</time>
      </trkpt>
      <trkpt lat="45.598881281912327" lon="7.439636271446943">
        <ele>2138.39990234375</ele>
        <time>2012-08-28T09:30:09Z</time>
      </trkpt>
      <trkpt lat="45.598845658823848" lon="7.439781194552779">
        <ele>2139.199951171875</ele>
        <time>2012-08-28T09:30:18Z</time>
      </trkpt>
      <trkpt lat="45.598808275535703" lon="7.439894517883658">
        <ele>2139</ele>
        <time>2012-08-28T09:30:26Z</time>
      </trkpt>
      <trkpt lat="45.598774747923017" lon="7.440018318593502">
        <ele>2139.39990234375</ele>
        <time>2012-08-28T09:30:34Z</time>
      </trkpt>
      <trkpt lat="45.598735017701983" lon="7.44013742543757">
        <ele>2139.800048828125</ele>
        <time>2012-08-28T09:30:42Z</time>
      </trkpt>
      <trkpt lat="45.598721103742719" lon="7.440202888101339">
        <ele>2140.60009765625</ele>
        <time>2012-08-28T09:30:48Z</time>
      </trkpt>
      <trkpt lat="45.598696628585458" lon="7.440288802608848">
        <ele>2141.199951171875</ele>
        <time>2012-08-28T09:30:55Z</time>
      </trkpt>
      <trkpt lat="45.598669052124023" lon="7.440389804542065">
        <ele>2141.800048828125</ele>
        <time>2012-08-28T09:31:04Z</time>
      </trkpt>
      <trkpt lat="45.598629908636212" lon="7.440525591373444">
        <ele>2142.60009765625</ele>
        <time>2012-08-28T09:31:16Z</time>
      </trkpt>
      <trkpt lat="45.598596967756748" lon="7.440670011565089">
        <ele>2144</ele>
        <time>2012-08-28T09:31:28Z</time>
      </trkpt>
      <trkpt lat="45.598571067675948" lon="7.440784173086286">
        <ele>2145.199951171875</ele>
        <time>2012-08-28T09:31:38Z</time>
      </trkpt>
      <trkpt lat="45.598535276949406" lon="7.440899424254894">
        <ele>2145.39990234375</ele>
        <time>2012-08-28T09:31:48Z</time>
      </trkpt>
      <trkpt lat="45.598506694659591" lon="7.440987601876259">
        <ele>2145.199951171875</ele>
        <time>2012-08-28T09:31:57Z</time>
      </trkpt>
      <trkpt lat="45.598498228937387" lon="7.441090531647205">
        <ele>2147.199951171875</ele>
        <time>2012-08-28T09:32:06Z</time>
      </trkpt>
      <trkpt lat="45.598499150946736" lon="7.441203603520989">
        <ele>2150</ele>
        <time>2012-08-28T09:32:16Z</time>
      </trkpt>
      <trkpt lat="45.598467132076621" lon="7.441299995407462">
        <ele>2149.800048828125</ele>
        <time>2012-08-28T09:32:25Z</time>
      </trkpt>
      <trkpt lat="45.598429162055254" lon="7.441423544660211">
        <ele>2150</ele>
        <time>2012-08-28T09:32:36Z</time>
      </trkpt>
      <trkpt lat="45.598411895334721" lon="7.441543741151691">
        <ele>2151.800048828125</ele>
        <time>2012-08-28T09:32:47Z</time>
      </trkpt>
      <trkpt lat="45.598384318873286" lon="7.441666955128312">
        <ele>2152.800048828125</ele>
        <time>2012-08-28T09:32:57Z</time>
      </trkpt>
      <trkpt lat="45.598354563117027" lon="7.441751947626472">
        <ele>2152.39990234375</ele>
        <time>2012-08-28T09:33:05Z</time>
      </trkpt>
      <trkpt lat="45.598302762955427" lon="7.44185739196837">
        <ele>2152.60009765625</ele>
        <time>2012-08-28T09:33:16Z</time>
      </trkpt>
      <trkpt lat="45.598259512335062" lon="7.441978426650167">
        <ele>2154.39990234375</ele>
        <time>2012-08-28T09:33:27Z</time>
      </trkpt>
      <trkpt lat="45.59823595918715" lon="7.442086972296238">
        <ele>2156.199951171875</ele>
        <time>2012-08-28T09:33:37Z</time>
      </trkpt>
      <trkpt lat="45.598235037177801" lon="7.442186549305916">
        <ele>2158.199951171875</ele>
        <time>2012-08-28T09:33:45Z</time>
      </trkpt>
      <trkpt lat="45.598210310563445" lon="7.442322168499231">
        <ele>2160.60009765625</ele>
        <time>2012-08-28T09:33:56Z</time>
      </trkpt>
      <trkpt lat="45.598194384947419" lon="7.442444125190377">
        <ele>2162.60009765625</ele>
        <time>2012-08-28T09:34:06Z</time>
      </trkpt>
      <trkpt lat="45.598169825971127" lon="7.442556442692876">
        <ele>2164.39990234375</ele>
        <time>2012-08-28T09:34:15Z</time>
      </trkpt>
      <trkpt lat="45.598160270601511" lon="7.442652499303222">
        <ele>2166</ele>
        <time>2012-08-28T09:34:22Z</time>
      </trkpt>
      <trkpt lat="45.598158091306686" lon="7.442656103521586">
        <ele>2166</ele>
        <time>2012-08-28T09:34:28Z</time>
      </trkpt>
      <trkpt lat="45.59819832444191" lon="7.442729528993368">
        <ele>2168.199951171875</ele>
        <time>2012-08-28T09:34:59Z</time>
      </trkpt>
      <trkpt lat="45.598170412704349" lon="7.442840840667486">
        <ele>2169.800048828125</ele>
        <time>2012-08-28T09:35:05Z</time>
      </trkpt>
      <trkpt lat="45.598104111850262" lon="7.442978303879499">
        <ele>2171.199951171875</ele>
        <time>2012-08-28T09:35:12Z</time>
      </trkpt>
      <trkpt lat="45.5979916267097" lon="7.443045610561967">
        <ele>2170.39990234375</ele>
        <time>2012-08-28T09:35:20Z</time>
      </trkpt>
      <trkpt lat="45.597845278680325" lon="7.44307016953826">
        <ele>2168.199951171875</ele>
        <time>2012-08-28T09:35:29Z</time>
      </trkpt>
      <trkpt lat="45.597718209028244" lon="7.443123059347272">
        <ele>2167</ele>
        <time>2012-08-28T09:35:38Z</time>
      </trkpt>
      <trkpt lat="45.597632043063641" lon="7.443180475383997">
        <ele>2166.60009765625</ele>
        <time>2012-08-28T09:35:45Z</time>
      </trkpt>
      <trkpt lat="45.597542524337769" lon="7.443228084594011">
        <ele>2166.199951171875</ele>
        <time>2012-08-28T09:35:52Z</time>
      </trkpt>
      <trkpt lat="45.597517378628254" lon="7.443247865885496">
        <ele>2166.199951171875</ele>
        <time>2012-08-28T09:35:54Z</time>
      </trkpt>
      <trkpt lat="45.597515115514398" lon="7.443309472873807">
        <ele>2167.60009765625</ele>
        <time>2012-08-28T09:35:58Z</time>
      </trkpt>
      <trkpt lat="45.597539590671659" lon="7.443331433460116">
        <ele>2168.60009765625</ele>
        <time>2012-08-28T09:36:01Z</time>
      </trkpt>
      <trkpt lat="45.597565909847617" lon="7.443330008536577">
        <ele>2169</ele>
        <time>2012-08-28T09:36:03Z</time>
      </trkpt>
      <trkpt lat="45.597599102184176" lon="7.443324057385325">
        <ele>2169.39990234375</ele>
        <time>2012-08-28T09:36:06Z</time>
      </trkpt>
      <trkpt lat="45.597627433016896" lon="7.443307377398014">
        <ele>2169.60009765625</ele>
        <time>2012-08-28T09:36:08Z</time>
      </trkpt>
      <trkpt lat="45.59765936806798" lon="7.443294720724225">
        <ele>2169.800048828125</ele>
        <time>2012-08-28T09:36:11Z</time>
      </trkpt>
      <trkpt lat="45.597702451050282" lon="7.443265803158283">
        <ele>2169.800048828125</ele>
        <time>2012-08-28T09:36:15Z</time>
      </trkpt>
      <trkpt lat="45.59778249822557" lon="7.443267730996013">
        <ele>2171.39990234375</ele>
        <time>2012-08-28T09:36:22Z</time>
      </trkpt>
      <trkpt lat="45.597838656976819" lon="7.443324979394674">
        <ele>2173.60009765625</ele>
        <time>2012-08-28T09:36:29Z</time>
      </trkpt>
      <trkpt lat="45.597870424389839" lon="7.44337116368115">
        <ele>2175.60009765625</ele>
        <time>2012-08-28T09:36:33Z</time>
      </trkpt>
      <trkpt lat="45.597862964496017" lon="7.443413240835071">
        <ele>2176.800048828125</ele>
        <time>2012-08-28T09:36:36Z</time>
      </trkpt>
      <trkpt lat="45.597915770485997" lon="7.443547183647752">
        <ele>2182.199951171875</ele>
        <time>2012-08-28T09:36:45Z</time>
      </trkpt>
      <trkpt lat="45.597921386361122" lon="7.443598061800003">
        <ele>2184</ele>
        <time>2012-08-28T09:36:50Z</time>
      </trkpt>
      <trkpt lat="45.597995650023222" lon="7.443687077611685">
        <ele>2187.800048828125</ele>
        <time>2012-08-28T09:36:58Z</time>
      </trkpt>
      <trkpt lat="45.598018364980817" lon="7.443709122017026">
        <ele>2188.800048828125</ele>
        <time>2012-08-28T09:37:00Z</time>
      </trkpt>
      <trkpt lat="45.598056251183152" lon="7.443734016269445">
        <ele>2190.199951171875</ele>
        <time>2012-08-28T09:37:03Z</time>
      </trkpt>
      <trkpt lat="45.598116014152765" lon="7.443776428699493">
        <ele>2192.199951171875</ele>
        <time>2012-08-28T09:37:11Z</time>
      </trkpt>
      <trkpt lat="45.598180135712028" lon="7.443809704855084">
        <ele>2194</ele>
        <time>2012-08-28T09:37:18Z</time>
      </trkpt>
      <trkpt lat="45.598230259492993" lon="7.44382856413722">
        <ele>2195.199951171875</ele>
        <time>2012-08-28T09:37:23Z</time>
      </trkpt>
      <trkpt lat="45.598286921158433" lon="7.443851782009006">
        <ele>2196.39990234375</ele>
        <time>2012-08-28T09:37:29Z</time>
      </trkpt>
      <trkpt lat="45.598329333588481" lon="7.443932583555579">
        <ele>2199.199951171875</ele>
        <time>2012-08-28T09:37:37Z</time>
      </trkpt>
      <trkpt lat="45.59827895835042" lon="7.444013888016343">
        <ele>2201.199951171875</ele>
        <time>2012-08-28T09:37:44Z</time>
      </trkpt>
      <trkpt lat="45.598211232572794" lon="7.443999890238047">
        <ele>2200</ele>
        <time>2012-08-28T09:37:49Z</time>
      </trkpt>
      <trkpt lat="45.598202012479305" lon="7.444000728428364">
        <ele>2200</ele>
        <time>2012-08-28T09:37:50Z</time>
      </trkpt>
      <trkpt lat="45.598125820979476" lon="7.443992514163256">
        <ele>2199</ele>
        <time>2012-08-28T09:37:59Z</time>
      </trkpt>
      <trkpt lat="45.5980468634516" lon="7.443992933258414">
        <ele>2198.39990234375</ele>
        <time>2012-08-28T09:38:08Z</time>
      </trkpt>
      <trkpt lat="45.598030099645257" lon="7.443989831954241">
        <ele>2198.199951171875</ele>
        <time>2012-08-28T09:38:10Z</time>
      </trkpt>
      <trkpt lat="45.597988190129399" lon="7.443992346525192">
        <ele>2197.800048828125</ele>
        <time>2012-08-28T09:38:15Z</time>
      </trkpt>
      <trkpt lat="45.597963882610202" lon="7.443991424515843">
        <ele>2197.60009765625</ele>
        <time>2012-08-28T09:38:18Z</time>
      </trkpt>
      <trkpt lat="45.597927337512374" lon="7.443988239392638">
        <ele>2197.199951171875</ele>
        <time>2012-08-28T09:38:25Z</time>
      </trkpt>
      <trkpt lat="45.597858019173145" lon="7.443956136703491">
        <ele>2195.39990234375</ele>
        <time>2012-08-28T09:38:33Z</time>
      </trkpt>
      <trkpt lat="45.597797334194183" lon="7.443978181108832">
        <ele>2195.60009765625</ele>
        <time>2012-08-28T09:38:41Z</time>
      </trkpt>
      <trkpt lat="45.597830275073647" lon="7.444047080352902">
        <ele>2198.199951171875</ele>
        <time>2012-08-28T09:38:48Z</time>
      </trkpt>
      <trkpt lat="45.597824491560459" lon="7.444061329588294">
        <ele>2198.60009765625</ele>
        <time>2012-08-28T09:38:49Z</time>
      </trkpt>
      <trkpt lat="45.597849804908037" lon="7.444109441712499">
        <ele>2200.60009765625</ele>
        <time>2012-08-28T09:38:54Z</time>
      </trkpt>
      <trkpt lat="45.597896073013544" lon="7.444167360663414">
        <ele>2202.800048828125</ele>
        <time>2012-08-28T09:39:01Z</time>
      </trkpt>
      <trkpt lat="45.597923565655947" lon="7.444174569100142">
        <ele>2203.199951171875</ele>
        <time>2012-08-28T09:39:06Z</time>
      </trkpt>
      <trkpt lat="45.597985088825226" lon="7.444194266572595">
        <ele>2204.199951171875</ele>
        <time>2012-08-28T09:39:16Z</time>
      </trkpt>
      <trkpt lat="45.598066812381148" lon="7.444223100319505">
        <ele>2205.60009765625</ele>
        <time>2012-08-28T09:39:27Z</time>
      </trkpt>
      <trkpt lat="45.598136801272631" lon="7.444252772256732">
        <ele>2206.60009765625</ele>
        <time>2012-08-28T09:39:35Z</time>
      </trkpt>
      <trkpt lat="45.598145518451929" lon="7.444251766428351">
        <ele>2206.60009765625</ele>
        <time>2012-08-28T09:39:36Z</time>
      </trkpt>
      <trkpt lat="45.59816068969667" lon="7.444256460294128">
        <ele>2206.800048828125</ele>
        <time>2012-08-28T09:39:44Z</time>
      </trkpt>
      <trkpt lat="45.598193714395165" lon="7.444291329011321">
        <ele>2207.800048828125</ele>
        <time>2012-08-28T09:40:12Z</time>
      </trkpt>
      <trkpt lat="45.598197737708688" lon="7.44438361376524">
        <ele>2209.800048828125</ele>
        <time>2012-08-28T09:40:18Z</time>
      </trkpt>
      <trkpt lat="45.598131604492664" lon="7.444398952648044">
        <ele>2210</ele>
        <time>2012-08-28T09:40:24Z</time>
      </trkpt>
      <trkpt lat="45.598121546208858" lon="7.444397527724505">
        <ele>2210</ele>
        <time>2012-08-28T09:40:25Z</time>
      </trkpt>
      <trkpt lat="45.598032027482986" lon="7.444402137771249">
        <ele>2210</ele>
        <time>2012-08-28T09:40:34Z</time>
      </trkpt>
      <trkpt lat="45.597949549555779" lon="7.444411274045706">
        <ele>2210.199951171875</ele>
        <time>2012-08-28T09:40:43Z</time>
      </trkpt>
      <trkpt lat="45.597874196246266" lon="7.444453183561564">
        <ele>2211.39990234375</ele>
        <time>2012-08-28T09:40:51Z</time>
      </trkpt>
      <trkpt lat="45.59785969555378" lon="7.44450774975121">
        <ele>2213.199951171875</ele>
        <time>2012-08-28T09:40:55Z</time>
      </trkpt>
      <trkpt lat="45.597864724695683" lon="7.444537756964564">
        <ele>2214</ele>
        <time>2012-08-28T09:40:57Z</time>
      </trkpt>
      <trkpt lat="45.597880063578486" lon="7.44456977583468">
        <ele>2215</ele>
        <time>2012-08-28T09:41:00Z</time>
      </trkpt>
      <trkpt lat="45.597908813506365" lon="7.444582851603627">
        <ele>2215.199951171875</ele>
        <time>2012-08-28T09:41:03Z</time>
      </trkpt>
      <trkpt lat="45.59799556620419" lon="7.44460397399962">
        <ele>2215.39990234375</ele>
        <time>2012-08-28T09:41:11Z</time>
      </trkpt>
      <trkpt lat="45.598076032474637" lon="7.444611685350537">
        <ele>2215.199951171875</ele>
        <time>2012-08-28T09:41:18Z</time>
      </trkpt>
      <trkpt lat="45.598169071599841" lon="7.444650493562222">
        <ele>2215.800048828125</ele>
        <time>2012-08-28T09:41:28Z</time>
      </trkpt>
      <trkpt lat="45.598254064098001" lon="7.444690139964223">
        <ele>2216</ele>
        <time>2012-08-28T09:41:37Z</time>
      </trkpt>
      <trkpt lat="45.598285244777799" lon="7.444716207683086">
        <ele>2216.199951171875</ele>
        <time>2012-08-28T09:41:41Z</time>
      </trkpt>
      <trkpt lat="45.598320029675961" lon="7.444735653698444">
        <ele>2216.39990234375</ele>
        <time>2012-08-28T09:41:45Z</time>
      </trkpt>
      <trkpt lat="45.598342744633555" lon="7.444750154390931">
        <ele>2216.800048828125</ele>
        <time>2012-08-28T09:41:48Z</time>
      </trkpt>
      <trkpt lat="45.59836009517312" lon="7.4447828438133">
        <ele>2217.800048828125</ele>
        <time>2012-08-28T09:41:51Z</time>
      </trkpt>
      <trkpt lat="45.598391192033887" lon="7.44486004114151">
        <ele>2219.800048828125</ele>
        <time>2012-08-28T09:41:57Z</time>
      </trkpt>
      <trkpt lat="45.598384737968445" lon="7.444906309247017">
        <ele>2220.39990234375</ele>
        <time>2012-08-28T09:42:00Z</time>
      </trkpt>
      <trkpt lat="45.598369818180799" lon="7.444949224591255">
        <ele>2220.800048828125</ele>
        <time>2012-08-28T09:42:03Z</time>
      </trkpt>
      <trkpt lat="45.598332518711686" lon="7.445002449676395">
        <ele>2221</ele>
        <time>2012-08-28T09:42:08Z</time>
      </trkpt>
      <trkpt lat="45.598244005814195" lon="7.445049472153187">
        <ele>2223.199951171875</ele>
        <time>2012-08-28T09:42:18Z</time>
      </trkpt>
      <trkpt lat="45.598185416311026" lon="7.445067577064037">
        <ele>2224.39990234375</ele>
        <time>2012-08-28T09:42:25Z</time>
      </trkpt>
      <trkpt lat="45.598118361085653" lon="7.445116108283401">
        <ele>2226.199951171875</ele>
        <time>2012-08-28T09:42:33Z</time>
      </trkpt>
      <trkpt lat="45.598111990839243" lon="7.445187857374549">
        <ele>2227.39990234375</ele>
        <time>2012-08-28T09:42:38Z</time>
      </trkpt>
      <trkpt lat="45.598147194832563" lon="7.44525290094316">
        <ele>2228</ele>
        <time>2012-08-28T09:42:44Z</time>
      </trkpt>
      <trkpt lat="45.598218189552426" lon="7.445264887064695">
        <ele>2227.199951171875</ele>
        <time>2012-08-28T09:42:51Z</time>
      </trkpt>
      <trkpt lat="45.598295889794827" lon="7.445281064137816">
        <ele>2226.199951171875</ele>
        <time>2012-08-28T09:42:58Z</time>
      </trkpt>
      <trkpt lat="45.598373170942068" lon="7.445309143513441">
        <ele>2226.60009765625</ele>
        <time>2012-08-28T09:43:05Z</time>
      </trkpt>
      <trkpt lat="45.59846319258213" lon="7.445362620055676">
        <ele>2228.60009765625</ele>
        <time>2012-08-28T09:43:14Z</time>
      </trkpt>
      <trkpt lat="45.598506527021527" lon="7.445393968373537">
        <ele>2229.39990234375</ele>
        <time>2012-08-28T09:43:19Z</time>
      </trkpt>
      <trkpt lat="45.598513735458255" lon="7.445406289771199">
        <ele>2229.800048828125</ele>
        <time>2012-08-28T09:43:20Z</time>
      </trkpt>
      <trkpt lat="45.598543072119355" lon="7.445437721908093">
        <ele>2230.39990234375</ele>
        <time>2012-08-28T09:43:23Z</time>
      </trkpt>
      <trkpt lat="45.598572827875614" lon="7.445454737171531">
        <ele>2230.800048828125</ele>
        <time>2012-08-28T09:43:26Z</time>
      </trkpt>
      <trkpt lat="45.598633261397481" lon="7.445516763255">
        <ele>2232</ele>
        <time>2012-08-28T09:43:32Z</time>
      </trkpt>
      <trkpt lat="45.598642565310001" lon="7.445523552596569">
        <ele>2232.199951171875</ele>
        <time>2012-08-28T09:43:33Z</time>
      </trkpt>
      <trkpt lat="45.598706686869264" lon="7.44559882208705">
        <ele>2233.39990234375</ele>
        <time>2012-08-28T09:43:40Z</time>
      </trkpt>
      <trkpt lat="45.598781201988459" lon="7.445696387439966">
        <ele>2234.60009765625</ele>
        <time>2012-08-28T09:43:47Z</time>
      </trkpt>
      <trkpt lat="45.598859740421176" lon="7.445775009691715">
        <ele>2235.39990234375</ele>
        <time>2012-08-28T09:43:54Z</time>
      </trkpt>
      <trkpt lat="45.598957221955061" lon="7.44582018814981">
        <ele>2235.800048828125</ele>
        <time>2012-08-28T09:44:01Z</time>
      </trkpt>
      <trkpt lat="45.599063755944371" lon="7.445749277248979">
        <ele>2235.800048828125</ele>
        <time>2012-08-28T09:44:08Z</time>
      </trkpt>
      <trkpt lat="45.599151598289609" lon="7.445636373013258">
        <ele>2236.199951171875</ele>
        <time>2012-08-28T09:44:15Z</time>
      </trkpt>
      <trkpt lat="45.599207254126668" lon="7.445508716627955">
        <ele>2238</ele>
        <time>2012-08-28T09:44:23Z</time>
      </trkpt>
      <trkpt lat="45.599218988791108" lon="7.445357507094741">
        <ele>2238.60009765625</ele>
        <time>2012-08-28T09:44:32Z</time>
      </trkpt>
      <trkpt lat="45.599178168922663" lon="7.445199005305767">
        <ele>2237.199951171875</ele>
        <time>2012-08-28T09:44:42Z</time>
      </trkpt>
      <trkpt lat="45.599105078727007" lon="7.445116611197591">
        <ele>2235.800048828125</ele>
        <time>2012-08-28T09:44:50Z</time>
      </trkpt>
      <trkpt lat="45.599038694053888" lon="7.445025751367211">
        <ele>2234.60009765625</ele>
        <time>2012-08-28T09:44:58Z</time>
      </trkpt>
      <trkpt lat="45.59899234212935" lon="7.444917038083077">
        <ele>2233.39990234375</ele>
        <time>2012-08-28T09:45:06Z</time>
      </trkpt>
      <trkpt lat="45.598984882235527" lon="7.44478477165103">
        <ele>2232.60009765625</ele>
        <time>2012-08-28T09:45:14Z</time>
      </trkpt>
      <trkpt lat="45.598984379321337" lon="7.444751411676407">
        <ele>2232.60009765625</ele>
        <time>2012-08-28T09:45:16Z</time>
      </trkpt>
      <trkpt lat="45.599003825336695" lon="7.444678572937846">
        <ele>2232.800048828125</ele>
        <time>2012-08-28T09:45:21Z</time>
      </trkpt>
      <trkpt lat="45.59904120862484" lon="7.444573044776917">
        <ele>2233.39990234375</ele>
        <time>2012-08-28T09:45:28Z</time>
      </trkpt>
      <trkpt lat="45.599106000736356" lon="7.444518562406302">
        <ele>2235.199951171875</ele>
        <time>2012-08-28T09:45:35Z</time>
      </trkpt>
      <trkpt lat="45.599118992686272" lon="7.444522920995951">
        <ele>2235.60009765625</ele>
        <time>2012-08-28T09:45:36Z</time>
      </trkpt>
      <trkpt lat="45.599153945222497" lon="7.444571452215314">
        <ele>2236.60009765625</ele>
        <time>2012-08-28T09:45:40Z</time>
      </trkpt>
      <trkpt lat="45.599212115630507" lon="7.444654684513807">
        <ele>2239</ele>
        <time>2012-08-28T09:45:47Z</time>
      </trkpt>
      <trkpt lat="45.599297946318984" lon="7.444711262360215">
        <ele>2242.60009765625</ele>
        <time>2012-08-28T09:45:56Z</time>
      </trkpt>
      <trkpt lat="45.599385453388095" lon="7.44472861289978">
        <ele>2246.199951171875</ele>
        <time>2012-08-28T09:46:04Z</time>
      </trkpt>
      <trkpt lat="45.59948293492198" lon="7.444747891277075">
        <ele>2250.199951171875</ele>
        <time>2012-08-28T09:46:13Z</time>
      </trkpt>
      <trkpt lat="45.599573375657201" lon="7.444783011451364">
        <ele>2253.800048828125</ele>
        <time>2012-08-28T09:46:21Z</time>
      </trkpt>
      <trkpt lat="45.5996666662395" lon="7.444903794676065">
        <ele>2257.199951171875</ele>
        <time>2012-08-28T09:46:31Z</time>
      </trkpt>
      <trkpt lat="45.599719472229481" lon="7.444994486868382">
        <ele>2259</ele>
        <time>2012-08-28T09:46:38Z</time>
      </trkpt>
      <trkpt lat="45.599781163036823" lon="7.445104289799929">
        <ele>2261.199951171875</ele>
        <time>2012-08-28T09:46:46Z</time>
      </trkpt>
      <trkpt lat="45.599800776690245" lon="7.445124909281731">
        <ele>2261.800048828125</ele>
        <time>2012-08-28T09:46:49Z</time>
      </trkpt>
      <trkpt lat="45.599802117794752" lon="7.445125076919794">
        <ele>2262</ele>
        <time>2012-08-28T09:46:51Z</time>
      </trkpt>
      <trkpt lat="45.599832376465201" lon="7.445161370560527">
        <ele>2263</ele>
        <time>2012-08-28T09:47:06Z</time>
      </trkpt>
      <trkpt lat="45.599874369800091" lon="7.445257343351841">
        <ele>2264.39990234375</ele>
        <time>2012-08-28T09:47:15Z</time>
      </trkpt>
      <trkpt lat="45.599912507459521" lon="7.445374773815274">
        <ele>2265.60009765625</ele>
        <time>2012-08-28T09:47:25Z</time>
      </trkpt>
      <trkpt lat="45.599917871877551" lon="7.445509303361177">
        <ele>2265.60009765625</ele>
        <time>2012-08-28T09:47:37Z</time>
      </trkpt>
      <trkpt lat="45.599922481924295" lon="7.445642910897732">
        <ele>2265.39990234375</ele>
        <time>2012-08-28T09:47:49Z</time>
      </trkpt>
      <trkpt lat="45.599921811372042" lon="7.445710804313421">
        <ele>2265.199951171875</ele>
        <time>2012-08-28T09:47:57Z</time>
      </trkpt>
      <trkpt lat="45.599911082535982" lon="7.445768471807241">
        <ele>2264.800048828125</ele>
        <time>2012-08-28T09:48:16Z</time>
      </trkpt>
      <trkpt lat="45.599920386448503" lon="7.445854302495718">
        <ele>2265</ele>
        <time>2012-08-28T09:48:25Z</time>
      </trkpt>
      <trkpt lat="45.599921140819788" lon="7.445853296667337">
        <ele>2265</ele>
        <time>2012-08-28T09:48:37Z</time>
      </trkpt>
      <trkpt lat="45.599917368963361" lon="7.445912640541792">
        <ele>2265.199951171875</ele>
        <time>2012-08-28T09:48:54Z</time>
      </trkpt>
      <trkpt lat="45.599894654005766" lon="7.446017833426595">
        <ele>2265</ele>
        <time>2012-08-28T09:49:03Z</time>
      </trkpt>
      <trkpt lat="45.599862048402429" lon="7.446115566417575">
        <ele>2264.39990234375</ele>
        <time>2012-08-28T09:49:12Z</time>
      </trkpt>
      <trkpt lat="45.599818797782063" lon="7.446238109841943">
        <ele>2263.800048828125</ele>
        <time>2012-08-28T09:49:24Z</time>
      </trkpt>
      <trkpt lat="45.5997892934829" lon="7.446346906945109">
        <ele>2263.60009765625</ele>
        <time>2012-08-28T09:49:34Z</time>
      </trkpt>
      <trkpt lat="45.599768757820129" lon="7.446468528360128">
        <ele>2264</ele>
        <time>2012-08-28T09:49:45Z</time>
      </trkpt>
      <trkpt lat="45.599758196622133" lon="7.446593837812543">
        <ele>2264.60009765625</ele>
        <time>2012-08-28T09:49:55Z</time>
      </trkpt>
      <trkpt lat="45.599790550768375" lon="7.446698024868965">
        <ele>2266.199951171875</ele>
        <time>2012-08-28T09:50:04Z</time>
      </trkpt>
      <trkpt lat="45.599845452234149" lon="7.446766924113035">
        <ele>2267.60009765625</ele>
        <time>2012-08-28T09:50:13Z</time>
      </trkpt>
      <trkpt lat="45.599906053394079" lon="7.446815203875303">
        <ele>2269</ele>
        <time>2012-08-28T09:50:21Z</time>
      </trkpt>
      <trkpt lat="45.599975874647498" lon="7.446871278807521">
        <ele>2270.60009765625</ele>
        <time>2012-08-28T09:50:30Z</time>
      </trkpt>
      <trkpt lat="45.60003706254065" lon="7.446951242163777">
        <ele>2273.39990234375</ele>
        <time>2012-08-28T09:50:39Z</time>
      </trkpt>
      <trkpt lat="45.600066147744656" lon="7.446988373994827">
        <ele>2275.199951171875</ele>
        <time>2012-08-28T09:50:44Z</time>
      </trkpt>
      <trkpt lat="45.600069500505924" lon="7.446994492784143">
        <ele>2275.39990234375</ele>
        <time>2012-08-28T09:50:47Z</time>
      </trkpt>
      <trkpt lat="45.600097831338644" lon="7.447053669020534">
        <ele>2277.199951171875</ele>
        <time>2012-08-28T09:50:52Z</time>
      </trkpt>
      <trkpt lat="45.600158097222447" lon="7.447203285992146">
        <ele>2281</ele>
        <time>2012-08-28T09:51:01Z</time>
      </trkpt>
      <trkpt lat="45.600207047536969" lon="7.447358854115009">
        <ele>2284.199951171875</ele>
        <time>2012-08-28T09:51:10Z</time>
      </trkpt>
      <trkpt lat="45.6002192851156" lon="7.447487432509661">
        <ele>2285</ele>
        <time>2012-08-28T09:51:17Z</time>
      </trkpt>
      <trkpt lat="45.600231941789389" lon="7.447677114978433">
        <ele>2286.39990234375</ele>
        <time>2012-08-28T09:51:27Z</time>
      </trkpt>
      <trkpt lat="45.600220123305917" lon="7.447811393067241">
        <ele>2286.199951171875</ele>
        <time>2012-08-28T09:51:34Z</time>
      </trkpt>
      <trkpt lat="45.600185506045818" lon="7.447965620085597">
        <ele>2284.60009765625</ele>
        <time>2012-08-28T09:51:41Z</time>
      </trkpt>
      <trkpt lat="45.600140327587724" lon="7.44818220846355">
        <ele>2282.60009765625</ele>
        <time>2012-08-28T09:51:51Z</time>
      </trkpt>
      <trkpt lat="45.600110907107592" lon="7.448356216773391">
        <ele>2281.60009765625</ele>
        <time>2012-08-28T09:51:59Z</time>
      </trkpt>
      <trkpt lat="45.600091712549329" lon="7.44856626726687">
        <ele>2282.199951171875</ele>
        <time>2012-08-28T09:52:09Z</time>
      </trkpt>
      <trkpt lat="45.60009959153831" lon="7.448805319145322">
        <ele>2284.39990234375</ele>
        <time>2012-08-28T09:52:20Z</time>
      </trkpt>
      <trkpt lat="45.600134627893567" lon="7.448997683823109">
        <ele>2287.800048828125</ele>
        <time>2012-08-28T09:52:29Z</time>
      </trkpt>
      <trkpt lat="45.600199671462178" lon="7.449134811758995">
        <ele>2292</ele>
        <time>2012-08-28T09:52:37Z</time>
      </trkpt>
      <trkpt lat="45.600316934287548" lon="7.449305215850473">
        <ele>2299.60009765625</ele>
        <time>2012-08-28T09:52:48Z</time>
      </trkpt>
      <trkpt lat="45.600366303697228" lon="7.449494563043118">
        <ele>2303.60009765625</ele>
        <time>2012-08-28T09:52:57Z</time>
      </trkpt>
      <trkpt lat="45.600325483828783" lon="7.449620123952627">
        <ele>2303</ele>
        <time>2012-08-28T09:53:03Z</time>
      </trkpt>
      <trkpt lat="45.600192043930292" lon="7.449683072045445">
        <ele>2298.39990234375</ele>
        <time>2012-08-28T09:53:11Z</time>
      </trkpt>
      <trkpt lat="45.600081905722618" lon="7.449665889143944">
        <ele>2294</ele>
        <time>2012-08-28T09:53:18Z</time>
      </trkpt>
      <trkpt lat="45.599967492744327" lon="7.44959824718535">
        <ele>2290</ele>
        <time>2012-08-28T09:53:26Z</time>
      </trkpt>
      <trkpt lat="45.599819803610444" lon="7.449535299092531">
        <ele>2290.39990234375</ele>
        <time>2012-08-28T09:53:36Z</time>
      </trkpt>
      <trkpt lat="45.599697260186076" lon="7.449466483667493">
        <ele>2290.39990234375</ele>
        <time>2012-08-28T09:53:45Z</time>
      </trkpt>
      <trkpt lat="45.599598018452525" lon="7.449379898607731">
        <ele>2289.60009765625</ele>
        <time>2012-08-28T09:53:53Z</time>
      </trkpt>
      <trkpt lat="45.599478911608458" lon="7.449279399588704">
        <ele>2289</ele>
        <time>2012-08-28T09:54:02Z</time>
      </trkpt>
      <trkpt lat="45.599347148090601" lon="7.449240423738957">
        <ele>2289.60009765625</ele>
        <time>2012-08-28T09:54:12Z</time>
      </trkpt>
      <trkpt lat="45.599208427593112" lon="7.449244949966669">
        <ele>2291</ele>
        <time>2012-08-28T09:54:22Z</time>
      </trkpt>
      <trkpt lat="45.599110778421164" lon="7.449245201423764">
        <ele>2291.39990234375</ele>
        <time>2012-08-28T09:54:29Z</time>
      </trkpt>
      <trkpt lat="45.598990330472589" lon="7.449233634397388">
        <ele>2291.39990234375</ele>
        <time>2012-08-28T09:54:37Z</time>
      </trkpt>
      <trkpt lat="45.59892444871366" lon="7.449271352961659">
        <ele>2292.199951171875</ele>
        <time>2012-08-28T09:54:42Z</time>
      </trkpt>
      <trkpt lat="45.598918832838535" lon="7.449291301891208">
        <ele>2292.39990234375</ele>
        <time>2012-08-28T09:54:43Z</time>
      </trkpt>
      <trkpt lat="45.59895814396441" lon="7.449365062639117">
        <ele>2293.800048828125</ele>
        <time>2012-08-28T09:54:48Z</time>
      </trkpt>
      <trkpt lat="45.598982786759734" lon="7.449384173378348">
        <ele>2294</ele>
        <time>2012-08-28T09:54:50Z</time>
      </trkpt>
      <trkpt lat="45.599029390141368" lon="7.449385682120919">
        <ele>2294</ele>
        <time>2012-08-28T09:54:54Z</time>
      </trkpt>
      <trkpt lat="45.599106168374419" lon="7.449407977983356">
        <ele>2294.39990234375</ele>
        <time>2012-08-28T09:55:00Z</time>
      </trkpt>
      <trkpt lat="45.599176660180092" lon="7.449486432597041">
        <ele>2295.60009765625</ele>
        <time>2012-08-28T09:55:07Z</time>
      </trkpt>
      <trkpt lat="45.599236926063895" lon="7.449567234143615">
        <ele>2296.60009765625</ele>
        <time>2012-08-28T09:55:14Z</time>
      </trkpt>
      <trkpt lat="45.599330887198448" lon="7.449632529169321">
        <ele>2296.800048828125</ele>
        <time>2012-08-28T09:55:23Z</time>
      </trkpt>
      <trkpt lat="45.599403223022819" lon="7.44968282058835">
        <ele>2297</ele>
        <time>2012-08-28T09:55:30Z</time>
      </trkpt>
      <trkpt lat="45.599477486684918" lon="7.449769657105207">
        <ele>2297.800048828125</ele>
        <time>2012-08-28T09:55:38Z</time>
      </trkpt>
      <trkpt lat="45.599515959620476" lon="7.44984894990921">
        <ele>2299</ele>
        <time>2012-08-28T09:55:44Z</time>
      </trkpt>
      <trkpt lat="45.599570358172059" lon="7.449927991256118">
        <ele>2299.800048828125</ele>
        <time>2012-08-28T09:55:51Z</time>
      </trkpt>
      <trkpt lat="45.599634647369385" lon="7.449993034824729">
        <ele>2300.39990234375</ele>
        <time>2012-08-28T09:55:58Z</time>
      </trkpt>
      <trkpt lat="45.599708827212453" lon="7.450072579085827">
        <ele>2300.800048828125</ele>
        <time>2012-08-28T09:56:06Z</time>
      </trkpt>
      <trkpt lat="45.599754424765706" lon="7.450137119740248">
        <ele>2301.39990234375</ele>
        <time>2012-08-28T09:56:13Z</time>
      </trkpt>
      <trkpt lat="45.599770434200764" lon="7.450196882709861">
        <ele>2302.199951171875</ele>
        <time>2012-08-28T09:56:20Z</time>
      </trkpt>
      <trkpt lat="45.599804380908608" lon="7.450319929048419">
        <ele>2303.60009765625</ele>
        <time>2012-08-28T09:56:32Z</time>
      </trkpt>
      <trkpt lat="45.599821479991078" lon="7.450468121096492">
        <ele>2305.60009765625</ele>
        <time>2012-08-28T09:56:45Z</time>
      </trkpt>
      <trkpt lat="45.599831370636821" lon="7.450594520196319">
        <ele>2307.39990234375</ele>
        <time>2012-08-28T09:56:56Z</time>
      </trkpt>
      <trkpt lat="45.599831789731979" lon="7.450726199895144">
        <ele>2309.199951171875</ele>
        <time>2012-08-28T09:57:07Z</time>
      </trkpt>
      <trkpt lat="45.599832041189075" lon="7.45074070058763">
        <ele>2309.39990234375</ele>
        <time>2012-08-28T09:57:13Z</time>
      </trkpt>
      <trkpt lat="45.599828017875552" lon="7.450804989784956">
        <ele>2310.39990234375</ele>
        <time>2012-08-28T09:57:27Z</time>
      </trkpt>
      <trkpt lat="45.59980639256537" lon="7.450935244560242">
        <ele>2312.60009765625</ele>
        <time>2012-08-28T09:57:38Z</time>
      </trkpt>
      <trkpt lat="45.599779486656189" lon="7.451027613133192">
        <ele>2314.199951171875</ele>
        <time>2012-08-28T09:57:46Z</time>
      </trkpt>
      <trkpt lat="45.599759202450514" lon="7.451144540682435">
        <ele>2316</ele>
        <time>2012-08-28T09:57:56Z</time>
      </trkpt>
      <trkpt lat="45.599746126681566" lon="7.451234562322497">
        <ele>2317.39990234375</ele>
        <time>2012-08-28T09:58:04Z</time>
      </trkpt>
      <trkpt lat="45.599740343168378" lon="7.451357105746865">
        <ele>2319.199951171875</ele>
        <time>2012-08-28T09:58:15Z</time>
      </trkpt>
      <trkpt lat="45.599744701758027" lon="7.451459784060717">
        <ele>2320.60009765625</ele>
        <time>2012-08-28T09:58:25Z</time>
      </trkpt>
      <trkpt lat="45.599749898537993" lon="7.451569167897105">
        <ele>2322.199951171875</ele>
        <time>2012-08-28T09:58:35Z</time>
      </trkpt>
      <trkpt lat="45.599794993177056" lon="7.451643515378237">
        <ele>2322.800048828125</ele>
        <time>2012-08-28T09:58:44Z</time>
      </trkpt>
      <trkpt lat="45.599852157756686" lon="7.451714929193258">
        <ele>2323.800048828125</ele>
        <time>2012-08-28T09:58:54Z</time>
      </trkpt>
      <trkpt lat="45.599934132769704" lon="7.451773351058364">
        <ele>2324.60009765625</ele>
        <time>2012-08-28T09:59:06Z</time>
      </trkpt>
      <trkpt lat="45.600020969286561" lon="7.45182347483933">
        <ele>2325.39990234375</ele>
        <time>2012-08-28T09:59:18Z</time>
      </trkpt>
      <trkpt lat="45.600089952349663" lon="7.451836718246341">
        <ele>2325.39990234375</ele>
        <time>2012-08-28T09:59:28Z</time>
      </trkpt>
      <trkpt lat="45.600165221840143" lon="7.451821127906442">
        <ele>2324.800048828125</ele>
        <time>2012-08-28T09:59:38Z</time>
      </trkpt>
      <trkpt lat="45.600220039486885" lon="7.451758934184909">
        <ele>2323.39990234375</ele>
        <time>2012-08-28T09:59:47Z</time>
      </trkpt>
      <trkpt lat="45.600295728072524" lon="7.451730603352189">
        <ele>2322.60009765625</ele>
        <time>2012-08-28T09:59:57Z</time>
      </trkpt>
      <trkpt lat="45.60036689043045" lon="7.451764047145844">
        <ele>2323</ele>
        <time>2012-08-28T10:00:06Z</time>
      </trkpt>
      <trkpt lat="45.600394634529948" lon="7.45185473933816">
        <ele>2324.800048828125</ele>
        <time>2012-08-28T10:00:14Z</time>
      </trkpt>
      <trkpt lat="45.60039471834898" lon="7.451957166194916">
        <ele>2326.800048828125</ele>
        <time>2012-08-28T10:00:22Z</time>
      </trkpt>
      <trkpt lat="45.600373260676861" lon="7.452072082087398">
        <ele>2329.199951171875</ele>
        <time>2012-08-28T10:00:32Z</time>
      </trkpt>
      <trkpt lat="45.600310564041138" lon="7.452176101505756">
        <ele>2331.60009765625</ele>
        <time>2012-08-28T10:00:43Z</time>
      </trkpt>
      <trkpt lat="45.600228840485215" lon="7.452282551676035">
        <ele>2334.199951171875</ele>
        <time>2012-08-28T10:00:55Z</time>
      </trkpt>
      <trkpt lat="45.600164132192731" lon="7.452333848923445">
        <ele>2335.60009765625</ele>
        <time>2012-08-28T10:01:04Z</time>
      </trkpt>
      <trkpt lat="45.600073272362351" lon="7.45233653113246">
        <ele>2336</ele>
        <time>2012-08-28T10:01:15Z</time>
      </trkpt>
      <trkpt lat="45.599968917667866" lon="7.452320856973529">
        <ele>2336</ele>
        <time>2012-08-28T10:01:27Z</time>
      </trkpt>
      <trkpt lat="45.599889876320958" lon="7.452326221391559">
        <ele>2335.800048828125</ele>
        <time>2012-08-28T10:01:36Z</time>
      </trkpt>
      <trkpt lat="45.599796250462532" lon="7.452350109815598">
        <ele>2335.800048828125</ele>
        <time>2012-08-28T10:01:47Z</time>
      </trkpt>
      <trkpt lat="45.599710922688246" lon="7.452395372092724">
        <ele>2336.199951171875</ele>
        <time>2012-08-28T10:01:58Z</time>
      </trkpt>
      <trkpt lat="45.59964026324451" lon="7.45246653445065">
        <ele>2336.800048828125</ele>
        <time>2012-08-28T10:02:09Z</time>
      </trkpt>
      <trkpt lat="45.599591815844178" lon="7.452545240521431">
        <ele>2337.800048828125</ele>
        <time>2012-08-28T10:02:18Z</time>
      </trkpt>
      <trkpt lat="45.599544541910291" lon="7.452664347365499">
        <ele>2339</ele>
        <time>2012-08-28T10:02:30Z</time>
      </trkpt>
      <trkpt lat="45.599505230784416" lon="7.452757051214576">
        <ele>2340</ele>
        <time>2012-08-28T10:02:39Z</time>
      </trkpt>
      <trkpt lat="45.599455945193768" lon="7.452857131138444">
        <ele>2340.800048828125</ele>
        <time>2012-08-28T10:02:50Z</time>
      </trkpt>
      <trkpt lat="45.599410850554705" lon="7.452972549945116">
        <ele>2341.60009765625</ele>
        <time>2012-08-28T10:03:01Z</time>
      </trkpt>
      <trkpt lat="45.599377825856209" lon="7.453075395897031">
        <ele>2342.199951171875</ele>
        <time>2012-08-28T10:03:11Z</time>
      </trkpt>
      <trkpt lat="45.599348321557045" lon="7.453221660107374">
        <ele>2343.39990234375</ele>
        <time>2012-08-28T10:03:24Z</time>
      </trkpt>
      <trkpt lat="45.599337508901954" lon="7.453360883519054">
        <ele>2344.60009765625</ele>
        <time>2012-08-28T10:03:36Z</time>
      </trkpt>
      <trkpt lat="45.599337592720985" lon="7.453484432771802">
        <ele>2345.39990234375</ele>
        <time>2012-08-28T10:03:47Z</time>
      </trkpt>
      <trkpt lat="45.599372629076242" lon="7.453597588464618">
        <ele>2346.800048828125</ele>
        <time>2012-08-28T10:03:58Z</time>
      </trkpt>
      <trkpt lat="45.599426524713635" lon="7.453597001731396">
        <ele>2347.800048828125</ele>
        <time>2012-08-28T10:04:05Z</time>
      </trkpt>
      <trkpt lat="45.599487209692597" lon="7.453494155779481">
        <ele>2348.60009765625</ele>
        <time>2012-08-28T10:04:16Z</time>
      </trkpt>
      <trkpt lat="45.599536411464214" lon="7.453398853540421">
        <ele>2349</ele>
        <time>2012-08-28T10:04:26Z</time>
      </trkpt>
      <trkpt lat="45.599587960168719" lon="7.453331211581826">
        <ele>2349.60009765625</ele>
        <time>2012-08-28T10:04:35Z</time>
      </trkpt>
      <trkpt lat="45.599679322913289" lon="7.453268431127071">
        <ele>2350.39990234375</ele>
        <time>2012-08-28T10:04:47Z</time>
      </trkpt>
      <trkpt lat="45.59976439923048" lon="7.453252337872982">
        <ele>2351.800048828125</ele>
        <time>2012-08-28T10:04:58Z</time>
      </trkpt>
      <trkpt lat="45.599838411435485" lon="7.453251332044601">
        <ele>2353.199951171875</ele>
        <time>2012-08-28T10:05:08Z</time>
      </trkpt>
      <trkpt lat="45.599926589056849" lon="7.453259630128741">
        <ele>2355</ele>
        <time>2012-08-28T10:05:18Z</time>
      </trkpt>
      <trkpt lat="45.600024154409766" lon="7.453247895464301">
        <ele>2355.800048828125</ele>
        <time>2012-08-28T10:05:30Z</time>
      </trkpt>
      <trkpt lat="45.600058939307928" lon="7.453219313174486">
        <ele>2354.60009765625</ele>
        <time>2012-08-28T10:05:35Z</time>
      </trkpt>
      <trkpt lat="45.600074948742986" lon="7.45321361348033">
        <ele>2354.39990234375</ele>
        <time>2012-08-28T10:05:37Z</time>
      </trkpt>
      <trkpt lat="45.600143764168024" lon="7.453197771683335">
        <ele>2353</ele>
        <time>2012-08-28T10:05:46Z</time>
      </trkpt>
      <trkpt lat="45.600193804129958" lon="7.453221576288343">
        <ele>2352.800048828125</ele>
        <time>2012-08-28T10:05:53Z</time>
      </trkpt>
      <trkpt lat="45.600260188803077" lon="7.453242279589176">
        <ele>2352.199951171875</ele>
        <time>2012-08-28T10:06:01Z</time>
      </trkpt>
      <trkpt lat="45.600338727235794" lon="7.453254265710712">
        <ele>2351.39990234375</ele>
        <time>2012-08-28T10:06:10Z</time>
      </trkpt>
      <trkpt lat="45.6004230491817" lon="7.453301958739758">
        <ele>2350.800048828125</ele>
        <time>2012-08-28T10:06:21Z</time>
      </trkpt>
      <trkpt lat="45.600483817979693" lon="7.453377563506365">
        <ele>2350.800048828125</ele>
        <time>2012-08-28T10:06:30Z</time>
      </trkpt>
      <trkpt lat="45.600534277036786" lon="7.453449815511704">
        <ele>2350.60009765625</ele>
        <time>2012-08-28T10:06:38Z</time>
      </trkpt>
      <trkpt lat="45.600574426352978" lon="7.453583590686321">
        <ele>2351.199951171875</ele>
        <time>2012-08-28T10:06:46Z</time>
      </trkpt>
      <trkpt lat="45.600616335868835" lon="7.453806884586811">
        <ele>2352.39990234375</ele>
        <time>2012-08-28T10:06:54Z</time>
      </trkpt>
      <trkpt lat="45.600654557347298" lon="7.453948790207505">
        <ele>2353.199951171875</ele>
        <time>2012-08-28T10:07:00Z</time>
      </trkpt>
      <trkpt lat="45.600738879293203" lon="7.454149620607495">
        <ele>2354</ele>
        <time>2012-08-28T10:07:08Z</time>
      </trkpt>
      <trkpt lat="45.600760336965322" lon="7.45434039272368">
        <ele>2356.39990234375</ele>
        <time>2012-08-28T10:07:14Z</time>
      </trkpt>
      <trkpt lat="45.600744746625423" lon="7.454651026055217">
        <ele>2361</ele>
        <time>2012-08-28T10:07:20Z</time>
      </trkpt>
      <trkpt lat="45.600785398855805" lon="7.45475328527391">
        <ele>2362.39990234375</ele>
        <time>2012-08-28T10:07:22Z</time>
      </trkpt>
      <trkpt lat="45.600823955610394" lon="7.454776167869568">
        <ele>2362.60009765625</ele>
        <time>2012-08-28T10:07:23Z</time>
      </trkpt>
      <trkpt lat="45.600961670279503" lon="7.454731576144695">
        <ele>2360.800048828125</ele>
        <time>2012-08-28T10:07:26Z</time>
      </trkpt>
      <trkpt lat="45.601012883707881" lon="7.454719757661223">
        <ele>2360.199951171875</ele>
        <time>2012-08-28T10:07:27Z</time>
      </trkpt>
      <trkpt lat="45.601112544536591" lon="7.454760996624827">
        <ele>2359.800048828125</ele>
        <time>2012-08-28T10:07:29Z</time>
      </trkpt>
      <trkpt lat="45.60119166970253" lon="7.454849509522319">
        <ele>2360.199951171875</ele>
        <time>2012-08-28T10:07:31Z</time>
      </trkpt>
      <trkpt lat="45.601268364116549" lon="7.454935256391764">
        <ele>2360.60009765625</ele>
        <time>2012-08-28T10:07:33Z</time>
      </trkpt>
      <trkpt lat="45.601310105994344" lon="7.454970376566052">
        <ele>2360.60009765625</ele>
        <time>2012-08-28T10:07:34Z</time>
      </trkpt>
      <trkpt lat="45.601529879495502" lon="7.455108091235161">
        <ele>2359.199951171875</ele>
        <time>2012-08-28T10:07:39Z</time>
      </trkpt>
      <trkpt lat="45.601563155651093" lon="7.455145139247179">
        <ele>2359</ele>
        <time>2012-08-28T10:07:40Z</time>
      </trkpt>
      <trkpt lat="45.601679915562272" lon="7.455304143950343">
        <ele>2359</ele>
        <time>2012-08-28T10:07:45Z</time>
      </trkpt>
      <trkpt lat="45.601752670481801" lon="7.455564234405756">
        <ele>2360.800048828125</ele>
        <time>2012-08-28T10:07:52Z</time>
      </trkpt>
      <trkpt lat="45.601788712665439" lon="7.455975199118257">
        <ele>2362.800048828125</ele>
        <time>2012-08-28T10:08:02Z</time>
      </trkpt>
      <trkpt lat="45.601868843659759" lon="7.45630226098001">
        <ele>2364.199951171875</ele>
        <time>2012-08-28T10:08:10Z</time>
      </trkpt>
      <trkpt lat="45.601997254416347" lon="7.456504264846444">
        <ele>2364.199951171875</ele>
        <time>2012-08-28T10:08:17Z</time>
      </trkpt>
      <trkpt lat="45.602066237479448" lon="7.456716746091843">
        <ele>2364.39990234375</ele>
        <time>2012-08-28T10:08:23Z</time>
      </trkpt>
      <trkpt lat="45.602137567475438" lon="7.456974657252431">
        <ele>2364.60009765625</ele>
        <time>2012-08-28T10:08:30Z</time>
      </trkpt>
      <trkpt lat="45.60216011479497" lon="7.457274561747909">
        <ele>2365.199951171875</ele>
        <time>2012-08-28T10:08:38Z</time>
      </trkpt>
      <trkpt lat="45.602092389017344" lon="7.457521660253406">
        <ele>2366.800048828125</ele>
        <time>2012-08-28T10:08:45Z</time>
      </trkpt>
      <trkpt lat="45.601985268294811" lon="7.457797089591622">
        <ele>2367</ele>
        <time>2012-08-28T10:08:53Z</time>
      </trkpt>
      <trkpt lat="45.601874208077788" lon="7.458208138123155">
        <ele>2366</ele>
        <time>2012-08-28T10:09:03Z</time>
      </trkpt>
      <trkpt lat="45.601742528378963" lon="7.458530254662037">
        <ele>2365.39990234375</ele>
        <time>2012-08-28T10:09:11Z</time>
      </trkpt>
      <trkpt lat="45.601723920553923" lon="7.458827728405595">
        <ele>2364.199951171875</ele>
        <time>2012-08-28T10:09:17Z</time>
      </trkpt>
      <trkpt lat="45.601740851998329" lon="7.459191838279367">
        <ele>2362.60009765625</ele>
        <time>2012-08-28T10:09:24Z</time>
      </trkpt>
      <trkpt lat="45.601660301908851" lon="7.459492580965161">
        <ele>2362.60009765625</ele>
        <time>2012-08-28T10:09:30Z</time>
      </trkpt>
      <trkpt lat="45.601628366857767" lon="7.45982576161623">
        <ele>2362.60009765625</ele>
        <time>2012-08-28T10:09:36Z</time>
      </trkpt>
      <trkpt lat="45.601655272766948" lon="7.459876220673323">
        <ele>2362.199951171875</ele>
        <time>2012-08-28T10:09:37Z</time>
      </trkpt>
      <trkpt lat="45.60172576457262" lon="7.459946293383837">
        <ele>2361.60009765625</ele>
        <time>2012-08-28T10:09:39Z</time>
      </trkpt>
      <trkpt lat="45.601955847814679" lon="7.460104878991842">
        <ele>2360.199951171875</ele>
        <time>2012-08-28T10:09:46Z</time>
      </trkpt>
      <trkpt lat="45.602085599675775" lon="7.460278635844588">
        <ele>2360.199951171875</ele>
        <time>2012-08-28T10:09:51Z</time>
      </trkpt>
      <trkpt lat="45.602119127288461" lon="7.460660096257925">
        <ele>2362.199951171875</ele>
        <time>2012-08-28T10:09:57Z</time>
      </trkpt>
      <trkpt lat="45.602146033197641" lon="7.46084843762219">
        <ele>2363</ele>
        <time>2012-08-28T10:10:00Z</time>
      </trkpt>
      <trkpt lat="45.602181488648057" lon="7.460968215018511">
        <ele>2363</ele>
        <time>2012-08-28T10:10:03Z</time>
      </trkpt>
      <trkpt lat="45.602196995168924" lon="7.460980787873268">
        <ele>2363</ele>
        <time>2012-08-28T10:10:04Z</time>
      </trkpt>
      <trkpt lat="45.602248795330524" lon="7.460983134806156">
        <ele>2362.39990234375</ele>
        <time>2012-08-28T10:10:07Z</time>
      </trkpt>
      <trkpt lat="45.602254997938871" lon="7.460975926369429">
        <ele>2362.39990234375</ele>
        <time>2012-08-28T10:10:08Z</time>
      </trkpt>
      <trkpt lat="45.602249801158905" lon="7.460956815630198">
        <ele>2362.39990234375</ele>
        <time>2012-08-28T10:10:17Z</time>
      </trkpt>
      <trkpt lat="45.602296320721507" lon="7.460932843387127">
        <ele>2361.800048828125</ele>
        <time>2012-08-28T10:10:52Z</time>
      </trkpt>
      <trkpt lat="45.602411488071084" lon="7.460976932197809">
        <ele>2360.800048828125</ele>
        <time>2012-08-28T10:10:58Z</time>
      </trkpt>
      <trkpt lat="45.602613659575582" lon="7.461050357669592">
        <ele>2360.60009765625</ele>
        <time>2012-08-28T10:11:08Z</time>
      </trkpt>
      <trkpt lat="45.602770317345858" lon="7.461116490885615">
        <ele>2361.39990234375</ele>
        <time>2012-08-28T10:11:15Z</time>
      </trkpt>
      <trkpt lat="45.602941727265716" lon="7.461210284382105">
        <ele>2362.39990234375</ele>
        <time>2012-08-28T10:11:23Z</time>
      </trkpt>
      <trkpt lat="45.603083381429315" lon="7.461355710402131">
        <ele>2363.199951171875</ele>
        <time>2012-08-28T10:11:33Z</time>
      </trkpt>
      <trkpt lat="45.603197710588574" lon="7.461487054824829">
        <ele>2364</ele>
        <time>2012-08-28T10:11:42Z</time>
      </trkpt>
      <trkpt lat="45.603294186294079" lon="7.461615214124322">
        <ele>2364.800048828125</ele>
        <time>2012-08-28T10:11:51Z</time>
      </trkpt>
      <trkpt lat="45.603377921506763" lon="7.461728118360043">
        <ele>2366.800048828125</ele>
        <time>2012-08-28T10:12:00Z</time>
      </trkpt>
      <trkpt lat="45.603455286473036" lon="7.461848398670554">
        <ele>2370.39990234375</ele>
        <time>2012-08-28T10:12:08Z</time>
      </trkpt>
      <trkpt lat="45.603511026129127" lon="7.461969014257193">
        <ele>2373.199951171875</ele>
        <time>2012-08-28T10:12:15Z</time>
      </trkpt>
      <trkpt lat="45.603565089404583" lon="7.462117122486234">
        <ele>2376.199951171875</ele>
        <time>2012-08-28T10:12:24Z</time>
      </trkpt>
      <trkpt lat="45.603627786040306" lon="7.462249137461186">
        <ele>2379.800048828125</ele>
        <time>2012-08-28T10:12:33Z</time>
      </trkpt>
      <trkpt lat="45.603675311431289" lon="7.462246958166361">
        <ele>2382</ele>
        <time>2012-08-28T10:12:38Z</time>
      </trkpt>
      <trkpt lat="45.603699199855328" lon="7.462151823565364">
        <ele>2382.60009765625</ele>
        <time>2012-08-28T10:12:45Z</time>
      </trkpt>
      <trkpt lat="45.603698613122106" lon="7.4620411824435">
        <ele>2381.800048828125</ele>
        <time>2012-08-28T10:12:52Z</time>
      </trkpt>
      <trkpt lat="45.603709928691387" lon="7.461930457502604">
        <ele>2381.60009765625</ele>
        <time>2012-08-28T10:12:59Z</time>
      </trkpt>
      <trkpt lat="45.603726105764508" lon="7.461828114464879">
        <ele>2381.60009765625</ele>
        <time>2012-08-28T10:13:06Z</time>
      </trkpt>
      <trkpt lat="45.603755358606577" lon="7.461735745891929">
        <ele>2382.199951171875</ele>
        <time>2012-08-28T10:13:13Z</time>
      </trkpt>
      <trkpt lat="45.603776732459664" lon="7.461632397025824">
        <ele>2382.39990234375</ele>
        <time>2012-08-28T10:13:21Z</time>
      </trkpt>
      <trkpt lat="45.603837333619595" lon="7.461541118100286">
        <ele>2384</ele>
        <time>2012-08-28T10:13:29Z</time>
      </trkpt>
      <trkpt lat="45.603922158479691" lon="7.461456377059221">
        <ele>2386.39990234375</ele>
        <time>2012-08-28T10:13:38Z</time>
      </trkpt>
      <trkpt lat="45.603986112400889" lon="7.461375407874584">
        <ele>2388</ele>
        <time>2012-08-28T10:13:46Z</time>
      </trkpt>
      <trkpt lat="45.604015532881021" lon="7.461271220818162">
        <ele>2388</ele>
        <time>2012-08-28T10:13:53Z</time>
      </trkpt>
      <trkpt lat="45.604035649448633" lon="7.461186312139034">
        <ele>2387.800048828125</ele>
        <time>2012-08-28T10:14:00Z</time>
      </trkpt>
      <trkpt lat="45.604084599763155" lon="7.461097463965416">
        <ele>2388.60009765625</ele>
        <time>2012-08-28T10:14:08Z</time>
      </trkpt>
      <trkpt lat="45.604111673310399" lon="7.461004089564085">
        <ele>2388.39990234375</ele>
        <time>2012-08-28T10:14:15Z</time>
      </trkpt>
      <trkpt lat="45.604108739644289" lon="7.460890430957079">
        <ele>2387</ele>
        <time>2012-08-28T10:14:22Z</time>
      </trkpt>
      <trkpt lat="45.604092311114073" lon="7.460741316899657">
        <ele>2385.800048828125</ele>
        <time>2012-08-28T10:14:32Z</time>
      </trkpt>
      <trkpt lat="45.604126593098044" lon="7.460619108751416">
        <ele>2386.800048828125</ele>
        <time>2012-08-28T10:14:40Z</time>
      </trkpt>
      <trkpt lat="45.604145033285022" lon="7.460480723530054">
        <ele>2387.39990234375</ele>
        <time>2012-08-28T10:14:49Z</time>
      </trkpt>
      <trkpt lat="45.604153582826257" lon="7.460391288623214">
        <ele>2387.60009765625</ele>
        <time>2012-08-28T10:14:55Z</time>
      </trkpt>
      <trkpt lat="45.604150146245956" lon="7.46028701774776">
        <ele>2387.60009765625</ele>
        <time>2012-08-28T10:15:03Z</time>
      </trkpt>
      <trkpt lat="45.604149475693703" lon="7.460162211209536">
        <ele>2387.39990234375</ele>
        <time>2012-08-28T10:15:12Z</time>
      </trkpt>
      <trkpt lat="45.604148805141449" lon="7.460055006667972">
        <ele>2387.39990234375</ele>
        <time>2012-08-28T10:15:20Z</time>
      </trkpt>
      <trkpt lat="45.604147212579846" lon="7.459956603124738">
        <ele>2387.800048828125</ele>
        <time>2012-08-28T10:15:27Z</time>
      </trkpt>
      <trkpt lat="45.604151654988527" lon="7.459852080792189">
        <ele>2389</ele>
        <time>2012-08-28T10:15:34Z</time>
      </trkpt>
      <trkpt lat="45.604158695787191" lon="7.459710342809558">
        <ele>2390.60009765625</ele>
        <time>2012-08-28T10:15:44Z</time>
      </trkpt>
      <trkpt lat="45.604185098782182" lon="7.459590649232268">
        <ele>2393</ele>
        <time>2012-08-28T10:15:52Z</time>
      </trkpt>
      <trkpt lat="45.604188703000546" lon="7.459479002282023">
        <ele>2394.199951171875</ele>
        <time>2012-08-28T10:15:59Z</time>
      </trkpt>
      <trkpt lat="45.604202030226588" lon="7.459374060854316">
        <ele>2395.800048828125</ele>
        <time>2012-08-28T10:16:06Z</time>
      </trkpt>
      <trkpt lat="45.604218794032931" lon="7.459262330085039">
        <ele>2397.800048828125</ele>
        <time>2012-08-28T10:16:14Z</time>
      </trkpt>
      <trkpt lat="45.604220302775502" lon="7.45914950966835">
        <ele>2398.800048828125</ele>
        <time>2012-08-28T10:16:22Z</time>
      </trkpt>
      <trkpt lat="45.604198090732098" lon="7.459039036184549">
        <ele>2398.60009765625</ele>
        <time>2012-08-28T10:16:30Z</time>
      </trkpt>
      <trkpt lat="45.604163724929094" lon="7.458930239081383">
        <ele>2397.800048828125</ele>
        <time>2012-08-28T10:16:38Z</time>
      </trkpt>
      <trkpt lat="45.604132460430264" lon="7.458812221884728">
        <ele>2397.800048828125</ele>
        <time>2012-08-28T10:16:47Z</time>
      </trkpt>
      <trkpt lat="45.604128520935774" lon="7.458798307925463">
        <ele>2397.800048828125</ele>
        <time>2012-08-28T10:16:49Z</time>
      </trkpt>
      <trkpt lat="45.604136483743787" lon="7.458760421723127">
        <ele>2398.39990234375</ele>
        <time>2012-08-28T10:16:52Z</time>
      </trkpt>
      <trkpt lat="45.604136232286692" lon="7.458718176931143">
        <ele>2398.800048828125</ele>
        <time>2012-08-28T10:16:55Z</time>
      </trkpt>
      <trkpt lat="45.604140255600214" lon="7.458616588264704">
        <ele>2399.800048828125</ele>
        <time>2012-08-28T10:17:03Z</time>
      </trkpt>
      <trkpt lat="45.60414494946599" lon="7.458503264933825">
        <ele>2400.800048828125</ele>
        <time>2012-08-28T10:17:13Z</time>
      </trkpt>
      <trkpt lat="45.604126760736108" lon="7.458418356254697">
        <ele>2401</ele>
        <time>2012-08-28T10:17:21Z</time>
      </trkpt>
      <trkpt lat="45.60410195030272" lon="7.458309642970562">
        <ele>2401</ele>
        <time>2012-08-28T10:17:31Z</time>
      </trkpt>
      <trkpt lat="45.604098346084356" lon="7.458189111202955">
        <ele>2401.800048828125</ele>
        <time>2012-08-28T10:17:41Z</time>
      </trkpt>
      <trkpt lat="45.604113014414907" lon="7.45806179009378">
        <ele>2403.39990234375</ele>
        <time>2012-08-28T10:17:52Z</time>
      </trkpt>
      <trkpt lat="45.604142770171165" lon="7.457932122051716">
        <ele>2405.199951171875</ele>
        <time>2012-08-28T10:18:04Z</time>
      </trkpt>
      <trkpt lat="45.604163138195872" lon="7.457834724336863">
        <ele>2406.39990234375</ele>
        <time>2012-08-28T10:18:12Z</time>
      </trkpt>
      <trkpt lat="45.604179566726089" lon="7.457709163427353">
        <ele>2407.800048828125</ele>
        <time>2012-08-28T10:18:22Z</time>
      </trkpt>
      <trkpt lat="45.604192893952131" lon="7.457594163715839">
        <ele>2409</ele>
        <time>2012-08-28T10:18:32Z</time>
      </trkpt>
      <trkpt lat="45.604181746020913" lon="7.457462567836046">
        <ele>2409.60009765625</ele>
        <time>2012-08-28T10:18:43Z</time>
      </trkpt>
      <trkpt lat="45.6041513197124" lon="7.457338180392981">
        <ele>2409.60009765625</ele>
        <time>2012-08-28T10:18:54Z</time>
      </trkpt>
      <trkpt lat="45.604127766564488" lon="7.457207757979631">
        <ele>2409.60009765625</ele>
        <time>2012-08-28T10:19:05Z</time>
      </trkpt>
      <trkpt lat="45.604105805978179" lon="7.457097955048084">
        <ele>2409.800048828125</ele>
        <time>2012-08-28T10:19:14Z</time>
      </trkpt>
      <trkpt lat="45.604107147082686" lon="7.457003658637404">
        <ele>2410.39990234375</ele>
        <time>2012-08-28T10:19:22Z</time>
      </trkpt>
      <trkpt lat="45.60412491671741" lon="7.456897627562285">
        <ele>2411.39990234375</ele>
        <time>2012-08-28T10:19:32Z</time>
      </trkpt>
      <trkpt lat="45.604141093790531" lon="7.456793440505862">
        <ele>2412.60009765625</ele>
        <time>2012-08-28T10:19:41Z</time>
      </trkpt>
      <trkpt lat="45.604171184822917" lon="7.456665365025401">
        <ele>2414.199951171875</ele>
        <time>2012-08-28T10:19:53Z</time>
      </trkpt>
      <trkpt lat="45.604187697172165" lon="7.456538798287511">
        <ele>2415</ele>
        <time>2012-08-28T10:20:04Z</time>
      </trkpt>
      <trkpt lat="45.60420161113143" lon="7.456430252641439">
        <ele>2415.800048828125</ele>
        <time>2012-08-28T10:20:14Z</time>
      </trkpt>
      <trkpt lat="45.60420798137784" lon="7.456298572942615">
        <ele>2416.39990234375</ele>
        <time>2012-08-28T10:20:26Z</time>
      </trkpt>
      <trkpt lat="45.604219799861312" lon="7.45617569424212">
        <ele>2417.199951171875</ele>
        <time>2012-08-28T10:20:37Z</time>
      </trkpt>
      <trkpt lat="45.60424167662859" lon="7.456057174131274">
        <ele>2418.199951171875</ele>
        <time>2012-08-28T10:20:48Z</time>
      </trkpt>
      <trkpt lat="45.604296745732427" lon="7.455956591293216">
        <ele>2420.199951171875</ele>
        <time>2012-08-28T10:21:00Z</time>
      </trkpt>
      <trkpt lat="45.604347540065646" lon="7.455869168043137">
        <ele>2422</ele>
        <time>2012-08-28T10:21:11Z</time>
      </trkpt>
      <trkpt lat="45.604373691603541" lon="7.455758443102241">
        <ele>2423.60009765625</ele>
        <time>2012-08-28T10:21:21Z</time>
      </trkpt>
      <trkpt lat="45.604385761544108" lon="7.455649729818106">
        <ele>2424.800048828125</ele>
        <time>2012-08-28T10:21:31Z</time>
      </trkpt>
      <trkpt lat="45.604424150660634" lon="7.455574963241816">
        <ele>2426.39990234375</ele>
        <time>2012-08-28T10:21:40Z</time>
      </trkpt>
      <trkpt lat="45.604482823982835" lon="7.45560547336936">
        <ele>2428</ele>
        <time>2012-08-28T10:21:49Z</time>
      </trkpt>
      <trkpt lat="45.604529427364469" lon="7.455708906054497">
        <ele>2428.39990234375</ele>
        <time>2012-08-28T10:22:00Z</time>
      </trkpt>
      <trkpt lat="45.604576617479324" lon="7.455820720642805">
        <ele>2429</ele>
        <time>2012-08-28T10:22:11Z</time>
      </trkpt>
      <trkpt lat="45.604621125385165" lon="7.455940917134285">
        <ele>2429.39990234375</ele>
        <time>2012-08-28T10:22:22Z</time>
      </trkpt>
      <trkpt lat="45.60465456917882" lon="7.456029932945967">
        <ele>2429.800048828125</ele>
        <time>2012-08-28T10:22:31Z</time>
      </trkpt>
      <trkpt lat="45.604711649939418" lon="7.456122133880854">
        <ele>2430.800048828125</ele>
        <time>2012-08-28T10:22:42Z</time>
      </trkpt>
      <trkpt lat="45.604768227785826" lon="7.456186255440116">
        <ele>2431.800048828125</ele>
        <time>2012-08-28T10:22:51Z</time>
      </trkpt>
      <trkpt lat="45.604844419285655" lon="7.456233529374003">
        <ele>2433.60009765625</ele>
        <time>2012-08-28T10:23:00Z</time>
      </trkpt>
      <trkpt lat="45.604908959940076" lon="7.456288933753967">
        <ele>2434.800048828125</ele>
        <time>2012-08-28T10:23:09Z</time>
      </trkpt>
      <trkpt lat="45.604953970760107" lon="7.456362694501877">
        <ele>2435.39990234375</ele>
        <time>2012-08-28T10:23:18Z</time>
      </trkpt>
      <trkpt lat="45.605009207502007" lon="7.45644299313426">
        <ele>2436.199951171875</ele>
        <time>2012-08-28T10:23:28Z</time>
      </trkpt>
      <trkpt lat="45.605068719014525" lon="7.456523543223739">
        <ele>2437.800048828125</ele>
        <time>2012-08-28T10:23:39Z</time>
      </trkpt>
      <trkpt lat="45.605107191950083" lon="7.456603841856122">
        <ele>2438.800048828125</ele>
        <time>2012-08-28T10:23:48Z</time>
      </trkpt>
      <trkpt lat="45.605140132829547" lon="7.456705346703529">
        <ele>2439.39990234375</ele>
        <time>2012-08-28T10:23:58Z</time>
      </trkpt>
      <trkpt lat="45.605164272710681" lon="7.456802325323224">
        <ele>2440.199951171875</ele>
        <time>2012-08-28T10:24:07Z</time>
      </trkpt>
      <trkpt lat="45.605180282145739" lon="7.456918079406023">
        <ele>2440.60009765625</ele>
        <time>2012-08-28T10:24:17Z</time>
      </trkpt>
      <trkpt lat="45.605207607150078" lon="7.457027127966285">
        <ele>2441.39990234375</ele>
        <time>2012-08-28T10:24:28Z</time>
      </trkpt>
      <trkpt lat="45.605231914669275" lon="7.457148665562272">
        <ele>2442.199951171875</ele>
        <time>2012-08-28T10:24:39Z</time>
      </trkpt>
      <trkpt lat="45.605241386219859" lon="7.457301132380962">
        <ele>2442.199951171875</ele>
        <time>2012-08-28T10:24:51Z</time>
      </trkpt>
      <trkpt lat="45.605276422575116" lon="7.457395009696484">
        <ele>2443.39990234375</ele>
        <time>2012-08-28T10:25:02Z</time>
      </trkpt>
      <trkpt lat="45.605303579941392" lon="7.457520319148898">
        <ele>2444.39990234375</ele>
        <time>2012-08-28T10:25:15Z</time>
      </trkpt>
      <trkpt lat="45.605323780328035" lon="7.457644958049059">
        <ele>2445.199951171875</ele>
        <time>2012-08-28T10:25:27Z</time>
      </trkpt>
      <trkpt lat="45.605350937694311" lon="7.457779068499804">
        <ele>2446.199951171875</ele>
        <time>2012-08-28T10:25:40Z</time>
      </trkpt>
      <trkpt lat="45.605352614074945" lon="7.457858948037028">
        <ele>2446.199951171875</ele>
        <time>2012-08-28T10:25:55Z</time>
      </trkpt>
      <trkpt lat="45.605392931029201" lon="7.457971936091781">
        <ele>2447.800048828125</ele>
        <time>2012-08-28T10:26:06Z</time>
      </trkpt>
      <trkpt lat="45.605439953505993" lon="7.45808039791882">
        <ele>2449.60009765625</ele>
        <time>2012-08-28T10:26:17Z</time>
      </trkpt>
      <trkpt lat="45.605490328744054" lon="7.458189614117146">
        <ele>2451.60009765625</ele>
        <time>2012-08-28T10:26:27Z</time>
      </trkpt>
      <trkpt lat="45.605522599071264" lon="7.458288855850697">
        <ele>2453</ele>
        <time>2012-08-28T10:26:36Z</time>
      </trkpt>
      <trkpt lat="45.605518659576774" lon="7.458433024585247">
        <ele>2454</ele>
        <time>2012-08-28T10:26:48Z</time>
      </trkpt>
      <trkpt lat="45.605492256581783" lon="7.458565374836326">
        <ele>2454.39990234375</ele>
        <time>2012-08-28T10:26:59Z</time>
      </trkpt>
      <trkpt lat="45.605467613786459" lon="7.458697641268373">
        <ele>2454.800048828125</ele>
        <time>2012-08-28T10:27:11Z</time>
      </trkpt>
      <trkpt lat="45.605458896607161" lon="7.458762768656015">
        <ele>2455.199951171875</ele>
        <time>2012-08-28T10:27:18Z</time>
      </trkpt>
      <trkpt lat="45.605451017618179" lon="7.458800403401256">
        <ele>2455.199951171875</ele>
        <time>2012-08-28T10:27:21Z</time>
      </trkpt>
      <trkpt lat="45.605432074517012" lon="7.458941387012601">
        <ele>2455.800048828125</ele>
        <time>2012-08-28T10:27:33Z</time>
      </trkpt>
      <trkpt lat="45.605417657643557" lon="7.45904297567904">
        <ele>2456.199951171875</ele>
        <time>2012-08-28T10:27:42Z</time>
      </trkpt>
      <trkpt lat="45.605399971827865" lon="7.459184378385544">
        <ele>2457</ele>
        <time>2012-08-28T10:27:55Z</time>
      </trkpt>
      <trkpt lat="45.605384549126029" lon="7.459273561835289">
        <ele>2457.39990234375</ele>
        <time>2012-08-28T10:28:04Z</time>
      </trkpt>
      <trkpt lat="45.605357810854912" lon="7.459377916529775">
        <ele>2457.60009765625</ele>
        <time>2012-08-28T10:28:14Z</time>
      </trkpt>
      <trkpt lat="45.605325037613511" lon="7.459496101364493">
        <ele>2457.60009765625</ele>
        <time>2012-08-28T10:28:25Z</time>
      </trkpt>
      <trkpt lat="45.605298802256584" lon="7.459614034742117">
        <ele>2457.800048828125</ele>
        <time>2012-08-28T10:28:35Z</time>
      </trkpt>
      <trkpt lat="45.605275332927704" lon="7.459713611751795">
        <ele>2457.800048828125</ele>
        <time>2012-08-28T10:28:44Z</time>
      </trkpt>
      <trkpt lat="45.605318583548069" lon="7.459763819351792">
        <ele>2461</ele>
        <time>2012-08-28T10:28:53Z</time>
      </trkpt>
      <trkpt lat="45.605352111160755" lon="7.459706654772162">
        <ele>2462.199951171875</ele>
        <time>2012-08-28T10:29:00Z</time>
      </trkpt>
      <trkpt lat="45.605369377881289" lon="7.459606239572167">
        <ele>2461.60009765625</ele>
        <time>2012-08-28T10:29:10Z</time>
      </trkpt>
      <trkpt lat="45.605399636551738" lon="7.459514625370503">
        <ele>2462</ele>
        <time>2012-08-28T10:29:20Z</time>
      </trkpt>
      <trkpt lat="45.605435846373439" lon="7.459411444142461">
        <ele>2462.39990234375</ele>
        <time>2012-08-28T10:29:31Z</time>
      </trkpt>
      <trkpt lat="45.605478342622519" lon="7.459333995357156">
        <ele>2463.39990234375</ele>
        <time>2012-08-28T10:29:40Z</time>
      </trkpt>
      <trkpt lat="45.605521593242884" lon="7.459248416125774">
        <ele>2464.199951171875</ele>
        <time>2012-08-28T10:29:50Z</time>
      </trkpt>
      <trkpt lat="45.605575405061245" lon="7.45915680192411">
        <ele>2465.60009765625</ele>
        <time>2012-08-28T10:30:01Z</time>
      </trkpt>
      <trkpt lat="45.605623433366418" lon="7.459072815254331">
        <ele>2467</ele>
        <time>2012-08-28T10:30:11Z</time>
      </trkpt>
      <trkpt lat="45.605661990121007" lon="7.458985392004252">
        <ele>2467.60009765625</ele>
        <time>2012-08-28T10:30:20Z</time>
      </trkpt>
      <trkpt lat="45.60570951551199" lon="7.458875589072704">
        <ele>2468.39990234375</ele>
        <time>2012-08-28T10:30:32Z</time>
      </trkpt>
      <trkpt lat="45.605767769739032" lon="7.458836445584893">
        <ele>2470.800048828125</ele>
        <time>2012-08-28T10:30:41Z</time>
      </trkpt>
      <trkpt lat="45.605804985389113" lon="7.458902914077044">
        <ele>2473.60009765625</ele>
        <time>2012-08-28T10:30:49Z</time>
      </trkpt>
      <trkpt lat="45.605793502181768" lon="7.459003916010261">
        <ele>2474.39990234375</ele>
        <time>2012-08-28T10:30:59Z</time>
      </trkpt>
      <trkpt lat="45.605777911841869" lon="7.45910014025867">
        <ele>2475.199951171875</ele>
        <time>2012-08-28T10:31:08Z</time>
      </trkpt>
      <trkpt lat="45.605753436684608" lon="7.459202902391553">
        <ele>2475.60009765625</ele>
        <time>2012-08-28T10:31:18Z</time>
      </trkpt>
      <trkpt lat="45.605726027861238" lon="7.459291499108076">
        <ele>2475.800048828125</ele>
        <time>2012-08-28T10:31:27Z</time>
      </trkpt>
      <trkpt lat="45.605686213821173" lon="7.459409600123763">
        <ele>2476</ele>
        <time>2012-08-28T10:31:38Z</time>
      </trkpt>
      <trkpt lat="45.605650926008821" lon="7.459509763866663">
        <ele>2475.800048828125</ele>
        <time>2012-08-28T10:31:48Z</time>
      </trkpt>
      <trkpt lat="45.605609603226185" lon="7.459630714729428">
        <ele>2475.800048828125</ele>
        <time>2012-08-28T10:32:01Z</time>
      </trkpt>
      <trkpt lat="45.605577835813165" lon="7.459709169343114">
        <ele>2475.199951171875</ele>
        <time>2012-08-28T10:32:11Z</time>
      </trkpt>
      <trkpt lat="45.605542715638876" lon="7.459807153791189">
        <ele>2475</ele>
        <time>2012-08-28T10:32:22Z</time>
      </trkpt>
      <trkpt lat="45.605519581586123" lon="7.459890553727746">
        <ele>2475</ele>
        <time>2012-08-28T10:32:31Z</time>
      </trkpt>
      <trkpt lat="45.605498207733035" lon="7.459998596459627">
        <ele>2475.39990234375</ele>
        <time>2012-08-28T10:32:41Z</time>
      </trkpt>
      <trkpt lat="45.605477755889297" lon="7.460114769637585">
        <ele>2475</ele>
        <time>2012-08-28T10:32:51Z</time>
      </trkpt>
      <trkpt lat="45.605467110872269" lon="7.460177047178149">
        <ele>2474.800048828125</ele>
        <time>2012-08-28T10:32:57Z</time>
      </trkpt>
      <trkpt lat="45.605467362329364" lon="7.460211329162121">
        <ele>2475</ele>
        <time>2012-08-28T10:33:00Z</time>
      </trkpt>
      <trkpt lat="45.605479516088963" lon="7.460320210084319">
        <ele>2476.39990234375</ele>
        <time>2012-08-28T10:33:10Z</time>
      </trkpt>
      <trkpt lat="45.605513881891966" lon="7.460421295836568">
        <ele>2479.39990234375</ele>
        <time>2012-08-28T10:33:21Z</time>
      </trkpt>
      <trkpt lat="45.605547660961747" lon="7.460506791248918">
        <ele>2482.60009765625</ele>
        <time>2012-08-28T10:33:32Z</time>
      </trkpt>
      <trkpt lat="45.605562413111329" lon="7.460614498704672">
        <ele>2484.39990234375</ele>
        <time>2012-08-28T10:33:42Z</time>
      </trkpt>
      <trkpt lat="45.605577332898974" lon="7.460727067664266">
        <ele>2486.39990234375</ele>
        <time>2012-08-28T10:33:52Z</time>
      </trkpt>
      <trkpt lat="45.605591246858239" lon="7.460857490077615">
        <ele>2488.39990234375</ele>
        <time>2012-08-28T10:34:04Z</time>
      </trkpt>
      <trkpt lat="45.605636509135365" lon="7.460941141471267">
        <ele>2491.60009765625</ele>
        <time>2012-08-28T10:34:15Z</time>
      </trkpt>
      <trkpt lat="45.605657715350389" lon="7.461036192253232">
        <ele>2493</ele>
        <time>2012-08-28T10:34:25Z</time>
      </trkpt>
      <trkpt lat="45.605642460286617" lon="7.461122442036867">
        <ele>2491.60009765625</ele>
        <time>2012-08-28T10:34:34Z</time>
      </trkpt>
      <trkpt lat="45.605604322627187" lon="7.46117340400815">
        <ele>2488.60009765625</ele>
        <time>2012-08-28T10:34:42Z</time>
      </trkpt>
      <trkpt lat="45.60555755160749" lon="7.461233166977763">
        <ele>2485</ele>
        <time>2012-08-28T10:34:51Z</time>
      </trkpt>
      <trkpt lat="45.605507763102651" lon="7.461315141990781">
        <ele>2481.199951171875</ele>
        <time>2012-08-28T10:35:01Z</time>
      </trkpt>
      <trkpt lat="45.605487897992134" lon="7.461436344310641">
        <ele>2479.60009765625</ele>
        <time>2012-08-28T10:35:12Z</time>
      </trkpt>
      <trkpt lat="45.605479432269931" lon="7.461552517488599">
        <ele>2478.800048828125</ele>
        <time>2012-08-28T10:35:23Z</time>
      </trkpt>
      <trkpt lat="45.605476750060916" lon="7.461657291278243">
        <ele>2478.39990234375</ele>
        <time>2012-08-28T10:35:33Z</time>
      </trkpt>
      <trkpt lat="45.605458309873939" lon="7.46172702871263">
        <ele>2477.39990234375</ele>
        <time>2012-08-28T10:35:40Z</time>
      </trkpt>
      <trkpt lat="45.605467362329364" lon="7.461869437247515">
        <ele>2479.199951171875</ele>
        <time>2012-08-28T10:35:53Z</time>
      </trkpt>
      <trkpt lat="45.605495357885957" lon="7.461949065327644">
        <ele>2481.60009765625</ele>
        <time>2012-08-28T10:36:02Z</time>
      </trkpt>
      <trkpt lat="45.605524862185121" lon="7.46204168535769">
        <ele>2484.199951171875</ele>
        <time>2012-08-28T10:36:11Z</time>
      </trkpt>
      <trkpt lat="45.605542128905654" lon="7.462132545188069">
        <ele>2485.800048828125</ele>
        <time>2012-08-28T10:36:20Z</time>
      </trkpt>
      <trkpt lat="45.605547660961747" lon="7.462273612618446">
        <ele>2487</ele>
        <time>2012-08-28T10:36:33Z</time>
      </trkpt>
      <trkpt lat="45.605561072006822" lon="7.462376626208425">
        <ele>2488.199951171875</ele>
        <time>2012-08-28T10:36:43Z</time>
      </trkpt>
      <trkpt lat="45.605593090876937" lon="7.462462540715933">
        <ele>2490.60009765625</ele>
        <time>2012-08-28T10:36:52Z</time>
      </trkpt>
      <trkpt lat="45.605655703693628" lon="7.462522890418768">
        <ele>2494.39990234375</ele>
        <time>2012-08-28T10:37:04Z</time>
      </trkpt>
      <trkpt lat="45.605718903243542" lon="7.462510820478201">
        <ele>2497.800048828125</ele>
        <time>2012-08-28T10:37:14Z</time>
      </trkpt>
      <trkpt lat="45.605790065601468" lon="7.462472850456834">
        <ele>2501.60009765625</ele>
        <time>2012-08-28T10:37:25Z</time>
      </trkpt>
      <trkpt lat="45.605867514386773" lon="7.462483830749989">
        <ele>2505.39990234375</ele>
        <time>2012-08-28T10:37:35Z</time>
      </trkpt>
      <trkpt lat="45.605877656489611" lon="7.46248684823513">
        <ele>2505.800048828125</ele>
        <time>2012-08-28T10:37:45Z</time>
      </trkpt>
      <trkpt lat="45.605922248214483" lon="7.462524734437466">
        <ele>2507.800048828125</ele>
        <time>2012-08-28T10:37:56Z</time>
      </trkpt>
      <trkpt lat="45.60598561540246" lon="7.462593382224441">
        <ele>2510.39990234375</ele>
        <time>2012-08-28T10:38:03Z</time>
      </trkpt>
      <trkpt lat="45.60605744831264" lon="7.462697820737958">
        <ele>2513.39990234375</ele>
        <time>2012-08-28T10:38:12Z</time>
      </trkpt>
      <trkpt lat="45.606115953996778" lon="7.462767390534282">
        <ele>2515.60009765625</ele>
        <time>2012-08-28T10:38:19Z</time>
      </trkpt>
      <trkpt lat="45.606183763593435" lon="7.462818017229438">
        <ele>2517.800048828125</ele>
        <time>2012-08-28T10:38:26Z</time>
      </trkpt>
      <trkpt lat="45.606276635080576" lon="7.462889431044459">
        <ele>2520.60009765625</ele>
        <time>2012-08-28T10:38:35Z</time>
      </trkpt>
      <trkpt lat="45.60633497312665" lon="7.462974088266492">
        <ele>2522.199951171875</ele>
        <time>2012-08-28T10:38:43Z</time>
      </trkpt>
      <trkpt lat="45.606373278424144" lon="7.463052123785019">
        <ele>2523</ele>
        <time>2012-08-28T10:38:49Z</time>
      </trkpt>
      <trkpt lat="45.606413763016462" lon="7.463135607540608">
        <ele>2523.60009765625</ele>
        <time>2012-08-28T10:38:56Z</time>
      </trkpt>
      <trkpt lat="45.606442093849182" lon="7.46322805993259">
        <ele>2523.60009765625</ele>
        <time>2012-08-28T10:39:04Z</time>
      </trkpt>
      <trkpt lat="45.606451062485576" lon="7.463249349966645">
        <ele>2523.800048828125</ele>
        <time>2012-08-28T10:39:06Z</time>
      </trkpt>
      <trkpt lat="45.606462210416794" lon="7.463276088237763">
        <ele>2523.800048828125</ele>
        <time>2012-08-28T10:39:09Z</time>
      </trkpt>
      <trkpt lat="45.606485595926642" lon="7.46334683150053">
        <ele>2524</ele>
        <time>2012-08-28T10:39:15Z</time>
      </trkpt>
      <trkpt lat="45.606504287570715" lon="7.463451186195016">
        <ele>2524.800048828125</ele>
        <time>2012-08-28T10:39:23Z</time>
      </trkpt>
      <trkpt lat="45.606507891789079" lon="7.463478846475482">
        <ele>2525</ele>
        <time>2012-08-28T10:39:25Z</time>
      </trkpt>
      <trkpt lat="45.606507221236825" lon="7.463550260290504">
        <ele>2525.39990234375</ele>
        <time>2012-08-28T10:39:30Z</time>
      </trkpt>
      <trkpt lat="45.606485679745674" lon="7.463657967746258">
        <ele>2525.39990234375</ele>
        <time>2012-08-28T10:39:38Z</time>
      </trkpt>
      <trkpt lat="45.606482159346342" lon="7.463746564462781">
        <ele>2525.800048828125</ele>
        <time>2012-08-28T10:39:45Z</time>
      </trkpt>
      <trkpt lat="45.606496743857861" lon="7.463819654658437">
        <ele>2526.39990234375</ele>
        <time>2012-08-28T10:39:51Z</time>
      </trkpt>
      <trkpt lat="45.606508059427142" lon="7.463844884186983">
        <ele>2526.60009765625</ele>
        <time>2012-08-28T10:39:53Z</time>
      </trkpt>
      <trkpt lat="45.606546029448509" lon="7.463948400691152">
        <ele>2527.60009765625</ele>
        <time>2012-08-28T10:40:01Z</time>
      </trkpt>
      <trkpt lat="45.606551058590412" lon="7.464068094268441">
        <ele>2528.199951171875</ele>
        <time>2012-08-28T10:40:08Z</time>
      </trkpt>
      <trkpt lat="45.606524487957358" lon="7.464150907471776">
        <ele>2528.199951171875</ele>
        <time>2012-08-28T10:40:14Z</time>
      </trkpt>
      <trkpt lat="45.606458857655525" lon="7.464235480874777">
        <ele>2528.39990234375</ele>
        <time>2012-08-28T10:40:23Z</time>
      </trkpt>
      <trkpt lat="45.606454163789749" lon="7.464245790615678">
        <ele>2528.39990234375</ele>
        <time>2012-08-28T10:40:24Z</time>
      </trkpt>
      <trkpt lat="45.606422312557697" lon="7.464300775900483">
        <ele>2528.800048828125</ele>
        <time>2012-08-28T10:40:29Z</time>
      </trkpt>
      <trkpt lat="45.606351066380739" lon="7.464406555518508">
        <ele>2529.199951171875</ele>
        <time>2012-08-28T10:40:39Z</time>
      </trkpt>
      <trkpt lat="45.60626951046288" lon="7.464452823624015">
        <ele>2528.800048828125</ele>
        <time>2012-08-28T10:40:48Z</time>
      </trkpt>
      <trkpt lat="45.606224164366722" lon="7.464455924928188">
        <ele>2528.39990234375</ele>
        <time>2012-08-28T10:40:53Z</time>
      </trkpt>
      <trkpt lat="45.606208322569728" lon="7.464469419792295">
        <ele>2528.199951171875</ele>
        <time>2012-08-28T10:40:55Z</time>
      </trkpt>
      <trkpt lat="45.606169849634171" lon="7.464484591037035">
        <ele>2528</ele>
        <time>2012-08-28T10:40:59Z</time>
      </trkpt>
      <trkpt lat="45.60614101588726" lon="7.464489620178938">
        <ele>2527.800048828125</ele>
        <time>2012-08-28T10:41:02Z</time>
      </trkpt>
      <trkpt lat="45.606063064187765" lon="7.464509317651391">
        <ele>2527</ele>
        <time>2012-08-28T10:41:11Z</time>
      </trkpt>
      <trkpt lat="45.606010425835848" lon="7.46455910615623">
        <ele>2527</ele>
        <time>2012-08-28T10:41:18Z</time>
      </trkpt>
      <trkpt lat="45.605994081124663" lon="7.464584084227681">
        <ele>2527</ele>
        <time>2012-08-28T10:41:21Z</time>
      </trkpt>
      <trkpt lat="45.605972707271576" lon="7.464628340676427">
        <ele>2527.39990234375</ele>
        <time>2012-08-28T10:41:25Z</time>
      </trkpt>
      <trkpt lat="45.60593968257308" lon="7.464707549661398">
        <ele>2527.800048828125</ele>
        <time>2012-08-28T10:41:31Z</time>
      </trkpt>
      <trkpt lat="45.605924259871244" lon="7.46480486355722">
        <ele>2528.800048828125</ele>
        <time>2012-08-28T10:41:39Z</time>
      </trkpt>
      <trkpt lat="45.605924678966403" lon="7.464888095855713">
        <ele>2529.800048828125</ele>
        <time>2012-08-28T10:41:46Z</time>
      </trkpt>
      <trkpt lat="45.605926858261228" lon="7.464972166344523">
        <ele>2530.800048828125</ele>
        <time>2012-08-28T10:41:53Z</time>
      </trkpt>
      <trkpt lat="45.605938341468573" lon="7.465064702555537">
        <ele>2532</ele>
        <time>2012-08-28T10:42:00Z</time>
      </trkpt>
      <trkpt lat="45.605928869917989" lon="7.465182049199939">
        <ele>2533.199951171875</ele>
        <time>2012-08-28T10:42:09Z</time>
      </trkpt>
      <trkpt lat="45.605921326205134" lon="7.46528523042798">
        <ele>2534.199951171875</ele>
        <time>2012-08-28T10:42:17Z</time>
      </trkpt>
      <trkpt lat="45.60590447857976" lon="7.46538145467639">
        <ele>2535</ele>
        <time>2012-08-28T10:42:25Z</time>
      </trkpt>
      <trkpt lat="45.605904143303633" lon="7.465391848236322">
        <ele>2535</ele>
        <time>2012-08-28T10:42:26Z</time>
      </trkpt>
      <trkpt lat="45.605901880189776" lon="7.465416910126805">
        <ele>2535.199951171875</ele>
        <time>2012-08-28T10:42:28Z</time>
      </trkpt>
      <trkpt lat="45.605897102504969" lon="7.46545379050076">
        <ele>2535.60009765625</ele>
        <time>2012-08-28T10:42:31Z</time>
      </trkpt>
      <trkpt lat="45.605888888239861" lon="7.46552755124867">
        <ele>2536.199951171875</ele>
        <time>2012-08-28T10:42:37Z</time>
      </trkpt>
      <trkpt lat="45.605886960402131" lon="7.465540627017617">
        <ele>2536.199951171875</ele>
        <time>2012-08-28T10:42:38Z</time>
      </trkpt>
      <trkpt lat="45.605873549357057" lon="7.465633833780885">
        <ele>2537</ele>
        <time>2012-08-28T10:42:45Z</time>
      </trkpt>
      <trkpt lat="45.605855779722333" lon="7.465750761330128">
        <ele>2537.800048828125</ele>
        <time>2012-08-28T10:42:54Z</time>
      </trkpt>
      <trkpt lat="45.605846391990781" lon="7.465825024992228">
        <ele>2538.199951171875</ele>
        <time>2012-08-28T10:43:00Z</time>
      </trkpt>
      <trkpt lat="45.605833567678928" lon="7.465898953378201">
        <ele>2539.199951171875</ele>
        <time>2012-08-28T10:43:06Z</time>
      </trkpt>
      <trkpt lat="45.605803560465574" lon="7.466026190668345">
        <ele>2540.60009765625</ele>
        <time>2012-08-28T10:43:16Z</time>
      </trkpt>
      <trkpt lat="45.605790065601468" lon="7.466134736314416">
        <ele>2542.39990234375</ele>
        <time>2012-08-28T10:43:24Z</time>
      </trkpt>
      <trkpt lat="45.605781683698297" lon="7.466231882572174">
        <ele>2544</ele>
        <time>2012-08-28T10:43:31Z</time>
      </trkpt>
      <trkpt lat="45.605783862993121" lon="7.466239845380187">
        <ele>2544</ele>
        <time>2012-08-28T10:43:32Z</time>
      </trkpt>
      <trkpt lat="45.605814792215824" lon="7.466261638328433">
        <ele>2545</ele>
        <time>2012-08-28T10:43:36Z</time>
      </trkpt>
      <trkpt lat="45.605834573507309" lon="7.466250993311405">
        <ele>2545</ele>
        <time>2012-08-28T10:43:38Z</time>
      </trkpt>
      <trkpt lat="45.605863993987441" lon="7.46620774269104">
        <ele>2545</ele>
        <time>2012-08-28T10:43:42Z</time>
      </trkpt>
      <trkpt lat="45.605884362012148" lon="7.466108165681362">
        <ele>2544</ele>
        <time>2012-08-28T10:43:49Z</time>
      </trkpt>
      <trkpt lat="45.605905903503299" lon="7.466006996110082">
        <ele>2542.800048828125</ele>
        <time>2012-08-28T10:43:56Z</time>
      </trkpt>
      <trkpt lat="45.605911770835519" lon="7.465982856228948">
        <ele>2542.39990234375</ele>
        <time>2012-08-28T10:43:58Z</time>
      </trkpt>
      <trkpt lat="45.605932306498289" lon="7.465917142108083">
        <ele>2541.800048828125</ele>
        <time>2012-08-28T10:44:03Z</time>
      </trkpt>
      <trkpt lat="45.605965247377753" lon="7.465875819325447">
        <ele>2542</ele>
        <time>2012-08-28T10:44:08Z</time>
      </trkpt>
      <trkpt lat="45.605983939021826" lon="7.465872885659337">
        <ele>2542.39990234375</ele>
        <time>2012-08-28T10:44:10Z</time>
      </trkpt>
      <trkpt lat="45.605995673686266" lon="7.465871460735798">
        <ele>2542.60009765625</ele>
        <time>2012-08-28T10:44:12Z</time>
      </trkpt>
      <trkpt lat="45.605994164943695" lon="7.465880177915096">
        <ele>2542.60009765625</ele>
        <time>2012-08-28T10:44:16Z</time>
      </trkpt>
      <trkpt lat="45.606037499383092" lon="7.465913286432624">
        <ele>2544.39990234375</ele>
        <time>2012-08-28T10:45:27Z</time>
      </trkpt>
      <trkpt lat="45.606026435270905" lon="7.466008337214589">
        <ele>2545.800048828125</ele>
        <time>2012-08-28T10:45:36Z</time>
      </trkpt>
      <trkpt lat="45.605996930971742" lon="7.466099951416254">
        <ele>2546.60009765625</ele>
        <time>2012-08-28T10:45:46Z</time>
      </trkpt>
      <trkpt lat="45.605980334803462" lon="7.46622241102159">
        <ele>2548.39990234375</ele>
        <time>2012-08-28T10:45:58Z</time>
      </trkpt>
      <trkpt lat="45.605963403359056" lon="7.466344786807895">
        <ele>2550</ele>
        <time>2012-08-28T10:46:10Z</time>
      </trkpt>
      <trkpt lat="45.605952842161059" lon="7.466438664123416">
        <ele>2551.39990234375</ele>
        <time>2012-08-28T10:46:19Z</time>
      </trkpt>
      <trkpt lat="45.605950327590108" lon="7.466552909463644">
        <ele>2553.199951171875</ele>
        <time>2012-08-28T10:46:30Z</time>
      </trkpt>
      <trkpt lat="45.60595435090363" lon="7.466655168682337">
        <ele>2555.199951171875</ele>
        <time>2012-08-28T10:46:40Z</time>
      </trkpt>
      <trkpt lat="45.605959380045533" lon="7.466752482578158">
        <ele>2557.39990234375</ele>
        <time>2012-08-28T10:46:49Z</time>
      </trkpt>
      <trkpt lat="45.605962397530675" lon="7.466867649927735">
        <ele>2560</ele>
        <time>2012-08-28T10:47:00Z</time>
      </trkpt>
      <trkpt lat="45.605951584875584" lon="7.466954486444593">
        <ele>2561.60009765625</ele>
        <time>2012-08-28T10:47:08Z</time>
      </trkpt>
      <trkpt lat="45.605926439166069" lon="7.467044927179813">
        <ele>2562.800048828125</ele>
        <time>2012-08-28T10:47:17Z</time>
      </trkpt>
      <trkpt lat="45.605900036171079" lon="7.467165207490325">
        <ele>2564.800048828125</ele>
        <time>2012-08-28T10:47:28Z</time>
      </trkpt>
      <trkpt lat="45.605846894904971" lon="7.467250535264611">
        <ele>2565</ele>
        <time>2012-08-28T10:47:38Z</time>
      </trkpt>
      <trkpt lat="45.605790819972754" lon="7.467258414253593">
        <ele>2564.800048828125</ele>
        <time>2012-08-28T10:47:45Z</time>
      </trkpt>
      <trkpt lat="45.605739690363407" lon="7.467209463939071">
        <ele>2563.800048828125</ele>
        <time>2012-08-28T10:47:52Z</time>
      </trkpt>
      <trkpt lat="45.605691494420171" lon="7.467128662392497">
        <ele>2562</ele>
        <time>2012-08-28T10:48:01Z</time>
      </trkpt>
      <trkpt lat="45.60564455576241" lon="7.467076610773802">
        <ele>2560.800048828125</ele>
        <time>2012-08-28T10:48:09Z</time>
      </trkpt>
      <trkpt lat="45.605572471395135" lon="7.467047106474638">
        <ele>2560</ele>
        <time>2012-08-28T10:48:19Z</time>
      </trkpt>
      <trkpt lat="45.60549602843821" lon="7.467037467285991">
        <ele>2559.800048828125</ele>
        <time>2012-08-28T10:48:29Z</time>
      </trkpt>
      <trkpt lat="45.605428889393806" lon="7.467037467285991">
        <ele>2559.800048828125</ele>
        <time>2012-08-28T10:48:38Z</time>
      </trkpt>
      <trkpt lat="45.605368539690971" lon="7.467039898037911">
        <ele>2559.800048828125</ele>
        <time>2012-08-28T10:48:47Z</time>
      </trkpt>
      <trkpt lat="45.605349848046899" lon="7.46703939512372">
        <ele>2559.800048828125</ele>
        <time>2012-08-28T10:48:55Z</time>
      </trkpt>
      <trkpt lat="45.605304501950741" lon="7.467075102031231">
        <ele>2560.800048828125</ele>
        <time>2012-08-28T10:49:55Z</time>
      </trkpt>
      <trkpt lat="45.605234177783132" lon="7.467138636857271">
        <ele>2562.60009765625</ele>
        <time>2012-08-28T10:50:05Z</time>
      </trkpt>
      <trkpt lat="45.605157651007175" lon="7.467206865549088">
        <ele>2564.800048828125</ele>
        <time>2012-08-28T10:50:16Z</time>
      </trkpt>
      <trkpt lat="45.605084644630551" lon="7.467201752588153">
        <ele>2564.800048828125</ele>
        <time>2012-08-28T10:50:25Z</time>
      </trkpt>
      <trkpt lat="45.604997556656599" lon="7.467210553586483">
        <ele>2565.199951171875</ele>
        <time>2012-08-28T10:50:36Z</time>
      </trkpt>
      <trkpt lat="45.604922873899341" lon="7.467250702902675">
        <ele>2565.39990234375</ele>
        <time>2012-08-28T10:50:46Z</time>
      </trkpt>
      <trkpt lat="45.604861853644252" lon="7.467296048998833">
        <ele>2566</ele>
        <time>2012-08-28T10:50:56Z</time>
      </trkpt>
      <trkpt lat="45.604800246655941" lon="7.46733988635242">
        <ele>2566.60009765625</ele>
        <time>2012-08-28T10:51:06Z</time>
      </trkpt>
      <trkpt lat="45.604745261371136" lon="7.467380790039897">
        <ele>2567.199951171875</ele>
        <time>2012-08-28T10:51:15Z</time>
      </trkpt>
      <trkpt lat="45.604670746251941" lon="7.467447342351079">
        <ele>2568.39990234375</ele>
        <time>2012-08-28T10:51:27Z</time>
      </trkpt>
      <trkpt lat="45.604603607207537" lon="7.467507356777787">
        <ele>2569.39990234375</ele>
        <time>2012-08-28T10:51:38Z</time>
      </trkpt>
      <trkpt lat="45.604529930278659" lon="7.467569634318352">
        <ele>2570.199951171875</ele>
        <time>2012-08-28T10:51:49Z</time>
      </trkpt>
      <trkpt lat="45.604468323290348" lon="7.467617327347398">
        <ele>2570.60009765625</ele>
        <time>2012-08-28T10:51:58Z</time>
      </trkpt>
      <trkpt lat="45.604470334947109" lon="7.467690836638212">
        <ele>2572.60009765625</ele>
        <time>2012-08-28T10:52:05Z</time>
      </trkpt>
      <trkpt lat="45.604513334110379" lon="7.467684131115675">
        <ele>2573</ele>
        <time>2012-08-28T10:52:12Z</time>
      </trkpt>
      <trkpt lat="45.604520039632916" lon="7.467681868001819">
        <ele>2573</ele>
        <time>2012-08-28T10:52:20Z</time>
      </trkpt>
      <trkpt lat="45.604564966633916" lon="7.467663595452905">
        <ele>2573</ele>
        <time>2012-08-28T10:52:28Z</time>
      </trkpt>
      <trkpt lat="45.604641241952777" lon="7.467659069225192">
        <ele>2574</ele>
        <time>2012-08-28T10:52:37Z</time>
      </trkpt>
      <trkpt lat="45.604730928316712" lon="7.467678179964423">
        <ele>2575.60009765625</ele>
        <time>2012-08-28T10:52:48Z</time>
      </trkpt>
      <trkpt lat="45.604796726256609" lon="7.467728639021516">
        <ele>2577.60009765625</ele>
        <time>2012-08-28T10:52:58Z</time>
      </trkpt>
      <trkpt lat="45.604843581095338" lon="7.467800807207823">
        <ele>2580</ele>
        <time>2012-08-28T10:53:08Z</time>
      </trkpt>
      <trkpt lat="45.604883311316371" lon="7.467866940423846">
        <ele>2582</ele>
        <time>2012-08-28T10:53:17Z</time>
      </trkpt>
      <trkpt lat="45.604948103427887" lon="7.467924356460571">
        <ele>2584.199951171875</ele>
        <time>2012-08-28T10:53:27Z</time>
      </trkpt>
      <trkpt lat="45.605030329898" lon="7.467947322875261">
        <ele>2585.199951171875</ele>
        <time>2012-08-28T10:53:38Z</time>
      </trkpt>
      <trkpt lat="45.605109622702003" lon="7.467978084459901">
        <ele>2585.60009765625</ele>
        <time>2012-08-28T10:53:48Z</time>
      </trkpt>
      <trkpt lat="45.605165027081966" lon="7.468030052259564">
        <ele>2586.800048828125</ele>
        <time>2012-08-28T10:53:58Z</time>
      </trkpt>
      <trkpt lat="45.605211462825537" lon="7.468077661469579">
        <ele>2588</ele>
        <time>2012-08-28T10:54:06Z</time>
      </trkpt>
      <trkpt lat="45.605242559686303" lon="7.468157624825835">
        <ele>2590</ele>
        <time>2012-08-28T10:54:15Z</time>
      </trkpt>
      <trkpt lat="45.605267370119691" lon="7.468227110803127">
        <ele>2591.60009765625</ele>
        <time>2012-08-28T10:54:23Z</time>
      </trkpt>
      <trkpt lat="45.605293354019523" lon="7.468307493254542">
        <ele>2593.60009765625</ele>
        <time>2012-08-28T10:54:31Z</time>
      </trkpt>
      <trkpt lat="45.605321433395147" lon="7.468416290357709">
        <ele>2596</ele>
        <time>2012-08-28T10:54:42Z</time>
      </trkpt>
      <trkpt lat="45.605324283242226" lon="7.468427019193769">
        <ele>2596.199951171875</ele>
        <time>2012-08-28T10:54:50Z</time>
      </trkpt>
      <trkpt lat="45.605322355404496" lon="7.468477981165052">
        <ele>2597.199951171875</ele>
        <time>2012-08-28T10:54:55Z</time>
      </trkpt>
      <trkpt lat="45.605346579104662" lon="7.468560459092259">
        <ele>2598.800048828125</ele>
        <time>2012-08-28T10:55:02Z</time>
      </trkpt>
      <trkpt lat="45.605369294062257" lon="7.468601949512959">
        <ele>2599.800048828125</ele>
        <time>2012-08-28T10:55:06Z</time>
      </trkpt>
      <trkpt lat="45.605409108102322" lon="7.468618294224143">
        <ele>2600.199951171875</ele>
        <time>2012-08-28T10:55:09Z</time>
      </trkpt>
      <trkpt lat="45.605479683727026" lon="7.468631537631154">
        <ele>2600.60009765625</ele>
        <time>2012-08-28T10:55:14Z</time>
      </trkpt>
      <trkpt lat="45.605498626828194" lon="7.46863673441112">
        <ele>2600.800048828125</ele>
        <time>2012-08-28T10:55:16Z</time>
      </trkpt>
      <trkpt lat="45.605552103370428" lon="7.468682667240501">
        <ele>2601.800048828125</ele>
        <time>2012-08-28T10:55:23Z</time>
      </trkpt>
      <trkpt lat="45.605588229373097" lon="7.468760870397091">
        <ele>2603.39990234375</ele>
        <time>2012-08-28T10:55:30Z</time>
      </trkpt>
      <trkpt lat="45.605628630146384" lon="7.468799343332648">
        <ele>2604.39990234375</ele>
        <time>2012-08-28T10:55:36Z</time>
      </trkpt>
      <trkpt lat="45.605707252398133" lon="7.468814766034484">
        <ele>2605</ele>
        <time>2012-08-28T10:55:44Z</time>
      </trkpt>
      <trkpt lat="45.60571638867259" lon="7.468810910359025">
        <ele>2605</ele>
        <time>2012-08-28T10:55:45Z</time>
      </trkpt>
      <trkpt lat="45.605772631242871" lon="7.468806887045503">
        <ele>2605</ele>
        <time>2012-08-28T10:55:51Z</time>
      </trkpt>
      <trkpt lat="45.605780761688948" lon="7.468801271170378">
        <ele>2605</ele>
        <time>2012-08-28T10:55:52Z</time>
      </trkpt>
      <trkpt lat="45.605821246281266" lon="7.468776209279895">
        <ele>2604.60009765625</ele>
        <time>2012-08-28T10:55:58Z</time>
      </trkpt>
      <trkpt lat="45.605857288464904" lon="7.468746118247509">
        <ele>2604.60009765625</ele>
        <time>2012-08-28T10:56:07Z</time>
      </trkpt>
      <trkpt lat="45.60585418716073" lon="7.468770258128643">
        <ele>2605</ele>
        <time>2012-08-28T10:56:43Z</time>
      </trkpt>
      <trkpt lat="45.605854606255889" lon="7.468815520405769">
        <ele>2606</ele>
        <time>2012-08-28T10:56:49Z</time>
      </trkpt>
      <trkpt lat="45.605844296514988" lon="7.46880772523582">
        <ele>2605.60009765625</ele>
        <time>2012-08-28T10:57:32Z</time>
      </trkpt>
      <trkpt lat="45.605833902955055" lon="7.468763301149011">
        <ele>2604.39990234375</ele>
        <time>2012-08-28T10:57:54Z</time>
      </trkpt>
      <trkpt lat="45.605820324271917" lon="7.468739496544004">
        <ele>2603.800048828125</ele>
        <time>2012-08-28T10:58:36Z</time>
      </trkpt>
      <trkpt lat="45.605826526880264" lon="7.46871829032898">
        <ele>2603.199951171875</ele>
        <time>2012-08-28T11:00:35Z</time>
      </trkpt>
      <trkpt lat="45.605854103341699" lon="7.468735557049513">
        <ele>2604.199951171875</ele>
        <time>2012-08-28T11:11:22Z</time>
      </trkpt>
      <trkpt lat="45.605849074199796" lon="7.468745280057192">
        <ele>2604.39990234375</ele>
        <time>2012-08-28T11:13:38Z</time>
      </trkpt>
      <trkpt lat="45.605853851884604" lon="7.468732204288244">
        <ele>2604.199951171875</ele>
        <time>2012-08-28T11:13:53Z</time>
      </trkpt>
      <trkpt lat="45.605851756408811" lon="7.468728180974722">
        <ele>2604</ele>
        <time>2012-08-28T11:14:17Z</time>
      </trkpt>
      <trkpt lat="45.605849325656891" lon="7.468721475452185">
        <ele>2603.800048828125</ele>
        <time>2012-08-28T11:14:23Z</time>
      </trkpt>
      <trkpt lat="45.605859467759728" lon="7.468713512644172">
        <ele>2604</ele>
        <time>2012-08-28T11:15:39Z</time>
      </trkpt>
      <trkpt lat="45.605862652882934" lon="7.468732371926308">
        <ele>2604.39990234375</ele>
        <time>2012-08-28T11:15:59Z</time>
      </trkpt>
      <trkpt lat="45.605864245444536" lon="7.468733796849847">
        <ele>2604.60009765625</ele>
        <time>2012-08-28T11:16:08Z</time>
      </trkpt>
      <trkpt lat="45.605860892683268" lon="7.468743100762367">
        <ele>2604.60009765625</ele>
        <time>2012-08-28T11:16:31Z</time>
      </trkpt>
      <trkpt lat="45.60590154491365" lon="7.468731366097927">
        <ele>2605.60009765625</ele>
        <time>2012-08-28T11:17:03Z</time>
      </trkpt>
      <trkpt lat="45.605942532420158" lon="7.468718625605106">
        <ele>2606.39990234375</ele>
        <time>2012-08-28T11:17:11Z</time>
      </trkpt>
      <trkpt lat="45.605975221842527" lon="7.46871292591095">
        <ele>2607.199951171875</ele>
        <time>2012-08-28T11:17:18Z</time>
      </trkpt>
      <trkpt lat="45.605997517704964" lon="7.468715943396092">
        <ele>2608</ele>
        <time>2012-08-28T11:17:22Z</time>
      </trkpt>
      <trkpt lat="45.606032218784094" lon="7.468710914254189">
        <ele>2608.800048828125</ele>
        <time>2012-08-28T11:17:28Z</time>
      </trkpt>
      <trkpt lat="45.606063650920987" lon="7.468702532351017">
        <ele>2609.39990234375</ele>
        <time>2012-08-28T11:17:33Z</time>
      </trkpt>
      <trkpt lat="45.606130789965391" lon="7.468687864020467">
        <ele>2611</ele>
        <time>2012-08-28T11:17:41Z</time>
      </trkpt>
      <trkpt lat="45.606191977858543" lon="7.468649558722973">
        <ele>2611.800048828125</ele>
        <time>2012-08-28T11:17:49Z</time>
      </trkpt>
      <trkpt lat="45.606253920122981" lon="7.468625083565712">
        <ele>2612.800048828125</ele>
        <time>2012-08-28T11:17:57Z</time>
      </trkpt>
      <trkpt lat="45.606319550424814" lon="7.468584850430489">
        <ele>2613.60009765625</ele>
        <time>2012-08-28T11:18:05Z</time>
      </trkpt>
      <trkpt lat="45.606397921219468" lon="7.468510419130325">
        <ele>2613.60009765625</ele>
        <time>2012-08-28T11:18:16Z</time>
      </trkpt>
      <trkpt lat="45.606468915939331" lon="7.468460043892264">
        <ele>2614</ele>
        <time>2012-08-28T11:18:26Z</time>
      </trkpt>
      <trkpt lat="45.606512418016791" lon="7.468416625633836">
        <ele>2613.800048828125</ele>
        <time>2012-08-28T11:18:35Z</time>
      </trkpt>
      <trkpt lat="45.60651920735836" lon="7.46839483268559">
        <ele>2613.199951171875</ele>
        <time>2012-08-28T11:18:42Z</time>
      </trkpt>
      <trkpt lat="45.606558015570045" lon="7.468328615650535">
        <ele>2612.199951171875</ele>
        <time>2012-08-28T11:18:53Z</time>
      </trkpt>
      <trkpt lat="45.606630854308605" lon="7.468225434422493">
        <ele>2611.60009765625</ele>
        <time>2012-08-28T11:19:01Z</time>
      </trkpt>
      <trkpt lat="45.606641499325633" lon="7.468207329511643">
        <ele>2611.39990234375</ele>
        <time>2012-08-28T11:19:03Z</time>
      </trkpt>
      <trkpt lat="45.606661112979054" lon="7.468186626210809">
        <ele>2611.39990234375</ele>
        <time>2012-08-28T11:19:06Z</time>
      </trkpt>
      <trkpt lat="45.606692042201757" lon="7.468127198517323">
        <ele>2612.199951171875</ele>
        <time>2012-08-28T11:19:10Z</time>
      </trkpt>
      <trkpt lat="45.606702519580722" lon="7.468112697824836">
        <ele>2612.60009765625</ele>
        <time>2012-08-28T11:19:11Z</time>
      </trkpt>
      <trkpt lat="45.606740238144994" lon="7.468045642599464">
        <ele>2614.199951171875</ele>
        <time>2012-08-28T11:19:16Z</time>
      </trkpt>
      <trkpt lat="45.606804108247161" lon="7.467937851324678">
        <ele>2616.60009765625</ele>
        <time>2012-08-28T11:19:21Z</time>
      </trkpt>
      <trkpt lat="45.606839396059513" lon="7.46781824156642">
        <ele>2616.60009765625</ele>
        <time>2012-08-28T11:19:25Z</time>
      </trkpt>
      <trkpt lat="45.606916006654501" lon="7.4676413834095">
        <ele>2618.199951171875</ele>
        <time>2012-08-28T11:19:30Z</time>
      </trkpt>
      <trkpt lat="45.606961939483881" lon="7.467515654861927">
        <ele>2618.39990234375</ele>
        <time>2012-08-28T11:19:35Z</time>
      </trkpt>
      <trkpt lat="45.606975266709924" lon="7.467497047036886">
        <ele>2619</ele>
        <time>2012-08-28T11:19:43Z</time>
      </trkpt>
      <trkpt lat="45.606997814029455" lon="7.467456478625536">
        <ele>2619.60009765625</ele>
        <time>2012-08-28T11:19:50Z</time>
      </trkpt>
      <trkpt lat="45.606990857049823" lon="7.467449437826872">
        <ele>2618.800048828125</ele>
        <time>2012-08-28T11:19:59Z</time>
      </trkpt>
      <trkpt lat="45.607019104063511" lon="7.46735455468297">
        <ele>2618.199951171875</ele>
        <time>2012-08-28T11:20:08Z</time>
      </trkpt>
      <trkpt lat="45.6070835608989" lon="7.467227401211858">
        <ele>2619.39990234375</ele>
        <time>2012-08-28T11:20:14Z</time>
      </trkpt>
      <trkpt lat="45.607128571718931" lon="7.467076443135738">
        <ele>2618</ele>
        <time>2012-08-28T11:20:21Z</time>
      </trkpt>
      <trkpt lat="45.607169810682535" lon="7.467026319354773">
        <ele>2619.39990234375</ele>
        <time>2012-08-28T11:20:23Z</time>
      </trkpt>
      <trkpt lat="45.607186993584037" lon="7.467020871117711">
        <ele>2620.60009765625</ele>
        <time>2012-08-28T11:20:24Z</time>
      </trkpt>
      <trkpt lat="45.607222532853484" lon="7.466978877782822">
        <ele>2621.60009765625</ele>
        <time>2012-08-28T11:20:29Z</time>
      </trkpt>
      <trkpt lat="45.607242649421096" lon="7.466851556673646">
        <ele>2619</ele>
        <time>2012-08-28T11:20:35Z</time>
      </trkpt>
      <trkpt lat="45.607254300266504" lon="7.466693893074989">
        <ele>2614.60009765625</ele>
        <time>2012-08-28T11:20:39Z</time>
      </trkpt>
      <trkpt lat="45.6072614248842" lon="7.466670088469982">
        <ele>2614.39990234375</ele>
        <time>2012-08-28T11:20:41Z</time>
      </trkpt>
      <trkpt lat="45.607265280559659" lon="7.466654498130083">
        <ele>2614</ele>
        <time>2012-08-28T11:20:42Z</time>
      </trkpt>
      <trkpt lat="45.607319260016084" lon="7.466550981625915">
        <ele>2613.60009765625</ele>
        <time>2012-08-28T11:20:48Z</time>
      </trkpt>
      <trkpt lat="45.607331749051809" lon="7.466533547267318">
        <ele>2613.800048828125</ele>
        <time>2012-08-28T11:20:49Z</time>
      </trkpt>
      <trkpt lat="45.607401737943292" lon="7.466397592797875">
        <ele>2612.60009765625</ele>
        <time>2012-08-28T11:20:55Z</time>
      </trkpt>
      <trkpt lat="45.607475163415074" lon="7.466311175376177">
        <ele>2613.199951171875</ele>
        <time>2012-08-28T11:21:00Z</time>
      </trkpt>
      <trkpt lat="45.607481030747294" lon="7.466296004131436">
        <ele>2613</ele>
        <time>2012-08-28T11:21:01Z</time>
      </trkpt>
      <trkpt lat="45.607516570016742" lon="7.466195086017251">
        <ele>2610.60009765625</ele>
        <time>2012-08-28T11:21:04Z</time>
      </trkpt>
      <trkpt lat="45.607540206983685" lon="7.466152086853981">
        <ele>2610.199951171875</ele>
        <time>2012-08-28T11:21:08Z</time>
      </trkpt>
      <trkpt lat="45.607573399320245" lon="7.466114619746804">
        <ele>2610.39990234375</ele>
        <time>2012-08-28T11:21:17Z</time>
      </trkpt>
      <trkpt lat="45.607626121491194" lon="7.466015042737126">
        <ele>2609.39990234375</ele>
        <time>2012-08-28T11:21:27Z</time>
      </trkpt>
      <trkpt lat="45.607669455930591" lon="7.465920494869351">
        <ele>2608.199951171875</ele>
        <time>2012-08-28T11:21:37Z</time>
      </trkpt>
      <trkpt lat="45.607712455093861" lon="7.465857127681375">
        <ele>2608.39990234375</ele>
        <time>2012-08-28T11:21:45Z</time>
      </trkpt>
      <trkpt lat="45.607750425115228" lon="7.465781271457672">
        <ele>2608.800048828125</ele>
        <time>2012-08-28T11:21:54Z</time>
      </trkpt>
      <trkpt lat="45.607795184478164" lon="7.46571178548038">
        <ele>2610.199951171875</ele>
        <time>2012-08-28T11:22:03Z</time>
      </trkpt>
      <trkpt lat="45.607828125357628" lon="7.465639198198915">
        <ele>2610.60009765625</ele>
        <time>2012-08-28T11:22:13Z</time>
      </trkpt>
      <trkpt lat="45.607866598293185" lon="7.465559653937817">
        <ele>2611.39990234375</ele>
        <time>2012-08-28T11:22:22Z</time>
      </trkpt>
      <trkpt lat="45.607901802286506" lon="7.465467369183898">
        <ele>2611.60009765625</ele>
        <time>2012-08-28T11:22:31Z</time>
      </trkpt>
      <trkpt lat="45.607933988794684" lon="7.465393943712115">
        <ele>2612.199951171875</ele>
        <time>2012-08-28T11:22:39Z</time>
      </trkpt>
      <trkpt lat="45.607958966866136" lon="7.465298306196928">
        <ele>2611.800048828125</ele>
        <time>2012-08-28T11:22:48Z</time>
      </trkpt>
      <trkpt lat="45.608000792562962" lon="7.465223455801606">
        <ele>2612.800048828125</ele>
        <time>2012-08-28T11:22:57Z</time>
      </trkpt>
      <trkpt lat="45.608057454228401" lon="7.465147264301777">
        <ele>2615</ele>
        <time>2012-08-28T11:23:08Z</time>
      </trkpt>
      <trkpt lat="45.608106320723891" lon="7.465075179934502">
        <ele>2616.60009765625</ele>
        <time>2012-08-28T11:23:18Z</time>
      </trkpt>
      <trkpt lat="45.608155690133572" lon="7.464985912665725">
        <ele>2618.199951171875</ele>
        <time>2012-08-28T11:23:27Z</time>
      </trkpt>
      <trkpt lat="45.608200030401349" lon="7.464952971786261">
        <ele>2620.800048828125</ele>
        <time>2012-08-28T11:23:35Z</time>
      </trkpt>
      <trkpt lat="45.608232300728559" lon="7.464935118332505">
        <ele>2622.800048828125</ele>
        <time>2012-08-28T11:23:42Z</time>
      </trkpt>
      <trkpt lat="45.608281837776303" lon="7.464921372011304">
        <ele>2625.800048828125</ele>
        <time>2012-08-28T11:23:49Z</time>
      </trkpt>
      <trkpt lat="45.608284268528223" lon="7.464841827750206">
        <ele>2625.199951171875</ele>
        <time>2012-08-28T11:23:56Z</time>
      </trkpt>
      <trkpt lat="45.608307318761945" lon="7.464792961254716">
        <ele>2626.199951171875</ele>
        <time>2012-08-28T11:24:03Z</time>
      </trkpt>
      <trkpt lat="45.608312850818038" lon="7.464729677885771">
        <ele>2625.800048828125</ele>
        <time>2012-08-28T11:24:10Z</time>
      </trkpt>
      <trkpt lat="45.608313102275133" lon="7.464659688994288">
        <ele>2625</ele>
        <time>2012-08-28T11:24:17Z</time>
      </trkpt>
      <trkpt lat="45.608322825282812" lon="7.464575199410319">
        <ele>2624.800048828125</ele>
        <time>2012-08-28T11:24:25Z</time>
      </trkpt>
      <trkpt lat="45.608313856646419" lon="7.464459277689457">
        <ele>2623</ele>
        <time>2012-08-28T11:24:35Z</time>
      </trkpt>
      <trkpt lat="45.608328524976969" lon="7.464339751750231">
        <ele>2622.60009765625</ele>
        <time>2012-08-28T11:24:45Z</time>
      </trkpt>
      <trkpt lat="45.608313018456101" lon="7.464246712625027">
        <ele>2620.60009765625</ele>
        <time>2012-08-28T11:24:53Z</time>
      </trkpt>
      <trkpt lat="45.608319640159607" lon="7.464206395670772">
        <ele>2620.60009765625</ele>
        <time>2012-08-28T11:24:59Z</time>
      </trkpt>
      <trkpt lat="45.608342103660107" lon="7.464134730398655">
        <ele>2621.39990234375</ele>
        <time>2012-08-28T11:25:09Z</time>
      </trkpt>
      <trkpt lat="45.608379486948252" lon="7.463973630219698">
        <ele>2622.800048828125</ele>
        <time>2012-08-28T11:25:15Z</time>
      </trkpt>
      <trkpt lat="45.608434220775962" lon="7.463882602751255">
        <ele>2624.800048828125</ele>
        <time>2012-08-28T11:25:19Z</time>
      </trkpt>
      <trkpt lat="45.60846297070384" lon="7.463852092623711">
        <ele>2625.800048828125</ele>
        <time>2012-08-28T11:25:27Z</time>
      </trkpt>
      <trkpt lat="45.608472693711519" lon="7.463746480643749">
        <ele>2626</ele>
        <time>2012-08-28T11:25:38Z</time>
      </trkpt>
      <trkpt lat="45.60848199762404" lon="7.463617231696844">
        <ele>2626</ele>
        <time>2012-08-28T11:25:49Z</time>
      </trkpt>
      <trkpt lat="45.608512256294489" lon="7.463530646637082">
        <ele>2626.800048828125</ele>
        <time>2012-08-28T11:25:59Z</time>
      </trkpt>
      <trkpt lat="45.608544610440731" lon="7.4634865578264">
        <ele>2627.60009765625</ele>
        <time>2012-08-28T11:26:07Z</time>
      </trkpt>
      <trkpt lat="45.608553579077125" lon="7.463480187579989">
        <ele>2627.800048828125</ele>
        <time>2012-08-28T11:26:13Z</time>
      </trkpt>
      <trkpt lat="45.608595907688141" lon="7.463457304984331">
        <ele>2629</ele>
        <time>2012-08-28T11:26:28Z</time>
      </trkpt>
      <trkpt lat="45.608641840517521" lon="7.463423777371645">
        <ele>2630.39990234375</ele>
        <time>2012-08-28T11:26:37Z</time>
      </trkpt>
      <trkpt lat="45.608668411150575" lon="7.463377173990011">
        <ele>2630.800048828125</ele>
        <time>2012-08-28T11:26:47Z</time>
      </trkpt>
      <trkpt lat="45.608700262382627" lon="7.463320093229413">
        <ele>2631.60009765625</ele>
        <time>2012-08-28T11:26:57Z</time>
      </trkpt>
      <trkpt lat="45.608712080866098" lon="7.46330576017499">
        <ele>2632</ele>
        <time>2012-08-28T11:27:05Z</time>
      </trkpt>
      <trkpt lat="45.608739070594311" lon="7.463272819295526">
        <ele>2632.800048828125</ele>
        <time>2012-08-28T11:27:30Z</time>
      </trkpt>
      <trkpt lat="45.608745357021689" lon="7.463237615302205">
        <ele>2633</ele>
        <time>2012-08-28T11:27:37Z</time>
      </trkpt>
      <trkpt lat="45.608735969290137" lon="7.463215235620737">
        <ele>2632.800048828125</ele>
        <time>2012-08-28T11:27:42Z</time>
      </trkpt>
      <trkpt lat="45.608693640679121" lon="7.46318506076932">
        <ele>2631.800048828125</ele>
        <time>2012-08-28T11:27:49Z</time>
      </trkpt>
      <trkpt lat="45.608673356473446" lon="7.463162261992693">
        <ele>2631.199951171875</ele>
        <time>2012-08-28T11:27:56Z</time>
      </trkpt>
      <trkpt lat="45.608692886307836" lon="7.46314063668251">
        <ele>2631.800048828125</ele>
        <time>2012-08-28T11:28:13Z</time>
      </trkpt>
      <trkpt lat="45.608705542981625" lon="7.463118424639106">
        <ele>2632.199951171875</ele>
        <time>2012-08-28T11:28:20Z</time>
      </trkpt>
      <trkpt lat="45.608708392828703" lon="7.463083975017071">
        <ele>2632.39990234375</ele>
        <time>2012-08-28T11:28:51Z</time>
      </trkpt>
      <trkpt lat="45.608725491911173" lon="7.46305463835597">
        <ele>2632.800048828125</ele>
        <time>2012-08-28T11:28:56Z</time>
      </trkpt>
      <trkpt lat="45.608774358406663" lon="7.4629857391119">
        <ele>2634.199951171875</ele>
        <time>2012-08-28T11:29:05Z</time>
      </trkpt>
      <trkpt lat="45.608826158568263" lon="7.462912816554308">
        <ele>2635.60009765625</ele>
        <time>2012-08-28T11:29:14Z</time>
      </trkpt>
      <trkpt lat="45.608871337026358" lon="7.462855987250805">
        <ele>2636.800048828125</ele>
        <time>2012-08-28T11:29:22Z</time>
      </trkpt>
      <trkpt lat="45.608877036720514" lon="7.462853472679853">
        <ele>2637</ele>
        <time>2012-08-28T11:29:33Z</time>
      </trkpt>
      <trkpt lat="45.608921460807323" lon="7.462801001966">
        <ele>2638</ele>
        <time>2012-08-28T11:29:42Z</time>
      </trkpt>
      <trkpt lat="45.608994215726852" lon="7.462727576494217">
        <ele>2639.60009765625</ele>
        <time>2012-08-28T11:29:50Z</time>
      </trkpt>
      <trkpt lat="45.609099324792624" lon="7.462630933150649">
        <ele>2641.800048828125</ele>
        <time>2012-08-28T11:30:00Z</time>
      </trkpt>
      <trkpt lat="45.609180796891451" lon="7.462544096633792">
        <ele>2643.39990234375</ele>
        <time>2012-08-28T11:30:08Z</time>
      </trkpt>
      <trkpt lat="45.609246259555221" lon="7.462465474382043">
        <ele>2644.800048828125</ele>
        <time>2012-08-28T11:30:17Z</time>
      </trkpt>
      <trkpt lat="45.609252378344536" lon="7.462456757202745">
        <ele>2644.800048828125</ele>
        <time>2012-08-28T11:30:18Z</time>
      </trkpt>
      <trkpt lat="45.609295712783933" lon="7.462411746382713">
        <ele>2645.800048828125</ele>
        <time>2012-08-28T11:30:24Z</time>
      </trkpt>
      <trkpt lat="45.609309710562229" lon="7.462390959262848">
        <ele>2646.199951171875</ele>
        <time>2012-08-28T11:30:26Z</time>
      </trkpt>
      <trkpt lat="45.609351620078087" lon="7.462358269840479">
        <ele>2647.199951171875</ele>
        <time>2012-08-28T11:30:31Z</time>
      </trkpt>
      <trkpt lat="45.609358660876751" lon="7.462349720299244">
        <ele>2647.199951171875</ele>
        <time>2012-08-28T11:30:32Z</time>
      </trkpt>
      <trkpt lat="45.609415071085095" lon="7.462282245978713">
        <ele>2648.60009765625</ele>
        <time>2012-08-28T11:30:39Z</time>
      </trkpt>
      <trkpt lat="45.609483299776912" lon="7.462219297885895">
        <ele>2650.199951171875</ele>
        <time>2012-08-28T11:30:47Z</time>
      </trkpt>
      <trkpt lat="45.609510960057378" lon="7.46219172142446">
        <ele>2650.800048828125</ele>
        <time>2012-08-28T11:30:53Z</time>
      </trkpt>
      <trkpt lat="45.609575249254704" lon="7.462156349793077">
        <ele>2652.199951171875</ele>
        <time>2012-08-28T11:31:03Z</time>
      </trkpt>
      <trkpt lat="45.609622104093432" lon="7.46213891543448">
        <ele>2653.199951171875</ele>
        <time>2012-08-28T11:31:11Z</time>
      </trkpt>
      <trkpt lat="45.60969234444201" lon="7.462099771946669">
        <ele>2654.60009765625</ele>
        <time>2012-08-28T11:31:22Z</time>
      </trkpt>
      <trkpt lat="45.609756968915462" lon="7.462058197706938">
        <ele>2656.199951171875</ele>
        <time>2012-08-28T11:31:32Z</time>
      </trkpt>
      <trkpt lat="45.609817150980234" lon="7.461979240179062">
        <ele>2657.60009765625</ele>
        <time>2012-08-28T11:31:42Z</time>
      </trkpt>
      <trkpt lat="45.609877752140164" lon="7.461878657341003">
        <ele>2659</ele>
        <time>2012-08-28T11:31:54Z</time>
      </trkpt>
      <trkpt lat="45.609922930598259" lon="7.461781930178404">
        <ele>2660.199951171875</ele>
        <time>2012-08-28T11:32:05Z</time>
      </trkpt>
      <trkpt lat="45.609971126541495" lon="7.46166399680078">
        <ele>2661.39990234375</ele>
        <time>2012-08-28T11:32:17Z</time>
      </trkpt>
      <trkpt lat="45.609994428232312" lon="7.461594510823488">
        <ele>2662.39990234375</ele>
        <time>2012-08-28T11:32:24Z</time>
      </trkpt>
      <trkpt lat="45.609997278079391" lon="7.461569616571069">
        <ele>2662.60009765625</ele>
        <time>2012-08-28T11:32:26Z</time>
      </trkpt>
      <trkpt lat="45.610003564506769" lon="7.461545141413808">
        <ele>2662.800048828125</ele>
        <time>2012-08-28T11:32:28Z</time>
      </trkpt>
      <trkpt lat="45.610027201473713" lon="7.461485797539353">
        <ele>2663.800048828125</ele>
        <time>2012-08-28T11:32:35Z</time>
      </trkpt>
      <trkpt lat="45.610080007463694" lon="7.461435589939356">
        <ele>2665.39990234375</ele>
        <time>2012-08-28T11:32:45Z</time>
      </trkpt>
      <trkpt lat="45.61011990532279" lon="7.461387058719993">
        <ele>2666.800048828125</ele>
        <time>2012-08-28T11:32:53Z</time>
      </trkpt>
      <trkpt lat="45.610151002183557" lon="7.461320841684938">
        <ele>2668.199951171875</ele>
        <time>2012-08-28T11:33:01Z</time>
      </trkpt>
      <trkpt lat="45.610141195356846" lon="7.461226461455226">
        <ele>2668.60009765625</ele>
        <time>2012-08-28T11:33:11Z</time>
      </trkpt>
      <trkpt lat="45.610141530632973" lon="7.461211457848549">
        <ele>2668.60009765625</ele>
        <time>2012-08-28T11:33:18Z</time>
      </trkpt>
      <trkpt lat="45.610158881172538" lon="7.461185306310654">
        <ele>2669.39990234375</ele>
        <time>2012-08-28T11:33:35Z</time>
      </trkpt>
      <trkpt lat="45.610191402956843" lon="7.461129985749722">
        <ele>2670.800048828125</ele>
        <time>2012-08-28T11:33:44Z</time>
      </trkpt>
      <trkpt lat="45.610219314694405" lon="7.461096541956067">
        <ele>2671.800048828125</ele>
        <time>2012-08-28T11:33:51Z</time>
      </trkpt>
      <trkpt lat="45.610244292765856" lon="7.461023200303316">
        <ele>2673</ele>
        <time>2012-08-28T11:34:00Z</time>
      </trkpt>
      <trkpt lat="45.610259044915438" lon="7.460985900834203">
        <ele>2673.800048828125</ele>
        <time>2012-08-28T11:34:07Z</time>
      </trkpt>
      <trkpt lat="45.610275557264686" lon="7.460900992155075">
        <ele>2675</ele>
        <time>2012-08-28T11:34:18Z</time>
      </trkpt>
      <trkpt lat="45.610299194231629" lon="7.460823627188802">
        <ele>2676.39990234375</ele>
        <time>2012-08-28T11:34:28Z</time>
      </trkpt>
      <trkpt lat="45.610297014936805" lon="7.460762104019523">
        <ele>2677.199951171875</ele>
        <time>2012-08-28T11:34:36Z</time>
      </trkpt>
      <trkpt lat="45.610297601670027" lon="7.460691276937723">
        <ele>2678.199951171875</ele>
        <time>2012-08-28T11:34:44Z</time>
      </trkpt>
      <trkpt lat="45.610318724066019" lon="7.460620114579797">
        <ele>2679.800048828125</ele>
        <time>2012-08-28T11:34:53Z</time>
      </trkpt>
      <trkpt lat="45.610325681045651" lon="7.460561357438564">
        <ele>2680.800048828125</ele>
        <time>2012-08-28T11:36:28Z</time>
      </trkpt>
      <trkpt lat="45.61033976264298" lon="7.460462367162108">
        <ele>2682.60009765625</ele>
        <time>2012-08-28T11:36:39Z</time>
      </trkpt>
      <trkpt lat="45.610362980514765" lon="7.460418194532394">
        <ele>2684</ele>
        <time>2012-08-28T11:36:46Z</time>
      </trkpt>
      <trkpt lat="45.610365914180875" lon="7.460332112386823">
        <ele>2685.39990234375</ele>
        <time>2012-08-28T11:36:55Z</time>
      </trkpt>
      <trkpt lat="45.610374715179205" lon="7.460260195657611">
        <ele>2686.60009765625</ele>
        <time>2012-08-28T11:37:04Z</time>
      </trkpt>
      <trkpt lat="45.610382175073028" lon="7.4602244887501">
        <ele>2687.39990234375</ele>
        <time>2012-08-28T11:37:09Z</time>
      </trkpt>
      <trkpt lat="45.610397849231958" lon="7.460169503465295">
        <ele>2688.800048828125</ele>
        <time>2012-08-28T11:37:17Z</time>
      </trkpt>
      <trkpt lat="45.610432215034962" lon="7.4601174518466">
        <ele>2691</ele>
        <time>2012-08-28T11:37:25Z</time>
      </trkpt>
      <trkpt lat="45.610441183671355" lon="7.460105801001191">
        <ele>2691.39990234375</ele>
        <time>2012-08-28T11:37:34Z</time>
      </trkpt>
      <trkpt lat="45.610422911122441" lon="7.460034973919392">
        <ele>2691.800048828125</ele>
        <time>2012-08-28T11:37:46Z</time>
      </trkpt>
      <trkpt lat="45.610442105680704" lon="7.460008068010211">
        <ele>2693</ele>
        <time>2012-08-28T11:37:52Z</time>
      </trkpt>
      <trkpt lat="45.610440596938133" lon="7.459946628659964">
        <ele>2694</ele>
        <time>2012-08-28T11:38:00Z</time>
      </trkpt>
      <trkpt lat="45.610433807596564" lon="7.459901198744774">
        <ele>2694.60009765625</ele>
        <time>2012-08-28T11:38:06Z</time>
      </trkpt>
      <trkpt lat="45.610409248620272" lon="7.459839172661305">
        <ele>2694.800048828125</ele>
        <time>2012-08-28T11:38:15Z</time>
      </trkpt>
      <trkpt lat="45.610386533662677" lon="7.459776643663645">
        <ele>2695</ele>
        <time>2012-08-28T11:38:23Z</time>
      </trkpt>
      <trkpt lat="45.610383935272694" lon="7.459717802703381">
        <ele>2696</ele>
        <time>2012-08-28T11:38:31Z</time>
      </trkpt>
      <trkpt lat="45.610389299690723" lon="7.45969039388001">
        <ele>2696.800048828125</ele>
        <time>2012-08-28T11:38:37Z</time>
      </trkpt>
      <trkpt lat="45.610379576683044" lon="7.459646556526423">
        <ele>2697.199951171875</ele>
        <time>2012-08-28T11:38:43Z</time>
      </trkpt>
      <trkpt lat="45.610378067940474" lon="7.459602048620582">
        <ele>2698</ele>
        <time>2012-08-28T11:38:50Z</time>
      </trkpt>
      <trkpt lat="45.61039449647069" lon="7.459554187953472">
        <ele>2699.800048828125</ele>
        <time>2012-08-28T11:38:57Z</time>
      </trkpt>
      <trkpt lat="45.610385276377201" lon="7.459514960646629">
        <ele>2700</ele>
        <time>2012-08-28T11:39:02Z</time>
      </trkpt>
      <trkpt lat="45.610376475378871" lon="7.45946760289371">
        <ele>2700.60009765625</ele>
        <time>2012-08-28T11:39:09Z</time>
      </trkpt>
      <trkpt lat="45.610362896695733" lon="7.459380179643631">
        <ele>2701.39990234375</ele>
        <time>2012-08-28T11:39:20Z</time>
      </trkpt>
      <trkpt lat="45.610361555591226" lon="7.459319243207574">
        <ele>2702.60009765625</ele>
        <time>2012-08-28T11:39:28Z</time>
      </trkpt>
      <trkpt lat="45.610378738492727" lon="7.459289822727442">
        <ele>2704</ele>
        <time>2012-08-28T11:39:34Z</time>
      </trkpt>
      <trkpt lat="45.610379744321108" lon="7.459253445267677">
        <ele>2704.800048828125</ele>
        <time>2012-08-28T11:39:40Z</time>
      </trkpt>
      <trkpt lat="45.610371194779873" lon="7.459215307608247">
        <ele>2705</ele>
        <time>2012-08-28T11:39:44Z</time>
      </trkpt>
      <trkpt lat="45.610373374074697" lon="7.459198040887713">
        <ele>2705.39990234375</ele>
        <time>2012-08-28T11:39:46Z</time>
      </trkpt>
      <trkpt lat="45.610382258892059" lon="7.459165770560503">
        <ele>2706.60009765625</ele>
        <time>2012-08-28T11:39:51Z</time>
      </trkpt>
      <trkpt lat="45.610382845625281" lon="7.459133835509419">
        <ele>2707.199951171875</ele>
        <time>2012-08-28T11:39:57Z</time>
      </trkpt>
      <trkpt lat="45.61039156280458" lon="7.459110114723444">
        <ele>2708</ele>
        <time>2012-08-28T11:40:02Z</time>
      </trkpt>
      <trkpt lat="45.610399190336466" lon="7.459073904901743">
        <ele>2709</ele>
        <time>2012-08-28T11:40:08Z</time>
      </trkpt>
      <trkpt lat="45.610407656058669" lon="7.45902881026268">
        <ele>2710.39990234375</ele>
        <time>2012-08-28T11:40:16Z</time>
      </trkpt>
      <trkpt lat="45.610410422086716" lon="7.458993103355169">
        <ele>2711.199951171875</ele>
        <time>2012-08-28T11:40:21Z</time>
      </trkpt>
      <trkpt lat="45.610409835353494" lon="7.458944655954838">
        <ele>2712</ele>
        <time>2012-08-28T11:40:27Z</time>
      </trkpt>
      <trkpt lat="45.610413020476699" lon="7.458900902420282">
        <ele>2712.800048828125</ele>
        <time>2012-08-28T11:40:33Z</time>
      </trkpt>
      <trkpt lat="45.610411679372191" lon="7.458820017054677">
        <ele>2714.199951171875</ele>
        <time>2012-08-28T11:40:43Z</time>
      </trkpt>
      <trkpt lat="45.610407907515764" lon="7.458750111982226">
        <ele>2715.199951171875</ele>
        <time>2012-08-28T11:40:52Z</time>
      </trkpt>
      <trkpt lat="45.610406817868352" lon="7.458674339577556">
        <ele>2716.39990234375</ele>
        <time>2012-08-28T11:41:01Z</time>
      </trkpt>
      <trkpt lat="45.610413858667016" lon="7.458595801144838">
        <ele>2718.199951171875</ele>
        <time>2012-08-28T11:41:10Z</time>
      </trkpt>
      <trkpt lat="45.610429113730788" lon="7.458531428128481">
        <ele>2720.39990234375</ele>
        <time>2012-08-28T11:41:18Z</time>
      </trkpt>
      <trkpt lat="45.610427353531122" lon="7.458487842231989">
        <ele>2721</ele>
        <time>2012-08-28T11:41:25Z</time>
      </trkpt>
      <trkpt lat="45.610434059053659" lon="7.458408046513796">
        <ele>2723</ele>
        <time>2012-08-28T11:41:33Z</time>
      </trkpt>
      <trkpt lat="45.610437579452991" lon="7.458346774801612">
        <ele>2724.39990234375</ele>
        <time>2012-08-28T11:41:40Z</time>
      </trkpt>
      <trkpt lat="45.61044042930007" lon="7.458256082609296">
        <ele>2724.800048828125</ele>
        <time>2012-08-28T11:41:49Z</time>
      </trkpt>
      <trkpt lat="45.610448224470019" lon="7.458185339346528">
        <ele>2725.199951171875</ele>
        <time>2012-08-28T11:41:57Z</time>
      </trkpt>
      <trkpt lat="45.610455516725779" lon="7.458130186423659">
        <ele>2725.800048828125</ele>
        <time>2012-08-28T11:42:04Z</time>
      </trkpt>
      <trkpt lat="45.610460210591555" lon="7.458081068471074">
        <ele>2726.199951171875</ele>
        <time>2012-08-28T11:42:10Z</time>
      </trkpt>
      <trkpt lat="45.610457276925445" lon="7.457989370450378">
        <ele>2725.800048828125</ele>
        <time>2012-08-28T11:42:19Z</time>
      </trkpt>
      <trkpt lat="45.610482254996896" lon="7.457955423742533">
        <ele>2727.800048828125</ele>
        <time>2012-08-28T11:42:25Z</time>
      </trkpt>
      <trkpt lat="45.610498180612922" lon="7.45793086476624">
        <ele>2729</ele>
        <time>2012-08-28T11:42:31Z</time>
      </trkpt>
      <trkpt lat="45.610493151471019" lon="7.457881914451718">
        <ele>2728.60009765625</ele>
        <time>2012-08-28T11:42:36Z</time>
      </trkpt>
      <trkpt lat="45.610501784831285" lon="7.457838077098131">
        <ele>2729.39990234375</ele>
        <time>2012-08-28T11:42:42Z</time>
      </trkpt>
      <trkpt lat="45.610513184219599" lon="7.457842016592622">
        <ele>2730.199951171875</ele>
        <time>2012-08-28T11:42:50Z</time>
      </trkpt>
      <trkpt lat="45.610524918884039" lon="7.457776973024011">
        <ele>2731.199951171875</ele>
        <time>2012-08-28T11:43:26Z</time>
      </trkpt>
      <trkpt lat="45.610539000481367" lon="7.45771000161767">
        <ele>2732.39990234375</ele>
        <time>2012-08-28T11:43:33Z</time>
      </trkpt>
      <trkpt lat="45.610554842278361" lon="7.457620231434703">
        <ele>2733.60009765625</ele>
        <time>2012-08-28T11:43:42Z</time>
      </trkpt>
      <trkpt lat="45.610572779551148" lon="7.45756147429347">
        <ele>2735.199951171875</ele>
        <time>2012-08-28T11:43:48Z</time>
      </trkpt>
      <trkpt lat="45.610579736530781" lon="7.457547811791301">
        <ele>2735.60009765625</ele>
        <time>2012-08-28T11:43:50Z</time>
      </trkpt>
      <trkpt lat="45.610618544742465" lon="7.457530964165926">
        <ele>2739</ele>
        <time>2012-08-28T11:43:57Z</time>
      </trkpt>
      <trkpt lat="45.610642684623599" lon="7.457434739917517">
        <ele>2740.39990234375</ele>
        <time>2012-08-28T11:44:12Z</time>
      </trkpt>
      <trkpt lat="45.610655508935452" lon="7.4573889747262">
        <ele>2741</ele>
        <time>2012-08-28T11:44:19Z</time>
      </trkpt>
      <trkpt lat="45.610679732635617" lon="7.457349998876452">
        <ele>2742.60009765625</ele>
        <time>2012-08-28T11:44:27Z</time>
      </trkpt>
      <trkpt lat="45.610698843374848" lon="7.45732543990016">
        <ele>2744</ele>
        <time>2012-08-28T11:44:32Z</time>
      </trkpt>
      <trkpt lat="45.610695909708738" lon="7.457249918952584">
        <ele>2743</ele>
        <time>2012-08-28T11:44:40Z</time>
      </trkpt>
      <trkpt lat="45.610713763162494" lon="7.457174984738231">
        <ele>2743.60009765625</ele>
        <time>2012-08-28T11:44:48Z</time>
      </trkpt>
      <trkpt lat="45.610733795911074" lon="7.457090243697166">
        <ele>2744.199951171875</ele>
        <time>2012-08-28T11:44:58Z</time>
      </trkpt>
      <trkpt lat="45.610748799517751" lon="7.457013381645083">
        <ele>2744.60009765625</ele>
        <time>2012-08-28T11:45:06Z</time>
      </trkpt>
      <trkpt lat="45.610751146450639" lon="7.456948840990663">
        <ele>2744</ele>
        <time>2012-08-28T11:45:13Z</time>
      </trkpt>
      <trkpt lat="45.6107824947685" lon="7.456874661147595">
        <ele>2745.60009765625</ele>
        <time>2012-08-28T11:45:21Z</time>
      </trkpt>
      <trkpt lat="45.610777465626597" lon="7.45678304694593">
        <ele>2744.199951171875</ele>
        <time>2012-08-28T11:45:30Z</time>
      </trkpt>
      <trkpt lat="45.610775873064995" lon="7.456712052226067">
        <ele>2743.39990234375</ele>
        <time>2012-08-28T11:45:38Z</time>
      </trkpt>
      <trkpt lat="45.610785512253642" lon="7.456634938716888">
        <ele>2743.39990234375</ele>
        <time>2012-08-28T11:45:46Z</time>
      </trkpt>
      <trkpt lat="45.610799007117748" lon="7.4565514549613">
        <ele>2744.199951171875</ele>
        <time>2012-08-28T11:45:55Z</time>
      </trkpt>
      <trkpt lat="45.610825996845961" lon="7.456498565152288">
        <ele>2746</ele>
        <time>2012-08-28T11:46:03Z</time>
      </trkpt>
      <trkpt lat="45.610814513638616" lon="7.456408543512225">
        <ele>2745</ele>
        <time>2012-08-28T11:46:12Z</time>
      </trkpt>
      <trkpt lat="45.610795319080353" lon="7.456316091120243">
        <ele>2743.39990234375</ele>
        <time>2012-08-28T11:46:20Z</time>
      </trkpt>
      <trkpt lat="45.610795738175511" lon="7.456219531595707">
        <ele>2743.199951171875</ele>
        <time>2012-08-28T11:46:29Z</time>
      </trkpt>
      <trkpt lat="45.610823482275009" lon="7.456147279590368">
        <ele>2745</ele>
        <time>2012-08-28T11:46:37Z</time>
      </trkpt>
      <trkpt lat="45.61083672568202" lon="7.456041751429439">
        <ele>2745.800048828125</ele>
        <time>2012-08-28T11:46:46Z</time>
      </trkpt>
      <trkpt lat="45.610848879441619" lon="7.455960446968675">
        <ele>2746.60009765625</ele>
        <time>2012-08-28T11:46:55Z</time>
      </trkpt>
      <trkpt lat="45.610849801450968" lon="7.455879980698228">
        <ele>2746.60009765625</ele>
        <time>2012-08-28T11:47:03Z</time>
      </trkpt>
      <trkpt lat="45.610863212496042" lon="7.455824324861169">
        <ele>2747.60009765625</ele>
        <time>2012-08-28T11:47:10Z</time>
      </trkpt>
      <trkpt lat="45.610838485881686" lon="7.455750396475196">
        <ele>2746.199951171875</ele>
        <time>2012-08-28T11:47:19Z</time>
      </trkpt>
      <trkpt lat="45.610828343778849" lon="7.455695495009422">
        <ele>2745.800048828125</ele>
        <time>2012-08-28T11:47:26Z</time>
      </trkpt>
      <trkpt lat="45.610823733732104" lon="7.455611256882548">
        <ele>2746.199951171875</ele>
        <time>2012-08-28T11:47:35Z</time>
      </trkpt>
      <trkpt lat="45.610813926905394" lon="7.455557780340314">
        <ele>2746</ele>
        <time>2012-08-28T11:47:42Z</time>
      </trkpt>
      <trkpt lat="45.610799677670002" lon="7.455520145595074">
        <ele>2745.39990234375</ele>
        <time>2012-08-28T11:47:47Z</time>
      </trkpt>
      <trkpt lat="45.610791128128767" lon="7.455467088147998">
        <ele>2745.199951171875</ele>
        <time>2012-08-28T11:47:52Z</time>
      </trkpt>
      <trkpt lat="45.610798168927431" lon="7.45540514588356">
        <ele>2746.199951171875</ele>
        <time>2012-08-28T11:47:59Z</time>
      </trkpt>
      <trkpt lat="45.610794564709067" lon="7.455324763432145">
        <ele>2746.60009765625</ele>
        <time>2012-08-28T11:48:06Z</time>
      </trkpt>
      <trkpt lat="45.610833540558815" lon="7.455285619944334">
        <ele>2749.60009765625</ele>
        <time>2012-08-28T11:48:14Z</time>
      </trkpt>
      <trkpt lat="45.610883831977844" lon="7.455227114260197">
        <ele>2754.199951171875</ele>
        <time>2012-08-28T11:48:23Z</time>
      </trkpt>
      <trkpt lat="45.610915767028928" lon="7.455207919701934">
        <ele>2756.800048828125</ele>
        <time>2012-08-28T11:48:28Z</time>
      </trkpt>
      <trkpt lat="45.610926328226924" lon="7.455171793699265">
        <ele>2758</ele>
        <time>2012-08-28T11:48:33Z</time>
      </trkpt>
      <trkpt lat="45.610945103690028" lon="7.455130219459534">
        <ele>2759.800048828125</ele>
        <time>2012-08-28T11:48:40Z</time>
      </trkpt>
      <trkpt lat="45.610956586897373" lon="7.455100798979402">
        <ele>2761</ele>
        <time>2012-08-28T11:48:45Z</time>
      </trkpt>
      <trkpt lat="45.610979720950127" lon="7.455062745139003">
        <ele>2763</ele>
        <time>2012-08-28T11:48:51Z</time>
      </trkpt>
      <trkpt lat="45.611000927165151" lon="7.45502645149827">
        <ele>2765</ele>
        <time>2012-08-28T11:48:57Z</time>
      </trkpt>
      <trkpt lat="45.611017690971494" lon="7.455014046281576">
        <ele>2766.199951171875</ele>
        <time>2012-08-28T11:49:01Z</time>
      </trkpt>
      <trkpt lat="45.61102825216949" lon="7.454986050724983">
        <ele>2767.39990234375</ele>
        <time>2012-08-28T11:49:06Z</time>
      </trkpt>
      <trkpt lat="45.611030934378505" lon="7.454966017976403">
        <ele>2767.800048828125</ele>
        <time>2012-08-28T11:49:14Z</time>
      </trkpt>
      <trkpt lat="45.611062617972493" lon="7.454944644123316">
        <ele>2770.60009765625</ele>
        <time>2012-08-28T11:49:44Z</time>
      </trkpt>
      <trkpt lat="45.611047865822911" lon="7.454888820648193">
        <ele>2770</ele>
        <time>2012-08-28T11:49:53Z</time>
      </trkpt>
      <trkpt lat="45.611025569960475" lon="7.454829309135675">
        <ele>2769</ele>
        <time>2012-08-28T11:50:00Z</time>
      </trkpt>
      <trkpt lat="45.611012242734432" lon="7.454772144556046">
        <ele>2768.800048828125</ele>
        <time>2012-08-28T11:50:07Z</time>
      </trkpt>
      <trkpt lat="45.610992293804884" lon="7.454680446535349">
        <ele>2768.39990234375</ele>
        <time>2012-08-28T11:50:17Z</time>
      </trkpt>
      <trkpt lat="45.610984582453966" lon="7.454598722979426">
        <ele>2768.800048828125</ele>
        <time>2012-08-28T11:50:26Z</time>
      </trkpt>
      <trkpt lat="45.610952395945787" lon="7.454506941139698">
        <ele>2767.800048828125</ele>
        <time>2012-08-28T11:50:35Z</time>
      </trkpt>
      <trkpt lat="45.6109275855124" lon="7.454421781003475">
        <ele>2767</ele>
        <time>2012-08-28T11:50:44Z</time>
      </trkpt>
      <trkpt lat="45.61092322692275" lon="7.454340225085616">
        <ele>2767.800048828125</ele>
        <time>2012-08-28T11:50:53Z</time>
      </trkpt>
      <trkpt lat="45.610930770635605" lon="7.454269649460912">
        <ele>2769.39990234375</ele>
        <time>2012-08-28T11:51:03Z</time>
      </trkpt>
      <trkpt lat="45.610911156982183" lon="7.454195385798812">
        <ele>2769</ele>
        <time>2012-08-28T11:51:13Z</time>
      </trkpt>
      <trkpt lat="45.610887436196208" lon="7.454109219834209">
        <ele>2768.39990234375</ele>
        <time>2012-08-28T11:51:23Z</time>
      </trkpt>
      <trkpt lat="45.610866313800216" lon="7.454053312540054">
        <ele>2767.60009765625</ele>
        <time>2012-08-28T11:51:31Z</time>
      </trkpt>
      <trkpt lat="45.610876874998212" lon="7.45401936583221">
        <ele>2768.800048828125</ele>
        <time>2012-08-28T11:51:35Z</time>
      </trkpt>
      <trkpt lat="45.610888777300715" lon="7.454008469358087">
        <ele>2769.60009765625</ele>
        <time>2012-08-28T11:51:39Z</time>
      </trkpt>
      <trkpt lat="45.610909648239613" lon="7.454003440216184">
        <ele>2771.199951171875</ele>
        <time>2012-08-28T11:51:45Z</time>
      </trkpt>
      <trkpt lat="45.610944852232933" lon="7.454010732471943">
        <ele>2773.39990234375</ele>
        <time>2012-08-28T11:51:57Z</time>
      </trkpt>
      <trkpt lat="45.610983911901712" lon="7.454020287841559">
        <ele>2776</ele>
        <time>2012-08-28T11:52:04Z</time>
      </trkpt>
      <trkpt lat="45.610982151702046" lon="7.45399153791368">
        <ele>2776.199951171875</ele>
        <time>2012-08-28T11:52:29Z</time>
      </trkpt>
      <trkpt lat="45.611018445342779" lon="7.453974187374115">
        <ele>2778.800048828125</ele>
        <time>2012-08-28T11:52:36Z</time>
      </trkpt>
      <trkpt lat="45.611030180007219" lon="7.453945437446237">
        <ele>2779.800048828125</ele>
        <time>2012-08-28T11:52:41Z</time>
      </trkpt>
      <trkpt lat="45.611025234684348" lon="7.453915681689978">
        <ele>2779.800048828125</ele>
        <time>2012-08-28T11:52:46Z</time>
      </trkpt>
      <trkpt lat="45.611041411757469" lon="7.453887686133385">
        <ele>2781.199951171875</ele>
        <time>2012-08-28T11:52:52Z</time>
      </trkpt>
      <trkpt lat="45.611071335151792" lon="7.453861786052585">
        <ele>2783.60009765625</ele>
        <time>2012-08-28T11:53:00Z</time>
      </trkpt>
      <trkpt lat="45.611084913834929" lon="7.453879890963435">
        <ele>2784.199951171875</ele>
        <time>2012-08-28T11:53:07Z</time>
      </trkpt>
      <trkpt lat="45.611095810309052" lon="7.453933116048574">
        <ele>2784.39990234375</ele>
        <time>2012-08-28T11:53:18Z</time>
      </trkpt>
      <trkpt lat="45.611130176112056" lon="7.453975779935718">
        <ele>2786.199951171875</ele>
        <time>2012-08-28T11:53:27Z</time>
      </trkpt>
      <trkpt lat="45.611157920211554" lon="7.454031938686967">
        <ele>2787.60009765625</ele>
        <time>2012-08-28T11:53:46Z</time>
      </trkpt>
      <trkpt lat="45.611181138083339" lon="7.454091785475612">
        <ele>2788.60009765625</ele>
        <time>2012-08-28T11:54:00Z</time>
      </trkpt>
      <trkpt lat="45.611214498057961" lon="7.454111902043223">
        <ele>2790.60009765625</ele>
        <time>2012-08-28T11:54:23Z</time>
      </trkpt>
      <trkpt lat="45.61127157881856" lon="7.454150626435876">
        <ele>2794.199951171875</ele>
        <time>2012-08-28T11:54:35Z</time>
      </trkpt>
      <trkpt lat="45.611311141401529" lon="7.454232182353735">
        <ele>2796.199951171875</ele>
        <time>2012-08-28T11:54:49Z</time>
      </trkpt>
      <trkpt lat="45.611312985420227" lon="7.454290185123682">
        <ele>2795.800048828125</ele>
        <time>2012-08-28T11:54:57Z</time>
      </trkpt>
      <trkpt lat="45.611333772540092" lon="7.454334441572428">
        <ele>2796.800048828125</ele>
        <time>2012-08-28T11:55:03Z</time>
      </trkpt>
      <trkpt lat="45.611418513581157" lon="7.454410968348384">
        <ele>2802.199951171875</ele>
        <time>2012-08-28T11:56:08Z</time>
      </trkpt>
      <trkpt lat="45.611428655683994" lon="7.454436616972089">
        <ele>2802.60009765625</ele>
        <time>2012-08-28T11:56:14Z</time>
      </trkpt>
      <trkpt lat="45.611445419490337" lon="7.454464947804809">
        <ele>2803.60009765625</ele>
        <time>2012-08-28T11:56:19Z</time>
      </trkpt>
      <trkpt lat="45.611460842192173" lon="7.454494116827846">
        <ele>2804.60009765625</ele>
        <time>2012-08-28T11:56:24Z</time>
      </trkpt>
      <trkpt lat="45.611507864668965" lon="7.454535188153386">
        <ele>2807.60009765625</ele>
        <time>2012-08-28T11:56:33Z</time>
      </trkpt>
      <trkpt lat="45.611488586291671" lon="7.454529404640198">
        <ele>2806.39990234375</ele>
        <time>2012-08-28T11:56:51Z</time>
      </trkpt>
      <trkpt lat="45.611501578241587" lon="7.454503001645207">
        <ele>2807.39990234375</ele>
        <time>2012-08-28T11:57:38Z</time>
      </trkpt>
      <trkpt lat="45.611512558534741" lon="7.454474838450551">
        <ele>2808.39990234375</ele>
        <time>2012-08-28T11:57:45Z</time>
      </trkpt>
      <trkpt lat="45.611511385068297" lon="7.454431168735027">
        <ele>2808.60009765625</ele>
        <time>2012-08-28T11:57:53Z</time>
      </trkpt>
      <trkpt lat="45.611504595726728" lon="7.454375848174095">
        <ele>2808.60009765625</ele>
        <time>2012-08-28T11:58:01Z</time>
      </trkpt>
      <trkpt lat="45.611507026478648" lon="7.454298567026854">
        <ele>2809.199951171875</ele>
        <time>2012-08-28T11:58:11Z</time>
      </trkpt>
      <trkpt lat="45.611508283764124" lon="7.454261099919677">
        <ele>2809.60009765625</ele>
        <time>2012-08-28T11:58:16Z</time>
      </trkpt>
      <trkpt lat="45.611506188288331" lon="7.454211059957743">
        <ele>2809.800048828125</ele>
        <time>2012-08-28T11:58:22Z</time>
      </trkpt>
      <trkpt lat="45.611515659838915" lon="7.454196475446224">
        <ele>2810.39990234375</ele>
        <time>2012-08-28T11:58:28Z</time>
      </trkpt>
      <trkpt lat="45.611519599333405" lon="7.454161187633872">
        <ele>2811</ele>
        <time>2012-08-28T11:58:35Z</time>
      </trkpt>
      <trkpt lat="45.611510965973139" lon="7.454123804345727">
        <ele>2810.800048828125</ele>
        <time>2012-08-28T11:58:41Z</time>
      </trkpt>
      <trkpt lat="45.611500153318048" lon="7.454051300883293">
        <ele>2810.60009765625</ele>
        <time>2012-08-28T11:58:51Z</time>
      </trkpt>
      <trkpt lat="45.611492274329066" lon="7.454057671129704">
        <ele>2810</ele>
        <time>2012-08-28T11:58:57Z</time>
      </trkpt>
      <trkpt lat="45.61149587854743" lon="7.454030178487301">
        <ele>2810.39990234375</ele>
        <time>2012-08-28T11:59:10Z</time>
      </trkpt>
      <trkpt lat="45.611505769193172" lon="7.453980054706335">
        <ele>2811.60009765625</ele>
        <time>2012-08-28T11:59:18Z</time>
      </trkpt>
      <trkpt lat="45.611513312906027" lon="7.453952813521028">
        <ele>2812.199951171875</ele>
        <time>2012-08-28T11:59:23Z</time>
      </trkpt>
      <trkpt lat="45.611530244350433" lon="7.453929511830211">
        <ele>2813.60009765625</ele>
        <time>2012-08-28T11:59:29Z</time>
      </trkpt>
      <trkpt lat="45.611543571576476" lon="7.453884920105338">
        <ele>2814.800048828125</ele>
        <time>2012-08-28T11:59:35Z</time>
      </trkpt>
      <trkpt lat="45.611556814983487" lon="7.45388600975275">
        <ele>2815.60009765625</ele>
        <time>2012-08-28T11:59:46Z</time>
      </trkpt>
      <trkpt lat="45.611519012600183" lon="7.453834461048245">
        <ele>2813.60009765625</ele>
        <time>2012-08-28T12:01:21Z</time>
      </trkpt>
      <trkpt lat="45.61153351329267" lon="7.453813506290317">
        <ele>2814.800048828125</ele>
        <time>2012-08-28T12:01:27Z</time>
      </trkpt>
      <trkpt lat="45.611543571576476" lon="7.453779224306345">
        <ele>2815.60009765625</ele>
        <time>2012-08-28T12:01:33Z</time>
      </trkpt>
      <trkpt lat="45.611546505242586" lon="7.453744439408183">
        <ele>2816.199951171875</ele>
        <time>2012-08-28T12:01:38Z</time>
      </trkpt>
      <trkpt lat="45.611547343432903" lon="7.453711163252592">
        <ele>2816.39990234375</ele>
        <time>2012-08-28T12:01:43Z</time>
      </trkpt>
      <trkpt lat="45.611563436686993" lon="7.453675959259272">
        <ele>2817.800048828125</ele>
        <time>2012-08-28T12:01:50Z</time>
      </trkpt>
      <trkpt lat="45.611572237685323" lon="7.453658524900675">
        <ele>2818.39990234375</ele>
        <time>2012-08-28T12:01:55Z</time>
      </trkpt>
      <trkpt lat="45.611581960693002" lon="7.453640084713697">
        <ele>2819.199951171875</ele>
        <time>2012-08-28T12:02:00Z</time>
      </trkpt>
      <trkpt lat="45.611586822196841" lon="7.453603874891996">
        <ele>2819.800048828125</ele>
        <time>2012-08-28T12:02:06Z</time>
      </trkpt>
      <trkpt lat="45.611587492749095" lon="7.45361527428031">
        <ele>2819.800048828125</ele>
        <time>2012-08-28T12:02:17Z</time>
      </trkpt>
      <trkpt lat="45.611589001491666" lon="7.453567916527391">
        <ele>2820.199951171875</ele>
        <time>2012-08-28T12:02:35Z</time>
      </trkpt>
      <trkpt lat="45.611600819975138" lon="7.453538328409195">
        <ele>2821.199951171875</ele>
        <time>2012-08-28T12:02:40Z</time>
      </trkpt>
      <trkpt lat="45.611606352031231" lon="7.453497927635908">
        <ele>2822</ele>
        <time>2012-08-28T12:02:46Z</time>
      </trkpt>
      <trkpt lat="45.611611464992166" lon="7.453455934301019">
        <ele>2822.60009765625</ele>
        <time>2012-08-28T12:02:52Z</time>
      </trkpt>
      <trkpt lat="45.61162973754108" lon="7.453404972329736">
        <ele>2824.199951171875</ele>
        <time>2012-08-28T12:03:01Z</time>
      </trkpt>
      <trkpt lat="45.61163417994976" lon="7.453353842720389">
        <ele>2824.800048828125</ele>
        <time>2012-08-28T12:03:08Z</time>
      </trkpt>
      <trkpt lat="45.611643651500344" lon="7.453322075307369">
        <ele>2825.39990234375</ele>
        <time>2012-08-28T12:03:14Z</time>
      </trkpt>
      <trkpt lat="45.611639795824885" lon="7.453326098620892">
        <ele>2825.199951171875</ele>
        <time>2012-08-28T12:03:19Z</time>
      </trkpt>
      <trkpt lat="45.61164147220552" lon="7.453285614028573">
        <ele>2825.199951171875</ele>
        <time>2012-08-28T12:03:29Z</time>
      </trkpt>
      <trkpt lat="45.611651781946421" lon="7.453243536874652">
        <ele>2825.60009765625</ele>
        <time>2012-08-28T12:03:35Z</time>
      </trkpt>
      <trkpt lat="45.611672569066286" lon="7.453208416700363">
        <ele>2826.60009765625</ele>
        <time>2012-08-28T12:03:43Z</time>
      </trkpt>
      <trkpt lat="45.611686231568456" lon="7.453159969300032">
        <ele>2827</ele>
        <time>2012-08-28T12:03:51Z</time>
      </trkpt>
      <trkpt lat="45.611699055880308" lon="7.453134236857295">
        <ele>2827.60009765625</ele>
        <time>2012-08-28T12:03:57Z</time>
      </trkpt>
      <trkpt lat="45.611700396984816" lon="7.453123759478331">
        <ele>2827.60009765625</ele>
        <time>2012-08-28T12:04:09Z</time>
      </trkpt>
      <trkpt lat="45.611748676747084" lon="7.453071540221572">
        <ele>2830.199951171875</ele>
        <time>2012-08-28T12:04:18Z</time>
      </trkpt>
      <trkpt lat="45.6118134688586" lon="7.453018985688686">
        <ele>2833.39990234375</ele>
        <time>2012-08-28T12:04:29Z</time>
      </trkpt>
      <trkpt lat="45.611828221008182" lon="7.453015046194196">
        <ele>2834.199951171875</ele>
        <time>2012-08-28T12:04:36Z</time>
      </trkpt>
      <trkpt lat="45.611869627609849" lon="7.452977076172829">
        <ele>2836.39990234375</ele>
        <time>2012-08-28T12:04:50Z</time>
      </trkpt>
      <trkpt lat="45.611897204071283" lon="7.452927036210895">
        <ele>2837.60009765625</ele>
        <time>2012-08-28T12:04:59Z</time>
      </trkpt>
      <trkpt lat="45.611912375316024" lon="7.452891999855638">
        <ele>2838.199951171875</ele>
        <time>2012-08-28T12:05:05Z</time>
      </trkpt>
      <trkpt lat="45.611916314810514" lon="7.452850006520748">
        <ele>2838</ele>
        <time>2012-08-28T12:05:11Z</time>
      </trkpt>
      <trkpt lat="45.611932743340731" lon="7.452809941023588">
        <ele>2838.800048828125</ele>
        <time>2012-08-28T12:05:18Z</time>
      </trkpt>
      <trkpt lat="45.611950680613518" lon="7.452795775607228">
        <ele>2839.60009765625</ele>
        <time>2012-08-28T12:05:24Z</time>
      </trkpt>
      <trkpt lat="45.611961996182799" lon="7.452746657654643">
        <ele>2839.800048828125</ele>
        <time>2012-08-28T12:05:31Z</time>
      </trkpt>
      <trkpt lat="45.611981945112348" lon="7.452708017081022">
        <ele>2840.60009765625</ele>
        <time>2012-08-28T12:05:38Z</time>
      </trkpt>
      <trkpt lat="45.612001894041896" lon="7.45265613310039">
        <ele>2841.39990234375</ele>
        <time>2012-08-28T12:05:47Z</time>
      </trkpt>
      <trkpt lat="45.612020501866937" lon="7.452622940763831">
        <ele>2842</ele>
        <time>2012-08-28T12:05:54Z</time>
      </trkpt>
      <trkpt lat="45.612039864063263" lon="7.45258086360991">
        <ele>2842.800048828125</ele>
        <time>2012-08-28T12:06:03Z</time>
      </trkpt>
      <trkpt lat="45.612057968974113" lon="7.452555298805237">
        <ele>2843.60009765625</ele>
        <time>2012-08-28T12:06:08Z</time>
      </trkpt>
      <trkpt lat="45.612076325342059" lon="7.452532919123769">
        <ele>2844.39990234375</ele>
        <time>2012-08-28T12:06:14Z</time>
      </trkpt>
      <trkpt lat="45.612095771357417" lon="7.45252126827836">
        <ele>2845.39990234375</ele>
        <time>2012-08-28T12:06:22Z</time>
      </trkpt>
      <trkpt lat="45.612130472436547" lon="7.452493105083704">
        <ele>2847</ele>
        <time>2012-08-28T12:06:49Z</time>
      </trkpt>
      <trkpt lat="45.612159892916679" lon="7.452459158375859">
        <ele>2848.199951171875</ele>
        <time>2012-08-28T12:07:00Z</time>
      </trkpt>
      <trkpt lat="45.612185625359416" lon="7.452456979081035">
        <ele>2849.60009765625</ele>
        <time>2012-08-28T12:07:06Z</time>
      </trkpt>
      <trkpt lat="45.612199371680617" lon="7.452427474781871">
        <ele>2850</ele>
        <time>2012-08-28T12:07:12Z</time>
      </trkpt>
      <trkpt lat="45.612222170457244" lon="7.452390259131789">
        <ele>2851</ele>
        <time>2012-08-28T12:07:19Z</time>
      </trkpt>
      <trkpt lat="45.612264079973102" lon="7.45235656388104">
        <ele>2852.800048828125</ele>
        <time>2012-08-28T12:07:28Z</time>
      </trkpt>
      <trkpt lat="45.612283190712333" lon="7.452323203906417">
        <ele>2853.60009765625</ele>
        <time>2012-08-28T12:07:33Z</time>
      </trkpt>
      <trkpt lat="45.612293835729361" lon="7.452288419008255">
        <ele>2853.800048828125</ele>
        <time>2012-08-28T12:07:38Z</time>
      </trkpt>
      <trkpt lat="45.612306743860245" lon="7.452226057648659">
        <ele>2854</ele>
        <time>2012-08-28T12:07:46Z</time>
      </trkpt>
      <trkpt lat="45.612320574000478" lon="7.452186243608594">
        <ele>2854.39990234375</ele>
        <time>2012-08-28T12:07:52Z</time>
      </trkpt>
      <trkpt lat="45.612350665032864" lon="7.452183226123452">
        <ele>2855.800048828125</ele>
        <time>2012-08-28T12:07:58Z</time>
      </trkpt>
      <trkpt lat="45.612373044714332" lon="7.452208120375872">
        <ele>2857.39990234375</ele>
        <time>2012-08-28T12:08:10Z</time>
      </trkpt>
      <trkpt lat="45.612394418567419" lon="7.452223123982549">
        <ele>2858.60009765625</ele>
        <time>2012-08-28T12:09:50Z</time>
      </trkpt>
      <trkpt lat="45.612398609519005" lon="7.452155649662018">
        <ele>2858.199951171875</ele>
        <time>2012-08-28T12:10:04Z</time>
      </trkpt>
      <trkpt lat="45.612462898716331" lon="7.452090522274375">
        <ele>2861</ele>
        <time>2012-08-28T12:10:38Z</time>
      </trkpt>
      <trkpt lat="45.612482093274593" lon="7.452070908620954">
        <ele>2862</ele>
        <time>2012-08-28T12:10:48Z</time>
      </trkpt>
      <trkpt lat="45.612502796575427" lon="7.452049367129803">
        <ele>2862.800048828125</ele>
        <time>2012-08-28T12:10:54Z</time>
      </trkpt>
      <trkpt lat="45.612522577866912" lon="7.452033692970872">
        <ele>2863.39990234375</ele>
        <time>2012-08-28T12:10:59Z</time>
      </trkpt>
      <trkpt lat="45.612580832093954" lon="7.451907880604267">
        <ele>2864.800048828125</ele>
        <time>2012-08-28T12:11:22Z</time>
      </trkpt>
      <trkpt lat="45.612588627263904" lon="7.451913999393582">
        <ele>2865.199951171875</ele>
        <time>2012-08-28T12:11:31Z</time>
      </trkpt>
      <trkpt lat="45.612610001116991" lon="7.451938223093748">
        <ele>2866.39990234375</ele>
        <time>2012-08-28T12:11:43Z</time>
      </trkpt>
      <trkpt lat="45.612679151818156" lon="7.45192657224834">
        <ele>2869.199951171875</ele>
        <time>2012-08-28T12:12:02Z</time>
      </trkpt>
      <trkpt lat="45.612684767693281" lon="7.45188994333148">
        <ele>2869</ele>
        <time>2012-08-28T12:12:07Z</time>
      </trkpt>
      <trkpt lat="45.61268325895071" lon="7.451859349384904">
        <ele>2868.60009765625</ele>
        <time>2012-08-28T12:12:11Z</time>
      </trkpt>
      <trkpt lat="45.612683091312647" lon="7.451828084886074">
        <ele>2868.39990234375</ele>
        <time>2012-08-28T12:12:15Z</time>
      </trkpt>
      <trkpt lat="45.61269499361515" lon="7.451788270846009">
        <ele>2868.39990234375</ele>
        <time>2012-08-28T12:12:20Z</time>
      </trkpt>
      <trkpt lat="45.612699938938022" lon="7.451733872294426">
        <ele>2868</ele>
        <time>2012-08-28T12:12:27Z</time>
      </trkpt>
      <trkpt lat="45.612714858725667" lon="7.45167687535286">
        <ele>2868.199951171875</ele>
        <time>2012-08-28T12:12:35Z</time>
      </trkpt>
      <trkpt lat="45.612732376903296" lon="7.451666314154863">
        <ele>2868.800048828125</ele>
        <time>2012-08-28T12:12:40Z</time>
      </trkpt>
      <trkpt lat="45.612757857888937" lon="7.451678467914462">
        <ele>2870</ele>
        <time>2012-08-28T12:12:46Z</time>
      </trkpt>
      <trkpt lat="45.612770346924663" lon="7.451671594753861">
        <ele>2870.39990234375</ele>
        <time>2012-08-28T12:12:51Z</time>
      </trkpt>
      <trkpt lat="45.612763054668903" lon="7.451652735471726">
        <ele>2870</ele>
        <time>2012-08-28T12:12:58Z</time>
      </trkpt>
      <trkpt lat="45.612765233963728" lon="7.451628595590591">
        <ele>2870.199951171875</ele>
        <time>2012-08-28T12:13:16Z</time>
      </trkpt>
      <trkpt lat="45.612783338874578" lon="7.451609987765551">
        <ele>2871</ele>
        <time>2012-08-28T12:13:21Z</time>
      </trkpt>
      <trkpt lat="45.612780656665564" lon="7.451584339141846">
        <ele>2870.800048828125</ele>
        <time>2012-08-28T12:13:26Z</time>
      </trkpt>
      <trkpt lat="45.612774286419153" lon="7.451559444889426">
        <ele>2870.60009765625</ele>
        <time>2012-08-28T12:13:32Z</time>
      </trkpt>
      <trkpt lat="45.612798342481256" lon="7.451524995267391">
        <ele>2871.60009765625</ele>
        <time>2012-08-28T12:13:49Z</time>
      </trkpt>
      <trkpt lat="45.612798007205129" lon="7.451522396877408">
        <ele>2871.60009765625</ele>
        <time>2012-08-28T12:13:50Z</time>
      </trkpt>
      <trkpt lat="45.612807227298617" lon="7.451460370793939">
        <ele>2871.800048828125</ele>
        <time>2012-08-28T12:14:04Z</time>
      </trkpt>
      <trkpt lat="45.612829858437181" lon="7.451443187892437">
        <ele>2872.800048828125</ele>
        <time>2012-08-28T12:14:12Z</time>
      </trkpt>
      <trkpt lat="45.612831450998783" lon="7.451419550925493">
        <ele>2872.800048828125</ele>
        <time>2012-08-28T12:14:25Z</time>
      </trkpt>
      <trkpt lat="45.612867074087262" lon="7.451360793784261">
        <ele>2874.39990234375</ele>
        <time>2012-08-28T12:14:38Z</time>
      </trkpt>
      <trkpt lat="45.612866068258882" lon="7.451345035806298">
        <ele>2874.199951171875</ele>
        <time>2012-08-28T12:14:51Z</time>
      </trkpt>
      <trkpt lat="45.612862128764391" lon="7.451319135725498">
        <ele>2874</ele>
        <time>2012-08-28T12:15:11Z</time>
      </trkpt>
      <trkpt lat="45.612898757681251" lon="7.451278902590275">
        <ele>2875.60009765625</ele>
        <time>2012-08-28T12:15:55Z</time>
      </trkpt>
      <trkpt lat="45.612885178998113" lon="7.451233975589275">
        <ele>2875</ele>
        <time>2012-08-28T12:16:03Z</time>
      </trkpt>
      <trkpt lat="45.61289289034903" lon="7.451192568987608">
        <ele>2875.199951171875</ele>
        <time>2012-08-28T12:16:09Z</time>
      </trkpt>
      <trkpt lat="45.612926669418812" lon="7.451176894828677">
        <ele>2876.60009765625</ele>
        <time>2012-08-28T12:16:15Z</time>
      </trkpt>
      <trkpt lat="45.612949635833502" lon="7.451191814616323">
        <ele>2877.60009765625</ele>
        <time>2012-08-28T12:16:19Z</time>
      </trkpt>
      <trkpt lat="45.612998753786087" lon="7.451209165155888">
        <ele>2879.60009765625</ele>
        <time>2012-08-28T12:16:33Z</time>
      </trkpt>
      <trkpt lat="45.612961035221815" lon="7.45114722289145">
        <ele>2878</ele>
        <time>2012-08-28T12:16:43Z</time>
      </trkpt>
      <trkpt lat="45.612953994423151" lon="7.451089387759566">
        <ele>2877.60009765625</ele>
        <time>2012-08-28T12:16:49Z</time>
      </trkpt>
      <trkpt lat="45.612961705774069" lon="7.451002215966582">
        <ele>2877.800048828125</ele>
        <time>2012-08-28T12:16:58Z</time>
      </trkpt>
      <trkpt lat="45.612962711602449" lon="7.450955444946885">
        <ele>2877.800048828125</ele>
        <time>2012-08-28T12:17:04Z</time>
      </trkpt>
      <trkpt lat="45.612946031615138" lon="7.450906578451395">
        <ele>2877.199951171875</ele>
        <time>2012-08-28T12:17:11Z</time>
      </trkpt>
      <trkpt lat="45.612926334142685" lon="7.450816389173269">
        <ele>2876.60009765625</ele>
        <time>2012-08-28T12:17:23Z</time>
      </trkpt>
      <trkpt lat="45.612940583378077" lon="7.450749669224024">
        <ele>2878.199951171875</ele>
        <time>2012-08-28T12:17:31Z</time>
      </trkpt>
      <trkpt lat="45.612945193424821" lon="7.450675154104829">
        <ele>2879.39990234375</ele>
        <time>2012-08-28T12:17:39Z</time>
      </trkpt>
      <trkpt lat="45.61297888867557" lon="7.45064347051084">
        <ele>2881</ele>
        <time>2012-08-28T12:17:47Z</time>
      </trkpt>
      <trkpt lat="45.613002609461546" lon="7.450640369206667">
        <ele>2881.800048828125</ele>
        <time>2012-08-28T12:18:39Z</time>
      </trkpt>
      <trkpt lat="45.612982911989093" lon="7.45060189627111">
        <ele>2881.800048828125</ele>
        <time>2012-08-28T12:18:44Z</time>
      </trkpt>
      <trkpt lat="45.612986600026488" lon="7.450540205463767">
        <ele>2882.60009765625</ele>
        <time>2012-08-28T12:20:52Z</time>
      </trkpt>
      <trkpt lat="45.612999927252531" lon="7.450530314818025">
        <ele>2883.199951171875</ele>
        <time>2012-08-28T12:20:53Z</time>
      </trkpt>
      <trkpt lat="45.613083578646183" lon="7.450503325089812">
        <ele>2886.60009765625</ele>
        <time>2012-08-28T12:20:59Z</time>
      </trkpt>
      <trkpt lat="45.613151220604777" lon="7.450466360896826">
        <ele>2889.39990234375</ele>
        <time>2012-08-28T12:21:03Z</time>
      </trkpt>
      <trkpt lat="45.613169828429818" lon="7.450451273471117">
        <ele>2890.199951171875</ele>
        <time>2012-08-28T12:21:05Z</time>
      </trkpt>
      <trkpt lat="45.613205367699265" lon="7.450403915718198">
        <ele>2891.800048828125</ele>
        <time>2012-08-28T12:21:09Z</time>
      </trkpt>
      <trkpt lat="45.613320199772716" lon="7.450298387557268">
        <ele>2896.800048828125</ele>
        <time>2012-08-28T12:21:15Z</time>
      </trkpt>
      <trkpt lat="45.613429918885231" lon="7.450128234922886">
        <ele>2897.199951171875</ele>
        <time>2012-08-28T12:21:20Z</time>
      </trkpt>
      <trkpt lat="45.613454058766365" lon="7.450105352327228">
        <ele>2897</ele>
        <time>2012-08-28T12:21:21Z</time>
      </trkpt>
      <trkpt lat="45.613518934696913" lon="7.450085151940584">
        <ele>2896.199951171875</ele>
        <time>2012-08-28T12:21:23Z</time>
      </trkpt>
      <trkpt lat="45.613737367093563" lon="7.45000678114593">
        <ele>2893.199951171875</ele>
        <time>2012-08-28T12:21:28Z</time>
      </trkpt>
      <trkpt lat="45.613842643797398" lon="7.450007786974311">
        <ele>2891.39990234375</ele>
        <time>2012-08-28T12:21:31Z</time>
      </trkpt>
      <trkpt lat="45.614035427570343" lon="7.44998624548316">
        <ele>2888.199951171875</ele>
        <time>2012-08-28T12:21:36Z</time>
      </trkpt>
      <trkpt lat="45.614079600200057" lon="7.449984736740589">
        <ele>2887.60009765625</ele>
        <time>2012-08-28T12:21:37Z</time>
      </trkpt>
      <trkpt lat="45.614193174988031" lon="7.44996914640069">
        <ele>2885.39990234375</ele>
        <time>2012-08-28T12:21:40Z</time>
      </trkpt>
      <trkpt lat="45.614257631823421" lon="7.449957830831409">
        <ele>2884</ele>
        <time>2012-08-28T12:21:43Z</time>
      </trkpt>
      <trkpt lat="45.614269115030766" lon="7.449978450313211">
        <ele>2883.60009765625</ele>
        <time>2012-08-28T12:21:44Z</time>
      </trkpt>
      <trkpt lat="45.614237934350967" lon="7.450099149718881">
        <ele>2884.199951171875</ele>
        <time>2012-08-28T12:21:47Z</time>
      </trkpt>
      <trkpt lat="45.614215303212404" lon="7.450149273499847">
        <ele>2884.60009765625</ele>
        <time>2012-08-28T12:21:48Z</time>
      </trkpt>
      <trkpt lat="45.614193510264158" lon="7.450208365917206">
        <ele>2885</ele>
        <time>2012-08-28T12:21:50Z</time>
      </trkpt>
      <trkpt lat="45.614196695387363" lon="7.450226806104183">
        <ele>2884.800048828125</ele>
        <time>2012-08-28T12:21:51Z</time>
      </trkpt>
      <trkpt lat="45.614246483892202" lon="7.450204258784652">
        <ele>2884</ele>
        <time>2012-08-28T12:21:54Z</time>
      </trkpt>
      <trkpt lat="45.614273976534605" lon="7.450182884931564">
        <ele>2883.39990234375</ele>
        <time>2012-08-28T12:21:55Z</time>
      </trkpt>
      <trkpt lat="45.614428455010056" lon="7.450020611286163">
        <ele>2879.800048828125</ele>
        <time>2012-08-28T12:22:00Z</time>
      </trkpt>
      <trkpt lat="45.614571617916226" lon="7.44994324631989">
        <ele>2876.39990234375</ele>
        <time>2012-08-28T12:22:04Z</time>
      </trkpt>
      <trkpt lat="45.614716876298189" lon="7.449867893010378">
        <ele>2872.800048828125</ele>
        <time>2012-08-28T12:22:08Z</time>
      </trkpt>
      <trkpt lat="45.614904211834073" lon="7.449719198048115">
        <ele>2868.199951171875</ele>
        <time>2012-08-28T12:22:12Z</time>
      </trkpt>
      <trkpt lat="45.614944780245423" lon="7.44967058300972">
        <ele>2867</ele>
        <time>2012-08-28T12:22:13Z</time>
      </trkpt>
      <trkpt lat="45.615087104961276" lon="7.449508812278509">
        <ele>2864</ele>
        <time>2012-08-28T12:22:17Z</time>
      </trkpt>
      <trkpt lat="45.615109400823712" lon="7.449462460353971">
        <ele>2863.60009765625</ele>
        <time>2012-08-28T12:22:18Z</time>
      </trkpt>
      <trkpt lat="45.615202020853758" lon="7.449204130098224">
        <ele>2861.39990234375</ele>
        <time>2012-08-28T12:22:22Z</time>
      </trkpt>
      <trkpt lat="45.615259939804673" lon="7.449040934443474">
        <ele>2860.60009765625</ele>
        <time>2012-08-28T12:22:25Z</time>
      </trkpt>
      <trkpt lat="45.615279385820031" lon="7.449010089039803">
        <ele>2860.199951171875</ele>
        <time>2012-08-28T12:22:26Z</time>
      </trkpt>
      <trkpt lat="45.615379130467772" lon="7.448951667174697">
        <ele>2858.39990234375</ele>
        <time>2012-08-28T12:22:31Z</time>
      </trkpt>
      <trkpt lat="45.615432523190975" lon="7.448958288878202">
        <ele>2857.39990234375</ele>
        <time>2012-08-28T12:22:34Z</time>
      </trkpt>
      <trkpt lat="45.615450628101826" lon="7.448956612497568">
        <ele>2857</ele>
        <time>2012-08-28T12:22:36Z</time>
      </trkpt>
      <trkpt lat="45.615418693050742" lon="7.448948984965682">
        <ele>2857.60009765625</ele>
        <time>2012-08-28T12:23:57Z</time>
      </trkpt>
      <trkpt lat="45.615403689444065" lon="7.448949823155999">
        <ele>2857.800048828125</ele>
        <time>2012-08-28T12:24:02Z</time>
      </trkpt>
      <trkpt lat="45.615380136296153" lon="7.448920318856835">
        <ele>2858.39990234375</ele>
        <time>2012-08-28T12:24:10Z</time>
      </trkpt>
      <trkpt lat="45.615360187366605" lon="7.44894596748054">
        <ele>2858.800048828125</ele>
        <time>2012-08-28T12:25:12Z</time>
      </trkpt>
      <trkpt lat="45.615330766886473" lon="7.448960049077869">
        <ele>2859.199951171875</ele>
        <time>2012-08-28T12:25:18Z</time>
      </trkpt>
      <trkpt lat="45.615340992808342" lon="7.448967257514596">
        <ele>2859</ele>
        <time>2012-08-28T12:25:29Z</time>
      </trkpt>
      <trkpt lat="45.615359600633383" lon="7.448985446244478">
        <ele>2858.800048828125</ele>
        <time>2012-08-28T12:25:41Z</time>
      </trkpt>
      <trkpt lat="45.615351386368275" lon="7.448933562263846">
        <ele>2859</ele>
        <time>2012-08-28T12:26:10Z</time>
      </trkpt>
      <trkpt lat="45.615346105769277" lon="7.448952673003078">
        <ele>2859</ele>
        <time>2012-08-28T12:26:30Z</time>
      </trkpt>
      <trkpt lat="45.615378124639392" lon="7.448950409889221">
        <ele>2858.39990234375</ele>
        <time>2012-08-28T12:26:36Z</time>
      </trkpt>
      <trkpt lat="45.615409221500158" lon="7.448966419324279">
        <ele>2857.800048828125</ele>
        <time>2012-08-28T12:26:43Z</time>
      </trkpt>
      <trkpt lat="45.615424308925867" lon="7.448976142331958">
        <ele>2857.39990234375</ele>
        <time>2012-08-28T12:26:49Z</time>
      </trkpt>
      <trkpt lat="45.615511396899819" lon="7.448904309421778">
        <ele>2855.800048828125</ele>
        <time>2012-08-28T12:26:54Z</time>
      </trkpt>
      <trkpt lat="45.615592366084456" lon="7.448728289455175">
        <ele>2854</ele>
        <time>2012-08-28T12:26:58Z</time>
      </trkpt>
      <trkpt lat="45.61570200137794" lon="7.448527459055185">
        <ele>2851.39990234375</ele>
        <time>2012-08-28T12:27:02Z</time>
      </trkpt>
      <trkpt lat="45.615767547860742" lon="7.448350517079234">
        <ele>2849.60009765625</ele>
        <time>2012-08-28T12:27:05Z</time>
      </trkpt>
      <trkpt lat="45.615907609462738" lon="7.44812504388392">
        <ele>2846.60009765625</ele>
        <time>2012-08-28T12:27:08Z</time>
      </trkpt>
      <trkpt lat="45.615982711315155" lon="7.44798582047224">
        <ele>2845.39990234375</ele>
        <time>2012-08-28T12:27:10Z</time>
      </trkpt>
      <trkpt lat="45.616020932793617" lon="7.447919771075249">
        <ele>2844.800048828125</ele>
        <time>2012-08-28T12:27:11Z</time>
      </trkpt>
      <trkpt lat="45.616094609722495" lon="7.447768477723002">
        <ele>2843.39990234375</ele>
        <time>2012-08-28T12:27:13Z</time>
      </trkpt>
      <trkpt lat="45.616148840636015" lon="7.447602348402143">
        <ele>2842</ele>
        <time>2012-08-28T12:27:15Z</time>
      </trkpt>
      <trkpt lat="45.616255542263389" lon="7.447270089760423">
        <ele>2840.39990234375</ele>
        <time>2012-08-28T12:27:19Z</time>
      </trkpt>
      <trkpt lat="45.616302648559213" lon="7.447212003171444">
        <ele>2840</ele>
        <time>2012-08-28T12:27:20Z</time>
      </trkpt>
      <trkpt lat="45.61640121974051" lon="7.447043778374791">
        <ele>2839.39990234375</ele>
        <time>2012-08-28T12:27:23Z</time>
      </trkpt>
      <trkpt lat="45.616425611078739" lon="7.4470070656389">
        <ele>2839.39990234375</ele>
        <time>2012-08-28T12:27:24Z</time>
      </trkpt>
      <trkpt lat="45.616525607183576" lon="7.44683314114809">
        <ele>2839.199951171875</ele>
        <time>2012-08-28T12:27:29Z</time>
      </trkpt>
      <trkpt lat="45.616552177816629" lon="7.446779161691666">
        <ele>2839.199951171875</ele>
        <time>2012-08-28T12:27:30Z</time>
      </trkpt>
      <trkpt lat="45.616613030433655" lon="7.446657037362456">
        <ele>2839.199951171875</ele>
        <time>2012-08-28T12:27:32Z</time>
      </trkpt>
      <trkpt lat="45.616713864728808" lon="7.446493087336421">
        <ele>2836.199951171875</ele>
        <time>2012-08-28T12:27:35Z</time>
      </trkpt>
      <trkpt lat="45.616740267723799" lon="7.446435168385506">
        <ele>2835</ele>
        <time>2012-08-28T12:27:36Z</time>
      </trkpt>
      <trkpt lat="45.61677454970777" lon="7.44623257778585">
        <ele>2832.60009765625</ele>
        <time>2012-08-28T12:27:39Z</time>
      </trkpt>
      <trkpt lat="45.616855099797249" lon="7.445964189246297">
        <ele>2828</ele>
        <time>2012-08-28T12:27:43Z</time>
      </trkpt>
      <trkpt lat="45.616915700957179" lon="7.445848602801561">
        <ele>2825.39990234375</ele>
        <time>2012-08-28T12:27:45Z</time>
      </trkpt>
      <trkpt lat="45.616987198591232" lon="7.445698399096727">
        <ele>2823</ele>
        <time>2012-08-28T12:27:48Z</time>
      </trkpt>
      <trkpt lat="45.617041764780879" lon="7.445568982511759">
        <ele>2821.60009765625</ele>
        <time>2012-08-28T12:27:50Z</time>
      </trkpt>
      <trkpt lat="45.617080572992563" lon="7.445495557039976">
        <ele>2820.60009765625</ele>
        <time>2012-08-28T12:27:51Z</time>
      </trkpt>
      <trkpt lat="45.617109825834632" lon="7.445424729958177">
        <ele>2820.199951171875</ele>
        <time>2012-08-28T12:27:52Z</time>
      </trkpt>
      <trkpt lat="45.617229770869017" lon="7.445195149630308">
        <ele>2818.39990234375</ele>
        <time>2012-08-28T12:27:56Z</time>
      </trkpt>
      <trkpt lat="45.61727050691843" lon="7.445156928151846">
        <ele>2817.800048828125</ele>
        <time>2012-08-28T12:27:57Z</time>
      </trkpt>
      <trkpt lat="45.617367569357157" lon="7.445040503516793">
        <ele>2816.800048828125</ele>
        <time>2012-08-28T12:28:00Z</time>
      </trkpt>
      <trkpt lat="45.617454992607236" lon="7.444893065840006">
        <ele>2814.199951171875</ele>
        <time>2012-08-28T12:28:03Z</time>
      </trkpt>
      <trkpt lat="45.617496566846967" lon="7.444848641753197">
        <ele>2812.800048828125</ele>
        <time>2012-08-28T12:28:04Z</time>
      </trkpt>
      <trkpt lat="45.617562364786863" lon="7.444761721417308">
        <ele>2809</ele>
        <time>2012-08-28T12:28:06Z</time>
      </trkpt>
      <trkpt lat="45.617605447769165" lon="7.444659546017647">
        <ele>2805.800048828125</ele>
        <time>2012-08-28T12:28:08Z</time>
      </trkpt>
      <trkpt lat="45.617634449154139" lon="7.444606320932508">
        <ele>2804</ele>
        <time>2012-08-28T12:28:09Z</time>
      </trkpt>
      <trkpt lat="45.617734026163816" lon="7.444534655660391">
        <ele>2799.39990234375</ele>
        <time>2012-08-28T12:28:12Z</time>
      </trkpt>
      <trkpt lat="45.617783814668655" lon="7.444460727274418">
        <ele>2796.800048828125</ele>
        <time>2012-08-28T12:28:15Z</time>
      </trkpt>
      <trkpt lat="45.617794208228588" lon="7.444405993446708">
        <ele>2796</ele>
        <time>2012-08-28T12:28:16Z</time>
      </trkpt>
      <trkpt lat="45.617849864065647" lon="7.444298537448049">
        <ele>2793.199951171875</ele>
        <time>2012-08-28T12:28:19Z</time>
      </trkpt>
      <trkpt lat="45.617868136614561" lon="7.444290407001972">
        <ele>2792.39990234375</ele>
        <time>2012-08-28T12:28:20Z</time>
      </trkpt>
      <trkpt lat="45.61792722903192" lon="7.444322844967246">
        <ele>2790.60009765625</ele>
        <time>2012-08-28T12:28:23Z</time>
      </trkpt>
      <trkpt lat="45.617967965081334" lon="7.444244725629687">
        <ele>2788.800048828125</ele>
        <time>2012-08-28T12:28:26Z</time>
      </trkpt>
      <trkpt lat="45.618095705285668" lon="7.444087229669094">
        <ele>2784.199951171875</ele>
        <time>2012-08-28T12:28:30Z</time>
      </trkpt>
      <trkpt lat="45.61820182017982" lon="7.444066107273102">
        <ele>2781.199951171875</ele>
        <time>2012-08-28T12:28:33Z</time>
      </trkpt>
      <trkpt lat="45.61832151375711" lon="7.444083876907826">
        <ele>2777.800048828125</ele>
        <time>2012-08-28T12:28:37Z</time>
      </trkpt>
      <trkpt lat="45.618463670834899" lon="7.444117907434702">
        <ele>2773.39990234375</ele>
        <time>2012-08-28T12:28:42Z</time>
      </trkpt>
      <trkpt lat="45.618604486808181" lon="7.444154368713498">
        <ele>2769</ele>
        <time>2012-08-28T12:28:47Z</time>
      </trkpt>
      <trkpt lat="45.618752175942063" lon="7.44416568428278">
        <ele>2764.39990234375</ele>
        <time>2012-08-28T12:28:51Z</time>
      </trkpt>
      <trkpt lat="45.618902379646897" lon="7.444169204682112">
        <ele>2759.800048828125</ele>
        <time>2012-08-28T12:28:55Z</time>
      </trkpt>
      <trkpt lat="45.618935152888298" lon="7.444162080064416">
        <ele>2759</ele>
        <time>2012-08-28T12:28:56Z</time>
      </trkpt>
      <trkpt lat="45.619022157043219" lon="7.444123355671763">
        <ele>2757</ele>
        <time>2012-08-28T12:28:59Z</time>
      </trkpt>
      <trkpt lat="45.61915559694171" lon="7.444124696776271">
        <ele>2753</ele>
        <time>2012-08-28T12:29:03Z</time>
      </trkpt>
      <trkpt lat="45.619188454002142" lon="7.444133413955569">
        <ele>2752.199951171875</ele>
        <time>2012-08-28T12:29:04Z</time>
      </trkpt>
      <trkpt lat="45.619355505332351" lon="7.444112207740545">
        <ele>2749.800048828125</ele>
        <time>2012-08-28T12:29:08Z</time>
      </trkpt>
      <trkpt lat="45.619497327134013" lon="7.444112123921514">
        <ele>2747.39990234375</ele>
        <time>2012-08-28T12:29:12Z</time>
      </trkpt>
      <trkpt lat="45.619660019874573" lon="7.444138778373599">
        <ele>2744.199951171875</ele>
        <time>2012-08-28T12:29:17Z</time>
      </trkpt>
      <trkpt lat="45.619720201939344" lon="7.44411245919764">
        <ele>2743.60009765625</ele>
        <time>2012-08-28T12:29:19Z</time>
      </trkpt>
      <trkpt lat="45.619787173345685" lon="7.444081781432033">
        <ele>2743</ele>
        <time>2012-08-28T12:29:21Z</time>
      </trkpt>
      <trkpt lat="45.619904100894928" lon="7.444162163883448">
        <ele>2739.60009765625</ele>
        <time>2012-08-28T12:29:24Z</time>
      </trkpt>
      <trkpt lat="45.620047682896256" lon="7.444347990676761">
        <ele>2736.60009765625</ele>
        <time>2012-08-28T12:29:28Z</time>
      </trkpt>
      <trkpt lat="45.620141392573714" lon="7.444471959024668">
        <ele>2735.199951171875</ele>
        <time>2012-08-28T12:29:31Z</time>
      </trkpt>
      <trkpt lat="45.620162934064865" lon="7.444510851055384">
        <ele>2735</ele>
        <time>2012-08-28T12:29:32Z</time>
      </trkpt>
      <trkpt lat="45.620178608223796" lon="7.444534488022327">
        <ele>2734.800048828125</ele>
        <time>2012-08-28T12:29:33Z</time>
      </trkpt>
      <trkpt lat="45.62018321827054" lon="7.444540271535516">
        <ele>2734.800048828125</ele>
        <time>2012-08-28T12:29:35Z</time>
      </trkpt>
      <trkpt lat="45.620203418657184" lon="7.444568267092109">
        <ele>2734.39990234375</ele>
        <time>2012-08-28T12:29:58Z</time>
      </trkpt>
      <trkpt lat="45.620255554094911" lon="7.44460791349411">
        <ele>2734</ele>
        <time>2012-08-28T12:30:07Z</time>
      </trkpt>
      <trkpt lat="45.620323615148664" lon="7.444648565724492">
        <ele>2733.60009765625</ele>
        <time>2012-08-28T12:30:17Z</time>
      </trkpt>
      <trkpt lat="45.620387149974704" lon="7.444684104993939">
        <ele>2733</ele>
        <time>2012-08-28T12:30:27Z</time>
      </trkpt>
      <trkpt lat="45.6204270478338" lon="7.444694582372904">
        <ele>2732.800048828125</ele>
        <time>2012-08-28T12:30:35Z</time>
      </trkpt>
      <trkpt lat="45.620512710884213" lon="7.444702796638012">
        <ele>2732.39990234375</ele>
        <time>2012-08-28T12:30:41Z</time>
      </trkpt>
      <trkpt lat="45.620678756386042" lon="7.444741353392601">
        <ele>2731.60009765625</ele>
        <time>2012-08-28T12:30:46Z</time>
      </trkpt>
      <trkpt lat="45.620870869606733" lon="7.444819808006287">
        <ele>2730.39990234375</ele>
        <time>2012-08-28T12:30:51Z</time>
      </trkpt>
      <trkpt lat="45.621025683358312" lon="7.444835985079408">
        <ele>2728</ele>
        <time>2012-08-28T12:30:55Z</time>
      </trkpt>
      <trkpt lat="45.621183682233095" lon="7.444902621209621">
        <ele>2725.60009765625</ele>
        <time>2012-08-28T12:30:59Z</time>
      </trkpt>
      <trkpt lat="45.621348218992352" lon="7.445011585950851">
        <ele>2723.199951171875</ele>
        <time>2012-08-28T12:31:03Z</time>
      </trkpt>
      <trkpt lat="45.621446873992682" lon="7.445114012807608">
        <ele>2722.800048828125</ele>
        <time>2012-08-28T12:31:06Z</time>
      </trkpt>
      <trkpt lat="45.621480233967304" lon="7.445118790492415">
        <ele>2722.39990234375</ele>
        <time>2012-08-28T12:31:07Z</time>
      </trkpt>
      <trkpt lat="45.62163982540369" lon="7.445168159902096">
        <ele>2720.800048828125</ele>
        <time>2012-08-28T12:31:11Z</time>
      </trkpt>
      <trkpt lat="45.621669078245759" lon="7.445174278691411">
        <ele>2720.39990234375</ele>
        <time>2012-08-28T12:31:12Z</time>
      </trkpt>
      <trkpt lat="45.621759686619043" lon="7.445190958678722">
        <ele>2719.39990234375</ele>
        <time>2012-08-28T12:31:15Z</time>
      </trkpt>
      <trkpt lat="45.62184551730752" lon="7.445227587595582">
        <ele>2718.60009765625</ele>
        <time>2012-08-28T12:31:19Z</time>
      </trkpt>
      <trkpt lat="45.621900837868452" lon="7.445357590913773">
        <ele>2719.39990234375</ele>
        <time>2012-08-28T12:31:24Z</time>
      </trkpt>
      <trkpt lat="45.621997229754925" lon="7.445469656959176">
        <ele>2719</ele>
        <time>2012-08-28T12:31:28Z</time>
      </trkpt>
      <trkpt lat="45.622132932767272" lon="7.445614747703075">
        <ele>2718.199951171875</ele>
        <time>2012-08-28T12:31:32Z</time>
      </trkpt>
      <trkpt lat="45.622256901115179" lon="7.445774003863335">
        <ele>2717.39990234375</ele>
        <time>2012-08-28T12:31:36Z</time>
      </trkpt>
      <trkpt lat="45.622331164777279" lon="7.445874167606235">
        <ele>2716.60009765625</ele>
        <time>2012-08-28T12:31:38Z</time>
      </trkpt>
      <trkpt lat="45.622398471459746" lon="7.445950107648969">
        <ele>2715.800048828125</ele>
        <time>2012-08-28T12:31:40Z</time>
      </trkpt>
      <trkpt lat="45.622442727908492" lon="7.4460693821311">
        <ele>2715.800048828125</ele>
        <time>2012-08-28T12:31:43Z</time>
      </trkpt>
      <trkpt lat="45.622549848631024" lon="7.446236182004213">
        <ele>2715</ele>
        <time>2012-08-28T12:31:46Z</time>
      </trkpt>
      <trkpt lat="45.622610785067081" lon="7.44632788002491">
        <ele>2714.39990234375</ele>
        <time>2012-08-28T12:31:49Z</time>
      </trkpt>
      <trkpt lat="45.622687982395291" lon="7.446309439837933">
        <ele>2712.800048828125</ele>
        <time>2012-08-28T12:31:52Z</time>
      </trkpt>
      <trkpt lat="45.622812956571579" lon="7.446261160075665">
        <ele>2709.800048828125</ele>
        <time>2012-08-28T12:31:57Z</time>
      </trkpt>
      <trkpt lat="45.622852770611644" lon="7.446278929710388">
        <ele>2709.199951171875</ele>
        <time>2012-08-28T12:31:59Z</time>
      </trkpt>
      <trkpt lat="45.622891159728169" lon="7.446284294128418">
        <ele>2708.60009765625</ele>
        <time>2012-08-28T12:32:01Z</time>
      </trkpt>
      <trkpt lat="45.622914042323828" lon="7.44628194719553">
        <ele>2708</ele>
        <time>2012-08-28T12:32:02Z</time>
      </trkpt>
      <trkpt lat="45.623035160824656" lon="7.44623358361423">
        <ele>2705.199951171875</ele>
        <time>2012-08-28T12:32:09Z</time>
      </trkpt>
      <trkpt lat="45.623131301254034" lon="7.446223106235266">
        <ele>2703.199951171875</ele>
        <time>2012-08-28T12:32:13Z</time>
      </trkpt>
      <trkpt lat="45.623153848573565" lon="7.44621112011373">
        <ele>2702.800048828125</ele>
        <time>2012-08-28T12:32:14Z</time>
      </trkpt>
      <trkpt lat="45.623233141377568" lon="7.44622528553009">
        <ele>2701.199951171875</ele>
        <time>2012-08-28T12:32:18Z</time>
      </trkpt>
      <trkpt lat="45.623320313170552" lon="7.446250012144446">
        <ele>2699.800048828125</ele>
        <time>2012-08-28T12:32:21Z</time>
      </trkpt>
      <trkpt lat="45.623352248221636" lon="7.446248922497034">
        <ele>2699.199951171875</ele>
        <time>2012-08-28T12:32:22Z</time>
      </trkpt>
      <trkpt lat="45.623450232669711" lon="7.446240792050958">
        <ele>2697.60009765625</ele>
        <time>2012-08-28T12:32:26Z</time>
      </trkpt>
      <trkpt lat="45.623454339802265" lon="7.446258142590523">
        <ele>2697.60009765625</ele>
        <time>2012-08-28T12:32:27Z</time>
      </trkpt>
      <trkpt lat="45.623465068638325" lon="7.446301560848951">
        <ele>2697.800048828125</ele>
        <time>2012-08-28T12:32:30Z</time>
      </trkpt>
      <trkpt lat="45.623508067801595" lon="7.446332825347781">
        <ele>2697.39990234375</ele>
        <time>2012-08-28T12:32:33Z</time>
      </trkpt>
      <trkpt lat="45.623567830771208" lon="7.446353361010552">
        <ele>2696.800048828125</ele>
        <time>2012-08-28T12:32:35Z</time>
      </trkpt>
      <trkpt lat="45.623735301196575" lon="7.446364173665643">
        <ele>2694.199951171875</ele>
        <time>2012-08-28T12:32:39Z</time>
      </trkpt>
      <trkpt lat="45.623872764408588" lon="7.446460230275989">
        <ele>2692.800048828125</ele>
        <time>2012-08-28T12:32:42Z</time>
      </trkpt>
      <trkpt lat="45.623928923159838" lon="7.446459727361798">
        <ele>2692</ele>
        <time>2012-08-28T12:32:44Z</time>
      </trkpt>
      <trkpt lat="45.623958176001906" lon="7.446429301053286">
        <ele>2691.199951171875</ele>
        <time>2012-08-28T12:32:45Z</time>
      </trkpt>
      <trkpt lat="45.624030763283372" lon="7.446367107331753">
        <ele>2689.60009765625</ele>
        <time>2012-08-28T12:32:49Z</time>
      </trkpt>
      <trkpt lat="45.624057082459331" lon="7.446358054876328">
        <ele>2689.199951171875</ele>
        <time>2012-08-28T12:32:56Z</time>
      </trkpt>
      <trkpt lat="45.624089855700731" lon="7.446291670203209">
        <ele>2688</ele>
        <time>2012-08-28T12:33:03Z</time>
      </trkpt>
      <trkpt lat="45.624118354171515" lon="7.44624481536448">
        <ele>2687.199951171875</ele>
        <time>2012-08-28T12:33:09Z</time>
      </trkpt>
      <trkpt lat="45.624171243980527" lon="7.44620181620121">
        <ele>2686</ele>
        <time>2012-08-28T12:33:14Z</time>
      </trkpt>
      <trkpt lat="45.624327817931771" lon="7.446106597781181">
        <ele>2685.199951171875</ele>
        <time>2012-08-28T12:33:21Z</time>
      </trkpt>
      <trkpt lat="45.624519009143114" lon="7.446022108197212">
        <ele>2684.39990234375</ele>
        <time>2012-08-28T12:33:27Z</time>
      </trkpt>
      <trkpt lat="45.624715313315392" lon="7.445913814008236">
        <ele>2683.199951171875</ele>
        <time>2012-08-28T12:33:33Z</time>
      </trkpt>
      <trkpt lat="45.625015385448933" lon="7.445787917822599">
        <ele>2681.60009765625</ele>
        <time>2012-08-28T12:33:41Z</time>
      </trkpt>
      <trkpt lat="45.625158380717039" lon="7.445768555626273">
        <ele>2681.60009765625</ele>
        <time>2012-08-28T12:33:46Z</time>
      </trkpt>
      <trkpt lat="45.62532895244658" lon="7.445797305554152">
        <ele>2681.800048828125</ele>
        <time>2012-08-28T12:33:52Z</time>
      </trkpt>
      <trkpt lat="45.625525340437889" lon="7.445853548124433">
        <ele>2682.199951171875</ele>
        <time>2012-08-28T12:33:59Z</time>
      </trkpt>
      <trkpt lat="45.625623324885964" lon="7.445947090163827">
        <ele>2683.60009765625</ele>
        <time>2012-08-28T12:34:03Z</time>
      </trkpt>
      <trkpt lat="45.625667413696647" lon="7.44597215205431">
        <ele>2683.800048828125</ele>
        <time>2012-08-28T12:34:04Z</time>
      </trkpt>
      <trkpt lat="45.625733630731702" lon="7.445936026051641">
        <ele>2683.39990234375</ele>
        <time>2012-08-28T12:34:06Z</time>
      </trkpt>
      <trkpt lat="45.625797249376774" lon="7.445845752954483">
        <ele>2682.199951171875</ele>
        <time>2012-08-28T12:34:10Z</time>
      </trkpt>
      <trkpt lat="45.625796746462584" lon="7.445847932249308">
        <ele>2682.199951171875</ele>
        <time>2012-08-28T12:34:15Z</time>
      </trkpt>
      <trkpt lat="45.625836309045553" lon="7.44585195556283">
        <ele>2682.39990234375</ele>
        <time>2012-08-28T12:34:25Z</time>
      </trkpt>
      <trkpt lat="45.625847121700644" lon="7.445856733247638">
        <ele>2682.60009765625</ele>
        <time>2012-08-28T12:34:31Z</time>
      </trkpt>
      <trkpt lat="45.625872770324349" lon="7.445887243375182">
        <ele>2683.39990234375</ele>
        <time>2012-08-28T12:34:41Z</time>
      </trkpt>
      <trkpt lat="45.625875284895301" lon="7.445896714925766">
        <ele>2683.60009765625</ele>
        <time>2012-08-28T12:34:42Z</time>
      </trkpt>
      <trkpt lat="45.625897580757737" lon="7.445900654420257">
        <ele>2684.199951171875</ele>
        <time>2012-08-28T12:34:46Z</time>
      </trkpt>
      <trkpt lat="45.625926665961742" lon="7.445843322202563">
        <ele>2683.800048828125</ele>
        <time>2012-08-28T12:34:48Z</time>
      </trkpt>
      <trkpt lat="45.62597393989563" lon="7.445766963064671">
        <ele>2684.199951171875</ele>
        <time>2012-08-28T12:34:51Z</time>
      </trkpt>
      <trkpt lat="45.625982321798801" lon="7.445732178166509">
        <ele>2684.199951171875</ele>
        <time>2012-08-28T12:34:52Z</time>
      </trkpt>
      <trkpt lat="45.626067062839866" lon="7.445533443242312">
        <ele>2684.39990234375</ele>
        <time>2012-08-28T12:34:57Z</time>
      </trkpt>
      <trkpt lat="45.626152055338025" lon="7.44532716460526">
        <ele>2684</ele>
        <time>2012-08-28T12:35:01Z</time>
      </trkpt>
      <trkpt lat="45.626271329820156" lon="7.444994989782572">
        <ele>2682.60009765625</ele>
        <time>2012-08-28T12:35:06Z</time>
      </trkpt>
      <trkpt lat="45.626308796927333" lon="7.444865992292762">
        <ele>2681</ele>
        <time>2012-08-28T12:35:08Z</time>
      </trkpt>
      <trkpt lat="45.6263243034482" lon="7.444811845198274">
        <ele>2680.39990234375</ele>
        <time>2012-08-28T12:35:09Z</time>
      </trkpt>
      <trkpt lat="45.626356238499284" lon="7.444707909598947">
        <ele>2679.199951171875</ele>
        <time>2012-08-28T12:35:11Z</time>
      </trkpt>
      <trkpt lat="45.626428155228496" lon="7.444511353969574">
        <ele>2677.199951171875</ele>
        <time>2012-08-28T12:35:15Z</time>
      </trkpt>
      <trkpt lat="45.626496803015471" lon="7.444270458072424">
        <ele>2674.60009765625</ele>
        <time>2012-08-28T12:35:21Z</time>
      </trkpt>
      <trkpt lat="45.62649923376739" lon="7.444101897999644">
        <ele>2672.60009765625</ele>
        <time>2012-08-28T12:35:26Z</time>
      </trkpt>
      <trkpt lat="45.626502251252532" lon="7.443828899413347">
        <ele>2670.199951171875</ele>
        <time>2012-08-28T12:35:30Z</time>
      </trkpt>
      <trkpt lat="45.626522619277239" lon="7.443556990474463">
        <ele>2668</ele>
        <time>2012-08-28T12:35:33Z</time>
      </trkpt>
      <trkpt lat="45.626556565985084" lon="7.443399745970964">
        <ele>2667</ele>
        <time>2012-08-28T12:35:35Z</time>
      </trkpt>
      <trkpt lat="45.626568300649524" lon="7.443317016586661">
        <ele>2666.39990234375</ele>
        <time>2012-08-28T12:35:36Z</time>
      </trkpt>
      <trkpt lat="45.626606186851859" lon="7.4431337043643">
        <ele>2665</ele>
        <time>2012-08-28T12:35:38Z</time>
      </trkpt>
      <trkpt lat="45.62664482742548" lon="7.443059273064137">
        <ele>2664.800048828125</ele>
        <time>2012-08-28T12:35:39Z</time>
      </trkpt>
      <trkpt lat="45.626694867387414" lon="7.442942094057798">
        <ele>2664.199951171875</ele>
        <time>2012-08-28T12:35:41Z</time>
      </trkpt>
      <trkpt lat="45.626706266775727" lon="7.442902782931924">
        <ele>2664</ele>
        <time>2012-08-28T12:35:42Z</time>
      </trkpt>
      <trkpt lat="45.62673962675035" lon="7.442706562578678">
        <ele>2662.199951171875</ele>
        <time>2012-08-28T12:35:47Z</time>
      </trkpt>
      <trkpt lat="45.626741806045175" lon="7.44264311157167">
        <ele>2661.60009765625</ele>
        <time>2012-08-28T12:35:49Z</time>
      </trkpt>
      <trkpt lat="45.62677382491529" lon="7.442528866231442">
        <ele>2660.800048828125</ele>
        <time>2012-08-28T12:35:53Z</time>
      </trkpt>
      <trkpt lat="45.626914305612445" lon="7.442351169884205">
        <ele>2660.39990234375</ele>
        <time>2012-08-28T12:35:59Z</time>
      </trkpt>
      <trkpt lat="45.627060737460852" lon="7.442189482972026">
        <ele>2660.60009765625</ele>
        <time>2012-08-28T12:36:04Z</time>
      </trkpt>
      <trkpt lat="45.627063922584057" lon="7.442132150754333">
        <ele>2660</ele>
        <time>2012-08-28T12:36:05Z</time>
      </trkpt>
      <trkpt lat="45.627067359164357" lon="7.441957052797079">
        <ele>2658</ele>
        <time>2012-08-28T12:36:09Z</time>
      </trkpt>
      <trkpt lat="45.627157213166356" lon="7.4417470023036">
        <ele>2657.199951171875</ele>
        <time>2012-08-28T12:36:14Z</time>
      </trkpt>
      <trkpt lat="45.627285372465849" lon="7.44153443723917">
        <ele>2657.39990234375</ele>
        <time>2012-08-28T12:36:18Z</time>
      </trkpt>
      <trkpt lat="45.627376399934292" lon="7.441359087824822">
        <ele>2657.39990234375</ele>
        <time>2012-08-28T12:36:22Z</time>
      </trkpt>
      <trkpt lat="45.627397857606411" lon="7.441305192187429">
        <ele>2657.199951171875</ele>
        <time>2012-08-28T12:36:23Z</time>
      </trkpt>
      <trkpt lat="45.627500284463167" lon="7.441051136702299">
        <ele>2656.39990234375</ele>
        <time>2012-08-28T12:36:28Z</time>
      </trkpt>
      <trkpt lat="45.627528112381697" lon="7.44102138094604">
        <ele>2656.39990234375</ele>
        <time>2012-08-28T12:36:29Z</time>
      </trkpt>
      <trkpt lat="45.627637412399054" lon="7.440884336829186">
        <ele>2656.39990234375</ele>
        <time>2012-08-28T12:36:34Z</time>
      </trkpt>
      <trkpt lat="45.627655098214746" lon="7.440848127007484">
        <ele>2656.199951171875</ele>
        <time>2012-08-28T12:36:35Z</time>
      </trkpt>
      <trkpt lat="45.627743443474174" lon="7.440698426216841">
        <ele>2655.199951171875</ele>
        <time>2012-08-28T12:36:40Z</time>
      </trkpt>
      <trkpt lat="45.627868166193366" lon="7.440506732091308">
        <ele>2653.800048828125</ele>
        <time>2012-08-28T12:36:46Z</time>
      </trkpt>
      <trkpt lat="45.627944273874164" lon="7.440286288037896">
        <ele>2651.199951171875</ele>
        <time>2012-08-28T12:36:51Z</time>
      </trkpt>
      <trkpt lat="45.628093555569649" lon="7.439986132085323">
        <ele>2648.199951171875</ele>
        <time>2012-08-28T12:36:58Z</time>
      </trkpt>
      <trkpt lat="45.6282445974648" lon="7.439757892861962">
        <ele>2646.39990234375</ele>
        <time>2012-08-28T12:37:03Z</time>
      </trkpt>
      <trkpt lat="45.628481386229396" lon="7.439557397738099">
        <ele>2645.800048828125</ele>
        <time>2012-08-28T12:37:09Z</time>
      </trkpt>
      <trkpt lat="45.628522709012032" lon="7.439540633931756">
        <ele>2646</ele>
        <time>2012-08-28T12:37:10Z</time>
      </trkpt>
      <trkpt lat="45.628568390384316" lon="7.439511716365814">
        <ele>2646</ele>
        <time>2012-08-28T12:37:11Z</time>
      </trkpt>
      <trkpt lat="45.628642234951258" lon="7.439449522644281">
        <ele>2645.60009765625</ele>
        <time>2012-08-28T12:37:13Z</time>
      </trkpt>
      <trkpt lat="45.628674253821373" lon="7.439400320872665">
        <ele>2644.800048828125</ele>
        <time>2012-08-28T12:37:14Z</time>
      </trkpt>
      <trkpt lat="45.628809789195657" lon="7.43918021209538">
        <ele>2641.199951171875</ele>
        <time>2012-08-28T12:37:18Z</time>
      </trkpt>
      <trkpt lat="45.628854045644403" lon="7.439131429418922">
        <ele>2640.800048828125</ele>
        <time>2012-08-28T12:37:19Z</time>
      </trkpt>
      <trkpt lat="45.628983210772276" lon="7.438898831605911">
        <ele>2638.60009765625</ele>
        <time>2012-08-28T12:37:23Z</time>
      </trkpt>
      <trkpt lat="45.629074992612004" lon="7.438793387264013">
        <ele>2637.60009765625</ele>
        <time>2012-08-28T12:37:26Z</time>
      </trkpt>
      <trkpt lat="45.629107682034373" lon="7.43874829262495">
        <ele>2637.199951171875</ele>
        <time>2012-08-28T12:37:27Z</time>
      </trkpt>
      <trkpt lat="45.62919644638896" lon="7.438628179952502">
        <ele>2635.800048828125</ele>
        <time>2012-08-28T12:37:29Z</time>
      </trkpt>
      <trkpt lat="45.629249084740877" lon="7.438573949038982">
        <ele>2635</ele>
        <time>2012-08-28T12:37:30Z</time>
      </trkpt>
      <trkpt lat="45.629442371428013" lon="7.438499601557851">
        <ele>2633.800048828125</ele>
        <time>2012-08-28T12:37:33Z</time>
      </trkpt>
      <trkpt lat="45.629644878208637" lon="7.438385942950845">
        <ele>2632</ele>
        <time>2012-08-28T12:37:37Z</time>
      </trkpt>
      <trkpt lat="45.629687625914812" lon="7.438364233821631">
        <ele>2631.800048828125</ele>
        <time>2012-08-28T12:37:38Z</time>
      </trkpt>
      <trkpt lat="45.62972660176456" lon="7.438337663188577">
        <ele>2631.39990234375</ele>
        <time>2012-08-28T12:37:39Z</time>
      </trkpt>
      <trkpt lat="45.629812097176909" lon="7.438258202746511">
        <ele>2630.39990234375</ele>
        <time>2012-08-28T12:37:41Z</time>
      </trkpt>
      <trkpt lat="45.629897257313132" lon="7.438154853880405">
        <ele>2629.199951171875</ele>
        <time>2012-08-28T12:37:43Z</time>
      </trkpt>
      <trkpt lat="45.629947884008288" lon="7.437992999330163">
        <ele>2627.39990234375</ele>
        <time>2012-08-28T12:37:45Z</time>
      </trkpt>
      <trkpt lat="45.629982082173228" lon="7.437913035973907">
        <ele>2626.39990234375</ele>
        <time>2012-08-28T12:37:46Z</time>
      </trkpt>
      <trkpt lat="45.630039079114795" lon="7.437765765935183">
        <ele>2624.800048828125</ele>
        <time>2012-08-28T12:37:48Z</time>
      </trkpt>
      <trkpt lat="45.630192132666707" lon="7.437441805377603">
        <ele>2620.199951171875</ele>
        <time>2012-08-28T12:37:52Z</time>
      </trkpt>
      <trkpt lat="45.63032666221261" lon="7.437303252518177">
        <ele>2617.60009765625</ele>
        <time>2012-08-28T12:37:55Z</time>
      </trkpt>
      <trkpt lat="45.630436046048999" lon="7.437098482623696">
        <ele>2614.199951171875</ele>
        <time>2012-08-28T12:37:59Z</time>
      </trkpt>
      <trkpt lat="45.630477368831635" lon="7.437049029394984">
        <ele>2613.199951171875</ele>
        <time>2012-08-28T12:38:00Z</time>
      </trkpt>
      <trkpt lat="45.630533192306757" lon="7.436879966408014">
        <ele>2610.800048828125</ele>
        <time>2012-08-28T12:38:02Z</time>
      </trkpt>
      <trkpt lat="45.630596894770861" lon="7.436690283939242">
        <ele>2607.800048828125</ele>
        <time>2012-08-28T12:38:04Z</time>
      </trkpt>
      <trkpt lat="45.630683479830623" lon="7.43643312714994">
        <ele>2603.800048828125</ele>
        <time>2012-08-28T12:38:07Z</time>
      </trkpt>
      <trkpt lat="45.630711894482374" lon="7.43636816740036">
        <ele>2602.800048828125</ele>
        <time>2012-08-28T12:38:08Z</time>
      </trkpt>
      <trkpt lat="45.630782470107079" lon="7.436273451894522">
        <ele>2601.39990234375</ele>
        <time>2012-08-28T12:38:10Z</time>
      </trkpt>
      <trkpt lat="45.630894284695387" lon="7.436191057786346">
        <ele>2600.39990234375</ele>
        <time>2012-08-28T12:38:13Z</time>
      </trkpt>
      <trkpt lat="45.630954466760159" lon="7.436096090823412">
        <ele>2599</ele>
        <time>2012-08-28T12:38:15Z</time>
      </trkpt>
      <trkpt lat="45.63100827857852" lon="7.436024509370327">
        <ele>2598</ele>
        <time>2012-08-28T12:38:17Z</time>
      </trkpt>
      <trkpt lat="45.631134007126093" lon="7.435898697003722">
        <ele>2596.199951171875</ele>
        <time>2012-08-28T12:38:21Z</time>
      </trkpt>
      <trkpt lat="45.63122914172709" lon="7.435839353129268">
        <ele>2595.199951171875</ele>
        <time>2012-08-28T12:38:25Z</time>
      </trkpt>
      <trkpt lat="45.631246827542782" lon="7.435849327594042">
        <ele>2595.199951171875</ele>
        <time>2012-08-28T12:38:28Z</time>
      </trkpt>
      <trkpt lat="45.631225621327758" lon="7.435857122763991">
        <ele>2595.39990234375</ele>
        <time>2012-08-28T12:38:35Z</time>
      </trkpt>
      <trkpt lat="45.631206426769495" lon="7.435827450826764">
        <ele>2594.800048828125</ele>
        <time>2012-08-28T12:39:06Z</time>
      </trkpt>
      <trkpt lat="45.631198547780514" lon="7.435791073367">
        <ele>2593.800048828125</ele>
        <time>2012-08-28T12:39:14Z</time>
      </trkpt>
      <trkpt lat="45.631173569709063" lon="7.435770789161325">
        <ele>2593.199951171875</ele>
        <time>2012-08-28T12:39:23Z</time>
      </trkpt>
      <trkpt lat="45.631144903600216" lon="7.435647742822766">
        <ele>2589.60009765625</ele>
        <time>2012-08-28T12:39:27Z</time>
      </trkpt>
      <trkpt lat="45.631184466183186" lon="7.435498964041472">
        <ele>2585.199951171875</ele>
        <time>2012-08-28T12:39:31Z</time>
      </trkpt>
      <trkpt lat="45.631259819492698" lon="7.43539092130959">
        <ele>2582</ele>
        <time>2012-08-28T12:39:35Z</time>
      </trkpt>
      <trkpt lat="45.631302231922746" lon="7.435348676517606">
        <ele>2580.800048828125</ele>
        <time>2012-08-28T12:39:38Z</time>
      </trkpt>
      <trkpt lat="45.631302231922746" lon="7.435302408412099">
        <ele>2579.39990234375</ele>
        <time>2012-08-28T12:39:40Z</time>
      </trkpt>
      <trkpt lat="45.631291586905718" lon="7.435265611857176">
        <ele>2578.39990234375</ele>
        <time>2012-08-28T12:39:42Z</time>
      </trkpt>
      <trkpt lat="45.631268452852964" lon="7.435235604643822">
        <ele>2577.39990234375</ele>
        <time>2012-08-28T12:39:45Z</time>
      </trkpt>
      <trkpt lat="45.631273062899709" lon="7.435129825025797">
        <ele>2574.39990234375</ele>
        <time>2012-08-28T12:39:50Z</time>
      </trkpt>
      <trkpt lat="45.631285384297371" lon="7.435066290199757">
        <ele>2572.39990234375</ele>
        <time>2012-08-28T12:39:53Z</time>
      </trkpt>
      <trkpt lat="45.631290078163147" lon="7.435053046792746">
        <ele>2572.199951171875</ele>
        <time>2012-08-28T12:39:54Z</time>
      </trkpt>
      <trkpt lat="45.631261579692364" lon="7.435036366805434">
        <ele>2571.60009765625</ele>
        <time>2012-08-28T12:39:58Z</time>
      </trkpt>
      <trkpt lat="45.631243642419577" lon="7.435025721788406">
        <ele>2571.199951171875</ele>
        <time>2012-08-28T12:40:00Z</time>
      </trkpt>
      <trkpt lat="45.631203074008226" lon="7.43500392884016">
        <ele>2570.60009765625</ele>
        <time>2012-08-28T12:40:03Z</time>
      </trkpt>
      <trkpt lat="45.631200559437275" lon="7.434981549158692">
        <ele>2569.800048828125</ele>
        <time>2012-08-28T12:40:04Z</time>
      </trkpt>
      <trkpt lat="45.631230901926756" lon="7.434852300211787">
        <ele>2565.60009765625</ele>
        <time>2012-08-28T12:40:08Z</time>
      </trkpt>
      <trkpt lat="45.631267949938774" lon="7.434675442054868">
        <ele>2559.800048828125</ele>
        <time>2012-08-28T12:40:13Z</time>
      </trkpt>
      <trkpt lat="45.631298711523414" lon="7.434552144259214">
        <ele>2555.800048828125</ele>
        <time>2012-08-28T12:40:17Z</time>
      </trkpt>
      <trkpt lat="45.631363419815898" lon="7.434435887262225">
        <ele>2552.199951171875</ele>
        <time>2012-08-28T12:40:21Z</time>
      </trkpt>
      <trkpt lat="45.631375992670655" lon="7.434405209496617">
        <ele>2551.199951171875</ele>
        <time>2012-08-28T12:40:22Z</time>
      </trkpt>
      <trkpt lat="45.631394600495696" lon="7.434298759326339">
        <ele>2547.60009765625</ele>
        <time>2012-08-28T12:40:25Z</time>
      </trkpt>
      <trkpt lat="45.631403485313058" lon="7.43426363915205">
        <ele>2546.60009765625</ele>
        <time>2012-08-28T12:40:26Z</time>
      </trkpt>
      <trkpt lat="45.631423266604543" lon="7.434073621407151">
        <ele>2541.60009765625</ele>
        <time>2012-08-28T12:40:30Z</time>
      </trkpt>
      <trkpt lat="45.631488226354122" lon="7.433840855956078">
        <ele>2537.39990234375</ele>
        <time>2012-08-28T12:40:35Z</time>
      </trkpt>
      <trkpt lat="45.631489316001534" lon="7.433791989460588">
        <ele>2536.39990234375</ele>
        <time>2012-08-28T12:40:36Z</time>
      </trkpt>
      <trkpt lat="45.631513623520732" lon="7.433703308925033">
        <ele>2534.60009765625</ele>
        <time>2012-08-28T12:40:38Z</time>
      </trkpt>
      <trkpt lat="45.631580594927073" lon="7.43363625369966">
        <ele>2533.39990234375</ele>
        <time>2012-08-28T12:40:41Z</time>
      </trkpt>
      <trkpt lat="45.631626024842262" lon="7.433570707216859">
        <ele>2532</ele>
        <time>2012-08-28T12:40:43Z</time>
      </trkpt>
      <trkpt lat="45.631674807518721" lon="7.433472219854593">
        <ele>2529.800048828125</ele>
        <time>2012-08-28T12:40:45Z</time>
      </trkpt>
      <trkpt lat="45.631806068122387" lon="7.433234257623553">
        <ele>2526.800048828125</ele>
        <time>2012-08-28T12:40:49Z</time>
      </trkpt>
      <trkpt lat="45.631845043972135" lon="7.433166028931737">
        <ele>2526.39990234375</ele>
        <time>2012-08-28T12:40:50Z</time>
      </trkpt>
      <trkpt lat="45.631942357867956" lon="7.433032169938088">
        <ele>2525.39990234375</ele>
        <time>2012-08-28T12:40:52Z</time>
      </trkpt>
      <trkpt lat="45.631996253505349" lon="7.432976011186838">
        <ele>2525</ele>
        <time>2012-08-28T12:40:53Z</time>
      </trkpt>
      <trkpt lat="45.632089879363775" lon="7.432892275974155">
        <ele>2524.60009765625</ele>
        <time>2012-08-28T12:40:55Z</time>
      </trkpt>
      <trkpt lat="45.632186271250248" lon="7.432785490527749">
        <ele>2523.60009765625</ele>
        <time>2012-08-28T12:40:57Z</time>
      </trkpt>
      <trkpt lat="45.632244609296322" lon="7.432736791670322">
        <ele>2523.199951171875</ele>
        <time>2012-08-28T12:40:58Z</time>
      </trkpt>
      <trkpt lat="45.632382743060589" lon="7.432576529681683">
        <ele>2521.800048828125</ele>
        <time>2012-08-28T12:41:01Z</time>
      </trkpt>
      <trkpt lat="45.632467484101653" lon="7.432469241321087">
        <ele>2520.60009765625</ele>
        <time>2012-08-28T12:41:03Z</time>
      </trkpt>
      <trkpt lat="45.632594050839543" lon="7.43238827213645">
        <ele>2520.199951171875</ele>
        <time>2012-08-28T12:41:06Z</time>
      </trkpt>
      <trkpt lat="45.632617771625519" lon="7.432381482794881">
        <ele>2520.39990234375</ele>
        <time>2012-08-28T12:41:07Z</time>
      </trkpt>
      <trkpt lat="45.632668398320675" lon="7.432347200810909">
        <ele>2520.199951171875</ele>
        <time>2012-08-28T12:41:09Z</time>
      </trkpt>
      <trkpt lat="45.632687006145716" lon="7.432323982939124">
        <ele>2520</ele>
        <time>2012-08-28T12:41:10Z</time>
      </trkpt>
      <trkpt lat="45.632704691961408" lon="7.432238822802901">
        <ele>2519.199951171875</ele>
        <time>2012-08-28T12:41:13Z</time>
      </trkpt>
      <trkpt lat="45.632703602313995" lon="7.432208731770515">
        <ele>2518.800048828125</ele>
        <time>2012-08-28T12:41:14Z</time>
      </trkpt>
      <trkpt lat="45.632756492123008" lon="7.4320696759969">
        <ele>2517.199951171875</ele>
        <time>2012-08-28T12:41:18Z</time>
      </trkpt>
      <trkpt lat="45.632899738848209" lon="7.431962722912431">
        <ele>2516.60009765625</ele>
        <time>2012-08-28T12:41:22Z</time>
      </trkpt>
      <trkpt lat="45.633077099919319" lon="7.431861218065023">
        <ele>2515.800048828125</ele>
        <time>2012-08-28T12:41:28Z</time>
      </trkpt>
      <trkpt lat="45.633215820416808" lon="7.4317691847682">
        <ele>2515.199951171875</ele>
        <time>2012-08-28T12:41:35Z</time>
      </trkpt>
      <trkpt lat="45.633237529546022" lon="7.431772705167532">
        <ele>2515.199951171875</ele>
        <time>2012-08-28T12:41:36Z</time>
      </trkpt>
      <trkpt lat="45.633291760459542" lon="7.431832635775209">
        <ele>2516.39990234375</ele>
        <time>2012-08-28T12:41:39Z</time>
      </trkpt>
      <trkpt lat="45.633308943361044" lon="7.431850824505091">
        <ele>2516.800048828125</ele>
        <time>2012-08-28T12:41:40Z</time>
      </trkpt>
      <trkpt lat="45.633464176207781" lon="7.431982168927789">
        <ele>2519.199951171875</ele>
        <time>2012-08-28T12:41:47Z</time>
      </trkpt>
      <trkpt lat="45.633664084598422" lon="7.431983510032296">
        <ele>2519.39990234375</ele>
        <time>2012-08-28T12:41:54Z</time>
      </trkpt>
      <trkpt lat="45.633831303566694" lon="7.43190698325634">
        <ele>2518.199951171875</ele>
        <time>2012-08-28T12:42:00Z</time>
      </trkpt>
      <trkpt lat="45.634017884731293" lon="7.43179215118289">
        <ele>2516.39990234375</ele>
        <time>2012-08-28T12:42:06Z</time>
      </trkpt>
      <trkpt lat="45.634234640747309" lon="7.431721491739154">
        <ele>2516.60009765625</ele>
        <time>2012-08-28T12:42:12Z</time>
      </trkpt>
      <trkpt lat="45.634423736482859" lon="7.431532563641667">
        <ele>2517.60009765625</ele>
        <time>2012-08-28T12:42:17Z</time>
      </trkpt>
      <trkpt lat="45.63457578420639" lon="7.43135285563767">
        <ele>2517.39990234375</ele>
        <time>2012-08-28T12:42:21Z</time>
      </trkpt>
      <trkpt lat="45.63461584970355" lon="7.431299295276403">
        <ele>2517</ele>
        <time>2012-08-28T12:42:22Z</time>
      </trkpt>
      <trkpt lat="45.634791031479836" lon="7.431033169850707">
        <ele>2513.800048828125</ele>
        <time>2012-08-28T12:42:27Z</time>
      </trkpt>
      <trkpt lat="45.634888680651784" lon="7.430855892598629">
        <ele>2510.60009765625</ele>
        <time>2012-08-28T12:42:31Z</time>
      </trkpt>
      <trkpt lat="45.634917682036757" lon="7.430791854858398">
        <ele>2509.60009765625</ele>
        <time>2012-08-28T12:42:32Z</time>
      </trkpt>
      <trkpt lat="45.634991358965635" lon="7.430612314492464">
        <ele>2507</ele>
        <time>2012-08-28T12:42:35Z</time>
      </trkpt>
      <trkpt lat="45.635079620406032" lon="7.43038684129715">
        <ele>2504.800048828125</ele>
        <time>2012-08-28T12:42:39Z</time>
      </trkpt>
      <trkpt lat="45.63513913191855" lon="7.430160529911518">
        <ele>2501.800048828125</ele>
        <time>2012-08-28T12:42:44Z</time>
      </trkpt>
      <trkpt lat="45.635205684229732" lon="7.430021138861775">
        <ele>2500.39990234375</ele>
        <time>2012-08-28T12:42:47Z</time>
      </trkpt>
      <trkpt lat="45.63525496982038" lon="7.429916867986321">
        <ele>2499.60009765625</ele>
        <time>2012-08-28T12:42:51Z</time>
      </trkpt>
      <trkpt lat="45.635341806337237" lon="7.429756270721555">
        <ele>2498.60009765625</ele>
        <time>2012-08-28T12:42:56Z</time>
      </trkpt>
      <trkpt lat="45.635441467165947" lon="7.429594751447439">
        <ele>2497.60009765625</ele>
        <time>2012-08-28T12:43:01Z</time>
      </trkpt>
      <trkpt lat="45.635539451614022" lon="7.429411858320236">
        <ele>2496</ele>
        <time>2012-08-28T12:43:06Z</time>
      </trkpt>
      <trkpt lat="45.635644644498825" lon="7.429204406216741">
        <ele>2494</ele>
        <time>2012-08-28T12:43:11Z</time>
      </trkpt>
      <trkpt lat="45.635683704167604" lon="7.429008102044463">
        <ele>2491</ele>
        <time>2012-08-28T12:43:16Z</time>
      </trkpt>
      <trkpt lat="45.635740114375949" lon="7.428844487294555">
        <ele>2489.199951171875</ele>
        <time>2012-08-28T12:43:21Z</time>
      </trkpt>
      <trkpt lat="45.635877577587962" lon="7.428650530055165">
        <ele>2487.800048828125</ele>
        <time>2012-08-28T12:43:25Z</time>
      </trkpt>
      <trkpt lat="45.635988973081112" lon="7.428395636379719">
        <ele>2484.800048828125</ele>
        <time>2012-08-28T12:43:29Z</time>
      </trkpt>
      <trkpt lat="45.636017052456737" lon="7.428330257534981">
        <ele>2484</ele>
        <time>2012-08-28T12:43:30Z</time>
      </trkpt>
      <trkpt lat="45.636135069653392" lon="7.428139988332987">
        <ele>2481.60009765625</ele>
        <time>2012-08-28T12:43:33Z</time>
      </trkpt>
      <trkpt lat="45.63617555424571" lon="7.428085086867213">
        <ele>2481.199951171875</ele>
        <time>2012-08-28T12:43:34Z</time>
      </trkpt>
      <trkpt lat="45.636306395754218" lon="7.427968243137002">
        <ele>2480.60009765625</ele>
        <time>2012-08-28T12:43:37Z</time>
      </trkpt>
      <trkpt lat="45.636337408795953" lon="7.427956508472562">
        <ele>2480.800048828125</ele>
        <time>2012-08-28T12:43:38Z</time>
      </trkpt>
      <trkpt lat="45.636389041319489" lon="7.428002189844847">
        <ele>2482.39990234375</ele>
        <time>2012-08-28T12:43:40Z</time>
      </trkpt>
      <trkpt lat="45.636487863957882" lon="7.428130432963371">
        <ele>2485.60009765625</ele>
        <time>2012-08-28T12:43:43Z</time>
      </trkpt>
      <trkpt lat="45.63651661388576" lon="7.428117608651519">
        <ele>2485.800048828125</ele>
        <time>2012-08-28T12:43:46Z</time>
      </trkpt>
      <trkpt lat="45.636518709361553" lon="7.42810889147222">
        <ele>2485.800048828125</ele>
        <time>2012-08-28T12:43:47Z</time>
      </trkpt>
      <trkpt lat="45.636543519794941" lon="7.428063461557031">
        <ele>2485.199951171875</ele>
        <time>2012-08-28T12:43:50Z</time>
      </trkpt>
      <trkpt lat="45.63661920838058" lon="7.427954832091928">
        <ele>2484.39990234375</ele>
        <time>2012-08-28T12:43:55Z</time>
      </trkpt>
      <trkpt lat="45.636779302731156" lon="7.427743440493941">
        <ele>2485</ele>
        <time>2012-08-28T12:43:59Z</time>
      </trkpt>
      <trkpt lat="45.636930428445339" lon="7.427601786330342">
        <ele>2487</ele>
        <time>2012-08-28T12:44:03Z</time>
      </trkpt>
      <trkpt lat="45.637002931907773" lon="7.427447559311986">
        <ele>2486.39990234375</ele>
        <time>2012-08-28T12:44:07Z</time>
      </trkpt>
      <trkpt lat="45.637092282995582" lon="7.427366590127349">
        <ele>2487.39990234375</ele>
        <time>2012-08-28T12:44:11Z</time>
      </trkpt>
      <trkpt lat="45.637101922184229" lon="7.427273383364081">
        <ele>2486</ele>
        <time>2012-08-28T12:44:14Z</time>
      </trkpt>
      <trkpt lat="45.637122625485063" lon="7.427179589867592">
        <ele>2485</ele>
        <time>2012-08-28T12:44:16Z</time>
      </trkpt>
      <trkpt lat="45.637165121734142" lon="7.427013628184795">
        <ele>2483.39990234375</ele>
        <time>2012-08-28T12:44:19Z</time>
      </trkpt>
      <trkpt lat="45.637230416759849" lon="7.426675753667951">
        <ele>2479.800048828125</ele>
        <time>2012-08-28T12:44:24Z</time>
      </trkpt>
      <trkpt lat="45.637287413701415" lon="7.426410131156445">
        <ele>2478.199951171875</ele>
        <time>2012-08-28T12:44:28Z</time>
      </trkpt>
      <trkpt lat="45.63731599599123" lon="7.426280798390508">
        <ele>2477.39990234375</ele>
        <time>2012-08-28T12:44:30Z</time>
      </trkpt>
      <trkpt lat="45.637340219691396" lon="7.426143921911717">
        <ele>2476.39990234375</ele>
        <time>2012-08-28T12:44:32Z</time>
      </trkpt>
      <trkpt lat="45.63737902790308" lon="7.425869582220912">
        <ele>2473.800048828125</ele>
        <time>2012-08-28T12:44:36Z</time>
      </trkpt>
      <trkpt lat="45.637475671246648" lon="7.425596248358488">
        <ele>2472.39990234375</ele>
        <time>2012-08-28T12:44:40Z</time>
      </trkpt>
      <trkpt lat="45.637509534135461" lon="7.425526091828942">
        <ele>2472.199951171875</ele>
        <time>2012-08-28T12:44:41Z</time>
      </trkpt>
      <trkpt lat="45.637575499713421" lon="7.425275053828955">
        <ele>2469.800048828125</ele>
        <time>2012-08-28T12:44:44Z</time>
      </trkpt>
      <trkpt lat="45.637628976255655" lon="7.424862077459693">
        <ele>2465.199951171875</ele>
        <time>2012-08-28T12:44:48Z</time>
      </trkpt>
      <trkpt lat="45.63765705563128" lon="7.424372658133507">
        <ele>2460.60009765625</ele>
        <time>2012-08-28T12:44:53Z</time>
      </trkpt>
      <trkpt lat="45.637647081166506" lon="7.424092451110482">
        <ele>2457.60009765625</ele>
        <time>2012-08-28T12:44:56Z</time>
      </trkpt>
      <trkpt lat="45.637650014832616" lon="7.424002010375261">
        <ele>2457</ele>
        <time>2012-08-28T12:44:57Z</time>
      </trkpt>
      <trkpt lat="45.637686476111412" lon="7.423764048144221">
        <ele>2456.39990234375</ele>
        <time>2012-08-28T12:45:00Z</time>
      </trkpt>
      <trkpt lat="45.637696282938123" lon="7.423694562166929">
        <ele>2456</ele>
        <time>2012-08-28T12:45:01Z</time>
      </trkpt>
      <trkpt lat="45.637717572972178" lon="7.423466322943568">
        <ele>2455</ele>
        <time>2012-08-28T12:45:05Z</time>
      </trkpt>
      <trkpt lat="45.637692511081696" lon="7.423293571919203">
        <ele>2453</ele>
        <time>2012-08-28T12:45:07Z</time>
      </trkpt>
      <trkpt lat="45.637687565758824" lon="7.423219727352262">
        <ele>2452.39990234375</ele>
        <time>2012-08-28T12:45:08Z</time>
      </trkpt>
      <trkpt lat="45.637723775580525" lon="7.423067009076476">
        <ele>2452</ele>
        <time>2012-08-28T12:45:11Z</time>
      </trkpt>
      <trkpt lat="45.637717237696052" lon="7.42289618588984">
        <ele>2450.60009765625</ele>
        <time>2012-08-28T12:45:14Z</time>
      </trkpt>
      <trkpt lat="45.637702653184533" lon="7.422716561704874">
        <ele>2448.800048828125</ele>
        <time>2012-08-28T12:45:18Z</time>
      </trkpt>
      <trkpt lat="45.637701144441962" lon="7.422675993293524">
        <ele>2448.39990234375</ele>
        <time>2012-08-28T12:45:19Z</time>
      </trkpt>
      <trkpt lat="45.637694774195552" lon="7.4223767593503">
        <ele>2446</ele>
        <time>2012-08-28T12:45:23Z</time>
      </trkpt>
      <trkpt lat="45.63770248554647" lon="7.422293024137616">
        <ele>2445.60009765625</ele>
        <time>2012-08-28T12:45:24Z</time>
      </trkpt>
      <trkpt lat="45.637730481103063" lon="7.422066377475858">
        <ele>2444.800048828125</ele>
        <time>2012-08-28T12:45:27Z</time>
      </trkpt>
      <trkpt lat="45.637763421982527" lon="7.421860182657838">
        <ele>2444.39990234375</ele>
        <time>2012-08-28T12:45:30Z</time>
      </trkpt>
      <trkpt lat="45.637795776128769" lon="7.421555835753679">
        <ele>2443.199951171875</ele>
        <time>2012-08-28T12:45:34Z</time>
      </trkpt>
      <trkpt lat="45.637809941545129" lon="7.421475034207106">
        <ele>2442.800048828125</ele>
        <time>2012-08-28T12:45:35Z</time>
      </trkpt>
      <trkpt lat="45.637849923223257" lon="7.421337570995092">
        <ele>2442.800048828125</ele>
        <time>2012-08-28T12:45:37Z</time>
      </trkpt>
      <trkpt lat="45.637860232964158" lon="7.421256098896265">
        <ele>2442.39990234375</ele>
        <time>2012-08-28T12:45:39Z</time>
      </trkpt>
      <trkpt lat="45.637893173843622" lon="7.421114780008793">
        <ele>2442.199951171875</ele>
        <time>2012-08-28T12:45:42Z</time>
      </trkpt>
      <trkpt lat="45.637906501069665" lon="7.421052837744355">
        <ele>2442.199951171875</ele>
        <time>2012-08-28T12:45:43Z</time>
      </trkpt>
      <trkpt lat="45.637926366180182" lon="7.420989135280252">
        <ele>2442.199951171875</ele>
        <time>2012-08-28T12:45:44Z</time>
      </trkpt>
      <trkpt lat="45.637994930148125" lon="7.420757375657558">
        <ele>2442.800048828125</ele>
        <time>2012-08-28T12:45:48Z</time>
      </trkpt>
      <trkpt lat="45.638012196868658" lon="7.420679507777095">
        <ele>2442.800048828125</ele>
        <time>2012-08-28T12:45:51Z</time>
      </trkpt>
      <trkpt lat="45.638008760288358" lon="7.420650757849217">
        <ele>2442.60009765625</ele>
        <time>2012-08-28T12:45:52Z</time>
      </trkpt>
      <trkpt lat="45.638036336749792" lon="7.42049552500248">
        <ele>2442.39990234375</ele>
        <time>2012-08-28T12:45:56Z</time>
      </trkpt>
      <trkpt lat="45.63809878192842" lon="7.420172151178122">
        <ele>2442.199951171875</ele>
        <time>2012-08-28T12:46:02Z</time>
      </trkpt>
      <trkpt lat="45.638092830777168" lon="7.419897811487317">
        <ele>2440.39990234375</ele>
        <time>2012-08-28T12:46:06Z</time>
      </trkpt>
      <trkpt lat="45.638097776100039" lon="7.41981977596879">
        <ele>2440.199951171875</ele>
        <time>2012-08-28T12:46:07Z</time>
      </trkpt>
      <trkpt lat="45.638094004243612" lon="7.419604612514377">
        <ele>2439.199951171875</ele>
        <time>2012-08-28T12:46:10Z</time>
      </trkpt>
      <trkpt lat="45.638077408075333" lon="7.41941325366497">
        <ele>2437.800048828125</ele>
        <time>2012-08-28T12:46:14Z</time>
      </trkpt>
      <trkpt lat="45.638059051707387" lon="7.419172525405884">
        <ele>2436.199951171875</ele>
        <time>2012-08-28T12:46:21Z</time>
      </trkpt>
      <trkpt lat="45.638043293729424" lon="7.419001702219248">
        <ele>2435.199951171875</ele>
        <time>2012-08-28T12:46:25Z</time>
      </trkpt>
      <trkpt lat="45.638026613742113" lon="7.418666174635291">
        <ele>2433.800048828125</ele>
        <time>2012-08-28T12:46:30Z</time>
      </trkpt>
      <trkpt lat="45.638002473860979" lon="7.418483197689056">
        <ele>2432.39990234375</ele>
        <time>2012-08-28T12:46:32Z</time>
      </trkpt>
      <trkpt lat="45.637971460819244" lon="7.418301729485393">
        <ele>2431</ele>
        <time>2012-08-28T12:46:34Z</time>
      </trkpt>
      <trkpt lat="45.637950338423252" lon="7.418227214366198">
        <ele>2430</ele>
        <time>2012-08-28T12:46:35Z</time>
      </trkpt>
      <trkpt lat="45.637930808588862" lon="7.418038621544838">
        <ele>2429.199951171875</ele>
        <time>2012-08-28T12:46:38Z</time>
      </trkpt>
      <trkpt lat="45.637925025075674" lon="7.417979026213288">
        <ele>2428.800048828125</ele>
        <time>2012-08-28T12:46:39Z</time>
      </trkpt>
      <trkpt lat="45.637951595708728" lon="7.417830666527152">
        <ele>2429.60009765625</ele>
        <time>2012-08-28T12:46:42Z</time>
      </trkpt>
      <trkpt lat="45.637956624850631" lon="7.417746260762215">
        <ele>2429.60009765625</ele>
        <time>2012-08-28T12:46:45Z</time>
      </trkpt>
      <trkpt lat="45.637951930984855" lon="7.417707536369562">
        <ele>2429.39990234375</ele>
        <time>2012-08-28T12:46:46Z</time>
      </trkpt>
      <trkpt lat="45.637921253219247" lon="7.417446104809642">
        <ele>2428</ele>
        <time>2012-08-28T12:46:51Z</time>
      </trkpt>
      <trkpt lat="45.637881103903055" lon="7.417286764830351">
        <ele>2426.60009765625</ele>
        <time>2012-08-28T12:46:55Z</time>
      </trkpt>
      <trkpt lat="45.637862160801888" lon="7.417208226397634">
        <ele>2425.800048828125</ele>
        <time>2012-08-28T12:46:57Z</time>
      </trkpt>
      <trkpt lat="45.637835757806897" lon="7.417092220857739">
        <ele>2424.800048828125</ele>
        <time>2012-08-28T12:46:59Z</time>
      </trkpt>
      <trkpt lat="45.637782029807568" lon="7.416745293885469">
        <ele>2422.60009765625</ele>
        <time>2012-08-28T12:47:04Z</time>
      </trkpt>
      <trkpt lat="45.63777725212276" lon="7.416589893400669">
        <ele>2422.199951171875</ele>
        <time>2012-08-28T12:47:06Z</time>
      </trkpt>
      <trkpt lat="45.637741545215249" lon="7.416434241458774">
        <ele>2420.800048828125</ele>
        <time>2012-08-28T12:47:08Z</time>
      </trkpt>
      <trkpt lat="45.63772645778954" lon="7.416345477104187">
        <ele>2420</ele>
        <time>2012-08-28T12:47:09Z</time>
      </trkpt>
      <trkpt lat="45.637709274888039" lon="7.416221424937248">
        <ele>2419.39990234375</ele>
        <time>2012-08-28T12:47:11Z</time>
      </trkpt>
      <trkpt lat="45.637701898813248" lon="7.41618144325912">
        <ele>2419</ele>
        <time>2012-08-28T12:47:14Z</time>
      </trkpt>
      <trkpt lat="45.637724781408906" lon="7.416191753000021">
        <ele>2419.800048828125</ele>
        <time>2012-08-28T12:47:36Z</time>
      </trkpt>
      <trkpt lat="45.637722183018923" lon="7.416186053305864">
        <ele>2419.60009765625</ele>
        <time>2012-08-28T12:47:43Z</time>
      </trkpt>
      <trkpt lat="45.63770248554647" lon="7.41610324010253">
        <ele>2419</ele>
        <time>2012-08-28T12:47:50Z</time>
      </trkpt>
      <trkpt lat="45.637638615444303" lon="7.415863433852792">
        <ele>2416.800048828125</ele>
        <time>2012-08-28T12:47:55Z</time>
      </trkpt>
      <trkpt lat="45.637615397572517" lon="7.415608372539282">
        <ele>2413.800048828125</ele>
        <time>2012-08-28T12:47:59Z</time>
      </trkpt>
      <trkpt lat="45.637591928243637" lon="7.415410308167338">
        <ele>2411.199951171875</ele>
        <time>2012-08-28T12:48:02Z</time>
      </trkpt>
      <trkpt lat="45.637613888829947" lon="7.415251890197396">
        <ele>2410.199951171875</ele>
        <time>2012-08-28T12:48:04Z</time>
      </trkpt>
      <trkpt lat="45.637688739225268" lon="7.415073188021779">
        <ele>2410.60009765625</ele>
        <time>2012-08-28T12:48:06Z</time>
      </trkpt>
      <trkpt lat="45.637720674276352" lon="7.414976209402084">
        <ele>2410.60009765625</ele>
        <time>2012-08-28T12:48:07Z</time>
      </trkpt>
      <trkpt lat="45.637860987335443" lon="7.414517216384411">
        <ele>2411</ele>
        <time>2012-08-28T12:48:12Z</time>
      </trkpt>
      <trkpt lat="45.637895688414574" lon="7.414451837539673">
        <ele>2411.39990234375</ele>
        <time>2012-08-28T12:48:13Z</time>
      </trkpt>
      <trkpt lat="45.6379668507725" lon="7.414293419569731">
        <ele>2412</ele>
        <time>2012-08-28T12:48:16Z</time>
      </trkpt>
      <trkpt lat="45.637979255989194" lon="7.414240781217814">
        <ele>2412</ele>
        <time>2012-08-28T12:48:17Z</time>
      </trkpt>
      <trkpt lat="45.637996522709727" lon="7.414191579446197">
        <ele>2412</ele>
        <time>2012-08-28T12:48:18Z</time>
      </trkpt>
      <trkpt lat="45.638047400861979" lon="7.414005333557725">
        <ele>2412.800048828125</ele>
        <time>2012-08-28T12:48:22Z</time>
      </trkpt>
      <trkpt lat="45.638095680624247" lon="7.41368506103754">
        <ele>2413.199951171875</ele>
        <time>2012-08-28T12:48:27Z</time>
      </trkpt>
      <trkpt lat="45.638087382540107" lon="7.413456151261926">
        <ele>2412.60009765625</ele>
        <time>2012-08-28T12:48:30Z</time>
      </trkpt>
      <trkpt lat="45.638080174103379" lon="7.413359005004168">
        <ele>2412</ele>
        <time>2012-08-28T12:48:32Z</time>
      </trkpt>
      <trkpt lat="45.638078665360808" lon="7.413288010284305">
        <ele>2412</ele>
        <time>2012-08-28T12:48:34Z</time>
      </trkpt>
      <trkpt lat="45.638119736686349" lon="7.413169993087649">
        <ele>2413</ele>
        <time>2012-08-28T12:48:37Z</time>
      </trkpt>
      <trkpt lat="45.63814178109169" lon="7.41313336417079">
        <ele>2413.39990234375</ele>
        <time>2012-08-28T12:48:38Z</time>
      </trkpt>
      <trkpt lat="45.638148067519069" lon="7.413100339472294">
        <ele>2413.60009765625</ele>
        <time>2012-08-28T12:48:39Z</time>
      </trkpt>
      <trkpt lat="45.638160053640604" lon="7.413013502955437">
        <ele>2414</ele>
        <time>2012-08-28T12:48:42Z</time>
      </trkpt>
      <trkpt lat="45.63818528316915" lon="7.41283287294209">
        <ele>2414.39990234375</ele>
        <time>2012-08-28T12:48:47Z</time>
      </trkpt>
      <trkpt lat="45.638137171044946" lon="7.412625337019563">
        <ele>2412.800048828125</ele>
        <time>2012-08-28T12:48:52Z</time>
      </trkpt>
      <trkpt lat="45.63809341751039" lon="7.412384273484349">
        <ele>2410.800048828125</ele>
        <time>2012-08-28T12:48:56Z</time>
      </trkpt>
      <trkpt lat="45.638103811070323" lon="7.412106413394213">
        <ele>2410.199951171875</ele>
        <time>2012-08-28T12:49:00Z</time>
      </trkpt>
      <trkpt lat="45.638092746958137" lon="7.412036340683699">
        <ele>2409.60009765625</ele>
        <time>2012-08-28T12:49:01Z</time>
      </trkpt>
      <trkpt lat="45.638075396418571" lon="7.411760576069355">
        <ele>2408.199951171875</ele>
        <time>2012-08-28T12:49:05Z</time>
      </trkpt>
      <trkpt lat="45.638064667582512" lon="7.411685306578875">
        <ele>2407.60009765625</ele>
        <time>2012-08-28T12:49:06Z</time>
      </trkpt>
      <trkpt lat="45.638064416125417" lon="7.411523116752505">
        <ele>2407.39990234375</ele>
        <time>2012-08-28T12:49:08Z</time>
      </trkpt>
      <trkpt lat="45.638050585985184" lon="7.411399064585567">
        <ele>2406.800048828125</ele>
        <time>2012-08-28T12:49:10Z</time>
      </trkpt>
      <trkpt lat="45.638020997866988" lon="7.411325220018625">
        <ele>2405.800048828125</ele>
        <time>2012-08-28T12:49:12Z</time>
      </trkpt>
      <trkpt lat="45.638002725318074" lon="7.411270653828979">
        <ele>2405.199951171875</ele>
        <time>2012-08-28T12:49:13Z</time>
      </trkpt>
      <trkpt lat="45.637951595708728" lon="7.411032021045685">
        <ele>2403.39990234375</ele>
        <time>2012-08-28T12:49:16Z</time>
      </trkpt>
      <trkpt lat="45.637937178835273" lon="7.410818869248033">
        <ele>2402.60009765625</ele>
        <time>2012-08-28T12:49:19Z</time>
      </trkpt>
      <trkpt lat="45.637925779446959" lon="7.410758016631007">
        <ele>2402.199951171875</ele>
        <time>2012-08-28T12:49:20Z</time>
      </trkpt>
      <trkpt lat="45.637905830517411" lon="7.410645196214318">
        <ele>2401.60009765625</ele>
        <time>2012-08-28T12:49:22Z</time>
      </trkpt>
      <trkpt lat="45.637890072539449" lon="7.410532794892788">
        <ele>2401.199951171875</ele>
        <time>2012-08-28T12:49:24Z</time>
      </trkpt>
      <trkpt lat="45.637878254055977" lon="7.410423075780273">
        <ele>2401</ele>
        <time>2012-08-28T12:49:26Z</time>
      </trkpt>
      <trkpt lat="45.637869788333774" lon="7.410311847925186">
        <ele>2400.800048828125</ele>
        <time>2012-08-28T12:49:28Z</time>
      </trkpt>
      <trkpt lat="45.637883618474007" lon="7.410254431888461">
        <ele>2401.199951171875</ele>
        <time>2012-08-28T12:49:29Z</time>
      </trkpt>
      <trkpt lat="45.63798101618886" lon="7.410146472975612">
        <ele>2403.60009765625</ele>
        <time>2012-08-28T12:49:32Z</time>
      </trkpt>
      <trkpt lat="45.638033403083682" lon="7.410053266212344">
        <ele>2404.800048828125</ele>
        <time>2012-08-28T12:49:34Z</time>
      </trkpt>
      <trkpt lat="45.638070534914732" lon="7.409939775243402">
        <ele>2405.60009765625</ele>
        <time>2012-08-28T12:49:36Z</time>
      </trkpt>
      <trkpt lat="45.638063997030258" lon="7.40978186018765">
        <ele>2405.39990234375</ele>
        <time>2012-08-28T12:49:39Z</time>
      </trkpt>
      <trkpt lat="45.638034828007221" lon="7.40961380302906">
        <ele>2404.60009765625</ele>
        <time>2012-08-28T12:49:42Z</time>
      </trkpt>
      <trkpt lat="45.638007083907723" lon="7.409521099179983">
        <ele>2403.800048828125</ele>
        <time>2012-08-28T12:49:44Z</time>
      </trkpt>
      <trkpt lat="45.637982608750463" lon="7.409365614876151">
        <ele>2403</ele>
        <time>2012-08-28T12:49:48Z</time>
      </trkpt>
      <trkpt lat="45.637976573780179" lon="7.409336948767304">
        <ele>2402.800048828125</ele>
        <time>2012-08-28T12:49:49Z</time>
      </trkpt>
      <trkpt lat="45.637968191877007" lon="7.409309456124902">
        <ele>2402.60009765625</ele>
        <time>2012-08-28T12:49:51Z</time>
      </trkpt>
      <trkpt lat="45.637958301231265" lon="7.409301660954952">
        <ele>2402.39990234375</ele>
        <time>2012-08-28T12:49:53Z</time>
      </trkpt>
      <trkpt lat="45.637910105288029" lon="7.409176435321569">
        <ele>2400.800048828125</ele>
        <time>2012-08-28T12:49:57Z</time>
      </trkpt>
      <trkpt lat="45.637838775292039" lon="7.408901089802384">
        <ele>2398.800048828125</ele>
        <time>2012-08-28T12:50:01Z</time>
      </trkpt>
      <trkpt lat="45.637765601277351" lon="7.408516611903906">
        <ele>2396</ele>
        <time>2012-08-28T12:50:05Z</time>
      </trkpt>
      <trkpt lat="45.637690918520093" lon="7.408106653019786">
        <ele>2391.39990234375</ele>
        <time>2012-08-28T12:50:09Z</time>
      </trkpt>
      <trkpt lat="45.637551611289382" lon="7.407723600044847">
        <ele>2381.800048828125</ele>
        <time>2012-08-28T12:50:13Z</time>
      </trkpt>
      <trkpt lat="45.637520514428616" lon="7.407621257007122">
        <ele>2379.199951171875</ele>
        <time>2012-08-28T12:50:14Z</time>
      </trkpt>
      <trkpt lat="45.637411633506417" lon="7.407186152413487">
        <ele>2375.800048828125</ele>
        <time>2012-08-28T12:50:18Z</time>
      </trkpt>
      <trkpt lat="45.637322030961514" lon="7.406813744455576">
        <ele>2373.800048828125</ele>
        <time>2012-08-28T12:50:22Z</time>
      </trkpt>
      <trkpt lat="45.63730476424098" lon="7.406734116375446">
        <ele>2373.39990234375</ele>
        <time>2012-08-28T12:50:23Z</time>
      </trkpt>
      <trkpt lat="45.637283809483051" lon="7.406680220738053">
        <ele>2372.800048828125</ele>
        <time>2012-08-28T12:50:24Z</time>
      </trkpt>
      <trkpt lat="45.637268722057343" lon="7.406600676476955">
        <ele>2372.199951171875</ele>
        <time>2012-08-28T12:50:26Z</time>
      </trkpt>
      <trkpt lat="45.637258663773537" lon="7.406448796391487">
        <ele>2371.199951171875</ele>
        <time>2012-08-28T12:50:29Z</time>
      </trkpt>
      <trkpt lat="45.637256568297744" lon="7.406406635418534">
        <ele>2371</ele>
        <time>2012-08-28T12:50:30Z</time>
      </trkpt>
      <trkpt lat="45.637247851118445" lon="7.406373778358102">
        <ele>2370.60009765625</ele>
        <time>2012-08-28T12:50:31Z</time>
      </trkpt>
      <trkpt lat="45.63721633516252" lon="7.406294485554099">
        <ele>2369.39990234375</ele>
        <time>2012-08-28T12:50:34Z</time>
      </trkpt>
      <trkpt lat="45.637177024036646" lon="7.406228268519044">
        <ele>2368</ele>
        <time>2012-08-28T12:50:39Z</time>
      </trkpt>
      <trkpt lat="45.637157242745161" lon="7.406198093667626">
        <ele>2367.39990234375</ele>
        <time>2012-08-28T12:50:41Z</time>
      </trkpt>
      <trkpt lat="45.637165540829301" lon="7.406159620732069">
        <ele>2367.39990234375</ele>
        <time>2012-08-28T12:50:43Z</time>
      </trkpt>
      <trkpt lat="45.637181550264359" lon="7.40608150139451">
        <ele>2367.39990234375</ele>
        <time>2012-08-28T12:50:47Z</time>
      </trkpt>
      <trkpt lat="45.637174593284726" lon="7.406071275472641">
        <ele>2367.199951171875</ele>
        <time>2012-08-28T12:50:48Z</time>
      </trkpt>
      <trkpt lat="45.637142742052674" lon="7.406005561351776">
        <ele>2366</ele>
        <time>2012-08-28T12:50:51Z</time>
      </trkpt>
      <trkpt lat="45.637139389291406" lon="7.405912606045604">
        <ele>2365.39990234375</ele>
        <time>2012-08-28T12:50:55Z</time>
      </trkpt>
      <trkpt lat="45.6371362041682" lon="7.405908163636923">
        <ele>2365.39990234375</ele>
        <time>2012-08-28T12:50:56Z</time>
      </trkpt>
      <trkpt lat="45.63712983392179" lon="7.40587966516614">
        <ele>2365</ele>
        <time>2012-08-28T12:51:00Z</time>
      </trkpt>
      <trkpt lat="45.637104939669371" lon="7.405699118971825">
        <ele>2363</ele>
        <time>2012-08-28T12:51:04Z</time>
      </trkpt>
      <trkpt lat="45.637102257460356" lon="7.405606415122747">
        <ele>2362.199951171875</ele>
        <time>2012-08-28T12:51:06Z</time>
      </trkpt>
      <trkpt lat="45.637085158377886" lon="7.405553944408894">
        <ele>2361.39990234375</ele>
        <time>2012-08-28T12:51:07Z</time>
      </trkpt>
      <trkpt lat="45.637041991576552" lon="7.405287232249975">
        <ele>2358</ele>
        <time>2012-08-28T12:51:11Z</time>
      </trkpt>
      <trkpt lat="45.637051463127136" lon="7.405150271952152">
        <ele>2357.199951171875</ele>
        <time>2012-08-28T12:51:13Z</time>
      </trkpt>
      <trkpt lat="45.637072836980224" lon="7.405016580596566">
        <ele>2356.800048828125</ele>
        <time>2012-08-28T12:51:15Z</time>
      </trkpt>
      <trkpt lat="45.637090187519789" lon="7.404906526207924">
        <ele>2356.39990234375</ele>
        <time>2012-08-28T12:51:18Z</time>
      </trkpt>
      <trkpt lat="45.637109549716115" lon="7.40488339215517">
        <ele>2357</ele>
        <time>2012-08-28T12:51:19Z</time>
      </trkpt>
      <trkpt lat="45.637131007388234" lon="7.404825557023287">
        <ele>2357.199951171875</ele>
        <time>2012-08-28T12:51:21Z</time>
      </trkpt>
      <trkpt lat="45.637114997953176" lon="7.404732098802924">
        <ele>2355.800048828125</ele>
        <time>2012-08-28T12:51:23Z</time>
      </trkpt>
      <trkpt lat="45.637152632698417" lon="7.404487431049347">
        <ele>2355.199951171875</ele>
        <time>2012-08-28T12:51:26Z</time>
      </trkpt>
      <trkpt lat="45.637174090370536" lon="7.404298670589924">
        <ele>2354.199951171875</ele>
        <time>2012-08-28T12:51:29Z</time>
      </trkpt>
      <trkpt lat="45.637176940217614" lon="7.404190041124821">
        <ele>2353.39990234375</ele>
        <time>2012-08-28T12:51:31Z</time>
      </trkpt>
      <trkpt lat="45.637171491980553" lon="7.40408199839294">
        <ele>2351.60009765625</ele>
        <time>2012-08-28T12:51:33Z</time>
      </trkpt>
      <trkpt lat="45.63713813200593" lon="7.403847640380263">
        <ele>2346.199951171875</ele>
        <time>2012-08-28T12:51:37Z</time>
      </trkpt>
      <trkpt lat="45.637148357927799" lon="7.403742782771587">
        <ele>2344.39990234375</ele>
        <time>2012-08-28T12:51:39Z</time>
      </trkpt>
      <trkpt lat="45.637179119512439" lon="7.403702298179269">
        <ele>2344.39990234375</ele>
        <time>2012-08-28T12:51:40Z</time>
      </trkpt>
      <trkpt lat="45.637218011543155" lon="7.403607750311494">
        <ele>2343.199951171875</ele>
        <time>2012-08-28T12:51:42Z</time>
      </trkpt>
      <trkpt lat="45.637225974351168" lon="7.403497025370598">
        <ele>2341</ele>
        <time>2012-08-28T12:51:44Z</time>
      </trkpt>
      <trkpt lat="45.637232763692737" lon="7.403361573815346">
        <ele>2338.39990234375</ele>
        <time>2012-08-28T12:51:46Z</time>
      </trkpt>
      <trkpt lat="45.637258747592568" lon="7.403254033997655">
        <ele>2336.800048828125</ele>
        <time>2012-08-28T12:51:48Z</time>
      </trkpt>
      <trkpt lat="45.637264028191566" lon="7.403194271028042">
        <ele>2335.800048828125</ele>
        <time>2012-08-28T12:51:49Z</time>
      </trkpt>
      <trkpt lat="45.63731943257153" lon="7.403068961575627">
        <ele>2334.39990234375</ele>
        <time>2012-08-28T12:51:52Z</time>
      </trkpt>
      <trkpt lat="45.637371735647321" lon="7.402890343219042">
        <ele>2331.60009765625</ele>
        <time>2012-08-28T12:51:56Z</time>
      </trkpt>
      <trkpt lat="45.637391768395901" lon="7.402788084000349">
        <ele>2330</ele>
        <time>2012-08-28T12:52:00Z</time>
      </trkpt>
      <trkpt lat="45.637358156964183" lon="7.402727482840419">
        <ele>2328.60009765625</ele>
        <time>2012-08-28T12:52:04Z</time>
      </trkpt>
      <trkpt lat="45.637362180277705" lon="7.402682136744261">
        <ele>2327.800048828125</ele>
        <time>2012-08-28T12:52:06Z</time>
      </trkpt>
      <trkpt lat="45.637381710112095" lon="7.402654644101858">
        <ele>2327.39990234375</ele>
        <time>2012-08-28T12:52:08Z</time>
      </trkpt>
      <trkpt lat="45.637365784496069" lon="7.402613824233413">
        <ele>2326.60009765625</ele>
        <time>2012-08-28T12:52:11Z</time>
      </trkpt>
      <trkpt lat="45.637354301288724" lon="7.402597395703197">
        <ele>2326.39990234375</ele>
        <time>2012-08-28T12:52:12Z</time>
      </trkpt>
      <trkpt lat="45.637349942699075" lon="7.402578201144934">
        <ele>2326</ele>
        <time>2012-08-28T12:52:13Z</time>
      </trkpt>
      <trkpt lat="45.637354133650661" lon="7.402538470923901">
        <ele>2325.39990234375</ele>
        <time>2012-08-28T12:52:16Z</time>
      </trkpt>
      <trkpt lat="45.637354468926787" lon="7.402527490630746">
        <ele>2325.199951171875</ele>
        <time>2012-08-28T12:52:17Z</time>
      </trkpt>
      <trkpt lat="45.637380536645651" lon="7.402471331879497">
        <ele>2324.199951171875</ele>
        <time>2012-08-28T12:52:22Z</time>
      </trkpt>
      <trkpt lat="45.637395037338138" lon="7.402452724054456">
        <ele>2323.800048828125</ele>
        <time>2012-08-28T12:52:23Z</time>
      </trkpt>
      <trkpt lat="45.637387577444315" lon="7.402392290532589">
        <ele>2322.800048828125</ele>
        <time>2012-08-28T12:52:28Z</time>
      </trkpt>
      <trkpt lat="45.637338291853666" lon="7.402382902801037">
        <ele>2322.60009765625</ele>
        <time>2012-08-28T12:52:33Z</time>
      </trkpt>
      <trkpt lat="45.637336699292064" lon="7.402386423200369">
        <ele>2322.60009765625</ele>
        <time>2012-08-28T12:52:34Z</time>
      </trkpt>
      <trkpt lat="45.637335609644651" lon="7.402394721284509">
        <ele>2322.800048828125</ele>
        <time>2012-08-28T12:52:39Z</time>
      </trkpt>
      <trkpt lat="45.637345835566521" lon="7.402347279712558">
        <ele>2322</ele>
        <time>2012-08-28T12:52:51Z</time>
      </trkpt>
      <trkpt lat="45.637349355965853" lon="7.402284415438771">
        <ele>2320.800048828125</ele>
        <time>2012-08-28T12:52:54Z</time>
      </trkpt>
      <trkpt lat="45.637350277975202" lon="7.402246696874499">
        <ele>2320.199951171875</ele>
        <time>2012-08-28T12:52:55Z</time>
      </trkpt>
      <trkpt lat="45.637343153357506" lon="7.402100684121251">
        <ele>2317.60009765625</ele>
        <time>2012-08-28T12:52:58Z</time>
      </trkpt>
      <trkpt lat="45.637344159185886" lon="7.402030862867832">
        <ele>2316.39990234375</ele>
        <time>2012-08-28T12:52:59Z</time>
      </trkpt>
      <trkpt lat="45.637319935485721" lon="7.4018235784024">
        <ele>2313</ele>
        <time>2012-08-28T12:53:03Z</time>
      </trkpt>
      <trkpt lat="45.637288335710764" lon="7.401745626702905">
        <ele>2312</ele>
        <time>2012-08-28T12:53:06Z</time>
      </trkpt>
      <trkpt lat="45.637335693463683" lon="7.401637164875865">
        <ele>2310</ele>
        <time>2012-08-28T12:53:10Z</time>
      </trkpt>
      <trkpt lat="45.637333933264017" lon="7.401634063571692">
        <ele>2310</ele>
        <time>2012-08-28T12:53:11Z</time>
      </trkpt>
      <trkpt lat="45.637334855273366" lon="7.40163448266685">
        <ele>2310</ele>
        <time>2012-08-28T12:53:15Z</time>
      </trkpt>
      <trkpt lat="45.637363269925117" lon="7.401527361944318">
        <ele>2309</ele>
        <time>2012-08-28T12:53:39Z</time>
      </trkpt>
      <trkpt lat="45.637450441718102" lon="7.401398867368698">
        <ele>2306.800048828125</ele>
        <time>2012-08-28T12:53:43Z</time>
      </trkpt>
      <trkpt lat="45.637544570490718" lon="7.401211280375719">
        <ele>2305.800048828125</ele>
        <time>2012-08-28T12:53:47Z</time>
      </trkpt>
      <trkpt lat="45.637588240206242" lon="7.401057556271553">
        <ele>2305.199951171875</ele>
        <time>2012-08-28T12:53:51Z</time>
      </trkpt>
      <trkpt lat="45.637653367593884" lon="7.400851277634502">
        <ele>2304.199951171875</ele>
        <time>2012-08-28T12:53:55Z</time>
      </trkpt>
      <trkpt lat="45.637657139450312" lon="7.400595713406801">
        <ele>2301.60009765625</ele>
        <time>2012-08-28T12:53:59Z</time>
      </trkpt>
      <trkpt lat="45.63773232512176" lon="7.40031860768795">
        <ele>2298.60009765625</ele>
        <time>2012-08-28T12:54:04Z</time>
      </trkpt>
      <trkpt lat="45.637817904353142" lon="7.400022391229868">
        <ele>2294</ele>
        <time>2012-08-28T12:54:08Z</time>
      </trkpt>
      <trkpt lat="45.637842882424593" lon="7.39986171014607">
        <ele>2291.60009765625</ele>
        <time>2012-08-28T12:54:11Z</time>
      </trkpt>
      <trkpt lat="45.637841038405895" lon="7.399595584720373">
        <ele>2288.39990234375</ele>
        <time>2012-08-28T12:54:15Z</time>
      </trkpt>
      <trkpt lat="45.637837685644627" lon="7.399426940828562">
        <ele>2286.39990234375</ele>
        <time>2012-08-28T12:54:17Z</time>
      </trkpt>
      <trkpt lat="45.63782854937017" lon="7.399209346622229">
        <ele>2284</ele>
        <time>2012-08-28T12:54:20Z</time>
      </trkpt>
      <trkpt lat="45.637756800279021" lon="7.398939868435264">
        <ele>2282.60009765625</ele>
        <time>2012-08-28T12:54:24Z</time>
      </trkpt>
      <trkpt lat="45.637722685933113" lon="7.398714562878013">
        <ele>2280.800048828125</ele>
        <time>2012-08-28T12:54:27Z</time>
      </trkpt>
      <trkpt lat="45.637697037309408" lon="7.398568047210574">
        <ele>2279.60009765625</ele>
        <time>2012-08-28T12:54:29Z</time>
      </trkpt>
      <trkpt lat="45.637660576030612" lon="7.398434858769178">
        <ele>2278.800048828125</ele>
        <time>2012-08-28T12:54:31Z</time>
      </trkpt>
      <trkpt lat="45.63763115555048" lon="7.398317512124777">
        <ele>2278</ele>
        <time>2012-08-28T12:54:33Z</time>
      </trkpt>
      <trkpt lat="45.63757399097085" lon="7.398144593462348">
        <ele>2278.800048828125</ele>
        <time>2012-08-28T12:54:36Z</time>
      </trkpt>
      <trkpt lat="45.637562843039632" lon="7.398084998130798">
        <ele>2279</ele>
        <time>2012-08-28T12:54:37Z</time>
      </trkpt>
      <trkpt lat="45.637556472793221" lon="7.39802691154182">
        <ele>2279.199951171875</ele>
        <time>2012-08-28T12:54:38Z</time>
      </trkpt>
      <trkpt lat="45.637560244649649" lon="7.397865643724799">
        <ele>2279.60009765625</ele>
        <time>2012-08-28T12:54:42Z</time>
      </trkpt>
      <trkpt lat="45.637572063133121" lon="7.397641595453024">
        <ele>2280</ele>
        <time>2012-08-28T12:54:49Z</time>
      </trkpt>
      <trkpt lat="45.637599639594555" lon="7.397443782538176">
        <ele>2280.199951171875</ele>
        <time>2012-08-28T12:54:55Z</time>
      </trkpt>
      <trkpt lat="45.637590754777193" lon="7.397244712337852">
        <ele>2281.199951171875</ele>
        <time>2012-08-28T12:55:01Z</time>
      </trkpt>
      <trkpt lat="45.637577343732119" lon="7.397001972422004">
        <ele>2282.199951171875</ele>
        <time>2012-08-28T12:55:09Z</time>
      </trkpt>
      <trkpt lat="45.637585306540132" lon="7.396794771775603">
        <ele>2282.800048828125</ele>
        <time>2012-08-28T12:55:15Z</time>
      </trkpt>
      <trkpt lat="45.637579523026943" lon="7.396598886698484">
        <ele>2283.800048828125</ele>
        <time>2012-08-28T12:55:22Z</time>
      </trkpt>
      <trkpt lat="45.637553790584207" lon="7.396366791799665">
        <ele>2285</ele>
        <time>2012-08-28T12:55:31Z</time>
      </trkpt>
      <trkpt lat="45.637530321255326" lon="7.396202757954598">
        <ele>2286</ele>
        <time>2012-08-28T12:55:38Z</time>
      </trkpt>
      <trkpt lat="45.637470725923777" lon="7.395892459899187">
        <ele>2289.60009765625</ele>
        <time>2012-08-28T12:55:49Z</time>
      </trkpt>
      <trkpt lat="45.637495284900069" lon="7.395665058866143">
        <ele>2286</ele>
        <time>2012-08-28T12:55:57Z</time>
      </trkpt>
      <trkpt lat="45.637524705380201" lon="7.395404549315572">
        <ele>2282.199951171875</ele>
        <time>2012-08-28T12:56:05Z</time>
      </trkpt>
      <trkpt lat="45.637475419789553" lon="7.395256021991372">
        <ele>2282</ele>
        <time>2012-08-28T12:56:11Z</time>
      </trkpt>
      <trkpt lat="45.637398138642311" lon="7.395122330635786">
        <ele>2285.199951171875</ele>
        <time>2012-08-28T12:56:19Z</time>
      </trkpt>
      <trkpt lat="45.637366371229291" lon="7.395053599029779">
        <ele>2286.199951171875</ele>
        <time>2012-08-28T12:56:23Z</time>
      </trkpt>
      <trkpt lat="45.637362767010927" lon="7.395050497725606">
        <ele>2286.39990234375</ele>
        <time>2012-08-28T12:56:25Z</time>
      </trkpt>
      <trkpt lat="45.63735262490809" lon="7.395030967891216">
        <ele>2286.800048828125</ele>
        <time>2012-08-28T12:57:30Z</time>
      </trkpt>
      <trkpt lat="45.637295208871365" lon="7.394891241565347">
        <ele>2288.199951171875</ele>
        <time>2012-08-28T12:57:35Z</time>
      </trkpt>
      <trkpt lat="45.637230668216944" lon="7.394724106416106">
        <ele>2289.800048828125</ele>
        <time>2012-08-28T12:57:41Z</time>
      </trkpt>
      <trkpt lat="45.637210886925459" lon="7.394666941836476">
        <ele>2290</ele>
        <time>2012-08-28T12:57:47Z</time>
      </trkpt>
      <trkpt lat="45.637199152261019" lon="7.394617153331637">
        <ele>2290</ele>
        <time>2012-08-28T12:57:55Z</time>
      </trkpt>
      <trkpt lat="45.637181466445327" lon="7.394554372876883">
        <ele>2290</ele>
        <time>2012-08-28T12:58:16Z</time>
      </trkpt>
      <trkpt lat="45.637186244130135" lon="7.394527969881892">
        <ele>2289.39990234375</ele>
        <time>2012-08-28T12:58:20Z</time>
      </trkpt>
      <trkpt lat="45.637215999886394" lon="7.394455801695585">
        <ele>2286.39990234375</ele>
        <time>2012-08-28T12:58:29Z</time>
      </trkpt>
      <trkpt lat="45.637231925502419" lon="7.394412299618125">
        <ele>2284.60009765625</ele>
        <time>2012-08-28T12:58:36Z</time>
      </trkpt>
      <trkpt lat="45.637239217758179" lon="7.394301993772388">
        <ele>2282.39990234375</ele>
        <time>2012-08-28T12:58:39Z</time>
      </trkpt>
      <trkpt lat="45.637241145595908" lon="7.394200740382075">
        <ele>2280.60009765625</ele>
        <time>2012-08-28T12:58:42Z</time>
      </trkpt>
      <trkpt lat="45.637254221364856" lon="7.394128572195768">
        <ele>2278.39990234375</ele>
        <time>2012-08-28T12:58:44Z</time>
      </trkpt>
      <trkpt lat="45.637231087312102" lon="7.393966382369399">
        <ele>2276</ele>
        <time>2012-08-28T12:58:47Z</time>
      </trkpt>
      <trkpt lat="45.637188507243991" lon="7.393818693235517">
        <ele>2275.199951171875</ele>
        <time>2012-08-28T12:58:51Z</time>
      </trkpt>
      <trkpt lat="45.637187417596579" lon="7.39379639737308">
        <ele>2274.800048828125</ele>
        <time>2012-08-28T12:58:52Z</time>
      </trkpt>
      <trkpt lat="45.637165289372206" lon="7.393688689917326">
        <ele>2273.800048828125</ele>
        <time>2012-08-28T12:58:56Z</time>
      </trkpt>
      <trkpt lat="45.637163780629635" lon="7.393660778179765">
        <ele>2273.199951171875</ele>
        <time>2012-08-28T12:58:57Z</time>
      </trkpt>
      <trkpt lat="45.637186411768198" lon="7.39361023530364">
        <ele>2270.39990234375</ele>
        <time>2012-08-28T12:59:00Z</time>
      </trkpt>
      <trkpt lat="45.637214072048664" lon="7.393499510362744">
        <ele>2265.800048828125</ele>
        <time>2012-08-28T12:59:04Z</time>
      </trkpt>
      <trkpt lat="45.637216502800584" lon="7.393453242257237">
        <ele>2264.60009765625</ele>
        <time>2012-08-28T12:59:06Z</time>
      </trkpt>
      <trkpt lat="45.637220190837979" lon="7.393417786806822">
        <ele>2263.60009765625</ele>
        <time>2012-08-28T12:59:09Z</time>
      </trkpt>
      <trkpt lat="45.637214323505759" lon="7.393294153735042">
        <ele>2261.199951171875</ele>
        <time>2012-08-28T12:59:14Z</time>
      </trkpt>
      <trkpt lat="45.6371845677495" lon="7.393137663602829">
        <ele>2260.199951171875</ele>
        <time>2012-08-28T12:59:18Z</time>
      </trkpt>
      <trkpt lat="45.637113153934479" lon="7.392961978912354">
        <ele>2261</ele>
        <time>2012-08-28T12:59:22Z</time>
      </trkpt>
      <trkpt lat="45.637074764817953" lon="7.392826778814197">
        <ele>2260.199951171875</ele>
        <time>2012-08-28T12:59:25Z</time>
      </trkpt>
      <trkpt lat="45.637072836980224" lon="7.392777409404516">
        <ele>2259</ele>
        <time>2012-08-28T12:59:26Z</time>
      </trkpt>
      <trkpt lat="45.637044757604599" lon="7.392564760521054">
        <ele>2255.199951171875</ele>
        <time>2012-08-28T12:59:29Z</time>
      </trkpt>
      <trkpt lat="45.637039477005601" lon="7.392518576234579">
        <ele>2254.199951171875</ele>
        <time>2012-08-28T12:59:30Z</time>
      </trkpt>
      <trkpt lat="45.637046853080392" lon="7.392457639798522">
        <ele>2252.60009765625</ele>
        <time>2012-08-28T12:59:32Z</time>
      </trkpt>
      <trkpt lat="45.637039057910442" lon="7.392295114696026">
        <ele>2249.800048828125</ele>
        <time>2012-08-28T12:59:37Z</time>
      </trkpt>
      <trkpt lat="45.637052049860358" lon="7.392086321488023">
        <ele>2245.199951171875</ele>
        <time>2012-08-28T12:59:42Z</time>
      </trkpt>
      <trkpt lat="45.637103347107768" lon="7.391816424205899">
        <ele>2238.199951171875</ele>
        <time>2012-08-28T12:59:46Z</time>
      </trkpt>
      <trkpt lat="45.637087253853679" lon="7.391586424782872">
        <ele>2235</ele>
        <time>2012-08-28T12:59:50Z</time>
      </trkpt>
      <trkpt lat="45.63706286251545" lon="7.391546107828617">
        <ele>2235.39990234375</ele>
        <time>2012-08-28T12:59:51Z</time>
      </trkpt>
      <trkpt lat="45.636975020170212" lon="7.391425659880042">
        <ele>2237.39990234375</ele>
        <time>2012-08-28T12:59:54Z</time>
      </trkpt>
      <trkpt lat="45.636955071240664" lon="7.391408225521445">
        <ele>2238</ele>
        <time>2012-08-28T12:59:55Z</time>
      </trkpt>
      <trkpt lat="45.636936547234654" lon="7.391345696523786">
        <ele>2238.199951171875</ele>
        <time>2012-08-28T12:59:57Z</time>
      </trkpt>
      <trkpt lat="45.636914502829313" lon="7.391134472563863">
        <ele>2237.199951171875</ele>
        <time>2012-08-28T13:00:03Z</time>
      </trkpt>
      <trkpt lat="45.636837556958199" lon="7.390981083735824">
        <ele>2239.199951171875</ele>
        <time>2012-08-28T13:00:06Z</time>
      </trkpt>
      <trkpt lat="45.636802688241005" lon="7.390772206708789">
        <ele>2239</ele>
        <time>2012-08-28T13:00:10Z</time>
      </trkpt>
      <trkpt lat="45.63674284145236" lon="7.390649076551199">
        <ele>2240.39990234375</ele>
        <time>2012-08-28T13:00:14Z</time>
      </trkpt>
      <trkpt lat="45.636739991605282" lon="7.390604484826326">
        <ele>2240</ele>
        <time>2012-08-28T13:00:15Z</time>
      </trkpt>
      <trkpt lat="45.636760191991925" lon="7.390472050756216">
        <ele>2237.800048828125</ele>
        <time>2012-08-28T13:00:18Z</time>
      </trkpt>
      <trkpt lat="45.636755498126149" lon="7.390283541753888">
        <ele>2236</ele>
        <time>2012-08-28T13:00:21Z</time>
      </trkpt>
      <trkpt lat="45.636717109009624" lon="7.390029653906822">
        <ele>2235</ele>
        <time>2012-08-28T13:00:25Z</time>
      </trkpt>
      <trkpt lat="45.636693136766553" lon="7.389888754114509">
        <ele>2233.60009765625</ele>
        <time>2012-08-28T13:00:29Z</time>
      </trkpt>
      <trkpt lat="45.636681066825986" lon="7.389833182096481">
        <ele>2233.199951171875</ele>
        <time>2012-08-28T13:00:32Z</time>
      </trkpt>
      <trkpt lat="45.636670840904117" lon="7.389789428561926">
        <ele>2232.800048828125</ele>
        <time>2012-08-28T13:00:36Z</time>
      </trkpt>
      <trkpt lat="45.636685928329825" lon="7.389718350023031">
        <ele>2230.800048828125</ele>
        <time>2012-08-28T13:00:41Z</time>
      </trkpt>
      <trkpt lat="45.636681485921144" lon="7.389555238187313">
        <ele>2227.800048828125</ele>
        <time>2012-08-28T13:00:46Z</time>
      </trkpt>
      <trkpt lat="45.63667293637991" lon="7.389358766376972">
        <ele>2224.39990234375</ele>
        <time>2012-08-28T13:00:50Z</time>
      </trkpt>
      <trkpt lat="45.636666314676404" lon="7.389142513275147">
        <ele>2220.60009765625</ele>
        <time>2012-08-28T13:00:54Z</time>
      </trkpt>
      <trkpt lat="45.636649215593934" lon="7.38899608142674">
        <ele>2219.199951171875</ele>
        <time>2012-08-28T13:00:58Z</time>
      </trkpt>
      <trkpt lat="45.636617783457041" lon="7.388810757547617">
        <ele>2218.39990234375</ele>
        <time>2012-08-28T13:01:03Z</time>
      </trkpt>
      <trkpt lat="45.636566067114472" lon="7.38857296295464">
        <ele>2218</ele>
        <time>2012-08-28T13:01:09Z</time>
      </trkpt>
      <trkpt lat="45.636492809280753" lon="7.388323685154319">
        <ele>2219.39990234375</ele>
        <time>2012-08-28T13:01:16Z</time>
      </trkpt>
      <trkpt lat="45.636470597237349" lon="7.3880051728338">
        <ele>2218.39990234375</ele>
        <time>2012-08-28T13:01:21Z</time>
      </trkpt>
      <trkpt lat="45.636496497318149" lon="7.387829571962357">
        <ele>2214.800048828125</ele>
        <time>2012-08-28T13:01:25Z</time>
      </trkpt>
      <trkpt lat="45.636506136506796" lon="7.387649863958359">
        <ele>2212.39990234375</ele>
        <time>2012-08-28T13:01:30Z</time>
      </trkpt>
      <trkpt lat="45.636514015495777" lon="7.387532265856862">
        <ele>2210.800048828125</ele>
        <time>2012-08-28T13:01:34Z</time>
      </trkpt>
      <trkpt lat="45.636464394629002" lon="7.387276533991098">
        <ele>2209.199951171875</ele>
        <time>2012-08-28T13:01:38Z</time>
      </trkpt>
      <trkpt lat="45.636409996077418" lon="7.386975456029177">
        <ele>2206.60009765625</ele>
        <time>2012-08-28T13:01:42Z</time>
      </trkpt>
      <trkpt lat="45.636410331353545" lon="7.386905550956726">
        <ele>2204.800048828125</ele>
        <time>2012-08-28T13:01:43Z</time>
      </trkpt>
      <trkpt lat="45.636397339403629" lon="7.386730033904314">
        <ele>2201.800048828125</ele>
        <time>2012-08-28T13:01:46Z</time>
      </trkpt>
      <trkpt lat="45.636391388252378" lon="7.386631797999144">
        <ele>2200</ele>
        <time>2012-08-28T13:01:49Z</time>
      </trkpt>
      <trkpt lat="45.636391052976251" lon="7.38660329952836">
        <ele>2199.39990234375</ele>
        <time>2012-08-28T13:01:50Z</time>
      </trkpt>
      <trkpt lat="45.636336905881763" lon="7.386362235993147">
        <ele>2197.800048828125</ele>
        <time>2012-08-28T13:01:54Z</time>
      </trkpt>
      <trkpt lat="45.636267168447375" lon="7.386118993163109">
        <ele>2197</ele>
        <time>2012-08-28T13:01:58Z</time>
      </trkpt>
      <trkpt lat="45.636241268366575" lon="7.386068869382143">
        <ele>2197.800048828125</ele>
        <time>2012-08-28T13:01:59Z</time>
      </trkpt>
      <trkpt lat="45.636205645278096" lon="7.385981110855937">
        <ele>2198</ele>
        <time>2012-08-28T13:02:01Z</time>
      </trkpt>
      <trkpt lat="45.636143870651722" lon="7.385856388136745">
        <ele>2199</ele>
        <time>2012-08-28T13:02:04Z</time>
      </trkpt>
      <trkpt lat="45.636139512062073" lon="7.385816155001521">
        <ele>2198.39990234375</ele>
        <time>2012-08-28T13:02:05Z</time>
      </trkpt>
      <trkpt lat="45.636126939207315" lon="7.385737365111709">
        <ele>2197.800048828125</ele>
        <time>2012-08-28T13:02:08Z</time>
      </trkpt>
      <trkpt lat="45.636162059381604" lon="7.38558741286397">
        <ele>2192.800048828125</ele>
        <time>2012-08-28T13:02:13Z</time>
      </trkpt>
      <trkpt lat="45.636139931157231" lon="7.385440645739436">
        <ele>2191.60009765625</ele>
        <time>2012-08-28T13:02:17Z</time>
      </trkpt>
      <trkpt lat="45.636104894801974" lon="7.385358922183514">
        <ele>2192.39990234375</ele>
        <time>2012-08-28T13:02:22Z</time>
      </trkpt>
      <trkpt lat="45.63608318567276" lon="7.385223638266325">
        <ele>2191.199951171875</ele>
        <time>2012-08-28T13:02:35Z</time>
      </trkpt>
      <trkpt lat="45.636086370795965" lon="7.385190865024924">
        <ele>2190.39990234375</ele>
        <time>2012-08-28T13:02:36Z</time>
      </trkpt>
      <trkpt lat="45.636078407987952" lon="7.385103777050972">
        <ele>2189.199951171875</ele>
        <time>2012-08-28T13:02:39Z</time>
      </trkpt>
      <trkpt lat="45.63607539050281" lon="7.38502205349505">
        <ele>2187.800048828125</ele>
        <time>2012-08-28T13:02:41Z</time>
      </trkpt>
      <trkpt lat="45.636038845404983" lon="7.384855253621936">
        <ele>2183</ele>
        <time>2012-08-28T13:02:45Z</time>
      </trkpt>
      <trkpt lat="45.635983105748892" lon="7.384657021611929">
        <ele>2176.39990234375</ele>
        <time>2012-08-28T13:02:49Z</time>
      </trkpt>
      <trkpt lat="45.63587162643671" lon="7.384461052715778">
        <ele>2169.800048828125</ele>
        <time>2012-08-28T13:02:53Z</time>
      </trkpt>
      <trkpt lat="45.635834243148565" lon="7.384338425472379">
        <ele>2163.60009765625</ele>
        <time>2012-08-28T13:02:56Z</time>
      </trkpt>
      <trkpt lat="45.635800212621689" lon="7.384259300306439">
        <ele>2159.39990234375</ele>
        <time>2012-08-28T13:03:00Z</time>
      </trkpt>
      <trkpt lat="45.635720835998654" lon="7.384123513475061">
        <ele>2153.199951171875</ele>
        <time>2012-08-28T13:03:03Z</time>
      </trkpt>
      <trkpt lat="45.635626707226038" lon="7.383921425789595">
        <ele>2147</ele>
        <time>2012-08-28T13:03:07Z</time>
      </trkpt>
      <trkpt lat="45.6355129648" lon="7.383796283975244">
        <ele>2143.199951171875</ele>
        <time>2012-08-28T13:03:11Z</time>
      </trkpt>
      <trkpt lat="45.635401653125882" lon="7.383824530988932">
        <ele>2144</ele>
        <time>2012-08-28T13:03:15Z</time>
      </trkpt>
      <trkpt lat="45.635327138006687" lon="7.383793853223324">
        <ele>2143</ele>
        <time>2012-08-28T13:03:17Z</time>
      </trkpt>
      <trkpt lat="45.63521976582706" lon="7.383719673380256">
        <ele>2140.199951171875</ele>
        <time>2012-08-28T13:03:19Z</time>
      </trkpt>
      <trkpt lat="45.635027233511209" lon="7.383621521294117">
        <ele>2136.199951171875</ele>
        <time>2012-08-28T13:03:23Z</time>
      </trkpt>
      <trkpt lat="45.63501013442874" lon="7.38361431285739">
        <ele>2135.800048828125</ele>
        <time>2012-08-28T13:03:24Z</time>
      </trkpt>
      <trkpt lat="45.634961519390345" lon="7.38359285518527">
        <ele>2134.800048828125</ele>
        <time>2012-08-28T13:03:26Z</time>
      </trkpt>
      <trkpt lat="45.634935284033418" lon="7.383472742512822">
        <ele>2130.199951171875</ele>
        <time>2012-08-28T13:03:30Z</time>
      </trkpt>
      <trkpt lat="45.63491290435195" lon="7.383413482457399">
        <ele>2127.800048828125</ele>
        <time>2012-08-28T13:03:32Z</time>
      </trkpt>
      <trkpt lat="45.634872252121568" lon="7.383304852992296">
        <ele>2123.60009765625</ele>
        <time>2012-08-28T13:03:35Z</time>
      </trkpt>
      <trkpt lat="45.634853644296527" lon="7.38326788879931">
        <ele>2122.60009765625</ele>
        <time>2012-08-28T13:03:37Z</time>
      </trkpt>
      <trkpt lat="45.634844591841102" lon="7.38323176279664">
        <ele>2121.39990234375</ele>
        <time>2012-08-28T13:03:39Z</time>
      </trkpt>
      <trkpt lat="45.634918604046106" lon="7.383227907121182">
        <ele>2121.800048828125</ele>
        <time>2012-08-28T13:03:42Z</time>
      </trkpt>
      <trkpt lat="45.634938217699528" lon="7.383228158578277">
        <ele>2121.800048828125</ele>
        <time>2012-08-28T13:03:43Z</time>
      </trkpt>
      <trkpt lat="45.634944839403033" lon="7.383224638178945">
        <ele>2121.800048828125</ele>
        <time>2012-08-28T13:03:44Z</time>
      </trkpt>
      <trkpt lat="45.634952215477824" lon="7.383216675370932">
        <ele>2121.60009765625</ele>
        <time>2012-08-28T13:03:46Z</time>
      </trkpt>
      <trkpt lat="45.634939642623067" lon="7.383142746984959">
        <ele>2119.39990234375</ele>
        <time>2012-08-28T13:03:55Z</time>
      </trkpt>
      <trkpt lat="45.634883064776659" lon="7.383053814992309">
        <ele>2116.39990234375</ele>
        <time>2012-08-28T13:03:59Z</time>
      </trkpt>
      <trkpt lat="45.6349275726825" lon="7.383025484159589">
        <ele>2116</ele>
        <time>2012-08-28T13:04:02Z</time>
      </trkpt>
      <trkpt lat="45.634953808039427" lon="7.382970498874784">
        <ele>2114.800048828125</ele>
        <time>2012-08-28T13:04:07Z</time>
      </trkpt>
      <trkpt lat="45.634912736713886" lon="7.382926493883133">
        <ele>2113</ele>
        <time>2012-08-28T13:04:10Z</time>
      </trkpt>
      <trkpt lat="45.634895553812385" lon="7.38290729932487">
        <ele>2112.199951171875</ele>
        <time>2012-08-28T13:04:11Z</time>
      </trkpt>
      <trkpt lat="45.63486504368484" lon="7.382869077846408">
        <ele>2110.800048828125</ele>
        <time>2012-08-28T13:04:13Z</time>
      </trkpt>
      <trkpt lat="45.634836880490184" lon="7.382834376767278">
        <ele>2109.199951171875</ele>
        <time>2012-08-28T13:04:15Z</time>
      </trkpt>
      <trkpt lat="45.634887088090181" lon="7.382810320705175">
        <ele>2109.39990234375</ele>
        <time>2012-08-28T13:04:19Z</time>
      </trkpt>
      <trkpt lat="45.634919190779328" lon="7.382785091176629">
        <ele>2109.199951171875</ele>
        <time>2012-08-28T13:04:22Z</time>
      </trkpt>
      <trkpt lat="45.634936960414052" lon="7.382772183045745">
        <ele>2109</ele>
        <time>2012-08-28T13:04:23Z</time>
      </trkpt>
      <trkpt lat="45.634968979284167" lon="7.382709654048085">
        <ele>2108</ele>
        <time>2012-08-28T13:04:27Z</time>
      </trkpt>
      <trkpt lat="45.634987084195018" lon="7.382705295458436">
        <ele>2108.199951171875</ele>
        <time>2012-08-28T13:04:28Z</time>
      </trkpt>
      <trkpt lat="45.635061180219054" lon="7.382698925212026">
        <ele>2108.60009765625</ele>
        <time>2012-08-28T13:04:32Z</time>
      </trkpt>
      <trkpt lat="45.635070065036416" lon="7.382660368457437">
        <ele>2107.800048828125</ele>
        <time>2012-08-28T13:04:34Z</time>
      </trkpt>
      <trkpt lat="45.635044500231743" lon="7.382575375959277">
        <ele>2105.39990234375</ele>
        <time>2012-08-28T13:04:38Z</time>
      </trkpt>
      <trkpt lat="45.635048439726233" lon="7.382560456171632">
        <ele>2105</ele>
        <time>2012-08-28T13:04:42Z</time>
      </trkpt>
      <trkpt lat="45.635058749467134" lon="7.382543105632067">
        <ele>2104.60009765625</ele>
        <time>2012-08-28T13:04:43Z</time>
      </trkpt>
      <trkpt lat="45.635113064199686" lon="7.382521564140916">
        <ele>2104.39990234375</ele>
        <time>2012-08-28T13:04:46Z</time>
      </trkpt>
      <trkpt lat="45.635135862976313" lon="7.382520139217377">
        <ele>2104.60009765625</ele>
        <time>2012-08-28T13:04:47Z</time>
      </trkpt>
      <trkpt lat="45.635161763057113" lon="7.382492730394006">
        <ele>2104</ele>
        <time>2012-08-28T13:04:49Z</time>
      </trkpt>
      <trkpt lat="45.635163187980652" lon="7.382468674331904">
        <ele>2103.39990234375</ele>
        <time>2012-08-28T13:04:50Z</time>
      </trkpt>
      <trkpt lat="45.635149022564292" lon="7.38235711120069">
        <ele>2100</ele>
        <time>2012-08-28T13:04:54Z</time>
      </trkpt>
      <trkpt lat="45.635107029229403" lon="7.382286032661796">
        <ele>2097.60009765625</ele>
        <time>2012-08-28T13:04:57Z</time>
      </trkpt>
      <trkpt lat="45.635089511051774" lon="7.382246637716889">
        <ele>2096.199951171875</ele>
        <time>2012-08-28T13:04:58Z</time>
      </trkpt>
      <trkpt lat="45.635072244331241" lon="7.382015213370323">
        <ele>2089.199951171875</ele>
        <time>2012-08-28T13:05:02Z</time>
      </trkpt>
      <trkpt lat="45.635059922933578" lon="7.381883868947625">
        <ele>2085</ele>
        <time>2012-08-28T13:05:06Z</time>
      </trkpt>
      <trkpt lat="45.635042656213045" lon="7.381880348548293">
        <ele>2084.60009765625</ele>
        <time>2012-08-28T13:05:41Z</time>
      </trkpt>
      <trkpt lat="45.635027065873146" lon="7.381874145939946">
        <ele>2084</ele>
        <time>2012-08-28T13:05:54Z</time>
      </trkpt>
      <trkpt lat="45.635004434734583" lon="7.381842462345958">
        <ele>2082.60009765625</ele>
        <time>2012-08-28T13:05:57Z</time>
      </trkpt>
      <trkpt lat="45.635002758353949" lon="7.381836008280516">
        <ele>2082.39990234375</ele>
        <time>2012-08-28T13:05:58Z</time>
      </trkpt>
      <trkpt lat="45.63500577583909" lon="7.3817746527493">
        <ele>2080.60009765625</ele>
        <time>2012-08-28T13:06:05Z</time>
      </trkpt>
      <trkpt lat="45.635002758353949" lon="7.381712878122926">
        <ele>2078.60009765625</ele>
        <time>2012-08-28T13:06:07Z</time>
      </trkpt>
      <trkpt lat="45.634953891858459" lon="7.381643559783697">
        <ele>2075.800048828125</ele>
        <time>2012-08-28T13:06:09Z</time>
      </trkpt>
      <trkpt lat="45.634783236309886" lon="7.381601482629776">
        <ele>2071.60009765625</ele>
        <time>2012-08-28T13:06:13Z</time>
      </trkpt>
      <trkpt lat="45.634732944890857" lon="7.381613971665502">
        <ele>2070.60009765625</ele>
        <time>2012-08-28T13:06:14Z</time>
      </trkpt>
      <trkpt lat="45.634581902995706" lon="7.381575834006071">
        <ele>2066.39990234375</ele>
        <time>2012-08-28T13:06:17Z</time>
      </trkpt>
      <trkpt lat="45.634550387039781" lon="7.381541300565004">
        <ele>2065.199951171875</ele>
        <time>2012-08-28T13:06:18Z</time>
      </trkpt>
      <trkpt lat="45.634493054822087" lon="7.381484722718597">
        <ele>2062.800048828125</ele>
        <time>2012-08-28T13:06:20Z</time>
      </trkpt>
      <trkpt lat="45.634367745369673" lon="7.381493356078863">
        <ele>2059.800048828125</ele>
        <time>2012-08-28T13:06:23Z</time>
      </trkpt>
      <trkpt lat="45.634258696809411" lon="7.381562339141965">
        <ele>2058.60009765625</ele>
        <time>2012-08-28T13:06:27Z</time>
      </trkpt>
      <trkpt lat="45.634256601333618" lon="7.381598884239793">
        <ele>2059.39990234375</ele>
        <time>2012-08-28T13:06:29Z</time>
      </trkpt>
      <trkpt lat="45.634258193895221" lon="7.38160315901041">
        <ele>2059.60009765625</ele>
        <time>2012-08-28T13:06:30Z</time>
      </trkpt>
      <trkpt lat="45.634315442293882" lon="7.381601398810744">
        <ele>2060.800048828125</ele>
        <time>2012-08-28T13:07:15Z</time>
      </trkpt>
      <trkpt lat="45.634312508627772" lon="7.381607685238123">
        <ele>2060.800048828125</ele>
        <time>2012-08-28T13:07:24Z</time>
      </trkpt>
      <trkpt lat="45.634288201108575" lon="7.381629981100559">
        <ele>2060.800048828125</ele>
        <time>2012-08-28T13:23:11Z</time>
      </trkpt>
      <trkpt lat="45.634279903024435" lon="7.381630903109908">
        <ele>2060.60009765625</ele>
        <time>2012-08-28T13:23:14Z</time>
      </trkpt>
      <trkpt lat="45.634273029863834" lon="7.381647415459156">
        <ele>2060.800048828125</ele>
        <time>2012-08-28T13:25:52Z</time>
      </trkpt>
      <trkpt lat="45.634257020428777" lon="7.381673566997051">
        <ele>2061.199951171875</ele>
        <time>2012-08-28T13:25:55Z</time>
      </trkpt>
      <trkpt lat="45.63424595631659" lon="7.381746824830771">
        <ele>2063</ele>
        <time>2012-08-28T13:26:09Z</time>
      </trkpt>
      <trkpt lat="45.634255763143301" lon="7.381768533959985">
        <ele>2063.800048828125</ele>
        <time>2012-08-28T13:26:16Z</time>
      </trkpt>
      <trkpt lat="45.634248303249478" lon="7.381844557821751">
        <ele>2066</ele>
        <time>2012-08-28T13:26:30Z</time>
      </trkpt>
      <trkpt lat="45.634245201945305" lon="7.38197447732091">
        <ele>2069.60009765625</ele>
        <time>2012-08-28T13:26:43Z</time>
      </trkpt>
      <trkpt lat="45.63421175815165" lon="7.382061146199703">
        <ele>2071.39990234375</ele>
        <time>2012-08-28T13:26:56Z</time>
      </trkpt>
      <trkpt lat="45.634188959375024" lon="7.382123759016395">
        <ele>2072.60009765625</ele>
        <time>2012-08-28T13:27:02Z</time>
      </trkpt>
      <trkpt lat="45.634170016273856" lon="7.382202548906207">
        <ele>2074.60009765625</ele>
        <time>2012-08-28T13:27:16Z</time>
      </trkpt>
      <trkpt lat="45.63414235599339" lon="7.382309334352613">
        <ele>2076.39990234375</ele>
        <time>2012-08-28T13:27:19Z</time>
      </trkpt>
      <trkpt lat="45.634128861129284" lon="7.382331630215049">
        <ele>2076.39990234375</ele>
        <time>2012-08-28T13:27:20Z</time>
      </trkpt>
      <trkpt lat="45.634127436205745" lon="7.382406564429402">
        <ele>2078.60009765625</ele>
        <time>2012-08-28T13:27:23Z</time>
      </trkpt>
      <trkpt lat="45.634126681834459" lon="7.382423831149936">
        <ele>2079</ele>
        <time>2012-08-28T13:27:25Z</time>
      </trkpt>
      <trkpt lat="45.634097680449486" lon="7.382424669340253">
        <ele>2077.800048828125</ele>
        <time>2012-08-28T13:27:30Z</time>
      </trkpt>
      <trkpt lat="45.634059123694897" lon="7.382457694038749">
        <ele>2077</ele>
        <time>2012-08-28T13:27:41Z</time>
      </trkpt>
      <trkpt lat="45.634051915258169" lon="7.382475128397346">
        <ele>2077.199951171875</ele>
        <time>2012-08-28T13:27:43Z</time>
      </trkpt>
      <trkpt lat="45.634003970772028" lon="7.382532209157944">
        <ele>2077.39990234375</ele>
        <time>2012-08-28T13:27:48Z</time>
      </trkpt>
      <trkpt lat="45.633976059034467" lon="7.382548218593001">
        <ele>2077</ele>
        <time>2012-08-28T13:27:53Z</time>
      </trkpt>
      <trkpt lat="45.633937334641814" lon="7.382494825869799">
        <ele>2072.60009765625</ele>
        <time>2012-08-28T13:28:04Z</time>
      </trkpt>
      <trkpt lat="45.63393515534699" lon="7.382414611056447">
        <ele>2070</ele>
        <time>2012-08-28T13:28:13Z</time>
      </trkpt>
      <trkpt lat="45.633963821455836" lon="7.382326852530241">
        <ele>2068.800048828125</ele>
        <time>2012-08-28T13:28:21Z</time>
      </trkpt>
      <trkpt lat="45.633957115933299" lon="7.382314447313547">
        <ele>2068</ele>
        <time>2012-08-28T13:28:22Z</time>
      </trkpt>
      <trkpt lat="45.63393079675734" lon="7.382334563881159">
        <ele>2067.39990234375</ele>
        <time>2012-08-28T13:28:25Z</time>
      </trkpt>
      <trkpt lat="45.63392786309123" lon="7.382342610508204">
        <ele>2067.60009765625</ele>
        <time>2012-08-28T13:28:26Z</time>
      </trkpt>
      <trkpt lat="45.633922498673201" lon="7.38235954195261">
        <ele>2067.800048828125</ele>
        <time>2012-08-28T13:28:30Z</time>
      </trkpt>
      <trkpt lat="45.633898610249162" lon="7.382387034595013">
        <ele>2067.60009765625</ele>
        <time>2012-08-28T13:28:36Z</time>
      </trkpt>
      <trkpt lat="45.633833147585392" lon="7.382416119799018">
        <ele>2065.60009765625</ele>
        <time>2012-08-28T13:28:41Z</time>
      </trkpt>
      <trkpt lat="45.63382912427187" lon="7.382414527237415">
        <ele>2065.39990234375</ele>
        <time>2012-08-28T13:28:42Z</time>
      </trkpt>
      <trkpt lat="45.633835159242153" lon="7.382380329072475">
        <ele>2064.39990234375</ele>
        <time>2012-08-28T13:28:46Z</time>
      </trkpt>
      <trkpt lat="45.633837338536978" lon="7.382353004068136">
        <ele>2063.800048828125</ele>
        <time>2012-08-28T13:28:47Z</time>
      </trkpt>
      <trkpt lat="45.633788974955678" lon="7.382239513099194">
        <ele>2057.800048828125</ele>
        <time>2012-08-28T13:28:52Z</time>
      </trkpt>
      <trkpt lat="45.633785286918283" lon="7.382145132869482">
        <ele>2054.60009765625</ele>
        <time>2012-08-28T13:28:56Z</time>
      </trkpt>
      <trkpt lat="45.633780006319284" lon="7.382122585549951">
        <ele>2053.800048828125</ele>
        <time>2012-08-28T13:28:57Z</time>
      </trkpt>
      <trkpt lat="45.63375880010426" lon="7.382080927491188">
        <ele>2051.39990234375</ele>
        <time>2012-08-28T13:28:59Z</time>
      </trkpt>
      <trkpt lat="45.633696774020791" lon="7.382073048502207">
        <ele>2048.199951171875</ele>
        <time>2012-08-28T13:29:02Z</time>
      </trkpt>
      <trkpt lat="45.633631059899926" lon="7.382144462317228">
        <ele>2047.4000244140625</ele>
        <time>2012-08-28T13:29:04Z</time>
      </trkpt>
      <trkpt lat="45.633597616106272" lon="7.382180923596025">
        <ele>2047</ele>
        <time>2012-08-28T13:29:05Z</time>
      </trkpt>
      <trkpt lat="45.633578253909945" lon="7.382235489785671">
        <ele>2048</ele>
        <time>2012-08-28T13:29:06Z</time>
      </trkpt>
      <trkpt lat="45.63351983204484" lon="7.382314195856452">
        <ele>2047.800048828125</ele>
        <time>2012-08-28T13:29:08Z</time>
      </trkpt>
      <trkpt lat="45.63343433663249" lon="7.382372282445431">
        <ele>2046</ele>
        <time>2012-08-28T13:29:11Z</time>
      </trkpt>
      <trkpt lat="45.633402653038502" lon="7.382393907755613">
        <ele>2045.4000244140625</ele>
        <time>2012-08-28T13:29:12Z</time>
      </trkpt>
      <trkpt lat="45.633245492354035" lon="7.382468255236745">
        <ele>2045.4000244140625</ele>
        <time>2012-08-28T13:29:18Z</time>
      </trkpt>
      <trkpt lat="45.633165612816811" lon="7.382451072335243">
        <ele>2045</ele>
        <time>2012-08-28T13:29:22Z</time>
      </trkpt>
      <trkpt lat="45.632584244012833" lon="7.382090818136931">
        <ele>2028.800048828125</ele>
        <time>2012-08-28T13:29:46Z</time>
      </trkpt>
      <trkpt lat="45.632549710571766" lon="7.382053351029754">
        <ele>2026.5999755859375</ele>
        <time>2012-08-28T13:29:48Z</time>
      </trkpt>
      <trkpt lat="45.632398752495646" lon="7.381979757919908">
        <ele>2021</ele>
        <time>2012-08-28T13:29:52Z</time>
      </trkpt>
      <trkpt lat="45.632352316752076" lon="7.381952432915568">
        <ele>2019</ele>
        <time>2012-08-28T13:29:54Z</time>
      </trkpt>
      <trkpt lat="45.632321555167437" lon="7.381929215043783">
        <ele>2017.5999755859375</ele>
        <time>2012-08-28T13:29:55Z</time>
      </trkpt>
      <trkpt lat="45.632181828841567" lon="7.381886886432767">
        <ele>2014.4000244140625</ele>
        <time>2012-08-28T13:29:58Z</time>
      </trkpt>
      <trkpt lat="45.63205492682755" lon="7.381910774856806">
        <ele>2014</ele>
        <time>2012-08-28T13:30:02Z</time>
      </trkpt>
      <trkpt lat="45.631929030641913" lon="7.381973387673497">
        <ele>2014.5999755859375</ele>
        <time>2012-08-28T13:30:06Z</time>
      </trkpt>
      <trkpt lat="45.631924169138074" lon="7.381896106526256">
        <ele>2012.199951171875</ele>
        <time>2012-08-28T13:30:08Z</time>
      </trkpt>
      <trkpt lat="45.631876811385155" lon="7.381853107362986">
        <ele>2010.5999755859375</ele>
        <time>2012-08-28T13:30:10Z</time>
      </trkpt>
      <trkpt lat="45.631755692884326" lon="7.381793092936277">
        <ele>2008.5999755859375</ele>
        <time>2012-08-28T13:30:14Z</time>
      </trkpt>
      <trkpt lat="45.631595347076654" lon="7.381728133186698">
        <ele>2007.800048828125</ele>
        <time>2012-08-28T13:30:17Z</time>
      </trkpt>
      <trkpt lat="45.631465008482337" lon="7.38173115067184">
        <ele>2009.4000244140625</ele>
        <time>2012-08-28T13:30:19Z</time>
      </trkpt>
      <trkpt lat="45.631396863609552" lon="7.381714219227433">
        <ele>2009.800048828125</ele>
        <time>2012-08-28T13:30:20Z</time>
      </trkpt>
      <trkpt lat="45.631330143660307" lon="7.381691420450807">
        <ele>2010.199951171875</ele>
        <time>2012-08-28T13:30:21Z</time>
      </trkpt>
      <trkpt lat="45.631194273009896" lon="7.381615061312914">
        <ele>2009.5999755859375</ele>
        <time>2012-08-28T13:30:23Z</time>
      </trkpt>
      <trkpt lat="45.631076591089368" lon="7.38148296251893">
        <ele>2006.5999755859375</ele>
        <time>2012-08-28T13:30:25Z</time>
      </trkpt>
      <trkpt lat="45.630987323820591" lon="7.381337452679873">
        <ele>2003</ele>
        <time>2012-08-28T13:30:27Z</time>
      </trkpt>
      <trkpt lat="45.630923956632614" lon="7.381192948669195">
        <ele>1999</ele>
        <time>2012-08-28T13:30:29Z</time>
      </trkpt>
      <trkpt lat="45.630864864215255" lon="7.381048360839486">
        <ele>1994.800048828125</ele>
        <time>2012-08-28T13:30:31Z</time>
      </trkpt>
      <trkpt lat="45.630809124559164" lon="7.380927409976721">
        <ele>1991.5999755859375</ele>
        <time>2012-08-28T13:30:33Z</time>
      </trkpt>
      <trkpt lat="45.630793366581202" lon="7.380887595936656">
        <ele>1990.5999755859375</ele>
        <time>2012-08-28T13:30:34Z</time>
      </trkpt>
      <trkpt lat="45.630735028535128" lon="7.380787348374724">
        <ele>1989</ele>
        <time>2012-08-28T13:30:38Z</time>
      </trkpt>
      <trkpt lat="45.630634110420942" lon="7.380691207945347">
        <ele>1988.800048828125</ele>
        <time>2012-08-28T13:30:42Z</time>
      </trkpt>
      <trkpt lat="45.630592033267021" lon="7.380610657855868">
        <ele>1987.5999755859375</ele>
        <time>2012-08-28T13:30:44Z</time>
      </trkpt>
      <trkpt lat="45.630522295832634" lon="7.38051937893033">
        <ele>1986.5999755859375</ele>
        <time>2012-08-28T13:30:46Z</time>
      </trkpt>
      <trkpt lat="45.630364967510104" lon="7.380291726440191">
        <ele>1983.5999755859375</ele>
        <time>2012-08-28T13:30:50Z</time>
      </trkpt>
      <trkpt lat="45.630290452390909" lon="7.38021151162684">
        <ele>1982.800048828125</ele>
        <time>2012-08-28T13:30:52Z</time>
      </trkpt>
      <trkpt lat="45.630243513733149" lon="7.380168093368411">
        <ele>1982.5999755859375</ele>
        <time>2012-08-28T13:30:54Z</time>
      </trkpt>
      <trkpt lat="45.630227169021964" lon="7.380159879103303">
        <ele>1982.5999755859375</ele>
        <time>2012-08-28T13:30:55Z</time>
      </trkpt>
      <trkpt lat="45.630155503749847" lon="7.380127860233188">
        <ele>1983</ele>
        <time>2012-08-28T13:30:58Z</time>
      </trkpt>
      <trkpt lat="45.630135722458363" lon="7.380121489986777">
        <ele>1983.199951171875</ele>
        <time>2012-08-28T13:30:59Z</time>
      </trkpt>
      <trkpt lat="45.630099764093757" lon="7.380125680938363">
        <ele>1983.800048828125</ele>
        <time>2012-08-28T13:31:03Z</time>
      </trkpt>
      <trkpt lat="45.630004126578569" lon="7.380113527178764">
        <ele>1985.199951171875</ele>
        <time>2012-08-28T13:31:07Z</time>
      </trkpt>
      <trkpt lat="45.629950230941176" lon="7.380127776414156">
        <ele>1985.800048828125</ele>
        <time>2012-08-28T13:31:09Z</time>
      </trkpt>
      <trkpt lat="45.629903459921479" lon="7.380182174965739">
        <ele>1987.4000244140625</ele>
        <time>2012-08-28T13:31:11Z</time>
      </trkpt>
      <trkpt lat="45.629811761900783" lon="7.380164489150047">
        <ele>1987.199951171875</ele>
        <time>2012-08-28T13:31:14Z</time>
      </trkpt>
      <trkpt lat="45.629634484648705" lon="7.380175469443202">
        <ele>1988</ele>
        <time>2012-08-28T13:31:18Z</time>
      </trkpt>
      <trkpt lat="45.629565166309476" lon="7.380136325955391">
        <ele>1986.800048828125</ele>
        <time>2012-08-28T13:31:20Z</time>
      </trkpt>
      <trkpt lat="45.629514707252383" lon="7.380071533843875">
        <ele>1984.5999755859375</ele>
        <time>2012-08-28T13:31:22Z</time>
      </trkpt>
      <trkpt lat="45.62941730953753" lon="7.379966424778104">
        <ele>1981</ele>
        <time>2012-08-28T13:31:26Z</time>
      </trkpt>
      <trkpt lat="45.629406161606312" lon="7.37993935123086">
        <ele>1980.4000244140625</ele>
        <time>2012-08-28T13:31:27Z</time>
      </trkpt>
      <trkpt lat="45.629376154392958" lon="7.379898279905319">
        <ele>1979.199951171875</ele>
        <time>2012-08-28T13:31:30Z</time>
      </trkpt>
      <trkpt lat="45.629335083067417" lon="7.379935663193464">
        <ele>1980.199951171875</ele>
        <time>2012-08-28T13:31:34Z</time>
      </trkpt>
      <trkpt lat="45.629265261813998" lon="7.379882438108325">
        <ele>1978.800048828125</ele>
        <time>2012-08-28T13:31:38Z</time>
      </trkpt>
      <trkpt lat="45.629239529371262" lon="7.379858633503318">
        <ele>1978</ele>
        <time>2012-08-28T13:31:39Z</time>
      </trkpt>
      <trkpt lat="45.629186974838376" lon="7.379719326272607">
        <ele>1974.199951171875</ele>
        <time>2012-08-28T13:31:43Z</time>
      </trkpt>
      <trkpt lat="45.62917591072619" lon="7.379663670435548">
        <ele>1972.800048828125</ele>
        <time>2012-08-28T13:31:48Z</time>
      </trkpt>
      <trkpt lat="45.629162415862083" lon="7.379575073719025">
        <ele>1970.199951171875</ele>
        <time>2012-08-28T13:31:54Z</time>
      </trkpt>
      <trkpt lat="45.629131821915507" lon="7.379399556666613">
        <ele>1965.199951171875</ele>
        <time>2012-08-28T13:31:59Z</time>
      </trkpt>
      <trkpt lat="45.629132995381951" lon="7.379346080124378">
        <ele>1963.800048828125</ele>
        <time>2012-08-28T13:32:00Z</time>
      </trkpt>
      <trkpt lat="45.629130564630032" lon="7.379187494516373">
        <ele>1959.4000244140625</ele>
        <time>2012-08-28T13:32:02Z</time>
      </trkpt>
      <trkpt lat="45.629144981503487" lon="7.379049696028233">
        <ele>1956.4000244140625</ele>
        <time>2012-08-28T13:32:05Z</time>
      </trkpt>
      <trkpt lat="45.629110364243388" lon="7.378878789022565">
        <ele>1952.800048828125</ele>
        <time>2012-08-28T13:32:10Z</time>
      </trkpt>
      <trkpt lat="45.629089996218681" lon="7.378723891451955">
        <ele>1949.5999755859375</ele>
        <time>2012-08-28T13:32:14Z</time>
      </trkpt>
      <trkpt lat="45.629038196057081" lon="7.378631103783846">
        <ele>1947.4000244140625</ele>
        <time>2012-08-28T13:32:17Z</time>
      </trkpt>
      <trkpt lat="45.629012212157249" lon="7.378617776557803">
        <ele>1947</ele>
        <time>2012-08-28T13:32:18Z</time>
      </trkpt>
      <trkpt lat="45.628899559378624" lon="7.378519540652633">
        <ele>1944.4000244140625</ele>
        <time>2012-08-28T13:32:22Z</time>
      </trkpt>
      <trkpt lat="45.628875251859426" lon="7.378489030525088">
        <ele>1943.5999755859375</ele>
        <time>2012-08-28T13:32:23Z</time>
      </trkpt>
      <trkpt lat="45.628753378987312" lon="7.378366906195879">
        <ele>1940.5999755859375</ele>
        <time>2012-08-28T13:32:26Z</time>
      </trkpt>
      <trkpt lat="45.628599571064115" lon="7.3782345559448">
        <ele>1938.4000244140625</ele>
        <time>2012-08-28T13:32:29Z</time>
      </trkpt>
      <trkpt lat="45.628547267988324" lon="7.378178983926773">
        <ele>1937.800048828125</ele>
        <time>2012-08-28T13:32:30Z</time>
      </trkpt>
      <trkpt lat="45.628409553319216" lon="7.377999695017934">
        <ele>1935.4000244140625</ele>
        <time>2012-08-28T13:32:34Z</time>
      </trkpt>
      <trkpt lat="45.628376444801688" lon="7.377934232354164">
        <ele>1934.4000244140625</ele>
        <time>2012-08-28T13:32:37Z</time>
      </trkpt>
      <trkpt lat="45.628340318799019" lon="7.377905063331127">
        <ele>1934</ele>
        <time>2012-08-28T13:32:38Z</time>
      </trkpt>
      <trkpt lat="45.628309892490506" lon="7.377850916236639">
        <ele>1933.4000244140625</ele>
        <time>2012-08-28T13:32:39Z</time>
      </trkpt>
      <trkpt lat="45.628289775922894" lon="7.377792578190565">
        <ele>1932.800048828125</ele>
        <time>2012-08-28T13:32:40Z</time>
      </trkpt>
      <trkpt lat="45.62828566879034" lon="7.377592753618956">
        <ele>1931</ele>
        <time>2012-08-28T13:32:43Z</time>
      </trkpt>
      <trkpt lat="45.62828122638166" lon="7.377527290955186">
        <ele>1930.199951171875</ele>
        <time>2012-08-28T13:32:44Z</time>
      </trkpt>
      <trkpt lat="45.628263037651777" lon="7.377220764756203">
        <ele>1929.199951171875</ele>
        <time>2012-08-28T13:32:47Z</time>
      </trkpt>
      <trkpt lat="45.628307210281491" lon="7.376973833888769">
        <ele>1929</ele>
        <time>2012-08-28T13:32:50Z</time>
      </trkpt>
      <trkpt lat="45.628313161432743" lon="7.376901581883431">
        <ele>1929</ele>
        <time>2012-08-28T13:32:51Z</time>
      </trkpt>
      <trkpt lat="45.628296565264463" lon="7.376617100089788">
        <ele>1928.800048828125</ele>
        <time>2012-08-28T13:32:55Z</time>
      </trkpt>
      <trkpt lat="45.62829589471221" lon="7.376402774825692">
        <ele>1931</ele>
        <time>2012-08-28T13:32:59Z</time>
      </trkpt>
      <trkpt lat="45.628305869176984" lon="7.376348627731204">
        <ele>1931.800048828125</ele>
        <time>2012-08-28T13:33:00Z</time>
      </trkpt>
      <trkpt lat="45.628313580527902" lon="7.376126758754253">
        <ele>1934.4000244140625</ele>
        <time>2012-08-28T13:33:05Z</time>
      </trkpt>
      <trkpt lat="45.628301510587335" lon="7.375918384641409">
        <ele>1936.199951171875</ele>
        <time>2012-08-28T13:33:11Z</time>
      </trkpt>
      <trkpt lat="45.628284411504865" lon="7.375861722975969">
        <ele>1936.199951171875</ele>
        <time>2012-08-28T13:33:13Z</time>
      </trkpt>
      <trkpt lat="45.628235125914216" lon="7.375787124037743">
        <ele>1936.5999755859375</ele>
        <time>2012-08-28T13:33:16Z</time>
      </trkpt>
      <trkpt lat="45.628214506432414" lon="7.375725265592337">
        <ele>1938.199951171875</ele>
        <time>2012-08-28T13:33:18Z</time>
      </trkpt>
      <trkpt lat="45.628184331580997" lon="7.375666340813041">
        <ele>1939.199951171875</ele>
        <time>2012-08-28T13:33:20Z</time>
      </trkpt>
      <trkpt lat="45.628124065697193" lon="7.375528290867806">
        <ele>1941.800048828125</ele>
        <time>2012-08-28T13:33:24Z</time>
      </trkpt>
      <trkpt lat="45.628025745972991" lon="7.375349923968315">
        <ele>1943.4000244140625</ele>
        <time>2012-08-28T13:33:29Z</time>
      </trkpt>
      <trkpt lat="45.62788694165647" lon="7.37512637861073">
        <ele>1943.4000244140625</ele>
        <time>2012-08-28T13:33:34Z</time>
      </trkpt>
      <trkpt lat="45.627768924459815" lon="7.374988328665495">
        <ele>1941</ele>
        <time>2012-08-28T13:33:39Z</time>
      </trkpt>
      <trkpt lat="45.627647470682859" lon="7.374871904030442">
        <ele>1939.4000244140625</ele>
        <time>2012-08-28T13:33:44Z</time>
      </trkpt>
      <trkpt lat="45.627529453486204" lon="7.374760089442134">
        <ele>1937.199951171875</ele>
        <time>2012-08-28T13:33:49Z</time>
      </trkpt>
      <trkpt lat="45.627429792657495" lon="7.374646682292223">
        <ele>1937.800048828125</ele>
        <time>2012-08-28T13:33:54Z</time>
      </trkpt>
      <trkpt lat="45.627282606437802" lon="7.37454098649323">
        <ele>1937</ele>
        <time>2012-08-28T13:33:58Z</time>
      </trkpt>
      <trkpt lat="45.627195183187723" lon="7.374398577958345">
        <ele>1938.800048828125</ele>
        <time>2012-08-28T13:34:03Z</time>
      </trkpt>
      <trkpt lat="45.627106251195073" lon="7.374269077554345">
        <ele>1939.4000244140625</ele>
        <time>2012-08-28T13:34:07Z</time>
      </trkpt>
      <trkpt lat="45.626965435221791" lon="7.374173859134316">
        <ele>1936.4000244140625</ele>
        <time>2012-08-28T13:34:12Z</time>
      </trkpt>
      <trkpt lat="45.626807101070881" lon="7.374072019010782">
        <ele>1933.5999755859375</ele>
        <time>2012-08-28T13:34:17Z</time>
      </trkpt>
      <trkpt lat="45.626766951754689" lon="7.374047292396426">
        <ele>1932.5999755859375</ele>
        <time>2012-08-28T13:34:19Z</time>
      </trkpt>
      <trkpt lat="45.626722946763039" lon="7.37400840036571">
        <ele>1932</ele>
        <time>2012-08-28T13:34:21Z</time>
      </trkpt>
      <trkpt lat="45.626661339774728" lon="7.373915193602443">
        <ele>1932.5999755859375</ele>
        <time>2012-08-28T13:34:24Z</time>
      </trkpt>
      <trkpt lat="45.626620519906282" lon="7.373866410925984">
        <ele>1933.5999755859375</ele>
        <time>2012-08-28T13:34:26Z</time>
      </trkpt>
      <trkpt lat="45.626513818278909" lon="7.373802037909627">
        <ele>1933.5999755859375</ele>
        <time>2012-08-28T13:34:31Z</time>
      </trkpt>
      <trkpt lat="45.626429747790098" lon="7.373769683763385">
        <ele>1932.800048828125</ele>
        <time>2012-08-28T13:34:35Z</time>
      </trkpt>
      <trkpt lat="45.626407451927662" lon="7.373744621872902">
        <ele>1933</ele>
        <time>2012-08-28T13:34:36Z</time>
      </trkpt>
      <trkpt lat="45.62638046219945" lon="7.373655354604125">
        <ele>1935</ele>
        <time>2012-08-28T13:34:38Z</time>
      </trkpt>
      <trkpt lat="45.626317011192441" lon="7.373467180877924">
        <ele>1938.5999755859375</ele>
        <time>2012-08-28T13:34:43Z</time>
      </trkpt>
      <trkpt lat="45.626257499679923" lon="7.373269032686949">
        <ele>1944</ele>
        <time>2012-08-28T13:34:48Z</time>
      </trkpt>
      <trkpt lat="45.626161275431514" lon="7.373142130672932">
        <ele>1947.5999755859375</ele>
        <time>2012-08-28T13:34:51Z</time>
      </trkpt>
      <trkpt lat="45.625990368425846" lon="7.373057641088963">
        <ele>1944.4000244140625</ele>
        <time>2012-08-28T13:34:54Z</time>
      </trkpt>
      <trkpt lat="45.625903615728021" lon="7.373012881726027">
        <ele>1942.199951171875</ele>
        <time>2012-08-28T13:34:56Z</time>
      </trkpt>
      <trkpt lat="45.62583857215941" lon="7.372947754338384">
        <ele>1941.5999755859375</ele>
        <time>2012-08-28T13:34:58Z</time>
      </trkpt>
      <trkpt lat="45.625751819461584" lon="7.372864857316017">
        <ele>1944.800048828125</ele>
        <time>2012-08-28T13:35:01Z</time>
      </trkpt>
      <trkpt lat="45.625683087855577" lon="7.372805094346404">
        <ele>1947</ele>
        <time>2012-08-28T13:35:03Z</time>
      </trkpt>
      <trkpt lat="45.625475635752082" lon="7.372727897018194">
        <ele>1949.199951171875</ele>
        <time>2012-08-28T13:35:09Z</time>
      </trkpt>
      <trkpt lat="45.625374549999833" lon="7.372731082141399">
        <ele>1949</ele>
        <time>2012-08-28T13:35:12Z</time>
      </trkpt>
      <trkpt lat="45.625347811728716" lon="7.372762514278293">
        <ele>1948.4000244140625</ele>
        <time>2012-08-28T13:35:13Z</time>
      </trkpt>
      <trkpt lat="45.62533431686461" lon="7.372862426564097">
        <ele>1946.4000244140625</ele>
        <time>2012-08-28T13:35:17Z</time>
      </trkpt>
      <trkpt lat="45.625341860577464" lon="7.372852871194482">
        <ele>1946.5999755859375</ele>
        <time>2012-08-28T13:35:18Z</time>
      </trkpt>
      <trkpt lat="45.625346973538399" lon="7.372902408242226">
        <ele>1945.5999755859375</ele>
        <time>2012-08-28T13:35:22Z</time>
      </trkpt>
      <trkpt lat="45.625336831435561" lon="7.3729607462883">
        <ele>1944.5999755859375</ele>
        <time>2012-08-28T13:35:27Z</time>
      </trkpt>
      <trkpt lat="45.62532065436244" lon="7.373024448752403">
        <ele>1943.5999755859375</ele>
        <time>2012-08-28T13:35:32Z</time>
      </trkpt>
      <trkpt lat="45.625317469239235" lon="7.37309904769063">
        <ele>1942.4000244140625</ele>
        <time>2012-08-28T13:35:38Z</time>
      </trkpt>
      <trkpt lat="45.625313948839903" lon="7.373109944164753">
        <ele>1942.199951171875</ele>
        <time>2012-08-28T13:35:39Z</time>
      </trkpt>
      <trkpt lat="45.625287545844913" lon="7.373151602223516">
        <ele>1941.800048828125</ele>
        <time>2012-08-28T13:35:43Z</time>
      </trkpt>
      <trkpt lat="45.625273045152426" lon="7.373199881985784">
        <ele>1941.199951171875</ele>
        <time>2012-08-28T13:35:47Z</time>
      </trkpt>
      <trkpt lat="45.625247396528721" lon="7.373288478702307">
        <ele>1940.4000244140625</ele>
        <time>2012-08-28T13:35:54Z</time>
      </trkpt>
      <trkpt lat="45.62522049061954" lon="7.373391157016158">
        <ele>1939.4000244140625</ele>
        <time>2012-08-28T13:36:02Z</time>
      </trkpt>
      <trkpt lat="45.625185118988156" lon="7.373469863086939">
        <ele>1939</ele>
        <time>2012-08-28T13:36:08Z</time>
      </trkpt>
      <trkpt lat="45.625169696286321" lon="7.37357790581882">
        <ele>1937.800048828125</ele>
        <time>2012-08-28T13:36:16Z</time>
      </trkpt>
      <trkpt lat="45.625123009085655" lon="7.373662814497948">
        <ele>1937.5999755859375</ele>
        <time>2012-08-28T13:36:24Z</time>
      </trkpt>
      <trkpt lat="45.625092750415206" lon="7.373754009604454">
        <ele>1936.800048828125</ele>
        <time>2012-08-28T13:36:32Z</time>
      </trkpt>
      <trkpt lat="45.625059138983488" lon="7.373790387064219">
        <ele>1937.199951171875</ele>
        <time>2012-08-28T13:36:36Z</time>
      </trkpt>
      <trkpt lat="45.625020246952772" lon="7.373817460611463">
        <ele>1937.5999755859375</ele>
        <time>2012-08-28T13:36:40Z</time>
      </trkpt>
      <trkpt lat="45.62496836297214" lon="7.37384956330061">
        <ele>1937.800048828125</ele>
        <time>2012-08-28T13:36:46Z</time>
      </trkpt>
      <trkpt lat="45.624961657449603" lon="7.373849730938673">
        <ele>1937.800048828125</ele>
        <time>2012-08-28T13:36:47Z</time>
      </trkpt>
      <trkpt lat="45.624898038804531" lon="7.373893233016133">
        <ele>1937.4000244140625</ele>
        <time>2012-08-28T13:36:54Z</time>
      </trkpt>
      <trkpt lat="45.624855877831578" lon="7.373926006257534">
        <ele>1937</ele>
        <time>2012-08-28T13:36:59Z</time>
      </trkpt>
      <trkpt lat="45.6248271279037" lon="7.373946961015463">
        <ele>1936.5999755859375</ele>
        <time>2012-08-28T13:37:01Z</time>
      </trkpt>
      <trkpt lat="45.624658484011889" lon="7.373936232179403">
        <ele>1937.4000244140625</ele>
        <time>2012-08-28T13:37:08Z</time>
      </trkpt>
      <trkpt lat="45.624514650553465" lon="7.373925503343344">
        <ele>1938</ele>
        <time>2012-08-28T13:37:13Z</time>
      </trkpt>
      <trkpt lat="45.624358998611569" lon="7.373951319605112">
        <ele>1937.800048828125</ele>
        <time>2012-08-28T13:37:18Z</time>
      </trkpt>
      <trkpt lat="45.624223798513412" lon="7.374010076746345">
        <ele>1936.199951171875</ele>
        <time>2012-08-28T13:37:24Z</time>
      </trkpt>
      <trkpt lat="45.624130005016923" lon="7.374053997918963">
        <ele>1934.4000244140625</ele>
        <time>2012-08-28T13:37:28Z</time>
      </trkpt>
      <trkpt lat="45.624106451869011" lon="7.374071767553687">
        <ele>1933.800048828125</ele>
        <time>2012-08-28T13:37:29Z</time>
      </trkpt>
      <trkpt lat="45.623921547085047" lon="7.374150641262531">
        <ele>1929.4000244140625</ele>
        <time>2012-08-28T13:37:33Z</time>
      </trkpt>
      <trkpt lat="45.623884834349155" lon="7.374157095327973">
        <ele>1929</ele>
        <time>2012-08-28T13:37:34Z</time>
      </trkpt>
      <trkpt lat="45.623781820759177" lon="7.374196574091911">
        <ele>1926.4000244140625</ele>
        <time>2012-08-28T13:37:37Z</time>
      </trkpt>
      <trkpt lat="45.623627090826631" lon="7.374216774478555">
        <ele>1924.199951171875</ele>
        <time>2012-08-28T13:37:41Z</time>
      </trkpt>
      <trkpt lat="45.623461632058024" lon="7.374218367040157">
        <ele>1922.800048828125</ele>
        <time>2012-08-28T13:37:44Z</time>
      </trkpt>
      <trkpt lat="45.623332215473056" lon="7.374208811670542">
        <ele>1922.199951171875</ele>
        <time>2012-08-28T13:37:46Z</time>
      </trkpt>
      <trkpt lat="45.623226352035999" lon="7.374200178310275">
        <ele>1920</ele>
        <time>2012-08-28T13:37:48Z</time>
      </trkpt>
      <trkpt lat="45.623100623488426" lon="7.374202106148005">
        <ele>1917</ele>
        <time>2012-08-28T13:37:50Z</time>
      </trkpt>
      <trkpt lat="45.623020911589265" lon="7.374193808063865">
        <ele>1915.4000244140625</ele>
        <time>2012-08-28T13:37:52Z</time>
      </trkpt>
      <trkpt lat="45.622854446992278" lon="7.374143935739994">
        <ele>1913.4000244140625</ele>
        <time>2012-08-28T13:37:57Z</time>
      </trkpt>
      <trkpt lat="45.622742297127843" lon="7.37408216111362">
        <ele>1913.199951171875</ele>
        <time>2012-08-28T13:38:01Z</time>
      </trkpt>
      <trkpt lat="45.622629225254059" lon="7.373959952965379">
        <ele>1915.5999755859375</ele>
        <time>2012-08-28T13:38:05Z</time>
      </trkpt>
      <trkpt lat="45.622562002390623" lon="7.373898094519973">
        <ele>1916.5999755859375</ele>
        <time>2012-08-28T13:38:07Z</time>
      </trkpt>
      <trkpt lat="45.622377013787627" lon="7.373772617429495">
        <ele>1915.800048828125</ele>
        <time>2012-08-28T13:38:12Z</time>
      </trkpt>
      <trkpt lat="45.62216117978096" lon="7.373594837263227">
        <ele>1915.5999755859375</ele>
        <time>2012-08-28T13:38:18Z</time>
      </trkpt>
      <trkpt lat="45.622127400711179" lon="7.373563153669238">
        <ele>1915.800048828125</ele>
        <time>2012-08-28T13:38:19Z</time>
      </trkpt>
      <trkpt lat="45.621979795396328" lon="7.373499618843198">
        <ele>1913.199951171875</ele>
        <time>2012-08-28T13:38:23Z</time>
      </trkpt>
      <trkpt lat="45.621775025501847" lon="7.373465169221163">
        <ele>1907.5999755859375</ele>
        <time>2012-08-28T13:38:29Z</time>
      </trkpt>
      <trkpt lat="45.621752226725221" lon="7.373483274132013">
        <ele>1905.800048828125</ele>
        <time>2012-08-28T13:38:30Z</time>
      </trkpt>
      <trkpt lat="45.621641669422388" lon="7.373496349900961">
        <ele>1900.800048828125</ele>
        <time>2012-08-28T13:38:33Z</time>
      </trkpt>
      <trkpt lat="45.621567321941257" lon="7.37345427274704">
        <ele>1899</ele>
        <time>2012-08-28T13:38:37Z</time>
      </trkpt>
      <trkpt lat="45.621572183445096" lon="7.373451422899962">
        <ele>1899.199951171875</ele>
        <time>2012-08-28T13:38:41Z</time>
      </trkpt>
      <trkpt lat="45.621517868712544" lon="7.373404316604137">
        <ele>1898.5999755859375</ele>
        <time>2012-08-28T13:38:46Z</time>
      </trkpt>
      <trkpt lat="45.621429271996021" lon="7.373279593884945">
        <ele>1898.5999755859375</ele>
        <time>2012-08-28T13:38:52Z</time>
      </trkpt>
      <trkpt lat="45.62130899168551" lon="7.373070800676942">
        <ele>1898.5999755859375</ele>
        <time>2012-08-28T13:38:57Z</time>
      </trkpt>
      <trkpt lat="45.621174713596702" lon="7.372801573947072">
        <ele>1900.5999755859375</ele>
        <time>2012-08-28T13:39:01Z</time>
      </trkpt>
      <trkpt lat="45.62099332921207" lon="7.372445007786155">
        <ele>1903.800048828125</ele>
        <time>2012-08-28T13:39:05Z</time>
      </trkpt>
      <trkpt lat="45.620813369750977" lon="7.372186928987503">
        <ele>1901.800048828125</ele>
        <time>2012-08-28T13:39:09Z</time>
      </trkpt>
      <trkpt lat="45.620747236534953" lon="7.37214476801455">
        <ele>1899.199951171875</ele>
        <time>2012-08-28T13:39:11Z</time>
      </trkpt>
      <trkpt lat="45.620700214058161" lon="7.372134458273649">
        <ele>1897</ele>
        <time>2012-08-28T13:39:12Z</time>
      </trkpt>
      <trkpt lat="45.620593428611755" lon="7.372016105800867">
        <ele>1894.5999755859375</ele>
        <time>2012-08-28T13:39:15Z</time>
      </trkpt>
      <trkpt lat="45.620515560731292" lon="7.371933292597532">
        <ele>1893</ele>
        <time>2012-08-28T13:39:17Z</time>
      </trkpt>
      <trkpt lat="45.620412547141314" lon="7.371799265965819">
        <ele>1892</ele>
        <time>2012-08-28T13:39:20Z</time>
      </trkpt>
      <trkpt lat="45.620186654850841" lon="7.371509335935116">
        <ele>1892</ele>
        <time>2012-08-28T13:39:25Z</time>
      </trkpt>
      <trkpt lat="45.620040809735656" lon="7.371328035369515">
        <ele>1892.4000244140625</ele>
        <time>2012-08-28T13:39:29Z</time>
      </trkpt>
      <trkpt lat="45.620015328750014" lon="7.371306577697396">
        <ele>1892</ele>
        <time>2012-08-28T13:39:30Z</time>
      </trkpt>
      <trkpt lat="45.619931174442172" lon="7.371194344013929">
        <ele>1891.5999755859375</ele>
        <time>2012-08-28T13:39:33Z</time>
      </trkpt>
      <trkpt lat="45.619882391765714" lon="7.371102394536138">
        <ele>1892.199951171875</ele>
        <time>2012-08-28T13:39:35Z</time>
      </trkpt>
      <trkpt lat="45.619791867211461" lon="7.370981359854341">
        <ele>1891.5999755859375</ele>
        <time>2012-08-28T13:39:38Z</time>
      </trkpt>
      <trkpt lat="45.619588438421488" lon="7.370710540562868">
        <ele>1888.4000244140625</ele>
        <time>2012-08-28T13:39:44Z</time>
      </trkpt>
      <trkpt lat="45.61957485973835" lon="7.370663601905108">
        <ele>1888.800048828125</ele>
        <time>2012-08-28T13:39:45Z</time>
      </trkpt>
      <trkpt lat="45.619542002677917" lon="7.370627894997597">
        <ele>1887.800048828125</ele>
        <time>2012-08-28T13:39:47Z</time>
      </trkpt>
      <trkpt lat="45.619508139789104" lon="7.370577603578568">
        <ele>1887.199951171875</ele>
        <time>2012-08-28T13:39:49Z</time>
      </trkpt>
      <trkpt lat="45.619460362941027" lon="7.370492275804281">
        <ele>1886.5999755859375</ele>
        <time>2012-08-28T13:39:52Z</time>
      </trkpt>
      <trkpt lat="45.619386769831181" lon="7.370375599712133">
        <ele>1885.5999755859375</ele>
        <time>2012-08-28T13:39:55Z</time>
      </trkpt>
      <trkpt lat="45.619382746517658" lon="7.370368810370565">
        <ele>1885.4000244140625</ele>
        <time>2012-08-28T13:39:58Z</time>
      </trkpt>
      <trkpt lat="45.61939800158143" lon="7.370342407375574">
        <ele>1887</ele>
        <time>2012-08-28T13:40:20Z</time>
      </trkpt>
      <trkpt lat="45.6194082275033" lon="7.370341653004289">
        <ele>1887.5999755859375</ele>
        <time>2012-08-28T13:40:45Z</time>
      </trkpt>
      <trkpt lat="45.619406718760729" lon="7.370326900854707">
        <ele>1888</ele>
        <time>2012-08-28T13:40:46Z</time>
      </trkpt>
      <trkpt lat="45.619375873357058" lon="7.370257247239351">
        <ele>1888.199951171875</ele>
        <time>2012-08-28T13:40:50Z</time>
      </trkpt>
      <trkpt lat="45.619301693513989" lon="7.370118107646704">
        <ele>1887.800048828125</ele>
        <time>2012-08-28T13:40:54Z</time>
      </trkpt>
      <trkpt lat="45.619287611916661" lon="7.370067732408643">
        <ele>1888.5999755859375</ele>
        <time>2012-08-28T13:40:55Z</time>
      </trkpt>
      <trkpt lat="45.619281409308314" lon="7.369968825951219">
        <ele>1890</ele>
        <time>2012-08-28T13:40:57Z</time>
      </trkpt>
      <trkpt lat="45.619264729321003" lon="7.369807222858071">
        <ele>1888.800048828125</ele>
        <time>2012-08-28T13:41:01Z</time>
      </trkpt>
      <trkpt lat="45.61925726942718" lon="7.369763636961579">
        <ele>1888.4000244140625</ele>
        <time>2012-08-28T13:41:02Z</time>
      </trkpt>
      <trkpt lat="45.619264142587781" lon="7.369581749662757">
        <ele>1888.4000244140625</ele>
        <time>2012-08-28T13:41:06Z</time>
      </trkpt>
      <trkpt lat="45.619213012978435" lon="7.369356360286474">
        <ele>1885.4000244140625</ele>
        <time>2012-08-28T13:41:09Z</time>
      </trkpt>
      <trkpt lat="45.619231536984444" lon="7.36909375526011">
        <ele>1885.5999755859375</ele>
        <time>2012-08-28T13:41:13Z</time>
      </trkpt>
      <trkpt lat="45.619223574176431" lon="7.368886806070805">
        <ele>1883.5999755859375</ele>
        <time>2012-08-28T13:41:18Z</time>
      </trkpt>
      <trkpt lat="45.619244361296296" lon="7.368744984269142">
        <ele>1883.5999755859375</ele>
        <time>2012-08-28T13:41:22Z</time>
      </trkpt>
      <trkpt lat="45.619309153407812" lon="7.368589751422405">
        <ele>1885.199951171875</ele>
        <time>2012-08-28T13:41:26Z</time>
      </trkpt>
      <trkpt lat="45.619277134537697" lon="7.368394453078508">
        <ele>1882.4000244140625</ele>
        <time>2012-08-28T13:41:30Z</time>
      </trkpt>
      <trkpt lat="45.619237739592791" lon="7.368291774764657">
        <ele>1880</ele>
        <time>2012-08-28T13:41:33Z</time>
      </trkpt>
      <trkpt lat="45.619205553084612" lon="7.368264617398381">
        <ele>1878.5999755859375</ele>
        <time>2012-08-28T13:41:34Z</time>
      </trkpt>
      <trkpt lat="45.619186526164412" lon="7.368216756731272">
        <ele>1877.800048828125</ele>
        <time>2012-08-28T13:41:35Z</time>
      </trkpt>
      <trkpt lat="45.619191639125347" lon="7.3681824747473">
        <ele>1878</ele>
        <time>2012-08-28T13:41:36Z</time>
      </trkpt>
      <trkpt lat="45.619127349928021" lon="7.368082227185369">
        <ele>1874.5999755859375</ele>
        <time>2012-08-28T13:41:39Z</time>
      </trkpt>
      <trkpt lat="45.619083177298307" lon="7.36786094494164">
        <ele>1872</ele>
        <time>2012-08-28T13:41:43Z</time>
      </trkpt>
      <trkpt lat="45.619045710191131" lon="7.367735719308257">
        <ele>1870</ele>
        <time>2012-08-28T13:41:45Z</time>
      </trkpt>
      <trkpt lat="45.619039256125689" lon="7.367553329095244">
        <ele>1869.800048828125</ele>
        <time>2012-08-28T13:41:48Z</time>
      </trkpt>
      <trkpt lat="45.619060294702649" lon="7.367439586669207">
        <ele>1871</ele>
        <time>2012-08-28T13:41:50Z</time>
      </trkpt>
      <trkpt lat="45.619065575301647" lon="7.367263482883573">
        <ele>1872</ele>
        <time>2012-08-28T13:41:53Z</time>
      </trkpt>
      <trkpt lat="45.619010338559747" lon="7.367067094892263">
        <ele>1870.4000244140625</ele>
        <time>2012-08-28T13:41:57Z</time>
      </trkpt>
      <trkpt lat="45.619003213942051" lon="7.366833658888936">
        <ele>1871.199951171875</ele>
        <time>2012-08-28T13:42:01Z</time>
      </trkpt>
      <trkpt lat="45.619009919464588" lon="7.366662248969078">
        <ele>1872.4000244140625</ele>
        <time>2012-08-28T13:42:04Z</time>
      </trkpt>
      <trkpt lat="45.619027689099312" lon="7.366478517651558">
        <ele>1872.5999755859375</ele>
        <time>2012-08-28T13:42:08Z</time>
      </trkpt>
      <trkpt lat="45.619021067395806" lon="7.366459909826517">
        <ele>1872.199951171875</ele>
        <time>2012-08-28T13:42:09Z</time>
      </trkpt>
      <trkpt lat="45.619008745998144" lon="7.366437027230859">
        <ele>1871.800048828125</ele>
        <time>2012-08-28T13:42:11Z</time>
      </trkpt>
      <trkpt lat="45.618995586410165" lon="7.366402577608824">
        <ele>1871.199951171875</ele>
        <time>2012-08-28T13:42:14Z</time>
      </trkpt>
      <trkpt lat="45.618961807340384" lon="7.366303252056241">
        <ele>1869.800048828125</ele>
        <time>2012-08-28T13:42:17Z</time>
      </trkpt>
      <trkpt lat="45.618948396295309" lon="7.366131003946066">
        <ele>1869</ele>
        <time>2012-08-28T13:42:20Z</time>
      </trkpt>
      <trkpt lat="45.618929956108332" lon="7.366079455241561">
        <ele>1868.4000244140625</ele>
        <time>2012-08-28T13:42:21Z</time>
      </trkpt>
      <trkpt lat="45.618867259472609" lon="7.365872506052256">
        <ele>1866</ele>
        <time>2012-08-28T13:42:25Z</time>
      </trkpt>
      <trkpt lat="45.618849070742726" lon="7.365758093073964">
        <ele>1865.4000244140625</ele>
        <time>2012-08-28T13:42:28Z</time>
      </trkpt>
      <trkpt lat="45.618852004408836" lon="7.365708472207189">
        <ele>1865.4000244140625</ele>
        <time>2012-08-28T13:42:29Z</time>
      </trkpt>
      <trkpt lat="45.618833648040891" lon="7.365571595728397">
        <ele>1864.800048828125</ele>
        <time>2012-08-28T13:42:32Z</time>
      </trkpt>
      <trkpt lat="45.618810765445232" lon="7.365501774474978">
        <ele>1864</ele>
        <time>2012-08-28T13:42:33Z</time>
      </trkpt>
      <trkpt lat="45.6187813449651" lon="7.365244869142771">
        <ele>1862.800048828125</ele>
        <time>2012-08-28T13:42:37Z</time>
      </trkpt>
      <trkpt lat="45.618764078244567" lon="7.365219136700034">
        <ele>1862.199951171875</ele>
        <time>2012-08-28T13:42:39Z</time>
      </trkpt>
      <trkpt lat="45.618751924484968" lon="7.365216035395861">
        <ele>1861.800048828125</ele>
        <time>2012-08-28T13:42:40Z</time>
      </trkpt>
      <trkpt lat="45.61876080930233" lon="7.365139760077">
        <ele>1862</ele>
        <time>2012-08-28T13:42:44Z</time>
      </trkpt>
      <trkpt lat="45.618709176778793" lon="7.365028616040945">
        <ele>1860.199951171875</ele>
        <time>2012-08-28T13:42:47Z</time>
      </trkpt>
      <trkpt lat="45.618676487356424" lon="7.364976480603218">
        <ele>1859.4000244140625</ele>
        <time>2012-08-28T13:42:48Z</time>
      </trkpt>
      <trkpt lat="45.618671625852585" lon="7.364857960492373">
        <ele>1860.199951171875</ele>
        <time>2012-08-28T13:42:50Z</time>
      </trkpt>
      <trkpt lat="45.618632733821869" lon="7.364745223894715">
        <ele>1859.800048828125</ele>
        <time>2012-08-28T13:42:53Z</time>
      </trkpt>
      <trkpt lat="45.618513459339738" lon="7.364553948864341">
        <ele>1857</ele>
        <time>2012-08-28T13:42:58Z</time>
      </trkpt>
      <trkpt lat="45.618386976420879" lon="7.364261085167527">
        <ele>1854.4000244140625</ele>
        <time>2012-08-28T13:43:04Z</time>
      </trkpt>
      <trkpt lat="45.618296451866627" lon="7.363984063267708">
        <ele>1854.5999755859375</ele>
        <time>2012-08-28T13:43:09Z</time>
      </trkpt>
      <trkpt lat="45.618242472410202" lon="7.363883815705776">
        <ele>1854.4000244140625</ele>
        <time>2012-08-28T13:43:12Z</time>
      </trkpt>
      <trkpt lat="45.618190756067634" lon="7.363771749660373">
        <ele>1854.5999755859375</ele>
        <time>2012-08-28T13:43:14Z</time>
      </trkpt>
      <trkpt lat="45.618171058595181" lon="7.363706789910793">
        <ele>1854.800048828125</ele>
        <time>2012-08-28T13:43:15Z</time>
      </trkpt>
      <trkpt lat="45.61816368252039" lon="7.363636968657374">
        <ele>1855.4000244140625</ele>
        <time>2012-08-28T13:43:16Z</time>
      </trkpt>
      <trkpt lat="45.618145912885666" lon="7.363535882905126">
        <ele>1856.199951171875</ele>
        <time>2012-08-28T13:43:18Z</time>
      </trkpt>
      <trkpt lat="45.618114396929741" lon="7.363434713333845">
        <ele>1856.5999755859375</ele>
        <time>2012-08-28T13:43:20Z</time>
      </trkpt>
      <trkpt lat="45.618054298684001" lon="7.363333040848374">
        <ele>1856</ele>
        <time>2012-08-28T13:43:22Z</time>
      </trkpt>
      <trkpt lat="45.617969641461968" lon="7.363215275108814">
        <ele>1852.5999755859375</ele>
        <time>2012-08-28T13:43:24Z</time>
      </trkpt>
      <trkpt lat="45.617672335356474" lon="7.362879915162921">
        <ele>1841.5999755859375</ele>
        <time>2012-08-28T13:43:30Z</time>
      </trkpt>
      <trkpt lat="45.6175172701478" lon="7.362743709236383">
        <ele>1836.199951171875</ele>
        <time>2012-08-28T13:43:34Z</time>
      </trkpt>
      <trkpt lat="45.617478042840958" lon="7.362648909911513">
        <ele>1834.800048828125</ele>
        <time>2012-08-28T13:43:37Z</time>
      </trkpt>
      <trkpt lat="45.617537973448634" lon="7.362529803067446">
        <ele>1835.199951171875</ele>
        <time>2012-08-28T13:43:41Z</time>
      </trkpt>
      <trkpt lat="45.617604022845626" lon="7.362459562718868">
        <ele>1836.199951171875</ele>
        <time>2012-08-28T13:43:43Z</time>
      </trkpt>
      <trkpt lat="45.617677364498377" lon="7.36236828379333">
        <ele>1836.5999755859375</ele>
        <time>2012-08-28T13:43:45Z</time>
      </trkpt>
      <trkpt lat="45.617784904316068" lon="7.362115904688835">
        <ele>1835.199951171875</ele>
        <time>2012-08-28T13:43:49Z</time>
      </trkpt>
      <trkpt lat="45.617832262068987" lon="7.361956899985671">
        <ele>1833.5999755859375</ele>
        <time>2012-08-28T13:43:51Z</time>
      </trkpt>
      <trkpt lat="45.617889342829585" lon="7.36168515868485">
        <ele>1830.5999755859375</ele>
        <time>2012-08-28T13:43:54Z</time>
      </trkpt>
      <trkpt lat="45.618011131882668" lon="7.361021647229791">
        <ele>1820.199951171875</ele>
        <time>2012-08-28T13:44:00Z</time>
      </trkpt>
      <trkpt lat="45.618052622303367" lon="7.360888374969363">
        <ele>1818.4000244140625</ele>
        <time>2012-08-28T13:44:01Z</time>
      </trkpt>
      <trkpt lat="45.61816074885428" lon="7.360639851540327">
        <ele>1816.199951171875</ele>
        <time>2012-08-28T13:44:03Z</time>
      </trkpt>
      <trkpt lat="45.618303576484323" lon="7.360381772741675">
        <ele>1813.800048828125</ele>
        <time>2012-08-28T13:44:06Z</time>
      </trkpt>
      <trkpt lat="45.618410361930728" lon="7.360220421105623">
        <ele>1813.800048828125</ele>
        <time>2012-08-28T13:44:08Z</time>
      </trkpt>
      <trkpt lat="45.618474064394832" lon="7.360055884346366">
        <ele>1812.5999755859375</ele>
        <time>2012-08-28T13:44:10Z</time>
      </trkpt>
      <trkpt lat="45.618609096854925" lon="7.359832255169749">
        <ele>1813.800048828125</ele>
        <time>2012-08-28T13:44:13Z</time>
      </trkpt>
      <trkpt lat="45.618665423244238" lon="7.359774168580771">
        <ele>1814.5999755859375</ele>
        <time>2012-08-28T13:44:14Z</time>
      </trkpt>
      <trkpt lat="45.6188262719661" lon="7.359618600457907">
        <ele>1816.4000244140625</ele>
        <time>2012-08-28T13:44:18Z</time>
      </trkpt>
      <trkpt lat="45.618845801800489" lon="7.359565794467926">
        <ele>1815.800048828125</ele>
        <time>2012-08-28T13:44:19Z</time>
      </trkpt>
      <trkpt lat="45.618824595585465" lon="7.359412321820855">
        <ele>1812.199951171875</ele>
        <time>2012-08-28T13:44:21Z</time>
      </trkpt>
      <trkpt lat="45.61878620646894" lon="7.359280809760094">
        <ele>1808.800048828125</ele>
        <time>2012-08-28T13:44:23Z</time>
      </trkpt>
      <trkpt lat="45.618732813745737" lon="7.359049553051591">
        <ele>1805.800048828125</ele>
        <time>2012-08-28T13:44:26Z</time>
      </trkpt>
      <trkpt lat="45.618555033579469" lon="7.358440775424242">
        <ele>1804.199951171875</ele>
        <time>2012-08-28T13:44:34Z</time>
      </trkpt>
      <trkpt lat="45.618436681106687" lon="7.357977088540793">
        <ele>1804.5999755859375</ele>
        <time>2012-08-28T13:44:40Z</time>
      </trkpt>
      <trkpt lat="45.618285555392504" lon="7.357756728306413">
        <ele>1803.5999755859375</ele>
        <time>2012-08-28T13:44:44Z</time>
      </trkpt>
      <trkpt lat="45.618205592036247" lon="7.357628401368856">
        <ele>1803</ele>
        <time>2012-08-28T13:44:47Z</time>
      </trkpt>
      <trkpt lat="45.618168208748102" lon="7.357556568458676">
        <ele>1802.800048828125</ele>
        <time>2012-08-28T13:44:49Z</time>
      </trkpt>
      <trkpt lat="45.618134262040257" lon="7.357499403879046">
        <ele>1802.5999755859375</ele>
        <time>2012-08-28T13:44:53Z</time>
      </trkpt>
      <trkpt lat="45.618066200986505" lon="7.357361521571875">
        <ele>1802.199951171875</ele>
        <time>2012-08-28T13:44:58Z</time>
      </trkpt>
      <trkpt lat="45.618017669767141" lon="7.35721081495285">
        <ele>1802.199951171875</ele>
        <time>2012-08-28T13:45:04Z</time>
      </trkpt>
      <trkpt lat="45.617973413318396" lon="7.357077794149518">
        <ele>1802.199951171875</ele>
        <time>2012-08-28T13:45:09Z</time>
      </trkpt>
      <trkpt lat="45.617931671440601" lon="7.356887357309461">
        <ele>1802.4000244140625</ele>
        <time>2012-08-28T13:45:14Z</time>
      </trkpt>
      <trkpt lat="45.61790325678885" lon="7.356625506654382">
        <ele>1803</ele>
        <time>2012-08-28T13:45:20Z</time>
      </trkpt>
      <trkpt lat="45.61789445579052" lon="7.3565882910043">
        <ele>1803</ele>
        <time>2012-08-28T13:45:23Z</time>
      </trkpt>
      <trkpt lat="45.617876183241606" lon="7.356567503884435">
        <ele>1802.800048828125</ele>
        <time>2012-08-28T13:45:31Z</time>
      </trkpt>
      <trkpt lat="45.61785195954144" lon="7.356476644054055">
        <ele>1802.800048828125</ele>
        <time>2012-08-28T13:45:38Z</time>
      </trkpt>
      <trkpt lat="45.617806361988187" lon="7.356291906908155">
        <ele>1802.5999755859375</ele>
        <time>2012-08-28T13:45:43Z</time>
      </trkpt>
      <trkpt lat="45.617698319256306" lon="7.356042712926865">
        <ele>1802.199951171875</ele>
        <time>2012-08-28T13:45:49Z</time>
      </trkpt>
      <trkpt lat="45.617565298452973" lon="7.35576150007546">
        <ele>1802</ele>
        <time>2012-08-28T13:45:57Z</time>
      </trkpt>
      <trkpt lat="45.617470666766167" lon="7.355619426816702">
        <ele>1801.800048828125</ele>
        <time>2012-08-28T13:46:02Z</time>
      </trkpt>
      <trkpt lat="45.617334041744471" lon="7.355583049356937">
        <ele>1800.800048828125</ele>
        <time>2012-08-28T13:46:07Z</time>
      </trkpt>
      <trkpt lat="45.617083171382546" lon="7.355638956651092">
        <ele>1798.5999755859375</ele>
        <time>2012-08-28T13:46:15Z</time>
      </trkpt>
      <trkpt lat="45.616908241063356" lon="7.35572730191052">
        <ele>1797</ele>
        <time>2012-08-28T13:46:20Z</time>
      </trkpt>
      <trkpt lat="45.616729203611612" lon="7.355782622471452">
        <ele>1795.5999755859375</ele>
        <time>2012-08-28T13:46:26Z</time>
      </trkpt>
      <trkpt lat="45.616554021835327" lon="7.35587390139699">
        <ele>1792.5999755859375</ele>
        <time>2012-08-28T13:46:33Z</time>
      </trkpt>
      <trkpt lat="45.616394346579909" lon="7.355864010751247">
        <ele>1789.5999755859375</ele>
        <time>2012-08-28T13:46:38Z</time>
      </trkpt>
      <trkpt lat="45.616255709901452" lon="7.355794608592987">
        <ele>1787</ele>
        <time>2012-08-28T13:46:43Z</time>
      </trkpt>
      <trkpt lat="45.616166274994612" lon="7.355686817318201">
        <ele>1784.800048828125</ele>
        <time>2012-08-28T13:46:48Z</time>
      </trkpt>
      <trkpt lat="45.616158144548535" lon="7.355623785406351">
        <ele>1784.199951171875</ele>
        <time>2012-08-28T13:46:52Z</time>
      </trkpt>
      <trkpt lat="45.616145906969905" lon="7.355587659403682">
        <ele>1783.800048828125</ele>
        <time>2012-08-28T13:46:57Z</time>
      </trkpt>
      <trkpt lat="45.61608069576323" lon="7.355590425431728">
        <ele>1782.4000244140625</ele>
        <time>2012-08-28T13:47:00Z</time>
      </trkpt>
      <trkpt lat="45.615952452644706" lon="7.355675334110856">
        <ele>1780.199951171875</ele>
        <time>2012-08-28T13:47:04Z</time>
      </trkpt>
      <trkpt lat="45.615750616416335" lon="7.355692433193326">
        <ele>1773.5999755859375</ele>
        <time>2012-08-28T13:47:09Z</time>
      </trkpt>
      <trkpt lat="45.61572446487844" lon="7.355691930279136">
        <ele>1772.199951171875</ele>
        <time>2012-08-28T13:47:13Z</time>
      </trkpt>
      <trkpt lat="45.615697894245386" lon="7.355592185631394">
        <ele>1770.199951171875</ele>
        <time>2012-08-28T13:47:26Z</time>
      </trkpt>
      <trkpt lat="45.615698480978608" lon="7.355378363281488">
        <ele>1768.800048828125</ele>
        <time>2012-08-28T13:47:29Z</time>
      </trkpt>
      <trkpt lat="45.615732595324516" lon="7.354842759668827">
        <ele>1766.199951171875</ele>
        <time>2012-08-28T13:47:35Z</time>
      </trkpt>
      <trkpt lat="45.615726392716169" lon="7.354663303121924">
        <ele>1764</ele>
        <time>2012-08-28T13:47:37Z</time>
      </trkpt>
      <trkpt lat="45.615699402987957" lon="7.354417378082871">
        <ele>1760.5999755859375</ele>
        <time>2012-08-28T13:47:40Z</time>
      </trkpt>
      <trkpt lat="45.615711724385619" lon="7.354336408898234">
        <ele>1760.199951171875</ele>
        <time>2012-08-28T13:47:41Z</time>
      </trkpt>
      <trkpt lat="45.615755645558238" lon="7.354165837168694">
        <ele>1760</ele>
        <time>2012-08-28T13:47:43Z</time>
      </trkpt>
      <trkpt lat="45.615873243659735" lon="7.353888396173716">
        <ele>1759.800048828125</ele>
        <time>2012-08-28T13:47:46Z</time>
      </trkpt>
      <trkpt lat="45.615915823727846" lon="7.353785634040833">
        <ele>1759.4000244140625</ele>
        <time>2012-08-28T13:47:47Z</time>
      </trkpt>
      <trkpt lat="45.616053203120828" lon="7.353424290195108">
        <ele>1757.5999755859375</ele>
        <time>2012-08-28T13:47:51Z</time>
      </trkpt>
      <trkpt lat="45.616069380193949" lon="7.353349272161722">
        <ele>1756.800048828125</ele>
        <time>2012-08-28T13:47:52Z</time>
      </trkpt>
      <trkpt lat="45.616060914471745" lon="7.353230668231845">
        <ele>1754.199951171875</ele>
        <time>2012-08-28T13:47:54Z</time>
      </trkpt>
      <trkpt lat="45.616049766540527" lon="7.352994717657566">
        <ele>1749</ele>
        <time>2012-08-28T13:47:58Z</time>
      </trkpt>
      <trkpt lat="45.616062842309475" lon="7.352933781221509">
        <ele>1748.199951171875</ele>
        <time>2012-08-28T13:47:59Z</time>
      </trkpt>
      <trkpt lat="45.616068122908473" lon="7.352868570014834">
        <ele>1747</ele>
        <time>2012-08-28T13:48:00Z</time>
      </trkpt>
      <trkpt lat="45.616093520075083" lon="7.352637983858585">
        <ele>1743.199951171875</ele>
        <time>2012-08-28T13:48:03Z</time>
      </trkpt>
      <trkpt lat="45.616127802059054" lon="7.352328272536397">
        <ele>1738.199951171875</ele>
        <time>2012-08-28T13:48:07Z</time>
      </trkpt>
      <trkpt lat="45.616166526451707" lon="7.352073797956109">
        <ele>1734.800048828125</ele>
        <time>2012-08-28T13:48:09Z</time>
      </trkpt>
      <trkpt lat="45.616193516179919" lon="7.351948656141758">
        <ele>1733.4000244140625</ele>
        <time>2012-08-28T13:48:10Z</time>
      </trkpt>
      <trkpt lat="45.616341540589929" lon="7.351459823548794">
        <ele>1730.800048828125</ele>
        <time>2012-08-28T13:48:14Z</time>
      </trkpt>
      <trkpt lat="45.616444386541843" lon="7.351198391988874">
        <ele>1730.800048828125</ele>
        <time>2012-08-28T13:48:17Z</time>
      </trkpt>
      <trkpt lat="45.616561900824308" lon="7.350744092836976">
        <ele>1728</ele>
        <time>2012-08-28T13:48:21Z</time>
      </trkpt>
      <trkpt lat="45.616700537502766" lon="7.350300019606948">
        <ele>1725.4000244140625</ele>
        <time>2012-08-28T13:48:25Z</time>
      </trkpt>
      <trkpt lat="45.616735741496086" lon="7.350194491446018">
        <ele>1725.4000244140625</ele>
        <time>2012-08-28T13:48:26Z</time>
      </trkpt>
      <trkpt lat="45.616830289363861" lon="7.34979048371315">
        <ele>1722.800048828125</ele>
        <time>2012-08-28T13:48:29Z</time>
      </trkpt>
      <trkpt lat="45.616976553574204" lon="7.34925739467144">
        <ele>1721.199951171875</ele>
        <time>2012-08-28T13:48:33Z</time>
      </trkpt>
      <trkpt lat="45.617142599076033" lon="7.348538311198354">
        <ele>1715.199951171875</ele>
        <time>2012-08-28T13:48:38Z</time>
      </trkpt>
      <trkpt lat="45.61732666566968" lon="7.347999522462487">
        <ele>1712</ele>
        <time>2012-08-28T13:48:42Z</time>
      </trkpt>
      <trkpt lat="45.617536129429936" lon="7.347561232745647">
        <ele>1711.199951171875</ele>
        <time>2012-08-28T13:48:46Z</time>
      </trkpt>
      <trkpt lat="45.617589941248298" lon="7.347318828105927">
        <ele>1707.5999755859375</ele>
        <time>2012-08-28T13:48:49Z</time>
      </trkpt>
      <trkpt lat="45.617644507437944" lon="7.346987826749682">
        <ele>1701.4000244140625</ele>
        <time>2012-08-28T13:48:52Z</time>
      </trkpt>
      <trkpt lat="45.617675520479679" lon="7.346893027424812">
        <ele>1700.4000244140625</ele>
        <time>2012-08-28T13:48:53Z</time>
      </trkpt>
      <trkpt lat="45.61780652962625" lon="7.346536964178085">
        <ele>1698.199951171875</ele>
        <time>2012-08-28T13:48:57Z</time>
      </trkpt>
      <trkpt lat="45.617970144376159" lon="7.346271676942706">
        <ele>1700.5999755859375</ele>
        <time>2012-08-28T13:49:00Z</time>
      </trkpt>
      <trkpt lat="45.618037702515721" lon="7.346175368875265">
        <ele>1701.4000244140625</ele>
        <time>2012-08-28T13:49:01Z</time>
      </trkpt>
      <trkpt lat="45.618102997541428" lon="7.346097333356738">
        <ele>1702.5999755859375</ele>
        <time>2012-08-28T13:49:02Z</time>
      </trkpt>
      <trkpt lat="45.618172818794847" lon="7.345853839069605">
        <ele>1699.199951171875</ele>
        <time>2012-08-28T13:49:04Z</time>
      </trkpt>
      <trkpt lat="45.618325956165791" lon="7.345557790249586">
        <ele>1699.4000244140625</ele>
        <time>2012-08-28T13:49:08Z</time>
      </trkpt>
      <trkpt lat="45.618329308927059" lon="7.345568602904677">
        <ele>1699.800048828125</ele>
        <time>2012-08-28T13:49:11Z</time>
      </trkpt>
      <trkpt lat="45.618329392746091" lon="7.345453267917037">
        <ele>1697.199951171875</ele>
        <time>2012-08-28T13:49:54Z</time>
      </trkpt>
      <trkpt lat="45.618409691378474" lon="7.345339106395841">
        <ele>1698.199951171875</ele>
        <time>2012-08-28T13:49:59Z</time>
      </trkpt>
      <trkpt lat="45.618521841242909" lon="7.345159398391843">
        <ele>1699.199951171875</ele>
        <time>2012-08-28T13:50:03Z</time>
      </trkpt>
      <trkpt lat="45.61865821480751" lon="7.344808112829924">
        <ele>1696.5999755859375</ele>
        <time>2012-08-28T13:50:07Z</time>
      </trkpt>
      <trkpt lat="45.618843287229538" lon="7.344364793971181">
        <ele>1692.4000244140625</ele>
        <time>2012-08-28T13:50:11Z</time>
      </trkpt>
      <trkpt lat="45.619032718241215" lon="7.344129513949156">
        <ele>1693.199951171875</ele>
        <time>2012-08-28T13:50:14Z</time>
      </trkpt>
      <trkpt lat="45.619227346032858" lon="7.343958942219615">
        <ele>1696.5999755859375</ele>
        <time>2012-08-28T13:50:17Z</time>
      </trkpt>
      <trkpt lat="45.619377549737692" lon="7.343828519806266">
        <ele>1699.800048828125</ele>
        <time>2012-08-28T13:50:19Z</time>
      </trkpt>
      <trkpt lat="45.619524149224162" lon="7.343630036339164">
        <ele>1701.5999755859375</ele>
        <time>2012-08-28T13:50:22Z</time>
      </trkpt>
      <trkpt lat="45.619508810341358" lon="7.343512438237667">
        <ele>1698.5999755859375</ele>
        <time>2012-08-28T13:50:23Z</time>
      </trkpt>
      <trkpt lat="45.61952012591064" lon="7.343207001686096">
        <ele>1692.4000244140625</ele>
        <time>2012-08-28T13:50:26Z</time>
      </trkpt>
      <trkpt lat="45.619544684886932" lon="7.34310113824904">
        <ele>1691</ele>
        <time>2012-08-28T13:50:27Z</time>
      </trkpt>
      <trkpt lat="45.61963596381247" lon="7.342908270657063">
        <ele>1690.5999755859375</ele>
        <time>2012-08-28T13:50:30Z</time>
      </trkpt>
      <trkpt lat="45.619727578014135" lon="7.342793270945549">
        <ele>1691.5999755859375</ele>
        <time>2012-08-28T13:50:32Z</time>
      </trkpt>
      <trkpt lat="45.619789268821478" lon="7.342781620100141">
        <ele>1694</ele>
        <time>2012-08-28T13:50:33Z</time>
      </trkpt>
      <trkpt lat="45.619812402874231" lon="7.342720096930862">
        <ele>1693.5999755859375</ele>
        <time>2012-08-28T13:50:34Z</time>
      </trkpt>
      <trkpt lat="45.619793208315969" lon="7.342523625120521">
        <ele>1688.199951171875</ele>
        <time>2012-08-28T13:50:38Z</time>
      </trkpt>
      <trkpt lat="45.619725482538342" lon="7.342292033135891">
        <ele>1679.199951171875</ele>
        <time>2012-08-28T13:50:40Z</time>
      </trkpt>
      <trkpt lat="45.619690781459212" lon="7.34220058657229">
        <ele>1675.4000244140625</ele>
        <time>2012-08-28T13:50:41Z</time>
      </trkpt>
      <trkpt lat="45.61967846006155" lon="7.341832704842091">
        <ele>1664.800048828125</ele>
        <time>2012-08-28T13:50:45Z</time>
      </trkpt>
      <trkpt lat="45.619742833077908" lon="7.341699432581663">
        <ele>1664.199951171875</ele>
        <time>2012-08-28T13:50:47Z</time>
      </trkpt>
      <trkpt lat="45.619759345427155" lon="7.341631455346942">
        <ele>1663</ele>
        <time>2012-08-28T13:50:48Z</time>
      </trkpt>
      <trkpt lat="45.619759932160378" lon="7.341567752882838">
        <ele>1661</ele>
        <time>2012-08-28T13:50:49Z</time>
      </trkpt>
      <trkpt lat="45.619788849726319" lon="7.341342279687524">
        <ele>1655.800048828125</ele>
        <time>2012-08-28T13:50:52Z</time>
      </trkpt>
      <trkpt lat="45.619810726493597" lon="7.341279163956642">
        <ele>1655.199951171875</ele>
        <time>2012-08-28T13:50:53Z</time>
      </trkpt>
      <trkpt lat="45.619886247441173" lon="7.3411207459867">
        <ele>1654.800048828125</ele>
        <time>2012-08-28T13:50:56Z</time>
      </trkpt>
      <trkpt lat="45.619923630729318" lon="7.341084536164999">
        <ele>1656</ele>
        <time>2012-08-28T13:50:57Z</time>
      </trkpt>
      <trkpt lat="45.619932599365711" lon="7.340914215892553">
        <ele>1652</ele>
        <time>2012-08-28T13:51:00Z</time>
      </trkpt>
      <trkpt lat="45.61984458938241" lon="7.340744817629457">
        <ele>1640.5999755859375</ele>
        <time>2012-08-28T13:51:03Z</time>
      </trkpt>
      <trkpt lat="45.619855485856533" lon="7.340539712458849">
        <ele>1632.4000244140625</ele>
        <time>2012-08-28T13:51:06Z</time>
      </trkpt>
      <trkpt lat="45.620053466409445" lon="7.340324968099594">
        <ele>1635.199951171875</ele>
        <time>2012-08-28T13:51:10Z</time>
      </trkpt>
      <trkpt lat="45.62018564902246" lon="7.340238885954022">
        <ele>1638.4000244140625</ele>
        <time>2012-08-28T13:51:12Z</time>
      </trkpt>
      <trkpt lat="45.620278436690569" lon="7.340152971446514">
        <ele>1639.800048828125</ele>
        <time>2012-08-28T13:51:14Z</time>
      </trkpt>
      <trkpt lat="45.620296122506261" lon="7.340070158243179">
        <ele>1637.5999755859375</ele>
        <time>2012-08-28T13:51:15Z</time>
      </trkpt>
      <trkpt lat="45.620344150811434" lon="7.339937053620815">
        <ele>1635.5999755859375</ele>
        <time>2012-08-28T13:51:17Z</time>
      </trkpt>
      <trkpt lat="45.620402824133635" lon="7.339769080281258">
        <ele>1633.199951171875</ele>
        <time>2012-08-28T13:51:20Z</time>
      </trkpt>
      <trkpt lat="45.620423024520278" lon="7.339729350060225">
        <ele>1633</ele>
        <time>2012-08-28T13:51:21Z</time>
      </trkpt>
      <trkpt lat="45.620474657043815" lon="7.339594820514321">
        <ele>1631.800048828125</ele>
        <time>2012-08-28T13:51:25Z</time>
      </trkpt>
      <trkpt lat="45.62048027291894" lon="7.339552827179432">
        <ele>1630.5999755859375</ele>
        <time>2012-08-28T13:51:26Z</time>
      </trkpt>
      <trkpt lat="45.620442889630795" lon="7.339277733117342">
        <ele>1619.5999755859375</ele>
        <time>2012-08-28T13:51:30Z</time>
      </trkpt>
      <trkpt lat="45.620440458878875" lon="7.339217131957412">
        <ele>1617.5999755859375</ele>
        <time>2012-08-28T13:51:31Z</time>
      </trkpt>
      <trkpt lat="45.620494773611426" lon="7.339060977101326">
        <ele>1615</ele>
        <time>2012-08-28T13:51:33Z</time>
      </trkpt>
      <trkpt lat="45.620526038110256" lon="7.338975900784135">
        <ele>1613.5999755859375</ele>
        <time>2012-08-28T13:51:34Z</time>
      </trkpt>
      <trkpt lat="45.620569791644812" lon="7.338809771463275">
        <ele>1609.5999755859375</ele>
        <time>2012-08-28T13:51:36Z</time>
      </trkpt>
      <trkpt lat="45.620658723637462" lon="7.338570887222886">
        <ele>1605.4000244140625</ele>
        <time>2012-08-28T13:51:39Z</time>
      </trkpt>
      <trkpt lat="45.620714882388711" lon="7.33846259303391">
        <ele>1604.199951171875</ele>
        <time>2012-08-28T13:51:41Z</time>
      </trkpt>
      <trkpt lat="45.620729047805071" lon="7.338398136198521">
        <ele>1602.4000244140625</ele>
        <time>2012-08-28T13:51:42Z</time>
      </trkpt>
      <trkpt lat="45.620745895430446" lon="7.338340384885669">
        <ele>1601.199951171875</ele>
        <time>2012-08-28T13:51:43Z</time>
      </trkpt>
      <trkpt lat="45.620870450511575" lon="7.33815036714077">
        <ele>1598.800048828125</ele>
        <time>2012-08-28T13:51:47Z</time>
      </trkpt>
      <trkpt lat="45.620934152975678" lon="7.33799597248435">
        <ele>1594</ele>
        <time>2012-08-28T13:51:49Z</time>
      </trkpt>
      <trkpt lat="45.620988719165325" lon="7.337864292785525">
        <ele>1589.800048828125</ele>
        <time>2012-08-28T13:51:51Z</time>
      </trkpt>
      <trkpt lat="45.621120817959309" lon="7.337669497355819">
        <ele>1585.199951171875</ele>
        <time>2012-08-28T13:51:55Z</time>
      </trkpt>
      <trkpt lat="45.621152920648456" lon="7.337662121281028">
        <ele>1586.199951171875</ele>
        <time>2012-08-28T13:51:56Z</time>
      </trkpt>
      <trkpt lat="45.621248139068484" lon="7.337542595341802">
        <ele>1583.5999755859375</ele>
        <time>2012-08-28T13:52:00Z</time>
      </trkpt>
      <trkpt lat="45.621307147666812" lon="7.337463134899736">
        <ele>1582.199951171875</ele>
        <time>2012-08-28T13:52:02Z</time>
      </trkpt>
      <trkpt lat="45.62138082459569" lon="7.337350398302078">
        <ele>1580.199951171875</ele>
        <time>2012-08-28T13:52:04Z</time>
      </trkpt>
      <trkpt lat="45.621414184570313" lon="7.337293401360512">
        <ele>1579.199951171875</ele>
        <time>2012-08-28T13:52:05Z</time>
      </trkpt>
      <trkpt lat="45.621579978615046" lon="7.337142778560519">
        <ele>1578.5999755859375</ele>
        <time>2012-08-28T13:52:08Z</time>
      </trkpt>
      <trkpt lat="45.621685171499848" lon="7.337031802162528">
        <ele>1577</ele>
        <time>2012-08-28T13:52:10Z</time>
      </trkpt>
      <trkpt lat="45.621844930574298" lon="7.336938427761197">
        <ele>1574.4000244140625</ele>
        <time>2012-08-28T13:52:12Z</time>
      </trkpt>
      <trkpt lat="45.622235611081123" lon="7.336729886010289">
        <ele>1569.800048828125</ele>
        <time>2012-08-28T13:52:17Z</time>
      </trkpt>
      <trkpt lat="45.622293027117848" lon="7.336723348125815">
        <ele>1570</ele>
        <time>2012-08-28T13:52:18Z</time>
      </trkpt>
      <trkpt lat="45.622297720983624" lon="7.336695184931159">
        <ele>1569</ele>
        <time>2012-08-28T13:52:20Z</time>
      </trkpt>
      <trkpt lat="45.622314317151904" lon="7.336704069748521">
        <ele>1569.5999755859375</ele>
        <time>2012-08-28T13:52:21Z</time>
      </trkpt>
      <trkpt lat="45.622272742912173" lon="7.33667716383934">
        <ele>1568</ele>
        <time>2012-08-28T13:52:23Z</time>
      </trkpt>
      <trkpt lat="45.622234437614679" lon="7.336661322042346">
        <ele>1567</ele>
        <time>2012-08-28T13:52:24Z</time>
      </trkpt>
      <trkpt lat="45.622142404317856" lon="7.33666442334652">
        <ele>1566</ele>
        <time>2012-08-28T13:52:26Z</time>
      </trkpt>
      <trkpt lat="45.622022291645408" lon="7.336670877411962">
        <ele>1565</ele>
        <time>2012-08-28T13:52:28Z</time>
      </trkpt>
      <trkpt lat="45.62187921255827" lon="7.336697112768889">
        <ele>1564.5999755859375</ele>
        <time>2012-08-28T13:52:30Z</time>
      </trkpt>
      <trkpt lat="45.621596742421389" lon="7.336612371727824">
        <ele>1557.4000244140625</ele>
        <time>2012-08-28T13:52:34Z</time>
      </trkpt>
      <trkpt lat="45.62154402025044" lon="7.336571551859379">
        <ele>1554.800048828125</ele>
        <time>2012-08-28T13:52:35Z</time>
      </trkpt>
      <trkpt lat="45.621388116851449" lon="7.336454624310136">
        <ele>1547.5999755859375</ele>
        <time>2012-08-28T13:52:38Z</time>
      </trkpt>
      <trkpt lat="45.621287534013391" lon="7.336411289870739">
        <ele>1544</ele>
        <time>2012-08-28T13:52:40Z</time>
      </trkpt>
      <trkpt lat="45.621202792972326" lon="7.336361669003964">
        <ele>1541</ele>
        <time>2012-08-28T13:52:42Z</time>
      </trkpt>
      <trkpt lat="45.621118973940611" lon="7.336321268230677">
        <ele>1538.199951171875</ele>
        <time>2012-08-28T13:52:44Z</time>
      </trkpt>
      <trkpt lat="45.620949575677514" lon="7.336323615163565">
        <ele>1534.5999755859375</ele>
        <time>2012-08-28T13:52:47Z</time>
      </trkpt>
      <trkpt lat="45.620910013094544" lon="7.336321519687772">
        <ele>1533.5999755859375</ele>
        <time>2012-08-28T13:52:48Z</time>
      </trkpt>
      <trkpt lat="45.620879251509905" lon="7.336337696760893">
        <ele>1533.199951171875</ele>
        <time>2012-08-28T13:52:49Z</time>
      </trkpt>
      <trkpt lat="45.620850920677185" lon="7.336389413103461">
        <ele>1533</ele>
        <time>2012-08-28T13:52:50Z</time>
      </trkpt>
      <trkpt lat="45.620776154100895" lon="7.336579766124487">
        <ele>1533.5999755859375</ele>
        <time>2012-08-28T13:52:53Z</time>
      </trkpt>
      <trkpt lat="45.620724521577358" lon="7.336631566286087">
        <ele>1532.800048828125</ele>
        <time>2012-08-28T13:52:56Z</time>
      </trkpt>
      <trkpt lat="45.620712116360664" lon="7.33655990101397">
        <ele>1531.800048828125</ele>
        <time>2012-08-28T13:52:57Z</time>
      </trkpt>
      <trkpt lat="45.620608935132623" lon="7.336549004539847">
        <ele>1529.199951171875</ele>
        <time>2012-08-28T13:53:01Z</time>
      </trkpt>
      <trkpt lat="45.620584040880203" lon="7.336553279310465">
        <ele>1528.5999755859375</ele>
        <time>2012-08-28T13:53:02Z</time>
      </trkpt>
      <trkpt lat="45.62037231400609" lon="7.336688982322812">
        <ele>1525</ele>
        <time>2012-08-28T13:53:08Z</time>
      </trkpt>
      <trkpt lat="45.620088838040829" lon="7.336860140785575">
        <ele>1520.800048828125</ele>
        <time>2012-08-28T13:53:12Z</time>
      </trkpt>
      <trkpt lat="45.619653649628162" lon="7.337166080251336">
        <ele>1514.5999755859375</ele>
        <time>2012-08-28T13:53:17Z</time>
      </trkpt>
      <trkpt lat="45.619244445115328" lon="7.337421225383878">
        <ele>1506.5999755859375</ele>
        <time>2012-08-28T13:53:21Z</time>
      </trkpt>
      <trkpt lat="45.619019223377109" lon="7.337611494585872">
        <ele>1503.5999755859375</ele>
        <time>2012-08-28T13:53:24Z</time>
      </trkpt>
      <trkpt lat="45.618970943614841" lon="7.337689530104399">
        <ele>1503.5999755859375</ele>
        <time>2012-08-28T13:53:25Z</time>
      </trkpt>
      <trkpt lat="45.618882346898317" lon="7.337768319994211">
        <ele>1502.5999755859375</ele>
        <time>2012-08-28T13:53:27Z</time>
      </trkpt>
      <trkpt lat="45.618820153176785" lon="7.337780641391873">
        <ele>1501.5999755859375</ele>
        <time>2012-08-28T13:53:28Z</time>
      </trkpt>
      <trkpt lat="45.618575736880302" lon="7.337715514004231">
        <ele>1496.4000244140625</ele>
        <time>2012-08-28T13:53:31Z</time>
      </trkpt>
      <trkpt lat="45.618484960868955" lon="7.337668491527438">
        <ele>1494.4000244140625</ele>
        <time>2012-08-28T13:53:32Z</time>
      </trkpt>
      <trkpt lat="45.618361243978143" lon="7.337615769356489">
        <ele>1492</ele>
        <time>2012-08-28T13:53:34Z</time>
      </trkpt>
      <trkpt lat="45.618213973939419" lon="7.337610572576523">
        <ele>1490</ele>
        <time>2012-08-28T13:53:37Z</time>
      </trkpt>
      <trkpt lat="45.618092017248273" lon="7.337777120992541">
        <ele>1489.199951171875</ele>
        <time>2012-08-28T13:53:41Z</time>
      </trkpt>
      <trkpt lat="45.618046671152115" lon="7.337894299998879">
        <ele>1489.4000244140625</ele>
        <time>2012-08-28T13:53:43Z</time>
      </trkpt>
      <trkpt lat="45.61793259344995" lon="7.338205855339766">
        <ele>1489.5999755859375</ele>
        <time>2012-08-28T13:53:48Z</time>
      </trkpt>
      <trkpt lat="45.617728913202882" lon="7.338722851127386">
        <ele>1490.5999755859375</ele>
        <time>2012-08-28T13:53:57Z</time>
      </trkpt>
      <trkpt lat="45.617638891562819" lon="7.338927201926708">
        <ele>1491</ele>
        <time>2012-08-28T13:54:01Z</time>
      </trkpt>
      <trkpt lat="45.617567813023925" lon="7.339076148346067">
        <ele>1491.199951171875</ele>
        <time>2012-08-28T13:54:04Z</time>
      </trkpt>
      <trkpt lat="45.617352649569511" lon="7.33948627486825">
        <ele>1492.4000244140625</ele>
        <time>2012-08-28T13:54:13Z</time>
      </trkpt>
      <trkpt lat="45.617137318477035" lon="7.339901179075241">
        <ele>1493.4000244140625</ele>
        <time>2012-08-28T13:54:23Z</time>
      </trkpt>
      <trkpt lat="45.617030365392566" lon="7.340113241225481">
        <ele>1494.5999755859375</ele>
        <time>2012-08-28T13:54:29Z</time>
      </trkpt>
      <trkpt lat="45.616844957694411" lon="7.340440303087235">
        <ele>1495.800048828125</ele>
        <time>2012-08-28T13:54:38Z</time>
      </trkpt>
      <trkpt lat="45.616692071780562" lon="7.340710116550326">
        <ele>1495</ele>
        <time>2012-08-28T13:54:45Z</time>
      </trkpt>
      <trkpt lat="45.616495348513126" lon="7.341089397668839">
        <ele>1499.5999755859375</ele>
        <time>2012-08-28T13:54:54Z</time>
      </trkpt>
      <trkpt lat="45.616385797038674" lon="7.341306740418077">
        <ele>1502.4000244140625</ele>
        <time>2012-08-28T13:54:59Z</time>
      </trkpt>
      <trkpt lat="45.616143560037017" lon="7.341652493923903">
        <ele>1503.4000244140625</ele>
        <time>2012-08-28T13:55:08Z</time>
      </trkpt>
      <trkpt lat="45.615823203697801" lon="7.342036720365286">
        <ele>1504.800048828125</ele>
        <time>2012-08-28T13:55:19Z</time>
      </trkpt>
      <trkpt lat="45.615538889542222" lon="7.342348359525204">
        <ele>1501.800048828125</ele>
        <time>2012-08-28T13:55:28Z</time>
      </trkpt>
      <trkpt lat="45.615328755229712" lon="7.342652203515172">
        <ele>1499.199951171875</ele>
        <time>2012-08-28T13:55:36Z</time>
      </trkpt>
      <trkpt lat="45.615164386108518" lon="7.343055875971913">
        <ele>1499.4000244140625</ele>
        <time>2012-08-28T13:55:44Z</time>
      </trkpt>
      <trkpt lat="45.615013847127557" lon="7.343463990837336">
        <ele>1498.800048828125</ele>
        <time>2012-08-28T13:55:50Z</time>
      </trkpt>
      <trkpt lat="45.614787871018052" lon="7.343918876722455">
        <ele>1499.800048828125</ele>
        <time>2012-08-28T13:55:56Z</time>
      </trkpt>
      <trkpt lat="45.614456031471491" lon="7.344517847523093">
        <ele>1496.5999755859375</ele>
        <time>2012-08-28T13:56:03Z</time>
      </trkpt>
      <trkpt lat="45.61415939591825" lon="7.344951862469316">
        <ele>1486</ele>
        <time>2012-08-28T13:56:09Z</time>
      </trkpt>
      <trkpt lat="45.613838955760002" lon="7.345206588506699">
        <ele>1488.800048828125</ele>
        <time>2012-08-28T13:56:15Z</time>
      </trkpt>
      <trkpt lat="45.613569226115942" lon="7.345342542976141">
        <ele>1489.199951171875</ele>
        <time>2012-08-28T13:56:21Z</time>
      </trkpt>
      <trkpt lat="45.613124230876565" lon="7.345589054748416">
        <ele>1490.5999755859375</ele>
        <time>2012-08-28T13:56:32Z</time>
      </trkpt>
      <trkpt lat="45.612862799316645" lon="7.34574269503355">
        <ele>1493.5999755859375</ele>
        <time>2012-08-28T13:56:39Z</time>
      </trkpt>
      <trkpt lat="45.612826002761722" lon="7.345773205161095">
        <ele>1494</ele>
        <time>2012-08-28T13:56:40Z</time>
      </trkpt>
      <trkpt lat="45.612619305029511" lon="7.345985183492303">
        <ele>1496.5999755859375</ele>
        <time>2012-08-28T13:56:47Z</time>
      </trkpt>
      <trkpt lat="45.612437250092626" lon="7.346272431313992">
        <ele>1498.4000244140625</ele>
        <time>2012-08-28T13:56:55Z</time>
      </trkpt>
      <trkpt lat="45.612294841557741" lon="7.346586417406797">
        <ele>1499.5999755859375</ele>
        <time>2012-08-28T13:57:04Z</time>
      </trkpt>
      <trkpt lat="45.612139692530036" lon="7.34693250618875">
        <ele>1501.5999755859375</ele>
        <time>2012-08-28T13:57:14Z</time>
      </trkpt>
      <trkpt lat="45.611981861293316" lon="7.347289742901921">
        <ele>1504</ele>
        <time>2012-08-28T13:57:24Z</time>
      </trkpt>
      <trkpt lat="45.611785892397165" lon="7.347730798646808">
        <ele>1507</ele>
        <time>2012-08-28T13:57:36Z</time>
      </trkpt>
      <trkpt lat="45.61162437312305" lon="7.348107397556305">
        <ele>1509.4000244140625</ele>
        <time>2012-08-28T13:57:46Z</time>
      </trkpt>
      <trkpt lat="45.611440893262625" lon="7.348547950387001">
        <ele>1509.800048828125</ele>
        <time>2012-08-28T13:57:58Z</time>
      </trkpt>
      <trkpt lat="45.611285241320729" lon="7.348915413022041">
        <ele>1509.800048828125</ele>
        <time>2012-08-28T13:58:08Z</time>
      </trkpt>
      <trkpt lat="45.611103270202875" lon="7.349324198439717">
        <ele>1510.800048828125</ele>
        <time>2012-08-28T13:58:19Z</time>
      </trkpt>
      <trkpt lat="45.611070664599538" lon="7.34943768940866">
        <ele>1511</ele>
        <time>2012-08-28T13:58:22Z</time>
      </trkpt>
      <trkpt lat="45.611064881086349" lon="7.349531399086118">
        <ele>1511.199951171875</ele>
        <time>2012-08-28T13:58:24Z</time>
      </trkpt>
      <trkpt lat="45.611037220805883" lon="7.349610272794962">
        <ele>1511.4000244140625</ele>
        <time>2012-08-28T13:58:26Z</time>
      </trkpt>
      <trkpt lat="45.61098818667233" lon="7.349716471508145">
        <ele>1512</ele>
        <time>2012-08-28T13:58:29Z</time>
      </trkpt>
      <trkpt lat="45.610838066786528" lon="7.350049233064055">
        <ele>1514.199951171875</ele>
        <time>2012-08-28T13:58:38Z</time>
      </trkpt>
      <trkpt lat="45.610683504492044" lon="7.350395238026977">
        <ele>1516</ele>
        <time>2012-08-28T13:58:47Z</time>
      </trkpt>
      <trkpt lat="45.610688365995884" lon="7.350493725389242">
        <ele>1516.199951171875</ele>
        <time>2012-08-28T13:58:50Z</time>
      </trkpt>
      <trkpt lat="45.610701022669673" lon="7.350518619641662">
        <ele>1516.4000244140625</ele>
        <time>2012-08-28T13:58:51Z</time>
      </trkpt>
      <trkpt lat="45.610820213332772" lon="7.350646695122123">
        <ele>1516.4000244140625</ele>
        <time>2012-08-28T13:58:57Z</time>
      </trkpt>
      <trkpt lat="45.610839407891035" lon="7.350657759234309">
        <ele>1516.4000244140625</ele>
        <time>2012-08-28T13:58:58Z</time>
      </trkpt>
      <trkpt lat="45.610843179747462" lon="7.350662956014276">
        <ele>1516.199951171875</ele>
        <time>2012-08-28T13:59:01Z</time>
      </trkpt>
    </trkseg>
  </trk>

</gpx>
